<?xml version="1.0" encoding="UTF-8"?>
<gpx xmlns="http://www.topografix.com/GPX/1/1" xmlns:gpsies="http://www.gpsies.com/GPX/1/0" creator="GPSies http://www.gpsies.com - Hochrh&amp;#246;nring Und Kuppenrh&amp;#246;n" version="1.1" xmlns:xsi="http://www.w3.org/2001/XMLSchema-instance" xsi:schemaLocation="http://www.topografix.com/GPX/1/1 http://www.topografix.com/GPX/1/1/gpx.xsd http://www.gpsies.com/GPX/1/0 http://www.gpsies.com/gpsies.xsd">
  <metadata>
    <name>Hochrhönring Und Kuppenrhön</name>
    <link href="http://www.gpsies.com/">
      <text>Hochrhönring Und Kuppenrhön on GPSies.com</text>
    </link>
    <time>2016-06-06T11:25:21Z</time>
  </metadata>
  <trk>
    <name>Hochrhönring Und Kuppenrhön on GPSies.com</name>
    <trkseg>
      <trkpt lat="50.49451000" lon="9.695170000">
        <ele>0.0000000</ele>
        <time>2010-01-01T00:00:00Z</time>
      </trkpt>
      <trkpt lat="50.49438000" lon="9.695240000">
        <ele>0.0000000</ele>
        <time>2010-01-01T00:00:05Z</time>
      </trkpt>
      <trkpt lat="50.49389000" lon="9.695440000">
        <ele>0.0000000</ele>
        <time>2010-01-01T00:00:25Z</time>
      </trkpt>
      <trkpt lat="50.49369000" lon="9.695570000">
        <ele>0.0000000</ele>
        <time>2010-01-01T00:00:34Z</time>
      </trkpt>
      <trkpt lat="50.49361000" lon="9.695650000">
        <ele>0.0000000</ele>
        <time>2010-01-01T00:00:38Z</time>
      </trkpt>
      <trkpt lat="50.49357000" lon="9.695700000">
        <ele>0.0000000</ele>
        <time>2010-01-01T00:00:40Z</time>
      </trkpt>
      <trkpt lat="50.49353000" lon="9.695780000">
        <ele>0.0000000</ele>
        <time>2010-01-01T00:00:42Z</time>
      </trkpt>
      <trkpt lat="50.49349000" lon="9.695980000">
        <ele>0.0000000</ele>
        <time>2010-01-01T00:00:48Z</time>
      </trkpt>
      <trkpt lat="50.49349000" lon="9.696420000">
        <ele>0.0000000</ele>
        <time>2010-01-01T00:00:59Z</time>
      </trkpt>
      <trkpt lat="50.49348000" lon="9.696560000">
        <ele>0.0000000</ele>
        <time>2010-01-01T00:01:02Z</time>
      </trkpt>
      <trkpt lat="50.49344000" lon="9.696760000">
        <ele>0.0000000</ele>
        <time>2010-01-01T00:01:08Z</time>
      </trkpt>
      <trkpt lat="50.49337000" lon="9.696890000">
        <ele>0.0000000</ele>
        <time>2010-01-01T00:01:12Z</time>
      </trkpt>
      <trkpt lat="50.49331000" lon="9.696960000">
        <ele>0.0000000</ele>
        <time>2010-01-01T00:01:15Z</time>
      </trkpt>
      <trkpt lat="50.49305000" lon="9.697210000">
        <ele>0.0000000</ele>
        <time>2010-01-01T00:01:27Z</time>
      </trkpt>
      <trkpt lat="50.49298000" lon="9.697340000">
        <ele>0.0000000</ele>
        <time>2010-01-01T00:01:32Z</time>
      </trkpt>
      <trkpt lat="50.49295000" lon="9.697410000">
        <ele>0.0000000</ele>
        <time>2010-01-01T00:01:34Z</time>
      </trkpt>
      <trkpt lat="50.49293000" lon="9.697500000">
        <ele>0.0000000</ele>
        <time>2010-01-01T00:01:36Z</time>
      </trkpt>
      <trkpt lat="50.49292000" lon="9.697640000">
        <ele>0.0000000</ele>
        <time>2010-01-01T00:01:40Z</time>
      </trkpt>
      <trkpt lat="50.49292000" lon="9.697780000">
        <ele>0.0000000</ele>
        <time>2010-01-01T00:01:43Z</time>
      </trkpt>
      <trkpt lat="50.49291000" lon="9.697900000">
        <ele>0.0000000</ele>
        <time>2010-01-01T00:01:47Z</time>
      </trkpt>
      <trkpt lat="50.49291000" lon="9.697990000">
        <ele>0.0000000</ele>
        <time>2010-01-01T00:01:49Z</time>
      </trkpt>
      <trkpt lat="50.49290000" lon="9.698070000">
        <ele>0.0000000</ele>
        <time>2010-01-01T00:01:51Z</time>
      </trkpt>
      <trkpt lat="50.49286000" lon="9.698200000">
        <ele>0.0000000</ele>
        <time>2010-01-01T00:01:55Z</time>
      </trkpt>
      <trkpt lat="50.49285000" lon="9.698250000">
        <ele>0.0000000</ele>
        <time>2010-01-01T00:01:56Z</time>
      </trkpt>
      <trkpt lat="50.49281000" lon="9.698320000">
        <ele>0.0000000</ele>
        <time>2010-01-01T00:01:58Z</time>
      </trkpt>
      <trkpt lat="50.49224000" lon="9.699120000">
        <ele>0.0000000</ele>
        <time>2010-01-01T00:02:29Z</time>
      </trkpt>
      <trkpt lat="50.49184000" lon="9.699730000">
        <ele>0.0000000</ele>
        <time>2010-01-01T00:02:51Z</time>
      </trkpt>
      <trkpt lat="50.49179000" lon="9.699850000">
        <ele>0.0000000</ele>
        <time>2010-01-01T00:02:55Z</time>
      </trkpt>
      <trkpt lat="50.49167000" lon="9.700230000">
        <ele>0.0000000</ele>
        <time>2010-01-01T00:03:06Z</time>
      </trkpt>
      <trkpt lat="50.49128000" lon="9.702390000">
        <ele>0.0000000</ele>
        <time>2010-01-01T00:04:03Z</time>
      </trkpt>
      <trkpt lat="50.49128000" lon="9.702430000">
        <ele>0.0000000</ele>
        <time>2010-01-01T00:04:04Z</time>
      </trkpt>
      <trkpt lat="50.49126000" lon="9.702480000">
        <ele>0.0000000</ele>
        <time>2010-01-01T00:04:05Z</time>
      </trkpt>
      <trkpt lat="50.49118000" lon="9.702600000">
        <ele>0.0000000</ele>
        <time>2010-01-01T00:04:10Z</time>
      </trkpt>
      <trkpt lat="50.49100000" lon="9.702800000">
        <ele>0.0000000</ele>
        <time>2010-01-01T00:04:19Z</time>
      </trkpt>
      <trkpt lat="50.49103000" lon="9.703090000">
        <ele>0.0000000</ele>
        <time>2010-01-01T00:04:26Z</time>
      </trkpt>
      <trkpt lat="50.49103000" lon="9.703250000">
        <ele>0.0000000</ele>
        <time>2010-01-01T00:04:30Z</time>
      </trkpt>
      <trkpt lat="50.49102000" lon="9.703390000">
        <ele>0.0000000</ele>
        <time>2010-01-01T00:04:34Z</time>
      </trkpt>
      <trkpt lat="50.49098000" lon="9.703570000">
        <ele>0.0000000</ele>
        <time>2010-01-01T00:04:39Z</time>
      </trkpt>
      <trkpt lat="50.49087000" lon="9.703900000">
        <ele>0.0000000</ele>
        <time>2010-01-01T00:04:48Z</time>
      </trkpt>
      <trkpt lat="50.49067000" lon="9.704420000">
        <ele>0.0000000</ele>
        <time>2010-01-01T00:05:04Z</time>
      </trkpt>
      <trkpt lat="50.49029000" lon="9.704930000">
        <ele>0.0000000</ele>
        <time>2010-01-01T00:05:24Z</time>
      </trkpt>
      <trkpt lat="50.49017000" lon="9.705070000">
        <ele>0.0000000</ele>
        <time>2010-01-01T00:05:30Z</time>
      </trkpt>
      <trkpt lat="50.48989000" lon="9.705350000">
        <ele>0.0000000</ele>
        <time>2010-01-01T00:05:43Z</time>
      </trkpt>
      <trkpt lat="50.48980000" lon="9.705380000">
        <ele>0.0000000</ele>
        <time>2010-01-01T00:05:47Z</time>
      </trkpt>
      <trkpt lat="50.48935000" lon="9.705640000">
        <ele>0.0000000</ele>
        <time>2010-01-01T00:06:06Z</time>
      </trkpt>
      <trkpt lat="50.48903000" lon="9.705800000">
        <ele>0.0000000</ele>
        <time>2010-01-01T00:06:19Z</time>
      </trkpt>
      <trkpt lat="50.48894000" lon="9.705830000">
        <ele>0.0000000</ele>
        <time>2010-01-01T00:06:23Z</time>
      </trkpt>
      <trkpt lat="50.48891000" lon="9.705850000">
        <ele>0.0000000</ele>
        <time>2010-01-01T00:06:24Z</time>
      </trkpt>
      <trkpt lat="50.48862000" lon="9.705950000">
        <ele>0.0000000</ele>
        <time>2010-01-01T00:06:36Z</time>
      </trkpt>
      <trkpt lat="50.48832000" lon="9.706010000">
        <ele>0.0000000</ele>
        <time>2010-01-01T00:06:48Z</time>
      </trkpt>
      <trkpt lat="50.48799000" lon="9.706120000">
        <ele>0.0000000</ele>
        <time>2010-01-01T00:07:02Z</time>
      </trkpt>
      <trkpt lat="50.48776000" lon="9.706220000">
        <ele>0.0000000</ele>
        <time>2010-01-01T00:07:11Z</time>
      </trkpt>
      <trkpt lat="50.48776000" lon="9.706230000">
        <ele>0.0000000</ele>
        <time>2010-01-01T00:07:11Z</time>
      </trkpt>
      <trkpt lat="50.48745000" lon="9.706430000">
        <ele>0.0000000</ele>
        <time>2010-01-01T00:07:25Z</time>
      </trkpt>
      <trkpt lat="50.48742000" lon="9.706460000">
        <ele>0.0000000</ele>
        <time>2010-01-01T00:07:26Z</time>
      </trkpt>
      <trkpt lat="50.48720000" lon="9.706570000">
        <ele>0.0000000</ele>
        <time>2010-01-01T00:07:36Z</time>
      </trkpt>
      <trkpt lat="50.48687000" lon="9.706780000">
        <ele>0.0000000</ele>
        <time>2010-01-01T00:07:50Z</time>
      </trkpt>
      <trkpt lat="50.48646000" lon="9.707140000">
        <ele>0.0000000</ele>
        <time>2010-01-01T00:08:09Z</time>
      </trkpt>
      <trkpt lat="50.48612000" lon="9.707530000">
        <ele>0.0000000</ele>
        <time>2010-01-01T00:08:25Z</time>
      </trkpt>
      <trkpt lat="50.48570000" lon="9.708180000">
        <ele>0.0000000</ele>
        <time>2010-01-01T00:08:49Z</time>
      </trkpt>
      <trkpt lat="50.48532000" lon="9.708990000">
        <ele>0.0000000</ele>
        <time>2010-01-01T00:09:15Z</time>
      </trkpt>
      <trkpt lat="50.48178000" lon="9.718170000">
        <ele>0.0000000</ele>
        <time>2010-01-01T00:13:48Z</time>
      </trkpt>
      <trkpt lat="50.48169000" lon="9.718450000">
        <ele>0.0000000</ele>
        <time>2010-01-01T00:13:56Z</time>
      </trkpt>
      <trkpt lat="50.48131000" lon="9.719470000">
        <ele>0.0000000</ele>
        <time>2010-01-01T00:14:26Z</time>
      </trkpt>
      <trkpt lat="50.48112000" lon="9.719920000">
        <ele>0.0000000</ele>
        <time>2010-01-01T00:14:40Z</time>
      </trkpt>
      <trkpt lat="50.48073000" lon="9.720700000">
        <ele>0.0000000</ele>
        <time>2010-01-01T00:15:05Z</time>
      </trkpt>
      <trkpt lat="50.48042000" lon="9.721420000">
        <ele>0.0000000</ele>
        <time>2010-01-01T00:15:27Z</time>
      </trkpt>
      <trkpt lat="50.48019000" lon="9.722110000">
        <ele>0.0000000</ele>
        <time>2010-01-01T00:15:47Z</time>
      </trkpt>
      <trkpt lat="50.47941000" lon="9.724160000">
        <ele>0.0000000</ele>
        <time>2010-01-01T00:16:48Z</time>
      </trkpt>
      <trkpt lat="50.47933000" lon="9.724400000">
        <ele>0.0000000</ele>
        <time>2010-01-01T00:16:55Z</time>
      </trkpt>
      <trkpt lat="50.47927000" lon="9.724640000">
        <ele>0.0000000</ele>
        <time>2010-01-01T00:17:01Z</time>
      </trkpt>
      <trkpt lat="50.47903000" lon="9.726130000">
        <ele>0.0000000</ele>
        <time>2010-01-01T00:17:41Z</time>
      </trkpt>
      <trkpt lat="50.47903000" lon="9.726180000">
        <ele>0.0000000</ele>
        <time>2010-01-01T00:17:42Z</time>
      </trkpt>
      <trkpt lat="50.47877000" lon="9.727680000">
        <ele>0.0000000</ele>
        <time>2010-01-01T00:18:22Z</time>
      </trkpt>
      <trkpt lat="50.47870000" lon="9.727900000">
        <ele>0.0000000</ele>
        <time>2010-01-01T00:18:28Z</time>
      </trkpt>
      <trkpt lat="50.47859000" lon="9.728720000">
        <ele>0.0000000</ele>
        <time>2010-01-01T00:18:49Z</time>
      </trkpt>
      <trkpt lat="50.47859000" lon="9.728750000">
        <ele>0.0000000</ele>
        <time>2010-01-01T00:18:50Z</time>
      </trkpt>
      <trkpt lat="50.47844000" lon="9.729890000">
        <ele>0.0000000</ele>
        <time>2010-01-01T00:19:20Z</time>
      </trkpt>
      <trkpt lat="50.47841000" lon="9.730380000">
        <ele>0.0000000</ele>
        <time>2010-01-01T00:19:32Z</time>
      </trkpt>
      <trkpt lat="50.47843000" lon="9.730880000">
        <ele>0.0000000</ele>
        <time>2010-01-01T00:19:45Z</time>
      </trkpt>
      <trkpt lat="50.47858000" lon="9.731990000">
        <ele>0.0000000</ele>
        <time>2010-01-01T00:20:14Z</time>
      </trkpt>
      <trkpt lat="50.47878000" lon="9.733230000">
        <ele>0.0000000</ele>
        <time>2010-01-01T00:20:46Z</time>
      </trkpt>
      <trkpt lat="50.47879000" lon="9.734250000">
        <ele>0.0000000</ele>
        <time>2010-01-01T00:21:12Z</time>
      </trkpt>
      <trkpt lat="50.47875000" lon="9.734680000">
        <ele>0.0000000</ele>
        <time>2010-01-01T00:21:23Z</time>
      </trkpt>
      <trkpt lat="50.47865000" lon="9.735120000">
        <ele>0.0000000</ele>
        <time>2010-01-01T00:21:35Z</time>
      </trkpt>
      <trkpt lat="50.47864000" lon="9.735220000">
        <ele>0.0000000</ele>
        <time>2010-01-01T00:21:38Z</time>
      </trkpt>
      <trkpt lat="50.47843000" lon="9.736000000">
        <ele>0.0000000</ele>
        <time>2010-01-01T00:21:59Z</time>
      </trkpt>
      <trkpt lat="50.47838000" lon="9.736390000">
        <ele>0.0000000</ele>
        <time>2010-01-01T00:22:10Z</time>
      </trkpt>
      <trkpt lat="50.47824000" lon="9.738430000">
        <ele>0.0000000</ele>
        <time>2010-01-01T00:23:02Z</time>
      </trkpt>
      <trkpt lat="50.47812000" lon="9.739680000">
        <ele>0.0000000</ele>
        <time>2010-01-01T00:23:34Z</time>
      </trkpt>
      <trkpt lat="50.47808000" lon="9.739910000">
        <ele>0.0000000</ele>
        <time>2010-01-01T00:23:40Z</time>
      </trkpt>
      <trkpt lat="50.47808000" lon="9.739950000">
        <ele>0.0000000</ele>
        <time>2010-01-01T00:23:41Z</time>
      </trkpt>
      <trkpt lat="50.47789000" lon="9.740990000">
        <ele>0.0000000</ele>
        <time>2010-01-01T00:24:09Z</time>
      </trkpt>
      <trkpt lat="50.47776000" lon="9.742020000">
        <ele>0.0000000</ele>
        <time>2010-01-01T00:24:35Z</time>
      </trkpt>
      <trkpt lat="50.47762000" lon="9.742680000">
        <ele>0.0000000</ele>
        <time>2010-01-01T00:24:53Z</time>
      </trkpt>
      <trkpt lat="50.47749000" lon="9.743980000">
        <ele>0.0000000</ele>
        <time>2010-01-01T00:25:27Z</time>
      </trkpt>
      <trkpt lat="50.47742000" lon="9.744350000">
        <ele>0.0000000</ele>
        <time>2010-01-01T00:25:37Z</time>
      </trkpt>
      <trkpt lat="50.47727000" lon="9.744990000">
        <ele>0.0000000</ele>
        <time>2010-01-01T00:25:54Z</time>
      </trkpt>
      <trkpt lat="50.47721000" lon="9.745330000">
        <ele>0.0000000</ele>
        <time>2010-01-01T00:26:03Z</time>
      </trkpt>
      <trkpt lat="50.47715000" lon="9.745580000">
        <ele>0.0000000</ele>
        <time>2010-01-01T00:26:10Z</time>
      </trkpt>
      <trkpt lat="50.47712000" lon="9.746180000">
        <ele>0.0000000</ele>
        <time>2010-01-01T00:26:25Z</time>
      </trkpt>
      <trkpt lat="50.47724000" lon="9.747750000">
        <ele>0.0000000</ele>
        <time>2010-01-01T00:27:05Z</time>
      </trkpt>
      <trkpt lat="50.47725000" lon="9.748160000">
        <ele>0.0000000</ele>
        <time>2010-01-01T00:27:16Z</time>
      </trkpt>
      <trkpt lat="50.47723000" lon="9.749520000">
        <ele>0.0000000</ele>
        <time>2010-01-01T00:27:50Z</time>
      </trkpt>
      <trkpt lat="50.47713000" lon="9.751530000">
        <ele>0.0000000</ele>
        <time>2010-01-01T00:28:42Z</time>
      </trkpt>
      <trkpt lat="50.47712000" lon="9.752220000">
        <ele>0.0000000</ele>
        <time>2010-01-01T00:28:59Z</time>
      </trkpt>
      <trkpt lat="50.47713000" lon="9.752680000">
        <ele>0.0000000</ele>
        <time>2010-01-01T00:29:11Z</time>
      </trkpt>
      <trkpt lat="50.47726000" lon="9.753850000">
        <ele>0.0000000</ele>
        <time>2010-01-01T00:29:41Z</time>
      </trkpt>
      <trkpt lat="50.47753000" lon="9.755210000">
        <ele>0.0000000</ele>
        <time>2010-01-01T00:30:18Z</time>
      </trkpt>
      <trkpt lat="50.47758000" lon="9.755720000">
        <ele>0.0000000</ele>
        <time>2010-01-01T00:30:31Z</time>
      </trkpt>
      <trkpt lat="50.47760000" lon="9.756260000">
        <ele>0.0000000</ele>
        <time>2010-01-01T00:30:45Z</time>
      </trkpt>
      <trkpt lat="50.47749000" lon="9.757480000">
        <ele>0.0000000</ele>
        <time>2010-01-01T00:31:16Z</time>
      </trkpt>
      <trkpt lat="50.47755000" lon="9.758150000">
        <ele>0.0000000</ele>
        <time>2010-01-01T00:31:33Z</time>
      </trkpt>
      <trkpt lat="50.47758000" lon="9.758770000">
        <ele>0.0000000</ele>
        <time>2010-01-01T00:31:49Z</time>
      </trkpt>
      <trkpt lat="50.47758000" lon="9.758980000">
        <ele>0.0000000</ele>
        <time>2010-01-01T00:31:54Z</time>
      </trkpt>
      <trkpt lat="50.47756000" lon="9.759170000">
        <ele>0.0000000</ele>
        <time>2010-01-01T00:31:59Z</time>
      </trkpt>
      <trkpt lat="50.47758000" lon="9.759300000">
        <ele>0.0000000</ele>
        <time>2010-01-01T00:32:03Z</time>
      </trkpt>
      <trkpt lat="50.47762000" lon="9.759420000">
        <ele>0.0000000</ele>
        <time>2010-01-01T00:32:06Z</time>
      </trkpt>
      <trkpt lat="50.47762000" lon="9.759430000">
        <ele>0.0000000</ele>
        <time>2010-01-01T00:32:06Z</time>
      </trkpt>
      <trkpt lat="50.47765000" lon="9.759510000">
        <ele>0.0000000</ele>
        <time>2010-01-01T00:32:09Z</time>
      </trkpt>
      <trkpt lat="50.47771000" lon="9.759610000">
        <ele>0.0000000</ele>
        <time>2010-01-01T00:32:12Z</time>
      </trkpt>
      <trkpt lat="50.47774000" lon="9.759640000">
        <ele>0.0000000</ele>
        <time>2010-01-01T00:32:14Z</time>
      </trkpt>
      <trkpt lat="50.47779000" lon="9.759670000">
        <ele>0.0000000</ele>
        <time>2010-01-01T00:32:16Z</time>
      </trkpt>
      <trkpt lat="50.47786000" lon="9.759700000">
        <ele>0.0000000</ele>
        <time>2010-01-01T00:32:19Z</time>
      </trkpt>
      <trkpt lat="50.47823000" lon="9.759800000">
        <ele>0.0000000</ele>
        <time>2010-01-01T00:32:34Z</time>
      </trkpt>
      <trkpt lat="50.47835000" lon="9.759870000">
        <ele>0.0000000</ele>
        <time>2010-01-01T00:32:39Z</time>
      </trkpt>
      <trkpt lat="50.47843000" lon="9.759970000">
        <ele>0.0000000</ele>
        <time>2010-01-01T00:32:43Z</time>
      </trkpt>
      <trkpt lat="50.47859000" lon="9.760240000">
        <ele>0.0000000</ele>
        <time>2010-01-01T00:32:52Z</time>
      </trkpt>
      <trkpt lat="50.47923000" lon="9.761670000">
        <ele>0.0000000</ele>
        <time>2010-01-01T00:33:37Z</time>
      </trkpt>
      <trkpt lat="50.47944000" lon="9.762190000">
        <ele>0.0000000</ele>
        <time>2010-01-01T00:33:53Z</time>
      </trkpt>
      <trkpt lat="50.48003000" lon="9.763850000">
        <ele>0.0000000</ele>
        <time>2010-01-01T00:34:41Z</time>
      </trkpt>
      <trkpt lat="50.48009000" lon="9.764200000">
        <ele>0.0000000</ele>
        <time>2010-01-01T00:34:50Z</time>
      </trkpt>
      <trkpt lat="50.48030000" lon="9.765930000">
        <ele>0.0000000</ele>
        <time>2010-01-01T00:35:35Z</time>
      </trkpt>
      <trkpt lat="50.48037000" lon="9.767370000">
        <ele>0.0000000</ele>
        <time>2010-01-01T00:36:12Z</time>
      </trkpt>
      <trkpt lat="50.48050000" lon="9.768470000">
        <ele>0.0000000</ele>
        <time>2010-01-01T00:36:40Z</time>
      </trkpt>
      <trkpt lat="50.48053000" lon="9.769020000">
        <ele>0.0000000</ele>
        <time>2010-01-01T00:36:54Z</time>
      </trkpt>
      <trkpt lat="50.48052000" lon="9.769090000">
        <ele>0.0000000</ele>
        <time>2010-01-01T00:36:56Z</time>
      </trkpt>
      <trkpt lat="50.48053000" lon="9.769340000">
        <ele>0.0000000</ele>
        <time>2010-01-01T00:37:03Z</time>
      </trkpt>
      <trkpt lat="50.48056000" lon="9.769570000">
        <ele>0.0000000</ele>
        <time>2010-01-01T00:37:09Z</time>
      </trkpt>
      <trkpt lat="50.48059000" lon="9.769720000">
        <ele>0.0000000</ele>
        <time>2010-01-01T00:37:13Z</time>
      </trkpt>
      <trkpt lat="50.48064000" lon="9.769830000">
        <ele>0.0000000</ele>
        <time>2010-01-01T00:37:16Z</time>
      </trkpt>
      <trkpt lat="50.48109000" lon="9.770640000">
        <ele>0.0000000</ele>
        <time>2010-01-01T00:37:44Z</time>
      </trkpt>
      <trkpt lat="50.48153000" lon="9.771490000">
        <ele>0.0000000</ele>
        <time>2010-01-01T00:38:11Z</time>
      </trkpt>
      <trkpt lat="50.48155000" lon="9.771550000">
        <ele>0.0000000</ele>
        <time>2010-01-01T00:38:13Z</time>
      </trkpt>
      <trkpt lat="50.48168000" lon="9.771830000">
        <ele>0.0000000</ele>
        <time>2010-01-01T00:38:22Z</time>
      </trkpt>
      <trkpt lat="50.48182000" lon="9.772050000">
        <ele>0.0000000</ele>
        <time>2010-01-01T00:38:30Z</time>
      </trkpt>
      <trkpt lat="50.48278000" lon="9.773310000">
        <ele>0.0000000</ele>
        <time>2010-01-01T00:39:20Z</time>
      </trkpt>
      <trkpt lat="50.48297000" lon="9.773680000">
        <ele>0.0000000</ele>
        <time>2010-01-01T00:39:32Z</time>
      </trkpt>
      <trkpt lat="50.48310000" lon="9.774000000">
        <ele>0.0000000</ele>
        <time>2010-01-01T00:39:42Z</time>
      </trkpt>
      <trkpt lat="50.48320000" lon="9.774380000">
        <ele>0.0000000</ele>
        <time>2010-01-01T00:39:52Z</time>
      </trkpt>
      <trkpt lat="50.48330000" lon="9.775130000">
        <ele>0.0000000</ele>
        <time>2010-01-01T00:40:12Z</time>
      </trkpt>
      <trkpt lat="50.48329000" lon="9.775520000">
        <ele>0.0000000</ele>
        <time>2010-01-01T00:40:22Z</time>
      </trkpt>
      <trkpt lat="50.48330000" lon="9.776180000">
        <ele>0.0000000</ele>
        <time>2010-01-01T00:40:39Z</time>
      </trkpt>
      <trkpt lat="50.48337000" lon="9.776980000">
        <ele>0.0000000</ele>
        <time>2010-01-01T00:40:59Z</time>
      </trkpt>
      <trkpt lat="50.48341000" lon="9.777240000">
        <ele>0.0000000</ele>
        <time>2010-01-01T00:41:06Z</time>
      </trkpt>
      <trkpt lat="50.48372000" lon="9.779990000">
        <ele>0.0000000</ele>
        <time>2010-01-01T00:42:17Z</time>
      </trkpt>
      <trkpt lat="50.48375000" lon="9.780140000">
        <ele>0.0000000</ele>
        <time>2010-01-01T00:42:21Z</time>
      </trkpt>
      <trkpt lat="50.48378000" lon="9.780240000">
        <ele>0.0000000</ele>
        <time>2010-01-01T00:42:24Z</time>
      </trkpt>
      <trkpt lat="50.48382000" lon="9.780480000">
        <ele>0.0000000</ele>
        <time>2010-01-01T00:42:30Z</time>
      </trkpt>
      <trkpt lat="50.48397000" lon="9.781170000">
        <ele>0.0000000</ele>
        <time>2010-01-01T00:42:49Z</time>
      </trkpt>
      <trkpt lat="50.48400000" lon="9.781480000">
        <ele>0.0000000</ele>
        <time>2010-01-01T00:42:57Z</time>
      </trkpt>
      <trkpt lat="50.48402000" lon="9.782050000">
        <ele>0.0000000</ele>
        <time>2010-01-01T00:43:11Z</time>
      </trkpt>
      <trkpt lat="50.48401000" lon="9.783390000">
        <ele>0.0000000</ele>
        <time>2010-01-01T00:43:45Z</time>
      </trkpt>
      <trkpt lat="50.48405000" lon="9.784550000">
        <ele>0.0000000</ele>
        <time>2010-01-01T00:44:15Z</time>
      </trkpt>
      <trkpt lat="50.48399000" lon="9.785270000">
        <ele>0.0000000</ele>
        <time>2010-01-01T00:44:33Z</time>
      </trkpt>
      <trkpt lat="50.48386000" lon="9.785890000">
        <ele>0.0000000</ele>
        <time>2010-01-01T00:44:50Z</time>
      </trkpt>
      <trkpt lat="50.48337000" lon="9.787780000">
        <ele>0.0000000</ele>
        <time>2010-01-01T00:45:42Z</time>
      </trkpt>
      <trkpt lat="50.48307000" lon="9.788660000">
        <ele>0.0000000</ele>
        <time>2010-01-01T00:46:08Z</time>
      </trkpt>
      <trkpt lat="50.48291000" lon="9.789210000">
        <ele>0.0000000</ele>
        <time>2010-01-01T00:46:23Z</time>
      </trkpt>
      <trkpt lat="50.48284000" lon="9.789660000">
        <ele>0.0000000</ele>
        <time>2010-01-01T00:46:35Z</time>
      </trkpt>
      <trkpt lat="50.48276000" lon="9.791040000">
        <ele>0.0000000</ele>
        <time>2010-01-01T00:47:10Z</time>
      </trkpt>
      <trkpt lat="50.48278000" lon="9.791880000">
        <ele>0.0000000</ele>
        <time>2010-01-01T00:47:31Z</time>
      </trkpt>
      <trkpt lat="50.48287000" lon="9.792680000">
        <ele>0.0000000</ele>
        <time>2010-01-01T00:47:52Z</time>
      </trkpt>
      <trkpt lat="50.48293000" lon="9.792970000">
        <ele>0.0000000</ele>
        <time>2010-01-01T00:48:00Z</time>
      </trkpt>
      <trkpt lat="50.48299000" lon="9.793190000">
        <ele>0.0000000</ele>
        <time>2010-01-01T00:48:06Z</time>
      </trkpt>
      <trkpt lat="50.48309000" lon="9.793480000">
        <ele>0.0000000</ele>
        <time>2010-01-01T00:48:14Z</time>
      </trkpt>
      <trkpt lat="50.48320000" lon="9.793740000">
        <ele>0.0000000</ele>
        <time>2010-01-01T00:48:22Z</time>
      </trkpt>
      <trkpt lat="50.48342000" lon="9.794160000">
        <ele>0.0000000</ele>
        <time>2010-01-01T00:48:36Z</time>
      </trkpt>
      <trkpt lat="50.48367000" lon="9.794480000">
        <ele>0.0000000</ele>
        <time>2010-01-01T00:48:49Z</time>
      </trkpt>
      <trkpt lat="50.48417000" lon="9.794900000">
        <ele>0.0000000</ele>
        <time>2010-01-01T00:49:12Z</time>
      </trkpt>
      <trkpt lat="50.48443000" lon="9.795090000">
        <ele>0.0000000</ele>
        <time>2010-01-01T00:49:23Z</time>
      </trkpt>
      <trkpt lat="50.48467000" lon="9.795230000">
        <ele>0.0000000</ele>
        <time>2010-01-01T00:49:34Z</time>
      </trkpt>
      <trkpt lat="50.48511000" lon="9.795450000">
        <ele>0.0000000</ele>
        <time>2010-01-01T00:49:52Z</time>
      </trkpt>
      <trkpt lat="50.48526000" lon="9.795490000">
        <ele>0.0000000</ele>
        <time>2010-01-01T00:49:58Z</time>
      </trkpt>
      <trkpt lat="50.48551000" lon="9.795710000">
        <ele>0.0000000</ele>
        <time>2010-01-01T00:50:10Z</time>
      </trkpt>
      <trkpt lat="50.48580000" lon="9.796000000">
        <ele>0.0000000</ele>
        <time>2010-01-01T00:50:23Z</time>
      </trkpt>
      <trkpt lat="50.48646000" lon="9.796750000">
        <ele>0.0000000</ele>
        <time>2010-01-01T00:50:56Z</time>
      </trkpt>
      <trkpt lat="50.48662000" lon="9.796950000">
        <ele>0.0000000</ele>
        <time>2010-01-01T00:51:04Z</time>
      </trkpt>
      <trkpt lat="50.48675000" lon="9.797160000">
        <ele>0.0000000</ele>
        <time>2010-01-01T00:51:12Z</time>
      </trkpt>
      <trkpt lat="50.48682000" lon="9.797340000">
        <ele>0.0000000</ele>
        <time>2010-01-01T00:51:17Z</time>
      </trkpt>
      <trkpt lat="50.48690000" lon="9.797610000">
        <ele>0.0000000</ele>
        <time>2010-01-01T00:51:25Z</time>
      </trkpt>
      <trkpt lat="50.48701000" lon="9.798590000">
        <ele>0.0000000</ele>
        <time>2010-01-01T00:51:50Z</time>
      </trkpt>
      <trkpt lat="50.48707000" lon="9.798890000">
        <ele>0.0000000</ele>
        <time>2010-01-01T00:51:58Z</time>
      </trkpt>
      <trkpt lat="50.48721000" lon="9.799460000">
        <ele>0.0000000</ele>
        <time>2010-01-01T00:52:13Z</time>
      </trkpt>
      <trkpt lat="50.48722000" lon="9.799560000">
        <ele>0.0000000</ele>
        <time>2010-01-01T00:52:16Z</time>
      </trkpt>
      <trkpt lat="50.48722000" lon="9.799640000">
        <ele>0.0000000</ele>
        <time>2010-01-01T00:52:18Z</time>
      </trkpt>
      <trkpt lat="50.48719000" lon="9.799890000">
        <ele>0.0000000</ele>
        <time>2010-01-01T00:52:25Z</time>
      </trkpt>
      <trkpt lat="50.48712000" lon="9.800190000">
        <ele>0.0000000</ele>
        <time>2010-01-01T00:52:33Z</time>
      </trkpt>
      <trkpt lat="50.48681000" lon="9.799940000">
        <ele>0.0000000</ele>
        <time>2010-01-01T00:52:47Z</time>
      </trkpt>
      <trkpt lat="50.48638000" lon="9.799630000">
        <ele>0.0000000</ele>
        <time>2010-01-01T00:53:06Z</time>
      </trkpt>
      <trkpt lat="50.48628000" lon="9.799570000">
        <ele>0.0000000</ele>
        <time>2010-01-01T00:53:10Z</time>
      </trkpt>
      <trkpt lat="50.48619000" lon="9.799490000">
        <ele>0.0000000</ele>
        <time>2010-01-01T00:53:14Z</time>
      </trkpt>
      <trkpt lat="50.48574000" lon="9.799020000">
        <ele>0.0000000</ele>
        <time>2010-01-01T00:53:36Z</time>
      </trkpt>
      <trkpt lat="50.48504000" lon="9.798090000">
        <ele>0.0000000</ele>
        <time>2010-01-01T00:54:12Z</time>
      </trkpt>
      <trkpt lat="50.48482000" lon="9.797710000">
        <ele>0.0000000</ele>
        <time>2010-01-01T00:54:25Z</time>
      </trkpt>
      <trkpt lat="50.48468000" lon="9.797530000">
        <ele>0.0000000</ele>
        <time>2010-01-01T00:54:33Z</time>
      </trkpt>
      <trkpt lat="50.48462000" lon="9.797470000">
        <ele>0.0000000</ele>
        <time>2010-01-01T00:54:35Z</time>
      </trkpt>
      <trkpt lat="50.48450000" lon="9.797410000">
        <ele>0.0000000</ele>
        <time>2010-01-01T00:54:41Z</time>
      </trkpt>
      <trkpt lat="50.48324000" lon="9.796950000">
        <ele>0.0000000</ele>
        <time>2010-01-01T00:55:32Z</time>
      </trkpt>
      <trkpt lat="50.48258000" lon="9.796750000">
        <ele>0.0000000</ele>
        <time>2010-01-01T00:55:59Z</time>
      </trkpt>
      <trkpt lat="50.48232000" lon="9.799900000">
        <ele>0.0000000</ele>
        <time>2010-01-01T00:57:20Z</time>
      </trkpt>
      <trkpt lat="50.48231000" lon="9.800350000">
        <ele>0.0000000</ele>
        <time>2010-01-01T00:57:32Z</time>
      </trkpt>
      <trkpt lat="50.48234000" lon="9.801170000">
        <ele>0.0000000</ele>
        <time>2010-01-01T00:57:53Z</time>
      </trkpt>
      <trkpt lat="50.48266000" lon="9.803430000">
        <ele>0.0000000</ele>
        <time>2010-01-01T00:58:51Z</time>
      </trkpt>
      <trkpt lat="50.48270000" lon="9.804130000">
        <ele>0.0000000</ele>
        <time>2010-01-01T00:59:09Z</time>
      </trkpt>
      <trkpt lat="50.48278000" lon="9.808120000">
        <ele>0.0000000</ele>
        <time>2010-01-01T01:00:51Z</time>
      </trkpt>
      <trkpt lat="50.48293000" lon="9.810170000">
        <ele>0.0000000</ele>
        <time>2010-01-01T01:01:44Z</time>
      </trkpt>
      <trkpt lat="50.48303000" lon="9.810930000">
        <ele>0.0000000</ele>
        <time>2010-01-01T01:02:03Z</time>
      </trkpt>
      <trkpt lat="50.48324000" lon="9.811930000">
        <ele>0.0000000</ele>
        <time>2010-01-01T01:02:30Z</time>
      </trkpt>
      <trkpt lat="50.48332000" lon="9.812470000">
        <ele>0.0000000</ele>
        <time>2010-01-01T01:02:44Z</time>
      </trkpt>
      <trkpt lat="50.48339000" lon="9.813170000">
        <ele>0.0000000</ele>
        <time>2010-01-01T01:03:02Z</time>
      </trkpt>
      <trkpt lat="50.48348000" lon="9.813710000">
        <ele>0.0000000</ele>
        <time>2010-01-01T01:03:17Z</time>
      </trkpt>
      <trkpt lat="50.48364000" lon="9.814290000">
        <ele>0.0000000</ele>
        <time>2010-01-01T01:03:33Z</time>
      </trkpt>
      <trkpt lat="50.48387000" lon="9.814740000">
        <ele>0.0000000</ele>
        <time>2010-01-01T01:03:47Z</time>
      </trkpt>
      <trkpt lat="50.48482000" lon="9.816870000">
        <ele>0.0000000</ele>
        <time>2010-01-01T01:04:54Z</time>
      </trkpt>
      <trkpt lat="50.48497000" lon="9.817250000">
        <ele>0.0000000</ele>
        <time>2010-01-01T01:05:05Z</time>
      </trkpt>
      <trkpt lat="50.48506000" lon="9.817530000">
        <ele>0.0000000</ele>
        <time>2010-01-01T01:05:13Z</time>
      </trkpt>
      <trkpt lat="50.48516000" lon="9.817910000">
        <ele>0.0000000</ele>
        <time>2010-01-01T01:05:24Z</time>
      </trkpt>
      <trkpt lat="50.48535000" lon="9.818870000">
        <ele>0.0000000</ele>
        <time>2010-01-01T01:05:49Z</time>
      </trkpt>
      <trkpt lat="50.48547000" lon="9.819220000">
        <ele>0.0000000</ele>
        <time>2010-01-01T01:05:59Z</time>
      </trkpt>
      <trkpt lat="50.48566000" lon="9.819610000">
        <ele>0.0000000</ele>
        <time>2010-01-01T01:06:12Z</time>
      </trkpt>
      <trkpt lat="50.48603000" lon="9.820170000">
        <ele>0.0000000</ele>
        <time>2010-01-01T01:06:32Z</time>
      </trkpt>
      <trkpt lat="50.48683000" lon="9.821160000">
        <ele>0.0000000</ele>
        <time>2010-01-01T01:07:13Z</time>
      </trkpt>
      <trkpt lat="50.48718000" lon="9.821770000">
        <ele>0.0000000</ele>
        <time>2010-01-01T01:07:34Z</time>
      </trkpt>
      <trkpt lat="50.48739000" lon="9.822340000">
        <ele>0.0000000</ele>
        <time>2010-01-01T01:07:51Z</time>
      </trkpt>
      <trkpt lat="50.48754000" lon="9.822880000">
        <ele>0.0000000</ele>
        <time>2010-01-01T01:08:06Z</time>
      </trkpt>
      <trkpt lat="50.48803000" lon="9.825730000">
        <ele>0.0000000</ele>
        <time>2010-01-01T01:09:21Z</time>
      </trkpt>
      <trkpt lat="50.48815000" lon="9.826270000">
        <ele>0.0000000</ele>
        <time>2010-01-01T01:09:36Z</time>
      </trkpt>
      <trkpt lat="50.48846000" lon="9.827070000">
        <ele>0.0000000</ele>
        <time>2010-01-01T01:09:59Z</time>
      </trkpt>
      <trkpt lat="50.48917000" lon="9.828600000">
        <ele>0.0000000</ele>
        <time>2010-01-01T01:10:48Z</time>
      </trkpt>
      <trkpt lat="50.48944000" lon="9.829290000">
        <ele>0.0000000</ele>
        <time>2010-01-01T01:11:08Z</time>
      </trkpt>
      <trkpt lat="50.48963000" lon="9.829920000">
        <ele>0.0000000</ele>
        <time>2010-01-01T01:11:26Z</time>
      </trkpt>
      <trkpt lat="50.48975000" lon="9.830380000">
        <ele>0.0000000</ele>
        <time>2010-01-01T01:11:39Z</time>
      </trkpt>
      <trkpt lat="50.48988000" lon="9.830730000">
        <ele>0.0000000</ele>
        <time>2010-01-01T01:11:49Z</time>
      </trkpt>
      <trkpt lat="50.49020000" lon="9.831490000">
        <ele>0.0000000</ele>
        <time>2010-01-01T01:12:12Z</time>
      </trkpt>
      <trkpt lat="50.49027000" lon="9.831700000">
        <ele>0.0000000</ele>
        <time>2010-01-01T01:12:18Z</time>
      </trkpt>
      <trkpt lat="50.49031000" lon="9.832050000">
        <ele>0.0000000</ele>
        <time>2010-01-01T01:12:27Z</time>
      </trkpt>
      <trkpt lat="50.49032000" lon="9.832540000">
        <ele>0.0000000</ele>
        <time>2010-01-01T01:12:40Z</time>
      </trkpt>
      <trkpt lat="50.49035000" lon="9.832900000">
        <ele>0.0000000</ele>
        <time>2010-01-01T01:12:49Z</time>
      </trkpt>
      <trkpt lat="50.49045000" lon="9.833370000">
        <ele>0.0000000</ele>
        <time>2010-01-01T01:13:02Z</time>
      </trkpt>
      <trkpt lat="50.49073000" lon="9.834480000">
        <ele>0.0000000</ele>
        <time>2010-01-01T01:13:32Z</time>
      </trkpt>
      <trkpt lat="50.49160000" lon="9.838600000">
        <ele>0.0000000</ele>
        <time>2010-01-01T01:15:23Z</time>
      </trkpt>
      <trkpt lat="50.49178000" lon="9.839310000">
        <ele>0.0000000</ele>
        <time>2010-01-01T01:15:42Z</time>
      </trkpt>
      <trkpt lat="50.49257000" lon="9.841940000">
        <ele>0.0000000</ele>
        <time>2010-01-01T01:16:56Z</time>
      </trkpt>
      <trkpt lat="50.49265000" lon="9.842520000">
        <ele>0.0000000</ele>
        <time>2010-01-01T01:17:11Z</time>
      </trkpt>
      <trkpt lat="50.49273000" lon="9.843700000">
        <ele>0.0000000</ele>
        <time>2010-01-01T01:17:41Z</time>
      </trkpt>
      <trkpt lat="50.49275000" lon="9.844580000">
        <ele>0.0000000</ele>
        <time>2010-01-01T01:18:04Z</time>
      </trkpt>
      <trkpt lat="50.49274000" lon="9.845570000">
        <ele>0.0000000</ele>
        <time>2010-01-01T01:18:29Z</time>
      </trkpt>
      <trkpt lat="50.49270000" lon="9.846050000">
        <ele>0.0000000</ele>
        <time>2010-01-01T01:18:41Z</time>
      </trkpt>
      <trkpt lat="50.49209000" lon="9.849770000">
        <ele>0.0000000</ele>
        <time>2010-01-01T01:20:19Z</time>
      </trkpt>
      <trkpt lat="50.49202000" lon="9.850450000">
        <ele>0.0000000</ele>
        <time>2010-01-01T01:20:37Z</time>
      </trkpt>
      <trkpt lat="50.49198000" lon="9.851120000">
        <ele>0.0000000</ele>
        <time>2010-01-01T01:20:54Z</time>
      </trkpt>
      <trkpt lat="50.49200000" lon="9.853350000">
        <ele>0.0000000</ele>
        <time>2010-01-01T01:21:51Z</time>
      </trkpt>
      <trkpt lat="50.49197000" lon="9.854000000">
        <ele>0.0000000</ele>
        <time>2010-01-01T01:22:07Z</time>
      </trkpt>
      <trkpt lat="50.49194000" lon="9.854080000">
        <ele>0.0000000</ele>
        <time>2010-01-01T01:22:10Z</time>
      </trkpt>
      <trkpt lat="50.49184000" lon="9.854550000">
        <ele>0.0000000</ele>
        <time>2010-01-01T01:22:22Z</time>
      </trkpt>
      <trkpt lat="50.49179000" lon="9.854710000">
        <ele>0.0000000</ele>
        <time>2010-01-01T01:22:27Z</time>
      </trkpt>
      <trkpt lat="50.49167000" lon="9.854990000">
        <ele>0.0000000</ele>
        <time>2010-01-01T01:22:35Z</time>
      </trkpt>
      <trkpt lat="50.49147000" lon="9.855370000">
        <ele>0.0000000</ele>
        <time>2010-01-01T01:22:48Z</time>
      </trkpt>
      <trkpt lat="50.49094000" lon="9.856630000">
        <ele>0.0000000</ele>
        <time>2010-01-01T01:23:27Z</time>
      </trkpt>
      <trkpt lat="50.49090000" lon="9.856780000">
        <ele>0.0000000</ele>
        <time>2010-01-01T01:23:31Z</time>
      </trkpt>
      <trkpt lat="50.48980000" lon="9.858880000">
        <ele>0.0000000</ele>
        <time>2010-01-01T01:24:40Z</time>
      </trkpt>
      <trkpt lat="50.48958000" lon="9.859380000">
        <ele>0.0000000</ele>
        <time>2010-01-01T01:24:55Z</time>
      </trkpt>
      <trkpt lat="50.48949000" lon="9.859630000">
        <ele>0.0000000</ele>
        <time>2010-01-01T01:25:03Z</time>
      </trkpt>
      <trkpt lat="50.48934000" lon="9.860130000">
        <ele>0.0000000</ele>
        <time>2010-01-01T01:25:17Z</time>
      </trkpt>
      <trkpt lat="50.48926000" lon="9.860560000">
        <ele>0.0000000</ele>
        <time>2010-01-01T01:25:28Z</time>
      </trkpt>
      <trkpt lat="50.48920000" lon="9.861040000">
        <ele>0.0000000</ele>
        <time>2010-01-01T01:25:41Z</time>
      </trkpt>
      <trkpt lat="50.48917000" lon="9.861530000">
        <ele>0.0000000</ele>
        <time>2010-01-01T01:25:53Z</time>
      </trkpt>
      <trkpt lat="50.48916000" lon="9.862060000">
        <ele>0.0000000</ele>
        <time>2010-01-01T01:26:07Z</time>
      </trkpt>
      <trkpt lat="50.48931000" lon="9.864170000">
        <ele>0.0000000</ele>
        <time>2010-01-01T01:27:01Z</time>
      </trkpt>
      <trkpt lat="50.48929000" lon="9.864820000">
        <ele>0.0000000</ele>
        <time>2010-01-01T01:27:17Z</time>
      </trkpt>
      <trkpt lat="50.48927000" lon="9.864980000">
        <ele>0.0000000</ele>
        <time>2010-01-01T01:27:22Z</time>
      </trkpt>
      <trkpt lat="50.48924000" lon="9.865110000">
        <ele>0.0000000</ele>
        <time>2010-01-01T01:27:25Z</time>
      </trkpt>
      <trkpt lat="50.48921000" lon="9.865200000">
        <ele>0.0000000</ele>
        <time>2010-01-01T01:27:28Z</time>
      </trkpt>
      <trkpt lat="50.48900000" lon="9.865660000">
        <ele>0.0000000</ele>
        <time>2010-01-01T01:27:42Z</time>
      </trkpt>
      <trkpt lat="50.48843000" lon="9.866310000">
        <ele>0.0000000</ele>
        <time>2010-01-01T01:28:10Z</time>
      </trkpt>
      <trkpt lat="50.48833000" lon="9.866640000">
        <ele>0.0000000</ele>
        <time>2010-01-01T01:28:20Z</time>
      </trkpt>
      <trkpt lat="50.48826000" lon="9.867000000">
        <ele>0.0000000</ele>
        <time>2010-01-01T01:28:29Z</time>
      </trkpt>
      <trkpt lat="50.48826000" lon="9.867440000">
        <ele>0.0000000</ele>
        <time>2010-01-01T01:28:40Z</time>
      </trkpt>
      <trkpt lat="50.48819000" lon="9.867980000">
        <ele>0.0000000</ele>
        <time>2010-01-01T01:28:54Z</time>
      </trkpt>
      <trkpt lat="50.48814000" lon="9.868200000">
        <ele>0.0000000</ele>
        <time>2010-01-01T01:29:00Z</time>
      </trkpt>
      <trkpt lat="50.48790000" lon="9.869060000">
        <ele>0.0000000</ele>
        <time>2010-01-01T01:29:24Z</time>
      </trkpt>
      <trkpt lat="50.48777000" lon="9.869380000">
        <ele>0.0000000</ele>
        <time>2010-01-01T01:29:34Z</time>
      </trkpt>
      <trkpt lat="50.48755000" lon="9.869700000">
        <ele>0.0000000</ele>
        <time>2010-01-01T01:29:46Z</time>
      </trkpt>
      <trkpt lat="50.48727000" lon="9.870000000">
        <ele>0.0000000</ele>
        <time>2010-01-01T01:29:59Z</time>
      </trkpt>
      <trkpt lat="50.48706000" lon="9.870270000">
        <ele>0.0000000</ele>
        <time>2010-01-01T01:30:10Z</time>
      </trkpt>
      <trkpt lat="50.48688000" lon="9.870540000">
        <ele>0.0000000</ele>
        <time>2010-01-01T01:30:20Z</time>
      </trkpt>
      <trkpt lat="50.48658000" lon="9.871110000">
        <ele>0.0000000</ele>
        <time>2010-01-01T01:30:39Z</time>
      </trkpt>
      <trkpt lat="50.48648000" lon="9.871340000">
        <ele>0.0000000</ele>
        <time>2010-01-01T01:30:46Z</time>
      </trkpt>
      <trkpt lat="50.48601000" lon="9.872680000">
        <ele>0.0000000</ele>
        <time>2010-01-01T01:31:25Z</time>
      </trkpt>
      <trkpt lat="50.48594000" lon="9.872850000">
        <ele>0.0000000</ele>
        <time>2010-01-01T01:31:30Z</time>
      </trkpt>
      <trkpt lat="50.48589000" lon="9.872950000">
        <ele>0.0000000</ele>
        <time>2010-01-01T01:31:34Z</time>
      </trkpt>
      <trkpt lat="50.48583000" lon="9.873030000">
        <ele>0.0000000</ele>
        <time>2010-01-01T01:31:37Z</time>
      </trkpt>
      <trkpt lat="50.48568000" lon="9.873120000">
        <ele>0.0000000</ele>
        <time>2010-01-01T01:31:43Z</time>
      </trkpt>
      <trkpt lat="50.48491000" lon="9.873430000">
        <ele>0.0000000</ele>
        <time>2010-01-01T01:32:15Z</time>
      </trkpt>
      <trkpt lat="50.48441000" lon="9.873600000">
        <ele>0.0000000</ele>
        <time>2010-01-01T01:32:35Z</time>
      </trkpt>
      <trkpt lat="50.48420000" lon="9.873640000">
        <ele>0.0000000</ele>
        <time>2010-01-01T01:32:44Z</time>
      </trkpt>
      <trkpt lat="50.48377000" lon="9.873640000">
        <ele>0.0000000</ele>
        <time>2010-01-01T01:33:01Z</time>
      </trkpt>
      <trkpt lat="50.48306000" lon="9.873610000">
        <ele>0.0000000</ele>
        <time>2010-01-01T01:33:30Z</time>
      </trkpt>
      <trkpt lat="50.48284000" lon="9.873580000">
        <ele>0.0000000</ele>
        <time>2010-01-01T01:33:38Z</time>
      </trkpt>
      <trkpt lat="50.48265000" lon="9.873480000">
        <ele>0.0000000</ele>
        <time>2010-01-01T01:33:46Z</time>
      </trkpt>
      <trkpt lat="50.48248000" lon="9.873360000">
        <ele>0.0000000</ele>
        <time>2010-01-01T01:33:54Z</time>
      </trkpt>
      <trkpt lat="50.48198000" lon="9.872910000">
        <ele>0.0000000</ele>
        <time>2010-01-01T01:34:17Z</time>
      </trkpt>
      <trkpt lat="50.48178000" lon="9.872780000">
        <ele>0.0000000</ele>
        <time>2010-01-01T01:34:26Z</time>
      </trkpt>
      <trkpt lat="50.48168000" lon="9.872730000">
        <ele>0.0000000</ele>
        <time>2010-01-01T01:34:30Z</time>
      </trkpt>
      <trkpt lat="50.48157000" lon="9.872700000">
        <ele>0.0000000</ele>
        <time>2010-01-01T01:34:34Z</time>
      </trkpt>
      <trkpt lat="50.48144000" lon="9.872680000">
        <ele>0.0000000</ele>
        <time>2010-01-01T01:34:40Z</time>
      </trkpt>
      <trkpt lat="50.48125000" lon="9.872700000">
        <ele>0.0000000</ele>
        <time>2010-01-01T01:34:47Z</time>
      </trkpt>
      <trkpt lat="50.47974000" lon="9.873120000">
        <ele>0.0000000</ele>
        <time>2010-01-01T01:35:49Z</time>
      </trkpt>
      <trkpt lat="50.47970000" lon="9.873140000">
        <ele>0.0000000</ele>
        <time>2010-01-01T01:35:50Z</time>
      </trkpt>
      <trkpt lat="50.47967000" lon="9.873150000">
        <ele>0.0000000</ele>
        <time>2010-01-01T01:35:51Z</time>
      </trkpt>
      <trkpt lat="50.47955000" lon="9.873260000">
        <ele>0.0000000</ele>
        <time>2010-01-01T01:35:57Z</time>
      </trkpt>
      <trkpt lat="50.47952000" lon="9.873300000">
        <ele>0.0000000</ele>
        <time>2010-01-01T01:35:59Z</time>
      </trkpt>
      <trkpt lat="50.47949000" lon="9.873360000">
        <ele>0.0000000</ele>
        <time>2010-01-01T01:36:01Z</time>
      </trkpt>
      <trkpt lat="50.47947000" lon="9.873500000">
        <ele>0.0000000</ele>
        <time>2010-01-01T01:36:04Z</time>
      </trkpt>
      <trkpt lat="50.47947000" lon="9.873560000">
        <ele>0.0000000</ele>
        <time>2010-01-01T01:36:06Z</time>
      </trkpt>
      <trkpt lat="50.47948000" lon="9.873650000">
        <ele>0.0000000</ele>
        <time>2010-01-01T01:36:08Z</time>
      </trkpt>
      <trkpt lat="50.47950000" lon="9.873720000">
        <ele>0.0000000</ele>
        <time>2010-01-01T01:36:10Z</time>
      </trkpt>
      <trkpt lat="50.47954000" lon="9.873790000">
        <ele>0.0000000</ele>
        <time>2010-01-01T01:36:12Z</time>
      </trkpt>
      <trkpt lat="50.47957000" lon="9.873820000">
        <ele>0.0000000</ele>
        <time>2010-01-01T01:36:14Z</time>
      </trkpt>
      <trkpt lat="50.47960000" lon="9.873860000">
        <ele>0.0000000</ele>
        <time>2010-01-01T01:36:15Z</time>
      </trkpt>
      <trkpt lat="50.47968000" lon="9.873920000">
        <ele>0.0000000</ele>
        <time>2010-01-01T01:36:19Z</time>
      </trkpt>
      <trkpt lat="50.47980000" lon="9.873970000">
        <ele>0.0000000</ele>
        <time>2010-01-01T01:36:24Z</time>
      </trkpt>
      <trkpt lat="50.48013000" lon="9.874080000">
        <ele>0.0000000</ele>
        <time>2010-01-01T01:36:37Z</time>
      </trkpt>
      <trkpt lat="50.48026000" lon="9.874150000">
        <ele>0.0000000</ele>
        <time>2010-01-01T01:36:43Z</time>
      </trkpt>
      <trkpt lat="50.48035000" lon="9.874210000">
        <ele>0.0000000</ele>
        <time>2010-01-01T01:36:47Z</time>
      </trkpt>
      <trkpt lat="50.48048000" lon="9.874360000">
        <ele>0.0000000</ele>
        <time>2010-01-01T01:36:53Z</time>
      </trkpt>
      <trkpt lat="50.48060000" lon="9.874570000">
        <ele>0.0000000</ele>
        <time>2010-01-01T01:37:00Z</time>
      </trkpt>
      <trkpt lat="50.48072000" lon="9.874930000">
        <ele>0.0000000</ele>
        <time>2010-01-01T01:37:11Z</time>
      </trkpt>
      <trkpt lat="50.48090000" lon="9.875550000">
        <ele>0.0000000</ele>
        <time>2010-01-01T01:37:28Z</time>
      </trkpt>
      <trkpt lat="50.48097000" lon="9.875850000">
        <ele>0.0000000</ele>
        <time>2010-01-01T01:37:36Z</time>
      </trkpt>
      <trkpt lat="50.48097000" lon="9.876040000">
        <ele>0.0000000</ele>
        <time>2010-01-01T01:37:41Z</time>
      </trkpt>
      <trkpt lat="50.48096000" lon="9.876120000">
        <ele>0.0000000</ele>
        <time>2010-01-01T01:37:43Z</time>
      </trkpt>
      <trkpt lat="50.48090000" lon="9.876270000">
        <ele>0.0000000</ele>
        <time>2010-01-01T01:37:48Z</time>
      </trkpt>
      <trkpt lat="50.48081000" lon="9.876330000">
        <ele>0.0000000</ele>
        <time>2010-01-01T01:37:52Z</time>
      </trkpt>
      <trkpt lat="50.48078000" lon="9.876340000">
        <ele>0.0000000</ele>
        <time>2010-01-01T01:37:53Z</time>
      </trkpt>
      <trkpt lat="50.48074000" lon="9.876340000">
        <ele>0.0000000</ele>
        <time>2010-01-01T01:37:55Z</time>
      </trkpt>
      <trkpt lat="50.48067000" lon="9.876320000">
        <ele>0.0000000</ele>
        <time>2010-01-01T01:37:57Z</time>
      </trkpt>
      <trkpt lat="50.48060000" lon="9.876270000">
        <ele>0.0000000</ele>
        <time>2010-01-01T01:38:00Z</time>
      </trkpt>
      <trkpt lat="50.48053000" lon="9.876190000">
        <ele>0.0000000</ele>
        <time>2010-01-01T01:38:04Z</time>
      </trkpt>
      <trkpt lat="50.48038000" lon="9.875910000">
        <ele>0.0000000</ele>
        <time>2010-01-01T01:38:13Z</time>
      </trkpt>
      <trkpt lat="50.48035000" lon="9.875840000">
        <ele>0.0000000</ele>
        <time>2010-01-01T01:38:15Z</time>
      </trkpt>
      <trkpt lat="50.48025000" lon="9.875710000">
        <ele>0.0000000</ele>
        <time>2010-01-01T01:38:21Z</time>
      </trkpt>
      <trkpt lat="50.48014000" lon="9.875630000">
        <ele>0.0000000</ele>
        <time>2010-01-01T01:38:25Z</time>
      </trkpt>
      <trkpt lat="50.48002000" lon="9.875590000">
        <ele>0.0000000</ele>
        <time>2010-01-01T01:38:30Z</time>
      </trkpt>
      <trkpt lat="50.47902000" lon="9.875490000">
        <ele>0.0000000</ele>
        <time>2010-01-01T01:39:10Z</time>
      </trkpt>
      <trkpt lat="50.47869000" lon="9.875470000">
        <ele>0.0000000</ele>
        <time>2010-01-01T01:39:24Z</time>
      </trkpt>
      <trkpt lat="50.47845000" lon="9.875500000">
        <ele>0.0000000</ele>
        <time>2010-01-01T01:39:33Z</time>
      </trkpt>
      <trkpt lat="50.47799000" lon="9.875630000">
        <ele>0.0000000</ele>
        <time>2010-01-01T01:39:52Z</time>
      </trkpt>
      <trkpt lat="50.47782000" lon="9.875660000">
        <ele>0.0000000</ele>
        <time>2010-01-01T01:39:59Z</time>
      </trkpt>
      <trkpt lat="50.47760000" lon="9.875670000">
        <ele>0.0000000</ele>
        <time>2010-01-01T01:40:08Z</time>
      </trkpt>
      <trkpt lat="50.47728000" lon="9.875660000">
        <ele>0.0000000</ele>
        <time>2010-01-01T01:40:20Z</time>
      </trkpt>
      <trkpt lat="50.47646000" lon="9.875600000">
        <ele>0.0000000</ele>
        <time>2010-01-01T01:40:53Z</time>
      </trkpt>
      <trkpt lat="50.47632000" lon="9.875580000">
        <ele>0.0000000</ele>
        <time>2010-01-01T01:40:59Z</time>
      </trkpt>
      <trkpt lat="50.47622000" lon="9.875580000">
        <ele>0.0000000</ele>
        <time>2010-01-01T01:41:03Z</time>
      </trkpt>
      <trkpt lat="50.47596000" lon="9.875520000">
        <ele>0.0000000</ele>
        <time>2010-01-01T01:41:13Z</time>
      </trkpt>
      <trkpt lat="50.47573000" lon="9.875420000">
        <ele>0.0000000</ele>
        <time>2010-01-01T01:41:23Z</time>
      </trkpt>
      <trkpt lat="50.47551000" lon="9.875280000">
        <ele>0.0000000</ele>
        <time>2010-01-01T01:41:33Z</time>
      </trkpt>
      <trkpt lat="50.47541000" lon="9.875180000">
        <ele>0.0000000</ele>
        <time>2010-01-01T01:41:37Z</time>
      </trkpt>
      <trkpt lat="50.47535000" lon="9.875100000">
        <ele>0.0000000</ele>
        <time>2010-01-01T01:41:40Z</time>
      </trkpt>
      <trkpt lat="50.47526000" lon="9.874940000">
        <ele>0.0000000</ele>
        <time>2010-01-01T01:41:46Z</time>
      </trkpt>
      <trkpt lat="50.47523000" lon="9.874860000">
        <ele>0.0000000</ele>
        <time>2010-01-01T01:41:48Z</time>
      </trkpt>
      <trkpt lat="50.47518000" lon="9.874580000">
        <ele>0.0000000</ele>
        <time>2010-01-01T01:41:56Z</time>
      </trkpt>
      <trkpt lat="50.47498000" lon="9.872210000">
        <ele>0.0000000</ele>
        <time>2010-01-01T01:42:57Z</time>
      </trkpt>
      <trkpt lat="50.47499000" lon="9.871880000">
        <ele>0.0000000</ele>
        <time>2010-01-01T01:43:05Z</time>
      </trkpt>
      <trkpt lat="50.47512000" lon="9.870410000">
        <ele>0.0000000</ele>
        <time>2010-01-01T01:43:43Z</time>
      </trkpt>
      <trkpt lat="50.47511000" lon="9.870100000">
        <ele>0.0000000</ele>
        <time>2010-01-01T01:43:51Z</time>
      </trkpt>
      <trkpt lat="50.47507000" lon="9.869910000">
        <ele>0.0000000</ele>
        <time>2010-01-01T01:43:56Z</time>
      </trkpt>
      <trkpt lat="50.47503000" lon="9.869790000">
        <ele>0.0000000</ele>
        <time>2010-01-01T01:43:59Z</time>
      </trkpt>
      <trkpt lat="50.47494000" lon="9.869580000">
        <ele>0.0000000</ele>
        <time>2010-01-01T01:44:06Z</time>
      </trkpt>
      <trkpt lat="50.47468000" lon="9.869190000">
        <ele>0.0000000</ele>
        <time>2010-01-01T01:44:20Z</time>
      </trkpt>
      <trkpt lat="50.47259000" lon="9.866790000">
        <ele>0.0000000</ele>
        <time>2010-01-01T01:46:04Z</time>
      </trkpt>
      <trkpt lat="50.47239000" lon="9.866580000">
        <ele>0.0000000</ele>
        <time>2010-01-01T01:46:13Z</time>
      </trkpt>
      <trkpt lat="50.47235000" lon="9.866560000">
        <ele>0.0000000</ele>
        <time>2010-01-01T01:46:15Z</time>
      </trkpt>
      <trkpt lat="50.47231000" lon="9.866530000">
        <ele>0.0000000</ele>
        <time>2010-01-01T01:46:17Z</time>
      </trkpt>
      <trkpt lat="50.47220000" lon="9.866500000">
        <ele>0.0000000</ele>
        <time>2010-01-01T01:46:21Z</time>
      </trkpt>
      <trkpt lat="50.47215000" lon="9.866500000">
        <ele>0.0000000</ele>
        <time>2010-01-01T01:46:23Z</time>
      </trkpt>
      <trkpt lat="50.47208000" lon="9.866510000">
        <ele>0.0000000</ele>
        <time>2010-01-01T01:46:26Z</time>
      </trkpt>
      <trkpt lat="50.47204000" lon="9.866530000">
        <ele>0.0000000</ele>
        <time>2010-01-01T01:46:28Z</time>
      </trkpt>
      <trkpt lat="50.47196000" lon="9.866590000">
        <ele>0.0000000</ele>
        <time>2010-01-01T01:46:31Z</time>
      </trkpt>
      <trkpt lat="50.47189000" lon="9.866670000">
        <ele>0.0000000</ele>
        <time>2010-01-01T01:46:35Z</time>
      </trkpt>
      <trkpt lat="50.47180000" lon="9.866860000">
        <ele>0.0000000</ele>
        <time>2010-01-01T01:46:41Z</time>
      </trkpt>
      <trkpt lat="50.47179000" lon="9.866930000">
        <ele>0.0000000</ele>
        <time>2010-01-01T01:46:43Z</time>
      </trkpt>
      <trkpt lat="50.47176000" lon="9.867050000">
        <ele>0.0000000</ele>
        <time>2010-01-01T01:46:46Z</time>
      </trkpt>
      <trkpt lat="50.47165000" lon="9.868340000">
        <ele>0.0000000</ele>
        <time>2010-01-01T01:47:19Z</time>
      </trkpt>
      <trkpt lat="50.47160000" lon="9.868660000">
        <ele>0.0000000</ele>
        <time>2010-01-01T01:47:27Z</time>
      </trkpt>
      <trkpt lat="50.47151000" lon="9.869070000">
        <ele>0.0000000</ele>
        <time>2010-01-01T01:47:39Z</time>
      </trkpt>
      <trkpt lat="50.47140000" lon="9.869410000">
        <ele>0.0000000</ele>
        <time>2010-01-01T01:47:48Z</time>
      </trkpt>
      <trkpt lat="50.47133000" lon="9.869570000">
        <ele>0.0000000</ele>
        <time>2010-01-01T01:47:53Z</time>
      </trkpt>
      <trkpt lat="50.47118000" lon="9.869840000">
        <ele>0.0000000</ele>
        <time>2010-01-01T01:48:02Z</time>
      </trkpt>
      <trkpt lat="50.47103000" lon="9.870080000">
        <ele>0.0000000</ele>
        <time>2010-01-01T01:48:11Z</time>
      </trkpt>
      <trkpt lat="50.47069000" lon="9.870530000">
        <ele>0.0000000</ele>
        <time>2010-01-01T01:48:29Z</time>
      </trkpt>
      <trkpt lat="50.47053000" lon="9.870690000">
        <ele>0.0000000</ele>
        <time>2010-01-01T01:48:36Z</time>
      </trkpt>
      <trkpt lat="50.47039000" lon="9.870810000">
        <ele>0.0000000</ele>
        <time>2010-01-01T01:48:43Z</time>
      </trkpt>
      <trkpt lat="50.47014000" lon="9.870950000">
        <ele>0.0000000</ele>
        <time>2010-01-01T01:48:53Z</time>
      </trkpt>
      <trkpt lat="50.47000000" lon="9.871000000">
        <ele>0.0000000</ele>
        <time>2010-01-01T01:48:59Z</time>
      </trkpt>
      <trkpt lat="50.46969000" lon="9.871040000">
        <ele>0.0000000</ele>
        <time>2010-01-01T01:49:11Z</time>
      </trkpt>
      <trkpt lat="50.46961000" lon="9.871060000">
        <ele>0.0000000</ele>
        <time>2010-01-01T01:49:15Z</time>
      </trkpt>
      <trkpt lat="50.46946000" lon="9.871120000">
        <ele>0.0000000</ele>
        <time>2010-01-01T01:49:21Z</time>
      </trkpt>
      <trkpt lat="50.46934000" lon="9.871200000">
        <ele>0.0000000</ele>
        <time>2010-01-01T01:49:26Z</time>
      </trkpt>
      <trkpt lat="50.46928000" lon="9.871250000">
        <ele>0.0000000</ele>
        <time>2010-01-01T01:49:29Z</time>
      </trkpt>
      <trkpt lat="50.46913000" lon="9.871400000">
        <ele>0.0000000</ele>
        <time>2010-01-01T01:49:36Z</time>
      </trkpt>
      <trkpt lat="50.46896000" lon="9.871620000">
        <ele>0.0000000</ele>
        <time>2010-01-01T01:49:45Z</time>
      </trkpt>
      <trkpt lat="50.46885000" lon="9.871790000">
        <ele>0.0000000</ele>
        <time>2010-01-01T01:49:51Z</time>
      </trkpt>
      <trkpt lat="50.46876000" lon="9.871960000">
        <ele>0.0000000</ele>
        <time>2010-01-01T01:49:57Z</time>
      </trkpt>
      <trkpt lat="50.46868000" lon="9.872280000">
        <ele>0.0000000</ele>
        <time>2010-01-01T01:50:05Z</time>
      </trkpt>
      <trkpt lat="50.46866000" lon="9.872440000">
        <ele>0.0000000</ele>
        <time>2010-01-01T01:50:10Z</time>
      </trkpt>
      <trkpt lat="50.46866000" lon="9.872830000">
        <ele>0.0000000</ele>
        <time>2010-01-01T01:50:19Z</time>
      </trkpt>
      <trkpt lat="50.46870000" lon="9.873530000">
        <ele>0.0000000</ele>
        <time>2010-01-01T01:50:37Z</time>
      </trkpt>
      <trkpt lat="50.46868000" lon="9.874180000">
        <ele>0.0000000</ele>
        <time>2010-01-01T01:50:54Z</time>
      </trkpt>
      <trkpt lat="50.46858000" lon="9.875040000">
        <ele>0.0000000</ele>
        <time>2010-01-01T01:51:16Z</time>
      </trkpt>
      <trkpt lat="50.46852000" lon="9.875330000">
        <ele>0.0000000</ele>
        <time>2010-01-01T01:51:24Z</time>
      </trkpt>
      <trkpt lat="50.46841000" lon="9.875710000">
        <ele>0.0000000</ele>
        <time>2010-01-01T01:51:35Z</time>
      </trkpt>
      <trkpt lat="50.46830000" lon="9.875950000">
        <ele>0.0000000</ele>
        <time>2010-01-01T01:51:42Z</time>
      </trkpt>
      <trkpt lat="50.46826000" lon="9.876010000">
        <ele>0.0000000</ele>
        <time>2010-01-01T01:51:44Z</time>
      </trkpt>
      <trkpt lat="50.46808000" lon="9.876210000">
        <ele>0.0000000</ele>
        <time>2010-01-01T01:51:53Z</time>
      </trkpt>
      <trkpt lat="50.46804000" lon="9.876230000">
        <ele>0.0000000</ele>
        <time>2010-01-01T01:51:55Z</time>
      </trkpt>
      <trkpt lat="50.46796000" lon="9.876290000">
        <ele>0.0000000</ele>
        <time>2010-01-01T01:51:58Z</time>
      </trkpt>
      <trkpt lat="50.46789000" lon="9.876320000">
        <ele>0.0000000</ele>
        <time>2010-01-01T01:52:01Z</time>
      </trkpt>
      <trkpt lat="50.46782000" lon="9.876330000">
        <ele>0.0000000</ele>
        <time>2010-01-01T01:52:04Z</time>
      </trkpt>
      <trkpt lat="50.46772000" lon="9.876320000">
        <ele>0.0000000</ele>
        <time>2010-01-01T01:52:08Z</time>
      </trkpt>
      <trkpt lat="50.46565000" lon="9.875900000">
        <ele>0.0000000</ele>
        <time>2010-01-01T01:53:32Z</time>
      </trkpt>
      <trkpt lat="50.46499000" lon="9.875690000">
        <ele>0.0000000</ele>
        <time>2010-01-01T01:53:59Z</time>
      </trkpt>
      <trkpt lat="50.46492000" lon="9.875650000">
        <ele>0.0000000</ele>
        <time>2010-01-01T01:54:02Z</time>
      </trkpt>
      <trkpt lat="50.46484000" lon="9.875620000">
        <ele>0.0000000</ele>
        <time>2010-01-01T01:54:05Z</time>
      </trkpt>
      <trkpt lat="50.46458000" lon="9.875570000">
        <ele>0.0000000</ele>
        <time>2010-01-01T01:54:15Z</time>
      </trkpt>
      <trkpt lat="50.46424000" lon="9.875590000">
        <ele>0.0000000</ele>
        <time>2010-01-01T01:54:29Z</time>
      </trkpt>
      <trkpt lat="50.46344000" lon="9.875740000">
        <ele>0.0000000</ele>
        <time>2010-01-01T01:55:01Z</time>
      </trkpt>
      <trkpt lat="50.46306000" lon="9.875840000">
        <ele>0.0000000</ele>
        <time>2010-01-01T01:55:17Z</time>
      </trkpt>
      <trkpt lat="50.46283000" lon="9.875940000">
        <ele>0.0000000</ele>
        <time>2010-01-01T01:55:26Z</time>
      </trkpt>
      <trkpt lat="50.46255000" lon="9.876100000">
        <ele>0.0000000</ele>
        <time>2010-01-01T01:55:38Z</time>
      </trkpt>
      <trkpt lat="50.46232000" lon="9.876280000">
        <ele>0.0000000</ele>
        <time>2010-01-01T01:55:48Z</time>
      </trkpt>
      <trkpt lat="50.46123000" lon="9.877340000">
        <ele>0.0000000</ele>
        <time>2010-01-01T01:56:40Z</time>
      </trkpt>
      <trkpt lat="50.46108000" lon="9.877530000">
        <ele>0.0000000</ele>
        <time>2010-01-01T01:56:48Z</time>
      </trkpt>
      <trkpt lat="50.46094000" lon="9.877730000">
        <ele>0.0000000</ele>
        <time>2010-01-01T01:56:55Z</time>
      </trkpt>
      <trkpt lat="50.46079000" lon="9.878000000">
        <ele>0.0000000</ele>
        <time>2010-01-01T01:57:04Z</time>
      </trkpt>
      <trkpt lat="50.46055000" lon="9.878690000">
        <ele>0.0000000</ele>
        <time>2010-01-01T01:57:24Z</time>
      </trkpt>
      <trkpt lat="50.46034000" lon="9.879430000">
        <ele>0.0000000</ele>
        <time>2010-01-01T01:57:45Z</time>
      </trkpt>
      <trkpt lat="50.45956000" lon="9.881670000">
        <ele>0.0000000</ele>
        <time>2010-01-01T01:58:50Z</time>
      </trkpt>
      <trkpt lat="50.45930000" lon="9.882750000">
        <ele>0.0000000</ele>
        <time>2010-01-01T01:59:19Z</time>
      </trkpt>
      <trkpt lat="50.45917000" lon="9.883430000">
        <ele>0.0000000</ele>
        <time>2010-01-01T01:59:37Z</time>
      </trkpt>
      <trkpt lat="50.45912000" lon="9.883950000">
        <ele>0.0000000</ele>
        <time>2010-01-01T01:59:51Z</time>
      </trkpt>
      <trkpt lat="50.45911000" lon="9.884410000">
        <ele>0.0000000</ele>
        <time>2010-01-01T02:00:03Z</time>
      </trkpt>
      <trkpt lat="50.45908000" lon="9.884690000">
        <ele>0.0000000</ele>
        <time>2010-01-01T02:00:10Z</time>
      </trkpt>
      <trkpt lat="50.45904000" lon="9.884890000">
        <ele>0.0000000</ele>
        <time>2010-01-01T02:00:15Z</time>
      </trkpt>
      <trkpt lat="50.45899000" lon="9.885020000">
        <ele>0.0000000</ele>
        <time>2010-01-01T02:00:19Z</time>
      </trkpt>
      <trkpt lat="50.45860000" lon="9.885740000">
        <ele>0.0000000</ele>
        <time>2010-01-01T02:00:43Z</time>
      </trkpt>
      <trkpt lat="50.45856000" lon="9.885840000">
        <ele>0.0000000</ele>
        <time>2010-01-01T02:00:46Z</time>
      </trkpt>
      <trkpt lat="50.45839000" lon="9.886410000">
        <ele>0.0000000</ele>
        <time>2010-01-01T02:01:02Z</time>
      </trkpt>
      <trkpt lat="50.45791000" lon="9.888290000">
        <ele>0.0000000</ele>
        <time>2010-01-01T02:01:54Z</time>
      </trkpt>
      <trkpt lat="50.45781000" lon="9.888610000">
        <ele>0.0000000</ele>
        <time>2010-01-01T02:02:03Z</time>
      </trkpt>
      <trkpt lat="50.45770000" lon="9.888910000">
        <ele>0.0000000</ele>
        <time>2010-01-01T02:02:12Z</time>
      </trkpt>
      <trkpt lat="50.45748000" lon="9.889410000">
        <ele>0.0000000</ele>
        <time>2010-01-01T02:02:27Z</time>
      </trkpt>
      <trkpt lat="50.45737000" lon="9.889610000">
        <ele>0.0000000</ele>
        <time>2010-01-01T02:02:34Z</time>
      </trkpt>
      <trkpt lat="50.45688000" lon="9.890330000">
        <ele>0.0000000</ele>
        <time>2010-01-01T02:03:01Z</time>
      </trkpt>
      <trkpt lat="50.45630000" lon="9.891330000">
        <ele>0.0000000</ele>
        <time>2010-01-01T02:03:35Z</time>
      </trkpt>
      <trkpt lat="50.45598000" lon="9.892030000">
        <ele>0.0000000</ele>
        <time>2010-01-01T02:03:57Z</time>
      </trkpt>
      <trkpt lat="50.45578000" lon="9.892600000">
        <ele>0.0000000</ele>
        <time>2010-01-01T02:04:14Z</time>
      </trkpt>
      <trkpt lat="50.45571000" lon="9.893000000">
        <ele>0.0000000</ele>
        <time>2010-01-01T02:04:24Z</time>
      </trkpt>
      <trkpt lat="50.45571000" lon="9.893160000">
        <ele>0.0000000</ele>
        <time>2010-01-01T02:04:28Z</time>
      </trkpt>
      <trkpt lat="50.45564000" lon="9.893350000">
        <ele>0.0000000</ele>
        <time>2010-01-01T02:04:34Z</time>
      </trkpt>
      <trkpt lat="50.45559000" lon="9.893370000">
        <ele>0.0000000</ele>
        <time>2010-01-01T02:04:36Z</time>
      </trkpt>
      <trkpt lat="50.45540000" lon="9.893410000">
        <ele>0.0000000</ele>
        <time>2010-01-01T02:04:44Z</time>
      </trkpt>
      <trkpt lat="50.45473000" lon="9.896980000">
        <ele>0.0000000</ele>
        <time>2010-01-01T02:06:19Z</time>
      </trkpt>
      <trkpt lat="50.45473000" lon="9.897060000">
        <ele>0.0000000</ele>
        <time>2010-01-01T02:06:21Z</time>
      </trkpt>
      <trkpt lat="50.45468000" lon="9.897560000">
        <ele>0.0000000</ele>
        <time>2010-01-01T02:06:34Z</time>
      </trkpt>
      <trkpt lat="50.45465000" lon="9.898440000">
        <ele>0.0000000</ele>
        <time>2010-01-01T02:06:56Z</time>
      </trkpt>
      <trkpt lat="50.45459000" lon="9.899200000">
        <ele>0.0000000</ele>
        <time>2010-01-01T02:07:16Z</time>
      </trkpt>
      <trkpt lat="50.45418000" lon="9.901330000">
        <ele>0.0000000</ele>
        <time>2010-01-01T02:08:12Z</time>
      </trkpt>
      <trkpt lat="50.45408000" lon="9.901700000">
        <ele>0.0000000</ele>
        <time>2010-01-01T02:08:23Z</time>
      </trkpt>
      <trkpt lat="50.45396000" lon="9.902050000">
        <ele>0.0000000</ele>
        <time>2010-01-01T02:08:33Z</time>
      </trkpt>
      <trkpt lat="50.45360000" lon="9.902940000">
        <ele>0.0000000</ele>
        <time>2010-01-01T02:09:00Z</time>
      </trkpt>
      <trkpt lat="50.45306000" lon="9.904470000">
        <ele>0.0000000</ele>
        <time>2010-01-01T02:09:44Z</time>
      </trkpt>
      <trkpt lat="50.45300000" lon="9.904570000">
        <ele>0.0000000</ele>
        <time>2010-01-01T02:09:48Z</time>
      </trkpt>
      <trkpt lat="50.45297000" lon="9.904660000">
        <ele>0.0000000</ele>
        <time>2010-01-01T02:09:50Z</time>
      </trkpt>
      <trkpt lat="50.45284000" lon="9.904970000">
        <ele>0.0000000</ele>
        <time>2010-01-01T02:10:00Z</time>
      </trkpt>
      <trkpt lat="50.45270000" lon="9.905380000">
        <ele>0.0000000</ele>
        <time>2010-01-01T02:10:12Z</time>
      </trkpt>
      <trkpt lat="50.45259000" lon="9.905810000">
        <ele>0.0000000</ele>
        <time>2010-01-01T02:10:23Z</time>
      </trkpt>
      <trkpt lat="50.45254000" lon="9.906060000">
        <ele>0.0000000</ele>
        <time>2010-01-01T02:10:30Z</time>
      </trkpt>
      <trkpt lat="50.45253000" lon="9.906150000">
        <ele>0.0000000</ele>
        <time>2010-01-01T02:10:32Z</time>
      </trkpt>
      <trkpt lat="50.45248000" lon="9.906380000">
        <ele>0.0000000</ele>
        <time>2010-01-01T02:10:39Z</time>
      </trkpt>
      <trkpt lat="50.45204000" lon="9.909620000">
        <ele>0.0000000</ele>
        <time>2010-01-01T02:12:03Z</time>
      </trkpt>
      <trkpt lat="50.45195000" lon="9.910120000">
        <ele>0.0000000</ele>
        <time>2010-01-01T02:12:16Z</time>
      </trkpt>
      <trkpt lat="50.45168000" lon="9.911170000">
        <ele>0.0000000</ele>
        <time>2010-01-01T02:12:45Z</time>
      </trkpt>
      <trkpt lat="50.45145000" lon="9.911920000">
        <ele>0.0000000</ele>
        <time>2010-01-01T02:13:06Z</time>
      </trkpt>
      <trkpt lat="50.45125000" lon="9.912700000">
        <ele>0.0000000</ele>
        <time>2010-01-01T02:13:28Z</time>
      </trkpt>
      <trkpt lat="50.45122000" lon="9.912900000">
        <ele>0.0000000</ele>
        <time>2010-01-01T02:13:33Z</time>
      </trkpt>
      <trkpt lat="50.45056000" lon="9.915300000">
        <ele>0.0000000</ele>
        <time>2010-01-01T02:14:40Z</time>
      </trkpt>
      <trkpt lat="50.45041000" lon="9.916110000">
        <ele>0.0000000</ele>
        <time>2010-01-01T02:15:01Z</time>
      </trkpt>
      <trkpt lat="50.45026000" lon="9.917940000">
        <ele>0.0000000</ele>
        <time>2010-01-01T02:15:48Z</time>
      </trkpt>
      <trkpt lat="50.45017000" lon="9.918370000">
        <ele>0.0000000</ele>
        <time>2010-01-01T02:16:00Z</time>
      </trkpt>
      <trkpt lat="50.45005000" lon="9.918780000">
        <ele>0.0000000</ele>
        <time>2010-01-01T02:16:11Z</time>
      </trkpt>
      <trkpt lat="50.44998000" lon="9.918970000">
        <ele>0.0000000</ele>
        <time>2010-01-01T02:16:17Z</time>
      </trkpt>
      <trkpt lat="50.44992000" lon="9.919080000">
        <ele>0.0000000</ele>
        <time>2010-01-01T02:16:21Z</time>
      </trkpt>
      <trkpt lat="50.44988000" lon="9.919170000">
        <ele>0.0000000</ele>
        <time>2010-01-01T02:16:23Z</time>
      </trkpt>
      <trkpt lat="50.44981000" lon="9.919280000">
        <ele>0.0000000</ele>
        <time>2010-01-01T02:16:27Z</time>
      </trkpt>
      <trkpt lat="50.44967000" lon="9.919460000">
        <ele>0.0000000</ele>
        <time>2010-01-01T02:16:35Z</time>
      </trkpt>
      <trkpt lat="50.44953000" lon="9.919600000">
        <ele>0.0000000</ele>
        <time>2010-01-01T02:16:41Z</time>
      </trkpt>
      <trkpt lat="50.44946000" lon="9.919650000">
        <ele>0.0000000</ele>
        <time>2010-01-01T02:16:44Z</time>
      </trkpt>
      <trkpt lat="50.44955000" lon="9.919900000">
        <ele>0.0000000</ele>
        <time>2010-01-01T02:16:52Z</time>
      </trkpt>
      <trkpt lat="50.44959000" lon="9.919990000">
        <ele>0.0000000</ele>
        <time>2010-01-01T02:16:54Z</time>
      </trkpt>
      <trkpt lat="50.44975000" lon="9.920250000">
        <ele>0.0000000</ele>
        <time>2010-01-01T02:17:04Z</time>
      </trkpt>
      <trkpt lat="50.44997000" lon="9.920480000">
        <ele>0.0000000</ele>
        <time>2010-01-01T02:17:14Z</time>
      </trkpt>
      <trkpt lat="50.45011000" lon="9.920540000">
        <ele>0.0000000</ele>
        <time>2010-01-01T02:17:20Z</time>
      </trkpt>
      <trkpt lat="50.45028000" lon="9.920650000">
        <ele>0.0000000</ele>
        <time>2010-01-01T02:17:27Z</time>
      </trkpt>
      <trkpt lat="50.45042000" lon="9.920770000">
        <ele>0.0000000</ele>
        <time>2010-01-01T02:17:34Z</time>
      </trkpt>
      <trkpt lat="50.45050000" lon="9.920870000">
        <ele>0.0000000</ele>
        <time>2010-01-01T02:17:38Z</time>
      </trkpt>
      <trkpt lat="50.45056000" lon="9.920970000">
        <ele>0.0000000</ele>
        <time>2010-01-01T02:17:41Z</time>
      </trkpt>
      <trkpt lat="50.45066000" lon="9.921190000">
        <ele>0.0000000</ele>
        <time>2010-01-01T02:17:48Z</time>
      </trkpt>
      <trkpt lat="50.45073000" lon="9.921430000">
        <ele>0.0000000</ele>
        <time>2010-01-01T02:17:55Z</time>
      </trkpt>
      <trkpt lat="50.45076000" lon="9.921610000">
        <ele>0.0000000</ele>
        <time>2010-01-01T02:18:00Z</time>
      </trkpt>
      <trkpt lat="50.45080000" lon="9.921990000">
        <ele>0.0000000</ele>
        <time>2010-01-01T02:18:09Z</time>
      </trkpt>
      <trkpt lat="50.45080000" lon="9.922080000">
        <ele>0.0000000</ele>
        <time>2010-01-01T02:18:12Z</time>
      </trkpt>
      <trkpt lat="50.45084000" lon="9.922440000">
        <ele>0.0000000</ele>
        <time>2010-01-01T02:18:21Z</time>
      </trkpt>
      <trkpt lat="50.45097000" lon="9.923130000">
        <ele>0.0000000</ele>
        <time>2010-01-01T02:18:39Z</time>
      </trkpt>
      <trkpt lat="50.45117000" lon="9.923780000">
        <ele>0.0000000</ele>
        <time>2010-01-01T02:18:58Z</time>
      </trkpt>
      <trkpt lat="50.45198000" lon="9.925750000">
        <ele>0.0000000</ele>
        <time>2010-01-01T02:19:58Z</time>
      </trkpt>
      <trkpt lat="50.45224000" lon="9.926480000">
        <ele>0.0000000</ele>
        <time>2010-01-01T02:20:19Z</time>
      </trkpt>
      <trkpt lat="50.45292000" lon="9.928700000">
        <ele>0.0000000</ele>
        <time>2010-01-01T02:21:22Z</time>
      </trkpt>
      <trkpt lat="50.45294000" lon="9.928850000">
        <ele>0.0000000</ele>
        <time>2010-01-01T02:21:26Z</time>
      </trkpt>
      <trkpt lat="50.45437000" lon="9.933520000">
        <ele>0.0000000</ele>
        <time>2010-01-01T02:23:38Z</time>
      </trkpt>
      <trkpt lat="50.45486000" lon="9.934840000">
        <ele>0.0000000</ele>
        <time>2010-01-01T02:24:17Z</time>
      </trkpt>
      <trkpt lat="50.45506000" lon="9.935300000">
        <ele>0.0000000</ele>
        <time>2010-01-01T02:24:31Z</time>
      </trkpt>
      <trkpt lat="50.45537000" lon="9.935880000">
        <ele>0.0000000</ele>
        <time>2010-01-01T02:24:50Z</time>
      </trkpt>
      <trkpt lat="50.45562000" lon="9.936280000">
        <ele>0.0000000</ele>
        <time>2010-01-01T02:25:04Z</time>
      </trkpt>
      <trkpt lat="50.45592000" lon="9.936690000">
        <ele>0.0000000</ele>
        <time>2010-01-01T02:25:20Z</time>
      </trkpt>
      <trkpt lat="50.45622000" lon="9.937020000">
        <ele>0.0000000</ele>
        <time>2010-01-01T02:25:35Z</time>
      </trkpt>
      <trkpt lat="50.45655000" lon="9.937320000">
        <ele>0.0000000</ele>
        <time>2010-01-01T02:25:50Z</time>
      </trkpt>
      <trkpt lat="50.45670000" lon="9.937430000">
        <ele>0.0000000</ele>
        <time>2010-01-01T02:25:57Z</time>
      </trkpt>
      <trkpt lat="50.45704000" lon="9.937640000">
        <ele>0.0000000</ele>
        <time>2010-01-01T02:26:12Z</time>
      </trkpt>
      <trkpt lat="50.45726000" lon="9.937750000">
        <ele>0.0000000</ele>
        <time>2010-01-01T02:26:21Z</time>
      </trkpt>
      <trkpt lat="50.45758000" lon="9.937870000">
        <ele>0.0000000</ele>
        <time>2010-01-01T02:26:34Z</time>
      </trkpt>
      <trkpt lat="50.45797000" lon="9.937970000">
        <ele>0.0000000</ele>
        <time>2010-01-01T02:26:50Z</time>
      </trkpt>
      <trkpt lat="50.45830000" lon="9.938000000">
        <ele>0.0000000</ele>
        <time>2010-01-01T02:27:03Z</time>
      </trkpt>
      <trkpt lat="50.45872000" lon="9.937990000">
        <ele>0.0000000</ele>
        <time>2010-01-01T02:27:20Z</time>
      </trkpt>
      <trkpt lat="50.45906000" lon="9.937950000">
        <ele>0.0000000</ele>
        <time>2010-01-01T02:27:33Z</time>
      </trkpt>
      <trkpt lat="50.45944000" lon="9.937870000">
        <ele>0.0000000</ele>
        <time>2010-01-01T02:27:49Z</time>
      </trkpt>
      <trkpt lat="50.46016000" lon="9.937630000">
        <ele>0.0000000</ele>
        <time>2010-01-01T02:28:18Z</time>
      </trkpt>
      <trkpt lat="50.46156000" lon="9.937030000">
        <ele>0.0000000</ele>
        <time>2010-01-01T02:29:16Z</time>
      </trkpt>
      <trkpt lat="50.46180000" lon="9.936940000">
        <ele>0.0000000</ele>
        <time>2010-01-01T02:29:26Z</time>
      </trkpt>
      <trkpt lat="50.46210000" lon="9.936860000">
        <ele>0.0000000</ele>
        <time>2010-01-01T02:29:38Z</time>
      </trkpt>
      <trkpt lat="50.46247000" lon="9.936780000">
        <ele>0.0000000</ele>
        <time>2010-01-01T02:29:53Z</time>
      </trkpt>
      <trkpt lat="50.46275000" lon="9.936760000">
        <ele>0.0000000</ele>
        <time>2010-01-01T02:30:05Z</time>
      </trkpt>
      <trkpt lat="50.46316000" lon="9.936770000">
        <ele>0.0000000</ele>
        <time>2010-01-01T02:30:21Z</time>
      </trkpt>
      <trkpt lat="50.46348000" lon="9.936810000">
        <ele>0.0000000</ele>
        <time>2010-01-01T02:30:34Z</time>
      </trkpt>
      <trkpt lat="50.46433000" lon="9.937060000">
        <ele>0.0000000</ele>
        <time>2010-01-01T02:31:08Z</time>
      </trkpt>
      <trkpt lat="50.46517000" lon="9.937370000">
        <ele>0.0000000</ele>
        <time>2010-01-01T02:31:43Z</time>
      </trkpt>
      <trkpt lat="50.46536000" lon="9.937470000">
        <ele>0.0000000</ele>
        <time>2010-01-01T02:31:51Z</time>
      </trkpt>
      <trkpt lat="50.46556000" lon="9.937620000">
        <ele>0.0000000</ele>
        <time>2010-01-01T02:32:00Z</time>
      </trkpt>
      <trkpt lat="50.46564000" lon="9.937700000">
        <ele>0.0000000</ele>
        <time>2010-01-01T02:32:04Z</time>
      </trkpt>
      <trkpt lat="50.46643000" lon="9.938630000">
        <ele>0.0000000</ele>
        <time>2010-01-01T02:32:43Z</time>
      </trkpt>
      <trkpt lat="50.46652000" lon="9.938720000">
        <ele>0.0000000</ele>
        <time>2010-01-01T02:32:47Z</time>
      </trkpt>
      <trkpt lat="50.46670000" lon="9.938870000">
        <ele>0.0000000</ele>
        <time>2010-01-01T02:32:56Z</time>
      </trkpt>
      <trkpt lat="50.46681000" lon="9.938940000">
        <ele>0.0000000</ele>
        <time>2010-01-01T02:33:00Z</time>
      </trkpt>
      <trkpt lat="50.46707000" lon="9.939060000">
        <ele>0.0000000</ele>
        <time>2010-01-01T02:33:11Z</time>
      </trkpt>
      <trkpt lat="50.46726000" lon="9.939100000">
        <ele>0.0000000</ele>
        <time>2010-01-01T02:33:19Z</time>
      </trkpt>
      <trkpt lat="50.46752000" lon="9.939120000">
        <ele>0.0000000</ele>
        <time>2010-01-01T02:33:29Z</time>
      </trkpt>
      <trkpt lat="50.46764000" lon="9.939110000">
        <ele>0.0000000</ele>
        <time>2010-01-01T02:33:34Z</time>
      </trkpt>
      <trkpt lat="50.46774000" lon="9.939110000">
        <ele>0.0000000</ele>
        <time>2010-01-01T02:33:38Z</time>
      </trkpt>
      <trkpt lat="50.46869000" lon="9.939030000">
        <ele>0.0000000</ele>
        <time>2010-01-01T02:34:16Z</time>
      </trkpt>
      <trkpt lat="50.46879000" lon="9.939030000">
        <ele>0.0000000</ele>
        <time>2010-01-01T02:34:20Z</time>
      </trkpt>
      <trkpt lat="50.46913000" lon="9.939090000">
        <ele>0.0000000</ele>
        <time>2010-01-01T02:34:34Z</time>
      </trkpt>
      <trkpt lat="50.46941000" lon="9.939180000">
        <ele>0.0000000</ele>
        <time>2010-01-01T02:34:45Z</time>
      </trkpt>
      <trkpt lat="50.46965000" lon="9.939310000">
        <ele>0.0000000</ele>
        <time>2010-01-01T02:34:56Z</time>
      </trkpt>
      <trkpt lat="50.46994000" lon="9.939510000">
        <ele>0.0000000</ele>
        <time>2010-01-01T02:35:08Z</time>
      </trkpt>
      <trkpt lat="50.47011000" lon="9.939650000">
        <ele>0.0000000</ele>
        <time>2010-01-01T02:35:16Z</time>
      </trkpt>
      <trkpt lat="50.47161000" lon="9.941050000">
        <ele>0.0000000</ele>
        <time>2010-01-01T02:36:26Z</time>
      </trkpt>
      <trkpt lat="50.47181000" lon="9.941190000">
        <ele>0.0000000</ele>
        <time>2010-01-01T02:36:34Z</time>
      </trkpt>
      <trkpt lat="50.47198000" lon="9.941260000">
        <ele>0.0000000</ele>
        <time>2010-01-01T02:36:42Z</time>
      </trkpt>
      <trkpt lat="50.47217000" lon="9.941320000">
        <ele>0.0000000</ele>
        <time>2010-01-01T02:36:49Z</time>
      </trkpt>
      <trkpt lat="50.47237000" lon="9.941350000">
        <ele>0.0000000</ele>
        <time>2010-01-01T02:36:57Z</time>
      </trkpt>
      <trkpt lat="50.47255000" lon="9.941350000">
        <ele>0.0000000</ele>
        <time>2010-01-01T02:37:05Z</time>
      </trkpt>
      <trkpt lat="50.47263000" lon="9.941340000">
        <ele>0.0000000</ele>
        <time>2010-01-01T02:37:08Z</time>
      </trkpt>
      <trkpt lat="50.47276000" lon="9.941310000">
        <ele>0.0000000</ele>
        <time>2010-01-01T02:37:13Z</time>
      </trkpt>
      <trkpt lat="50.47287000" lon="9.941270000">
        <ele>0.0000000</ele>
        <time>2010-01-01T02:37:18Z</time>
      </trkpt>
      <trkpt lat="50.47383000" lon="9.940730000">
        <ele>0.0000000</ele>
        <time>2010-01-01T02:37:58Z</time>
      </trkpt>
      <trkpt lat="50.47399000" lon="9.940660000">
        <ele>0.0000000</ele>
        <time>2010-01-01T02:38:05Z</time>
      </trkpt>
      <trkpt lat="50.47410000" lon="9.940630000">
        <ele>0.0000000</ele>
        <time>2010-01-01T02:38:09Z</time>
      </trkpt>
      <trkpt lat="50.47430000" lon="9.940600000">
        <ele>0.0000000</ele>
        <time>2010-01-01T02:38:17Z</time>
      </trkpt>
      <trkpt lat="50.47440000" lon="9.940600000">
        <ele>0.0000000</ele>
        <time>2010-01-01T02:38:21Z</time>
      </trkpt>
      <trkpt lat="50.47457000" lon="9.940620000">
        <ele>0.0000000</ele>
        <time>2010-01-01T02:38:28Z</time>
      </trkpt>
      <trkpt lat="50.47473000" lon="9.940660000">
        <ele>0.0000000</ele>
        <time>2010-01-01T02:38:35Z</time>
      </trkpt>
      <trkpt lat="50.47513000" lon="9.940880000">
        <ele>0.0000000</ele>
        <time>2010-01-01T02:38:52Z</time>
      </trkpt>
      <trkpt lat="50.47563000" lon="9.941200000">
        <ele>0.0000000</ele>
        <time>2010-01-01T02:39:13Z</time>
      </trkpt>
      <trkpt lat="50.47586000" lon="9.941330000">
        <ele>0.0000000</ele>
        <time>2010-01-01T02:39:23Z</time>
      </trkpt>
      <trkpt lat="50.47604000" lon="9.941410000">
        <ele>0.0000000</ele>
        <time>2010-01-01T02:39:31Z</time>
      </trkpt>
      <trkpt lat="50.47660000" lon="9.941620000">
        <ele>0.0000000</ele>
        <time>2010-01-01T02:39:54Z</time>
      </trkpt>
      <trkpt lat="50.47668000" lon="9.941660000">
        <ele>0.0000000</ele>
        <time>2010-01-01T02:39:57Z</time>
      </trkpt>
      <trkpt lat="50.47688000" lon="9.941740000">
        <ele>0.0000000</ele>
        <time>2010-01-01T02:40:05Z</time>
      </trkpt>
      <trkpt lat="50.47714000" lon="9.941920000">
        <ele>0.0000000</ele>
        <time>2010-01-01T02:40:17Z</time>
      </trkpt>
      <trkpt lat="50.47758000" lon="9.942340000">
        <ele>0.0000000</ele>
        <time>2010-01-01T02:40:37Z</time>
      </trkpt>
      <trkpt lat="50.47799000" lon="9.942700000">
        <ele>0.0000000</ele>
        <time>2010-01-01T02:40:56Z</time>
      </trkpt>
      <trkpt lat="50.47824000" lon="9.942850000">
        <ele>0.0000000</ele>
        <time>2010-01-01T02:41:07Z</time>
      </trkpt>
      <trkpt lat="50.47832000" lon="9.942880000">
        <ele>0.0000000</ele>
        <time>2010-01-01T02:41:10Z</time>
      </trkpt>
      <trkpt lat="50.47841000" lon="9.942900000">
        <ele>0.0000000</ele>
        <time>2010-01-01T02:41:14Z</time>
      </trkpt>
      <trkpt lat="50.47847000" lon="9.942920000">
        <ele>0.0000000</ele>
        <time>2010-01-01T02:41:16Z</time>
      </trkpt>
      <trkpt lat="50.47859000" lon="9.942940000">
        <ele>0.0000000</ele>
        <time>2010-01-01T02:41:21Z</time>
      </trkpt>
      <trkpt lat="50.47954000" lon="9.943030000">
        <ele>0.0000000</ele>
        <time>2010-01-01T02:41:59Z</time>
      </trkpt>
      <trkpt lat="50.47963000" lon="9.943030000">
        <ele>0.0000000</ele>
        <time>2010-01-01T02:42:03Z</time>
      </trkpt>
      <trkpt lat="50.48012000" lon="9.943080000">
        <ele>0.0000000</ele>
        <time>2010-01-01T02:42:22Z</time>
      </trkpt>
      <trkpt lat="50.48037000" lon="9.943150000">
        <ele>0.0000000</ele>
        <time>2010-01-01T02:42:33Z</time>
      </trkpt>
      <trkpt lat="50.48052000" lon="9.943210000">
        <ele>0.0000000</ele>
        <time>2010-01-01T02:42:39Z</time>
      </trkpt>
      <trkpt lat="50.48063000" lon="9.943270000">
        <ele>0.0000000</ele>
        <time>2010-01-01T02:42:43Z</time>
      </trkpt>
      <trkpt lat="50.48086000" lon="9.943420000">
        <ele>0.0000000</ele>
        <time>2010-01-01T02:42:53Z</time>
      </trkpt>
      <trkpt lat="50.48257000" lon="9.944820000">
        <ele>0.0000000</ele>
        <time>2010-01-01T02:44:11Z</time>
      </trkpt>
      <trkpt lat="50.48262000" lon="9.944870000">
        <ele>0.0000000</ele>
        <time>2010-01-01T02:44:13Z</time>
      </trkpt>
      <trkpt lat="50.48277000" lon="9.944990000">
        <ele>0.0000000</ele>
        <time>2010-01-01T02:44:20Z</time>
      </trkpt>
      <trkpt lat="50.48299000" lon="9.945240000">
        <ele>0.0000000</ele>
        <time>2010-01-01T02:44:31Z</time>
      </trkpt>
      <trkpt lat="50.48304000" lon="9.945310000">
        <ele>0.0000000</ele>
        <time>2010-01-01T02:44:33Z</time>
      </trkpt>
      <trkpt lat="50.48321000" lon="9.945610000">
        <ele>0.0000000</ele>
        <time>2010-01-01T02:44:43Z</time>
      </trkpt>
      <trkpt lat="50.48357000" lon="9.946310000">
        <ele>0.0000000</ele>
        <time>2010-01-01T02:45:06Z</time>
      </trkpt>
      <trkpt lat="50.48377000" lon="9.946660000">
        <ele>0.0000000</ele>
        <time>2010-01-01T02:45:18Z</time>
      </trkpt>
      <trkpt lat="50.48394000" lon="9.946910000">
        <ele>0.0000000</ele>
        <time>2010-01-01T02:45:28Z</time>
      </trkpt>
      <trkpt lat="50.48405000" lon="9.947040000">
        <ele>0.0000000</ele>
        <time>2010-01-01T02:45:33Z</time>
      </trkpt>
      <trkpt lat="50.48427000" lon="9.947230000">
        <ele>0.0000000</ele>
        <time>2010-01-01T02:45:43Z</time>
      </trkpt>
      <trkpt lat="50.48442000" lon="9.947340000">
        <ele>0.0000000</ele>
        <time>2010-01-01T02:45:50Z</time>
      </trkpt>
      <trkpt lat="50.48546000" lon="9.947860000">
        <ele>0.0000000</ele>
        <time>2010-01-01T02:46:34Z</time>
      </trkpt>
      <trkpt lat="50.48562000" lon="9.947950000">
        <ele>0.0000000</ele>
        <time>2010-01-01T02:46:40Z</time>
      </trkpt>
      <trkpt lat="50.48572000" lon="9.948030000">
        <ele>0.0000000</ele>
        <time>2010-01-01T02:46:45Z</time>
      </trkpt>
      <trkpt lat="50.48582000" lon="9.948130000">
        <ele>0.0000000</ele>
        <time>2010-01-01T02:46:50Z</time>
      </trkpt>
      <trkpt lat="50.48595000" lon="9.948340000">
        <ele>0.0000000</ele>
        <time>2010-01-01T02:46:57Z</time>
      </trkpt>
      <trkpt lat="50.48601000" lon="9.948550000">
        <ele>0.0000000</ele>
        <time>2010-01-01T02:47:03Z</time>
      </trkpt>
      <trkpt lat="50.48603000" lon="9.948670000">
        <ele>0.0000000</ele>
        <time>2010-01-01T02:47:06Z</time>
      </trkpt>
      <trkpt lat="50.48603000" lon="9.948850000">
        <ele>0.0000000</ele>
        <time>2010-01-01T02:47:11Z</time>
      </trkpt>
      <trkpt lat="50.48602000" lon="9.948940000">
        <ele>0.0000000</ele>
        <time>2010-01-01T02:47:13Z</time>
      </trkpt>
      <trkpt lat="50.48602000" lon="9.949020000">
        <ele>0.0000000</ele>
        <time>2010-01-01T02:47:15Z</time>
      </trkpt>
      <trkpt lat="50.48599000" lon="9.949130000">
        <ele>0.0000000</ele>
        <time>2010-01-01T02:47:18Z</time>
      </trkpt>
      <trkpt lat="50.48595000" lon="9.949240000">
        <ele>0.0000000</ele>
        <time>2010-01-01T02:47:21Z</time>
      </trkpt>
      <trkpt lat="50.48588000" lon="9.949380000">
        <ele>0.0000000</ele>
        <time>2010-01-01T02:47:26Z</time>
      </trkpt>
      <trkpt lat="50.48582000" lon="9.949470000">
        <ele>0.0000000</ele>
        <time>2010-01-01T02:47:29Z</time>
      </trkpt>
      <trkpt lat="50.48564000" lon="9.949640000">
        <ele>0.0000000</ele>
        <time>2010-01-01T02:47:38Z</time>
      </trkpt>
      <trkpt lat="50.48436000" lon="9.950590000">
        <ele>0.0000000</ele>
        <time>2010-01-01T02:48:34Z</time>
      </trkpt>
      <trkpt lat="50.48416000" lon="9.950780000">
        <ele>0.0000000</ele>
        <time>2010-01-01T02:48:44Z</time>
      </trkpt>
      <trkpt lat="50.48393000" lon="9.951030000">
        <ele>0.0000000</ele>
        <time>2010-01-01T02:48:55Z</time>
      </trkpt>
      <trkpt lat="50.48361000" lon="9.951430000">
        <ele>0.0000000</ele>
        <time>2010-01-01T02:49:11Z</time>
      </trkpt>
      <trkpt lat="50.48342000" lon="9.951730000">
        <ele>0.0000000</ele>
        <time>2010-01-01T02:49:22Z</time>
      </trkpt>
      <trkpt lat="50.48307000" lon="9.952380000">
        <ele>0.0000000</ele>
        <time>2010-01-01T02:49:44Z</time>
      </trkpt>
      <trkpt lat="50.48294000" lon="9.952660000">
        <ele>0.0000000</ele>
        <time>2010-01-01T02:49:52Z</time>
      </trkpt>
      <trkpt lat="50.48193000" lon="9.955370000">
        <ele>0.0000000</ele>
        <time>2010-01-01T02:51:12Z</time>
      </trkpt>
      <trkpt lat="50.48179000" lon="9.955900000">
        <ele>0.0000000</ele>
        <time>2010-01-01T02:51:27Z</time>
      </trkpt>
      <trkpt lat="50.48147000" lon="9.958050000">
        <ele>0.0000000</ele>
        <time>2010-01-01T02:52:23Z</time>
      </trkpt>
      <trkpt lat="50.48145000" lon="9.958640000">
        <ele>0.0000000</ele>
        <time>2010-01-01T02:52:38Z</time>
      </trkpt>
      <trkpt lat="50.48147000" lon="9.959010000">
        <ele>0.0000000</ele>
        <time>2010-01-01T02:52:48Z</time>
      </trkpt>
      <trkpt lat="50.48152000" lon="9.959360000">
        <ele>0.0000000</ele>
        <time>2010-01-01T02:52:57Z</time>
      </trkpt>
      <trkpt lat="50.48159000" lon="9.959660000">
        <ele>0.0000000</ele>
        <time>2010-01-01T02:53:05Z</time>
      </trkpt>
      <trkpt lat="50.48169000" lon="9.959950000">
        <ele>0.0000000</ele>
        <time>2010-01-01T02:53:13Z</time>
      </trkpt>
      <trkpt lat="50.48180000" lon="9.960190000">
        <ele>0.0000000</ele>
        <time>2010-01-01T02:53:21Z</time>
      </trkpt>
      <trkpt lat="50.48202000" lon="9.960570000">
        <ele>0.0000000</ele>
        <time>2010-01-01T02:53:34Z</time>
      </trkpt>
      <trkpt lat="50.48216000" lon="9.960740000">
        <ele>0.0000000</ele>
        <time>2010-01-01T02:53:41Z</time>
      </trkpt>
      <trkpt lat="50.48230000" lon="9.960890000">
        <ele>0.0000000</ele>
        <time>2010-01-01T02:53:48Z</time>
      </trkpt>
      <trkpt lat="50.48261000" lon="9.961130000">
        <ele>0.0000000</ele>
        <time>2010-01-01T02:54:02Z</time>
      </trkpt>
      <trkpt lat="50.48285000" lon="9.961280000">
        <ele>0.0000000</ele>
        <time>2010-01-01T02:54:12Z</time>
      </trkpt>
      <trkpt lat="50.48294000" lon="9.961370000">
        <ele>0.0000000</ele>
        <time>2010-01-01T02:54:16Z</time>
      </trkpt>
      <trkpt lat="50.48435000" lon="9.962340000">
        <ele>0.0000000</ele>
        <time>2010-01-01T02:55:18Z</time>
      </trkpt>
      <trkpt lat="50.48437000" lon="9.962260000">
        <ele>0.0000000</ele>
        <time>2010-01-01T02:55:20Z</time>
      </trkpt>
      <trkpt lat="50.48461000" lon="9.961600000">
        <ele>0.0000000</ele>
        <time>2010-01-01T02:55:40Z</time>
      </trkpt>
      <trkpt lat="50.48515000" lon="9.960470000">
        <ele>0.0000000</ele>
        <time>2010-01-01T02:56:16Z</time>
      </trkpt>
      <trkpt lat="50.48538000" lon="9.960050000">
        <ele>0.0000000</ele>
        <time>2010-01-01T02:56:30Z</time>
      </trkpt>
      <trkpt lat="50.48559000" lon="9.959740000">
        <ele>0.0000000</ele>
        <time>2010-01-01T02:56:41Z</time>
      </trkpt>
      <trkpt lat="50.48578000" lon="9.959520000">
        <ele>0.0000000</ele>
        <time>2010-01-01T02:56:51Z</time>
      </trkpt>
      <trkpt lat="50.48604000" lon="9.959260000">
        <ele>0.0000000</ele>
        <time>2010-01-01T02:57:03Z</time>
      </trkpt>
      <trkpt lat="50.48859000" lon="9.956910000">
        <ele>0.0000000</ele>
        <time>2010-01-01T02:59:01Z</time>
      </trkpt>
      <trkpt lat="50.48879000" lon="9.956770000">
        <ele>0.0000000</ele>
        <time>2010-01-01T02:59:10Z</time>
      </trkpt>
      <trkpt lat="50.49047000" lon="9.955920000">
        <ele>0.0000000</ele>
        <time>2010-01-01T03:00:21Z</time>
      </trkpt>
      <trkpt lat="50.49070000" lon="9.955780000">
        <ele>0.0000000</ele>
        <time>2010-01-01T03:00:31Z</time>
      </trkpt>
      <trkpt lat="50.49093000" lon="9.955610000">
        <ele>0.0000000</ele>
        <time>2010-01-01T03:00:41Z</time>
      </trkpt>
      <trkpt lat="50.49106000" lon="9.955490000">
        <ele>0.0000000</ele>
        <time>2010-01-01T03:00:47Z</time>
      </trkpt>
      <trkpt lat="50.49136000" lon="9.955150000">
        <ele>0.0000000</ele>
        <time>2010-01-01T03:01:02Z</time>
      </trkpt>
      <trkpt lat="50.49164000" lon="9.954730000">
        <ele>0.0000000</ele>
        <time>2010-01-01T03:01:17Z</time>
      </trkpt>
      <trkpt lat="50.49324000" lon="9.951300000">
        <ele>0.0000000</ele>
        <time>2010-01-01T03:03:05Z</time>
      </trkpt>
      <trkpt lat="50.49336000" lon="9.951100000">
        <ele>0.0000000</ele>
        <time>2010-01-01T03:03:12Z</time>
      </trkpt>
      <trkpt lat="50.49360000" lon="9.950760000">
        <ele>0.0000000</ele>
        <time>2010-01-01T03:03:25Z</time>
      </trkpt>
      <trkpt lat="50.49373000" lon="9.950600000">
        <ele>0.0000000</ele>
        <time>2010-01-01T03:03:32Z</time>
      </trkpt>
      <trkpt lat="50.49399000" lon="9.950350000">
        <ele>0.0000000</ele>
        <time>2010-01-01T03:03:44Z</time>
      </trkpt>
      <trkpt lat="50.49428000" lon="9.950150000">
        <ele>0.0000000</ele>
        <time>2010-01-01T03:03:57Z</time>
      </trkpt>
      <trkpt lat="50.49546000" lon="9.949570000">
        <ele>0.0000000</ele>
        <time>2010-01-01T03:04:46Z</time>
      </trkpt>
      <trkpt lat="50.49567000" lon="9.949480000">
        <ele>0.0000000</ele>
        <time>2010-01-01T03:04:55Z</time>
      </trkpt>
      <trkpt lat="50.49598000" lon="9.949320000">
        <ele>0.0000000</ele>
        <time>2010-01-01T03:05:08Z</time>
      </trkpt>
      <trkpt lat="50.49645000" lon="9.948980000">
        <ele>0.0000000</ele>
        <time>2010-01-01T03:05:29Z</time>
      </trkpt>
      <trkpt lat="50.49720000" lon="9.948320000">
        <ele>0.0000000</ele>
        <time>2010-01-01T03:06:03Z</time>
      </trkpt>
      <trkpt lat="50.49726000" lon="9.948280000">
        <ele>0.0000000</ele>
        <time>2010-01-01T03:06:06Z</time>
      </trkpt>
      <trkpt lat="50.49757000" lon="9.948010000">
        <ele>0.0000000</ele>
        <time>2010-01-01T03:06:20Z</time>
      </trkpt>
      <trkpt lat="50.49762000" lon="9.948000000">
        <ele>0.0000000</ele>
        <time>2010-01-01T03:06:22Z</time>
      </trkpt>
      <trkpt lat="50.49802000" lon="9.947670000">
        <ele>0.0000000</ele>
        <time>2010-01-01T03:06:40Z</time>
      </trkpt>
      <trkpt lat="50.49816000" lon="9.947570000">
        <ele>0.0000000</ele>
        <time>2010-01-01T03:06:46Z</time>
      </trkpt>
      <trkpt lat="50.49823000" lon="9.947480000">
        <ele>0.0000000</ele>
        <time>2010-01-01T03:06:50Z</time>
      </trkpt>
      <trkpt lat="50.49839000" lon="9.947400000">
        <ele>0.0000000</ele>
        <time>2010-01-01T03:06:57Z</time>
      </trkpt>
      <trkpt lat="50.49857000" lon="9.947330000">
        <ele>0.0000000</ele>
        <time>2010-01-01T03:07:04Z</time>
      </trkpt>
      <trkpt lat="50.49868000" lon="9.947300000">
        <ele>0.0000000</ele>
        <time>2010-01-01T03:07:09Z</time>
      </trkpt>
      <trkpt lat="50.49888000" lon="9.947300000">
        <ele>0.0000000</ele>
        <time>2010-01-01T03:07:17Z</time>
      </trkpt>
      <trkpt lat="50.49899000" lon="9.947310000">
        <ele>0.0000000</ele>
        <time>2010-01-01T03:07:21Z</time>
      </trkpt>
      <trkpt lat="50.49921000" lon="9.947370000">
        <ele>0.0000000</ele>
        <time>2010-01-01T03:07:30Z</time>
      </trkpt>
      <trkpt lat="50.49943000" lon="9.947450000">
        <ele>0.0000000</ele>
        <time>2010-01-01T03:07:39Z</time>
      </trkpt>
      <trkpt lat="50.49958000" lon="9.947540000">
        <ele>0.0000000</ele>
        <time>2010-01-01T03:07:45Z</time>
      </trkpt>
      <trkpt lat="50.49982000" lon="9.947730000">
        <ele>0.0000000</ele>
        <time>2010-01-01T03:07:56Z</time>
      </trkpt>
      <trkpt lat="50.49998000" lon="9.947890000">
        <ele>0.0000000</ele>
        <time>2010-01-01T03:08:04Z</time>
      </trkpt>
      <trkpt lat="50.50000000" lon="9.947920000">
        <ele>0.0000000</ele>
        <time>2010-01-01T03:08:05Z</time>
      </trkpt>
      <trkpt lat="50.50011000" lon="9.948050000">
        <ele>0.0000000</ele>
        <time>2010-01-01T03:08:10Z</time>
      </trkpt>
      <trkpt lat="50.50032000" lon="9.948430000">
        <ele>0.0000000</ele>
        <time>2010-01-01T03:08:23Z</time>
      </trkpt>
      <trkpt lat="50.50042000" lon="9.948670000">
        <ele>0.0000000</ele>
        <time>2010-01-01T03:08:30Z</time>
      </trkpt>
      <trkpt lat="50.50050000" lon="9.948920000">
        <ele>0.0000000</ele>
        <time>2010-01-01T03:08:38Z</time>
      </trkpt>
      <trkpt lat="50.50061000" lon="9.949360000">
        <ele>0.0000000</ele>
        <time>2010-01-01T03:08:50Z</time>
      </trkpt>
      <trkpt lat="50.50066000" lon="9.949840000">
        <ele>0.0000000</ele>
        <time>2010-01-01T03:09:02Z</time>
      </trkpt>
      <trkpt lat="50.50067000" lon="9.950110000">
        <ele>0.0000000</ele>
        <time>2010-01-01T03:09:09Z</time>
      </trkpt>
      <trkpt lat="50.50064000" lon="9.950680000">
        <ele>0.0000000</ele>
        <time>2010-01-01T03:09:23Z</time>
      </trkpt>
      <trkpt lat="50.50047000" lon="9.951980000">
        <ele>0.0000000</ele>
        <time>2010-01-01T03:09:57Z</time>
      </trkpt>
      <trkpt lat="50.50038000" lon="9.952930000">
        <ele>0.0000000</ele>
        <time>2010-01-01T03:10:22Z</time>
      </trkpt>
      <trkpt lat="50.50040000" lon="9.953230000">
        <ele>0.0000000</ele>
        <time>2010-01-01T03:10:29Z</time>
      </trkpt>
      <trkpt lat="50.50047000" lon="9.953540000">
        <ele>0.0000000</ele>
        <time>2010-01-01T03:10:38Z</time>
      </trkpt>
      <trkpt lat="50.50060000" lon="9.953840000">
        <ele>0.0000000</ele>
        <time>2010-01-01T03:10:47Z</time>
      </trkpt>
      <trkpt lat="50.50068000" lon="9.953990000">
        <ele>0.0000000</ele>
        <time>2010-01-01T03:10:52Z</time>
      </trkpt>
      <trkpt lat="50.50077000" lon="9.954090000">
        <ele>0.0000000</ele>
        <time>2010-01-01T03:10:56Z</time>
      </trkpt>
      <trkpt lat="50.50092000" lon="9.954220000">
        <ele>0.0000000</ele>
        <time>2010-01-01T03:11:03Z</time>
      </trkpt>
      <trkpt lat="50.50105000" lon="9.954290000">
        <ele>0.0000000</ele>
        <time>2010-01-01T03:11:09Z</time>
      </trkpt>
      <trkpt lat="50.50113000" lon="9.954320000">
        <ele>0.0000000</ele>
        <time>2010-01-01T03:11:12Z</time>
      </trkpt>
      <trkpt lat="50.50127000" lon="9.954340000">
        <ele>0.0000000</ele>
        <time>2010-01-01T03:11:18Z</time>
      </trkpt>
      <trkpt lat="50.50134000" lon="9.954340000">
        <ele>0.0000000</ele>
        <time>2010-01-01T03:11:20Z</time>
      </trkpt>
      <trkpt lat="50.50144000" lon="9.954320000">
        <ele>0.0000000</ele>
        <time>2010-01-01T03:11:24Z</time>
      </trkpt>
      <trkpt lat="50.50156000" lon="9.954280000">
        <ele>0.0000000</ele>
        <time>2010-01-01T03:11:29Z</time>
      </trkpt>
      <trkpt lat="50.50167000" lon="9.954210000">
        <ele>0.0000000</ele>
        <time>2010-01-01T03:11:34Z</time>
      </trkpt>
      <trkpt lat="50.50177000" lon="9.954130000">
        <ele>0.0000000</ele>
        <time>2010-01-01T03:11:39Z</time>
      </trkpt>
      <trkpt lat="50.50219000" lon="9.953610000">
        <ele>0.0000000</ele>
        <time>2010-01-01T03:12:00Z</time>
      </trkpt>
      <trkpt lat="50.50223000" lon="9.953550000">
        <ele>0.0000000</ele>
        <time>2010-01-01T03:12:02Z</time>
      </trkpt>
      <trkpt lat="50.50288000" lon="9.952720000">
        <ele>0.0000000</ele>
        <time>2010-01-01T03:12:36Z</time>
      </trkpt>
      <trkpt lat="50.50299000" lon="9.952540000">
        <ele>0.0000000</ele>
        <time>2010-01-01T03:12:42Z</time>
      </trkpt>
      <trkpt lat="50.50314000" lon="9.952240000">
        <ele>0.0000000</ele>
        <time>2010-01-01T03:12:52Z</time>
      </trkpt>
      <trkpt lat="50.50325000" lon="9.951950000">
        <ele>0.0000000</ele>
        <time>2010-01-01T03:13:00Z</time>
      </trkpt>
      <trkpt lat="50.50333000" lon="9.951690000">
        <ele>0.0000000</ele>
        <time>2010-01-01T03:13:08Z</time>
      </trkpt>
      <trkpt lat="50.50340000" lon="9.951370000">
        <ele>0.0000000</ele>
        <time>2010-01-01T03:13:16Z</time>
      </trkpt>
      <trkpt lat="50.50344000" lon="9.950970000">
        <ele>0.0000000</ele>
        <time>2010-01-01T03:13:27Z</time>
      </trkpt>
      <trkpt lat="50.50349000" lon="9.949980000">
        <ele>0.0000000</ele>
        <time>2010-01-01T03:13:52Z</time>
      </trkpt>
      <trkpt lat="50.50355000" lon="9.949530000">
        <ele>0.0000000</ele>
        <time>2010-01-01T03:14:04Z</time>
      </trkpt>
      <trkpt lat="50.50443000" lon="9.945730000">
        <ele>0.0000000</ele>
        <time>2010-01-01T03:15:47Z</time>
      </trkpt>
      <trkpt lat="50.50449000" lon="9.945550000">
        <ele>0.0000000</ele>
        <time>2010-01-01T03:15:52Z</time>
      </trkpt>
      <trkpt lat="50.50460000" lon="9.945280000">
        <ele>0.0000000</ele>
        <time>2010-01-01T03:16:00Z</time>
      </trkpt>
      <trkpt lat="50.50488000" lon="9.944810000">
        <ele>0.0000000</ele>
        <time>2010-01-01T03:16:16Z</time>
      </trkpt>
      <trkpt lat="50.50581000" lon="9.943710000">
        <ele>0.0000000</ele>
        <time>2010-01-01T03:17:03Z</time>
      </trkpt>
      <trkpt lat="50.50889000" lon="9.939350000">
        <ele>0.0000000</ele>
        <time>2010-01-01T03:19:49Z</time>
      </trkpt>
      <trkpt lat="50.50907000" lon="9.938960000">
        <ele>0.0000000</ele>
        <time>2010-01-01T03:20:01Z</time>
      </trkpt>
      <trkpt lat="50.50916000" lon="9.938690000">
        <ele>0.0000000</ele>
        <time>2010-01-01T03:20:09Z</time>
      </trkpt>
      <trkpt lat="50.50927000" lon="9.938260000">
        <ele>0.0000000</ele>
        <time>2010-01-01T03:20:21Z</time>
      </trkpt>
      <trkpt lat="50.50957000" lon="9.935650000">
        <ele>0.0000000</ele>
        <time>2010-01-01T03:21:28Z</time>
      </trkpt>
      <trkpt lat="50.50962000" lon="9.934850000">
        <ele>0.0000000</ele>
        <time>2010-01-01T03:21:49Z</time>
      </trkpt>
      <trkpt lat="50.50968000" lon="9.932790000">
        <ele>0.0000000</ele>
        <time>2010-01-01T03:22:41Z</time>
      </trkpt>
      <trkpt lat="50.50968000" lon="9.931550000">
        <ele>0.0000000</ele>
        <time>2010-01-01T03:23:13Z</time>
      </trkpt>
      <trkpt lat="50.50950000" lon="9.929560000">
        <ele>0.0000000</ele>
        <time>2010-01-01T03:24:04Z</time>
      </trkpt>
      <trkpt lat="50.50952000" lon="9.929410000">
        <ele>0.0000000</ele>
        <time>2010-01-01T03:24:08Z</time>
      </trkpt>
      <trkpt lat="50.50950000" lon="9.929160000">
        <ele>0.0000000</ele>
        <time>2010-01-01T03:24:14Z</time>
      </trkpt>
      <trkpt lat="50.50951000" lon="9.928710000">
        <ele>0.0000000</ele>
        <time>2010-01-01T03:24:26Z</time>
      </trkpt>
      <trkpt lat="50.50953000" lon="9.928510000">
        <ele>0.0000000</ele>
        <time>2010-01-01T03:24:31Z</time>
      </trkpt>
      <trkpt lat="50.50957000" lon="9.928290000">
        <ele>0.0000000</ele>
        <time>2010-01-01T03:24:37Z</time>
      </trkpt>
      <trkpt lat="50.50970000" lon="9.927830000">
        <ele>0.0000000</ele>
        <time>2010-01-01T03:24:49Z</time>
      </trkpt>
      <trkpt lat="50.50978000" lon="9.927590000">
        <ele>0.0000000</ele>
        <time>2010-01-01T03:24:56Z</time>
      </trkpt>
      <trkpt lat="50.50983000" lon="9.927500000">
        <ele>0.0000000</ele>
        <time>2010-01-01T03:24:59Z</time>
      </trkpt>
      <trkpt lat="50.50984000" lon="9.927470000">
        <ele>0.0000000</ele>
        <time>2010-01-01T03:25:00Z</time>
      </trkpt>
      <trkpt lat="50.50986000" lon="9.927440000">
        <ele>0.0000000</ele>
        <time>2010-01-01T03:25:01Z</time>
      </trkpt>
      <trkpt lat="50.50989000" lon="9.927370000">
        <ele>0.0000000</ele>
        <time>2010-01-01T03:25:04Z</time>
      </trkpt>
      <trkpt lat="50.51009000" lon="9.927120000">
        <ele>0.0000000</ele>
        <time>2010-01-01T03:25:14Z</time>
      </trkpt>
      <trkpt lat="50.51022000" lon="9.927070000">
        <ele>0.0000000</ele>
        <time>2010-01-01T03:25:19Z</time>
      </trkpt>
      <trkpt lat="50.51029000" lon="9.927050000">
        <ele>0.0000000</ele>
        <time>2010-01-01T03:25:22Z</time>
      </trkpt>
      <trkpt lat="50.51037000" lon="9.927050000">
        <ele>0.0000000</ele>
        <time>2010-01-01T03:25:25Z</time>
      </trkpt>
      <trkpt lat="50.51042000" lon="9.927030000">
        <ele>0.0000000</ele>
        <time>2010-01-01T03:25:27Z</time>
      </trkpt>
      <trkpt lat="50.51046000" lon="9.927000000">
        <ele>0.0000000</ele>
        <time>2010-01-01T03:25:29Z</time>
      </trkpt>
      <trkpt lat="50.51067000" lon="9.927070000">
        <ele>0.0000000</ele>
        <time>2010-01-01T03:25:38Z</time>
      </trkpt>
      <trkpt lat="50.51084000" lon="9.927150000">
        <ele>0.0000000</ele>
        <time>2010-01-01T03:25:45Z</time>
      </trkpt>
      <trkpt lat="50.51154000" lon="9.927530000">
        <ele>0.0000000</ele>
        <time>2010-01-01T03:26:14Z</time>
      </trkpt>
      <trkpt lat="50.51168000" lon="9.927670000">
        <ele>0.0000000</ele>
        <time>2010-01-01T03:26:21Z</time>
      </trkpt>
      <trkpt lat="50.51178000" lon="9.927810000">
        <ele>0.0000000</ele>
        <time>2010-01-01T03:26:26Z</time>
      </trkpt>
      <trkpt lat="50.51191000" lon="9.928080000">
        <ele>0.0000000</ele>
        <time>2010-01-01T03:26:35Z</time>
      </trkpt>
      <trkpt lat="50.51201000" lon="9.928450000">
        <ele>0.0000000</ele>
        <time>2010-01-01T03:26:45Z</time>
      </trkpt>
      <trkpt lat="50.51207000" lon="9.928830000">
        <ele>0.0000000</ele>
        <time>2010-01-01T03:26:55Z</time>
      </trkpt>
      <trkpt lat="50.51219000" lon="9.929180000">
        <ele>0.0000000</ele>
        <time>2010-01-01T03:27:05Z</time>
      </trkpt>
      <trkpt lat="50.51235000" lon="9.929440000">
        <ele>0.0000000</ele>
        <time>2010-01-01T03:27:15Z</time>
      </trkpt>
      <trkpt lat="50.51248000" lon="9.929590000">
        <ele>0.0000000</ele>
        <time>2010-01-01T03:27:21Z</time>
      </trkpt>
      <trkpt lat="50.51262000" lon="9.929700000">
        <ele>0.0000000</ele>
        <time>2010-01-01T03:27:27Z</time>
      </trkpt>
      <trkpt lat="50.51298000" lon="9.930030000">
        <ele>0.0000000</ele>
        <time>2010-01-01T03:27:44Z</time>
      </trkpt>
      <trkpt lat="50.51308000" lon="9.930150000">
        <ele>0.0000000</ele>
        <time>2010-01-01T03:27:49Z</time>
      </trkpt>
      <trkpt lat="50.51320000" lon="9.930340000">
        <ele>0.0000000</ele>
        <time>2010-01-01T03:27:56Z</time>
      </trkpt>
      <trkpt lat="50.51358000" lon="9.931040000">
        <ele>0.0000000</ele>
        <time>2010-01-01T03:28:19Z</time>
      </trkpt>
      <trkpt lat="50.51374000" lon="9.931220000">
        <ele>0.0000000</ele>
        <time>2010-01-01T03:28:27Z</time>
      </trkpt>
      <trkpt lat="50.51386000" lon="9.931310000">
        <ele>0.0000000</ele>
        <time>2010-01-01T03:28:32Z</time>
      </trkpt>
      <trkpt lat="50.51394000" lon="9.931340000">
        <ele>0.0000000</ele>
        <time>2010-01-01T03:28:36Z</time>
      </trkpt>
      <trkpt lat="50.51412000" lon="9.931370000">
        <ele>0.0000000</ele>
        <time>2010-01-01T03:28:43Z</time>
      </trkpt>
      <trkpt lat="50.51465000" lon="9.931380000">
        <ele>0.0000000</ele>
        <time>2010-01-01T03:29:04Z</time>
      </trkpt>
      <trkpt lat="50.51477000" lon="9.931400000">
        <ele>0.0000000</ele>
        <time>2010-01-01T03:29:09Z</time>
      </trkpt>
      <trkpt lat="50.51487000" lon="9.931430000">
        <ele>0.0000000</ele>
        <time>2010-01-01T03:29:13Z</time>
      </trkpt>
      <trkpt lat="50.51497000" lon="9.931470000">
        <ele>0.0000000</ele>
        <time>2010-01-01T03:29:17Z</time>
      </trkpt>
      <trkpt lat="50.51507000" lon="9.931530000">
        <ele>0.0000000</ele>
        <time>2010-01-01T03:29:21Z</time>
      </trkpt>
      <trkpt lat="50.51518000" lon="9.931610000">
        <ele>0.0000000</ele>
        <time>2010-01-01T03:29:26Z</time>
      </trkpt>
      <trkpt lat="50.51527000" lon="9.931690000">
        <ele>0.0000000</ele>
        <time>2010-01-01T03:29:30Z</time>
      </trkpt>
      <trkpt lat="50.51538000" lon="9.931820000">
        <ele>0.0000000</ele>
        <time>2010-01-01T03:29:36Z</time>
      </trkpt>
      <trkpt lat="50.51602000" lon="9.932700000">
        <ele>0.0000000</ele>
        <time>2010-01-01T03:30:10Z</time>
      </trkpt>
      <trkpt lat="50.51607000" lon="9.932740000">
        <ele>0.0000000</ele>
        <time>2010-01-01T03:30:12Z</time>
      </trkpt>
      <trkpt lat="50.51611000" lon="9.932780000">
        <ele>0.0000000</ele>
        <time>2010-01-01T03:30:14Z</time>
      </trkpt>
      <trkpt lat="50.51629000" lon="9.932910000">
        <ele>0.0000000</ele>
        <time>2010-01-01T03:30:22Z</time>
      </trkpt>
      <trkpt lat="50.51637000" lon="9.932930000">
        <ele>0.0000000</ele>
        <time>2010-01-01T03:30:25Z</time>
      </trkpt>
      <trkpt lat="50.51645000" lon="9.932940000">
        <ele>0.0000000</ele>
        <time>2010-01-01T03:30:29Z</time>
      </trkpt>
      <trkpt lat="50.51651000" lon="9.932930000">
        <ele>0.0000000</ele>
        <time>2010-01-01T03:30:31Z</time>
      </trkpt>
      <trkpt lat="50.51656000" lon="9.932930000">
        <ele>0.0000000</ele>
        <time>2010-01-01T03:30:33Z</time>
      </trkpt>
      <trkpt lat="50.51669000" lon="9.932880000">
        <ele>0.0000000</ele>
        <time>2010-01-01T03:30:38Z</time>
      </trkpt>
      <trkpt lat="50.51683000" lon="9.932790000">
        <ele>0.0000000</ele>
        <time>2010-01-01T03:30:44Z</time>
      </trkpt>
      <trkpt lat="50.51732000" lon="9.932410000">
        <ele>0.0000000</ele>
        <time>2010-01-01T03:31:06Z</time>
      </trkpt>
      <trkpt lat="50.51761000" lon="9.932230000">
        <ele>0.0000000</ele>
        <time>2010-01-01T03:31:19Z</time>
      </trkpt>
      <trkpt lat="50.51768000" lon="9.932200000">
        <ele>0.0000000</ele>
        <time>2010-01-01T03:31:22Z</time>
      </trkpt>
      <trkpt lat="50.51818000" lon="9.932070000">
        <ele>0.0000000</ele>
        <time>2010-01-01T03:31:42Z</time>
      </trkpt>
      <trkpt lat="50.51898000" lon="9.932070000">
        <ele>0.0000000</ele>
        <time>2010-01-01T03:32:14Z</time>
      </trkpt>
      <trkpt lat="50.51913000" lon="9.932030000">
        <ele>0.0000000</ele>
        <time>2010-01-01T03:32:20Z</time>
      </trkpt>
      <trkpt lat="50.51926000" lon="9.931960000">
        <ele>0.0000000</ele>
        <time>2010-01-01T03:32:26Z</time>
      </trkpt>
      <trkpt lat="50.51935000" lon="9.931880000">
        <ele>0.0000000</ele>
        <time>2010-01-01T03:32:30Z</time>
      </trkpt>
      <trkpt lat="50.51976000" lon="9.931460000">
        <ele>0.0000000</ele>
        <time>2010-01-01T03:32:49Z</time>
      </trkpt>
      <trkpt lat="50.51998000" lon="9.931320000">
        <ele>0.0000000</ele>
        <time>2010-01-01T03:32:59Z</time>
      </trkpt>
      <trkpt lat="50.52011000" lon="9.931280000">
        <ele>0.0000000</ele>
        <time>2010-01-01T03:33:04Z</time>
      </trkpt>
      <trkpt lat="50.52026000" lon="9.931280000">
        <ele>0.0000000</ele>
        <time>2010-01-01T03:33:10Z</time>
      </trkpt>
      <trkpt lat="50.52080000" lon="9.931430000">
        <ele>0.0000000</ele>
        <time>2010-01-01T03:33:32Z</time>
      </trkpt>
      <trkpt lat="50.52199000" lon="9.931720000">
        <ele>0.0000000</ele>
        <time>2010-01-01T03:34:20Z</time>
      </trkpt>
      <trkpt lat="50.52213000" lon="9.931740000">
        <ele>0.0000000</ele>
        <time>2010-01-01T03:34:26Z</time>
      </trkpt>
      <trkpt lat="50.52235000" lon="9.931730000">
        <ele>0.0000000</ele>
        <time>2010-01-01T03:34:35Z</time>
      </trkpt>
      <trkpt lat="50.52261000" lon="9.931670000">
        <ele>0.0000000</ele>
        <time>2010-01-01T03:34:45Z</time>
      </trkpt>
      <trkpt lat="50.52271000" lon="9.931620000">
        <ele>0.0000000</ele>
        <time>2010-01-01T03:34:49Z</time>
      </trkpt>
      <trkpt lat="50.52312000" lon="9.931360000">
        <ele>0.0000000</ele>
        <time>2010-01-01T03:35:07Z</time>
      </trkpt>
      <trkpt lat="50.52556000" lon="9.929700000">
        <ele>0.0000000</ele>
        <time>2010-01-01T03:36:53Z</time>
      </trkpt>
      <trkpt lat="50.52603000" lon="9.929290000">
        <ele>0.0000000</ele>
        <time>2010-01-01T03:37:15Z</time>
      </trkpt>
      <trkpt lat="50.52619000" lon="9.929120000">
        <ele>0.0000000</ele>
        <time>2010-01-01T03:37:23Z</time>
      </trkpt>
      <trkpt lat="50.52642000" lon="9.928840000">
        <ele>0.0000000</ele>
        <time>2010-01-01T03:37:34Z</time>
      </trkpt>
      <trkpt lat="50.52658000" lon="9.928690000">
        <ele>0.0000000</ele>
        <time>2010-01-01T03:37:42Z</time>
      </trkpt>
      <trkpt lat="50.52665000" lon="9.928640000">
        <ele>0.0000000</ele>
        <time>2010-01-01T03:37:45Z</time>
      </trkpt>
      <trkpt lat="50.52675000" lon="9.928600000">
        <ele>0.0000000</ele>
        <time>2010-01-01T03:37:49Z</time>
      </trkpt>
      <trkpt lat="50.52684000" lon="9.928600000">
        <ele>0.0000000</ele>
        <time>2010-01-01T03:37:53Z</time>
      </trkpt>
      <trkpt lat="50.52693000" lon="9.928610000">
        <ele>0.0000000</ele>
        <time>2010-01-01T03:37:56Z</time>
      </trkpt>
      <trkpt lat="50.52702000" lon="9.928630000">
        <ele>0.0000000</ele>
        <time>2010-01-01T03:38:00Z</time>
      </trkpt>
      <trkpt lat="50.52713000" lon="9.928690000">
        <ele>0.0000000</ele>
        <time>2010-01-01T03:38:05Z</time>
      </trkpt>
      <trkpt lat="50.52752000" lon="9.929030000">
        <ele>0.0000000</ele>
        <time>2010-01-01T03:38:22Z</time>
      </trkpt>
      <trkpt lat="50.52759000" lon="9.929100000">
        <ele>0.0000000</ele>
        <time>2010-01-01T03:38:26Z</time>
      </trkpt>
      <trkpt lat="50.52832000" lon="9.929740000">
        <ele>0.0000000</ele>
        <time>2010-01-01T03:38:59Z</time>
      </trkpt>
      <trkpt lat="50.52855000" lon="9.930100000">
        <ele>0.0000000</ele>
        <time>2010-01-01T03:39:12Z</time>
      </trkpt>
      <trkpt lat="50.52868000" lon="9.930340000">
        <ele>0.0000000</ele>
        <time>2010-01-01T03:39:20Z</time>
      </trkpt>
      <trkpt lat="50.52873000" lon="9.930400000">
        <ele>0.0000000</ele>
        <time>2010-01-01T03:39:23Z</time>
      </trkpt>
      <trkpt lat="50.52880000" lon="9.930470000">
        <ele>0.0000000</ele>
        <time>2010-01-01T03:39:26Z</time>
      </trkpt>
      <trkpt lat="50.52886000" lon="9.930500000">
        <ele>0.0000000</ele>
        <time>2010-01-01T03:39:29Z</time>
      </trkpt>
      <trkpt lat="50.52897000" lon="9.930540000">
        <ele>0.0000000</ele>
        <time>2010-01-01T03:39:33Z</time>
      </trkpt>
      <trkpt lat="50.52901000" lon="9.930540000">
        <ele>0.0000000</ele>
        <time>2010-01-01T03:39:35Z</time>
      </trkpt>
      <trkpt lat="50.52945000" lon="9.930310000">
        <ele>0.0000000</ele>
        <time>2010-01-01T03:39:53Z</time>
      </trkpt>
      <trkpt lat="50.52965000" lon="9.930330000">
        <ele>0.0000000</ele>
        <time>2010-01-01T03:40:01Z</time>
      </trkpt>
      <trkpt lat="50.52976000" lon="9.930350000">
        <ele>0.0000000</ele>
        <time>2010-01-01T03:40:06Z</time>
      </trkpt>
      <trkpt lat="50.53004000" lon="9.930440000">
        <ele>0.0000000</ele>
        <time>2010-01-01T03:40:17Z</time>
      </trkpt>
      <trkpt lat="50.53070000" lon="9.930700000">
        <ele>0.0000000</ele>
        <time>2010-01-01T03:40:44Z</time>
      </trkpt>
      <trkpt lat="50.53077000" lon="9.930770000">
        <ele>0.0000000</ele>
        <time>2010-01-01T03:40:48Z</time>
      </trkpt>
      <trkpt lat="50.53101000" lon="9.930910000">
        <ele>0.0000000</ele>
        <time>2010-01-01T03:40:58Z</time>
      </trkpt>
      <trkpt lat="50.53128000" lon="9.931100000">
        <ele>0.0000000</ele>
        <time>2010-01-01T03:41:10Z</time>
      </trkpt>
      <trkpt lat="50.53128000" lon="9.931110000">
        <ele>0.0000000</ele>
        <time>2010-01-01T03:41:10Z</time>
      </trkpt>
      <trkpt lat="50.53193000" lon="9.931670000">
        <ele>0.0000000</ele>
        <time>2010-01-01T03:41:40Z</time>
      </trkpt>
      <trkpt lat="50.53244000" lon="9.932270000">
        <ele>0.0000000</ele>
        <time>2010-01-01T03:42:05Z</time>
      </trkpt>
      <trkpt lat="50.53252000" lon="9.932300000">
        <ele>0.0000000</ele>
        <time>2010-01-01T03:42:08Z</time>
      </trkpt>
      <trkpt lat="50.53313000" lon="9.933110000">
        <ele>0.0000000</ele>
        <time>2010-01-01T03:42:40Z</time>
      </trkpt>
      <trkpt lat="50.53352000" lon="9.933760000">
        <ele>0.0000000</ele>
        <time>2010-01-01T03:43:03Z</time>
      </trkpt>
      <trkpt lat="50.53362000" lon="9.933980000">
        <ele>0.0000000</ele>
        <time>2010-01-01T03:43:10Z</time>
      </trkpt>
      <trkpt lat="50.53481000" lon="9.936320000">
        <ele>0.0000000</ele>
        <time>2010-01-01T03:44:26Z</time>
      </trkpt>
      <trkpt lat="50.53527000" lon="9.937330000">
        <ele>0.0000000</ele>
        <time>2010-01-01T03:44:58Z</time>
      </trkpt>
      <trkpt lat="50.53565000" lon="9.938040000">
        <ele>0.0000000</ele>
        <time>2010-01-01T03:45:22Z</time>
      </trkpt>
      <trkpt lat="50.53587000" lon="9.938360000">
        <ele>0.0000000</ele>
        <time>2010-01-01T03:45:34Z</time>
      </trkpt>
      <trkpt lat="50.53680000" lon="9.939370000">
        <ele>0.0000000</ele>
        <time>2010-01-01T03:46:19Z</time>
      </trkpt>
      <trkpt lat="50.53718000" lon="9.939700000">
        <ele>0.0000000</ele>
        <time>2010-01-01T03:46:36Z</time>
      </trkpt>
      <trkpt lat="50.53736000" lon="9.939820000">
        <ele>0.0000000</ele>
        <time>2010-01-01T03:46:44Z</time>
      </trkpt>
      <trkpt lat="50.53765000" lon="9.939940000">
        <ele>0.0000000</ele>
        <time>2010-01-01T03:46:56Z</time>
      </trkpt>
      <trkpt lat="50.54009000" lon="9.940710000">
        <ele>0.0000000</ele>
        <time>2010-01-01T03:48:36Z</time>
      </trkpt>
      <trkpt lat="50.54041000" lon="9.940750000">
        <ele>0.0000000</ele>
        <time>2010-01-01T03:48:48Z</time>
      </trkpt>
      <trkpt lat="50.54071000" lon="9.940720000">
        <ele>0.0000000</ele>
        <time>2010-01-01T03:49:00Z</time>
      </trkpt>
      <trkpt lat="50.54087000" lon="9.940690000">
        <ele>0.0000000</ele>
        <time>2010-01-01T03:49:07Z</time>
      </trkpt>
      <trkpt lat="50.54140000" lon="9.940480000">
        <ele>0.0000000</ele>
        <time>2010-01-01T03:49:29Z</time>
      </trkpt>
      <trkpt lat="50.54146000" lon="9.940440000">
        <ele>0.0000000</ele>
        <time>2010-01-01T03:49:31Z</time>
      </trkpt>
      <trkpt lat="50.54449000" lon="9.938880000">
        <ele>0.0000000</ele>
        <time>2010-01-01T03:51:39Z</time>
      </trkpt>
      <trkpt lat="50.54470000" lon="9.938750000">
        <ele>0.0000000</ele>
        <time>2010-01-01T03:51:48Z</time>
      </trkpt>
      <trkpt lat="50.54489000" lon="9.938610000">
        <ele>0.0000000</ele>
        <time>2010-01-01T03:51:56Z</time>
      </trkpt>
      <trkpt lat="50.54510000" lon="9.938410000">
        <ele>0.0000000</ele>
        <time>2010-01-01T03:52:06Z</time>
      </trkpt>
      <trkpt lat="50.54522000" lon="9.938270000">
        <ele>0.0000000</ele>
        <time>2010-01-01T03:52:12Z</time>
      </trkpt>
      <trkpt lat="50.54543000" lon="9.937960000">
        <ele>0.0000000</ele>
        <time>2010-01-01T03:52:24Z</time>
      </trkpt>
      <trkpt lat="50.54554000" lon="9.937750000">
        <ele>0.0000000</ele>
        <time>2010-01-01T03:52:31Z</time>
      </trkpt>
      <trkpt lat="50.54564000" lon="9.937530000">
        <ele>0.0000000</ele>
        <time>2010-01-01T03:52:38Z</time>
      </trkpt>
      <trkpt lat="50.54616000" lon="9.935890000">
        <ele>0.0000000</ele>
        <time>2010-01-01T03:53:24Z</time>
      </trkpt>
      <trkpt lat="50.54639000" lon="9.935350000">
        <ele>0.0000000</ele>
        <time>2010-01-01T03:53:41Z</time>
      </trkpt>
      <trkpt lat="50.54648000" lon="9.935200000">
        <ele>0.0000000</ele>
        <time>2010-01-01T03:53:46Z</time>
      </trkpt>
      <trkpt lat="50.54677000" lon="9.934840000">
        <ele>0.0000000</ele>
        <time>2010-01-01T03:54:01Z</time>
      </trkpt>
      <trkpt lat="50.54686000" lon="9.934770000">
        <ele>0.0000000</ele>
        <time>2010-01-01T03:54:05Z</time>
      </trkpt>
      <trkpt lat="50.54732000" lon="9.934460000">
        <ele>0.0000000</ele>
        <time>2010-01-01T03:54:25Z</time>
      </trkpt>
      <trkpt lat="50.54754000" lon="9.934330000">
        <ele>0.0000000</ele>
        <time>2010-01-01T03:54:34Z</time>
      </trkpt>
      <trkpt lat="50.54792000" lon="9.934180000">
        <ele>0.0000000</ele>
        <time>2010-01-01T03:54:50Z</time>
      </trkpt>
      <trkpt lat="50.54823000" lon="9.934100000">
        <ele>0.0000000</ele>
        <time>2010-01-01T03:55:02Z</time>
      </trkpt>
      <trkpt lat="50.55056000" lon="9.933640000">
        <ele>0.0000000</ele>
        <time>2010-01-01T03:56:36Z</time>
      </trkpt>
      <trkpt lat="50.55091000" lon="9.933550000">
        <ele>0.0000000</ele>
        <time>2010-01-01T03:56:51Z</time>
      </trkpt>
      <trkpt lat="50.55111000" lon="9.933470000">
        <ele>0.0000000</ele>
        <time>2010-01-01T03:56:59Z</time>
      </trkpt>
      <trkpt lat="50.55127000" lon="9.933380000">
        <ele>0.0000000</ele>
        <time>2010-01-01T03:57:06Z</time>
      </trkpt>
      <trkpt lat="50.55148000" lon="9.933220000">
        <ele>0.0000000</ele>
        <time>2010-01-01T03:57:15Z</time>
      </trkpt>
      <trkpt lat="50.55165000" lon="9.933070000">
        <ele>0.0000000</ele>
        <time>2010-01-01T03:57:23Z</time>
      </trkpt>
      <trkpt lat="50.55222000" lon="9.932410000">
        <ele>0.0000000</ele>
        <time>2010-01-01T03:57:51Z</time>
      </trkpt>
      <trkpt lat="50.55237000" lon="9.932290000">
        <ele>0.0000000</ele>
        <time>2010-01-01T03:57:58Z</time>
      </trkpt>
      <trkpt lat="50.55241000" lon="9.932270000">
        <ele>0.0000000</ele>
        <time>2010-01-01T03:58:00Z</time>
      </trkpt>
      <trkpt lat="50.55245000" lon="9.932240000">
        <ele>0.0000000</ele>
        <time>2010-01-01T03:58:01Z</time>
      </trkpt>
      <trkpt lat="50.55249000" lon="9.932230000">
        <ele>0.0000000</ele>
        <time>2010-01-01T03:58:03Z</time>
      </trkpt>
      <trkpt lat="50.55268000" lon="9.932160000">
        <ele>0.0000000</ele>
        <time>2010-01-01T03:58:11Z</time>
      </trkpt>
      <trkpt lat="50.55278000" lon="9.932140000">
        <ele>0.0000000</ele>
        <time>2010-01-01T03:58:15Z</time>
      </trkpt>
      <trkpt lat="50.55298000" lon="9.932140000">
        <ele>0.0000000</ele>
        <time>2010-01-01T03:58:23Z</time>
      </trkpt>
      <trkpt lat="50.55305000" lon="9.932150000">
        <ele>0.0000000</ele>
        <time>2010-01-01T03:58:26Z</time>
      </trkpt>
      <trkpt lat="50.55316000" lon="9.932190000">
        <ele>0.0000000</ele>
        <time>2010-01-01T03:58:30Z</time>
      </trkpt>
      <trkpt lat="50.55332000" lon="9.932290000">
        <ele>0.0000000</ele>
        <time>2010-01-01T03:58:37Z</time>
      </trkpt>
      <trkpt lat="50.55355000" lon="9.932480000">
        <ele>0.0000000</ele>
        <time>2010-01-01T03:58:47Z</time>
      </trkpt>
      <trkpt lat="50.55573000" lon="9.934620000">
        <ele>0.0000000</ele>
        <time>2010-01-01T04:00:30Z</time>
      </trkpt>
      <trkpt lat="50.55600000" lon="9.934850000">
        <ele>0.0000000</ele>
        <time>2010-01-01T04:00:43Z</time>
      </trkpt>
      <trkpt lat="50.55609000" lon="9.934910000">
        <ele>0.0000000</ele>
        <time>2010-01-01T04:00:47Z</time>
      </trkpt>
      <trkpt lat="50.55625000" lon="9.935000000">
        <ele>0.0000000</ele>
        <time>2010-01-01T04:00:53Z</time>
      </trkpt>
      <trkpt lat="50.55650000" lon="9.935100000">
        <ele>0.0000000</ele>
        <time>2010-01-01T04:01:04Z</time>
      </trkpt>
      <trkpt lat="50.55680000" lon="9.935180000">
        <ele>0.0000000</ele>
        <time>2010-01-01T04:01:16Z</time>
      </trkpt>
      <trkpt lat="50.55739000" lon="9.935310000">
        <ele>0.0000000</ele>
        <time>2010-01-01T04:01:40Z</time>
      </trkpt>
      <trkpt lat="50.55768000" lon="9.935360000">
        <ele>0.0000000</ele>
        <time>2010-01-01T04:01:51Z</time>
      </trkpt>
      <trkpt lat="50.55806000" lon="9.935500000">
        <ele>0.0000000</ele>
        <time>2010-01-01T04:02:07Z</time>
      </trkpt>
      <trkpt lat="50.55817000" lon="9.935550000">
        <ele>0.0000000</ele>
        <time>2010-01-01T04:02:12Z</time>
      </trkpt>
      <trkpt lat="50.55828000" lon="9.935620000">
        <ele>0.0000000</ele>
        <time>2010-01-01T04:02:16Z</time>
      </trkpt>
      <trkpt lat="50.55845000" lon="9.935770000">
        <ele>0.0000000</ele>
        <time>2010-01-01T04:02:24Z</time>
      </trkpt>
      <trkpt lat="50.55881000" lon="9.936150000">
        <ele>0.0000000</ele>
        <time>2010-01-01T04:02:41Z</time>
      </trkpt>
      <trkpt lat="50.55896000" lon="9.936250000">
        <ele>0.0000000</ele>
        <time>2010-01-01T04:02:48Z</time>
      </trkpt>
      <trkpt lat="50.55901000" lon="9.936270000">
        <ele>0.0000000</ele>
        <time>2010-01-01T04:02:50Z</time>
      </trkpt>
      <trkpt lat="50.55902000" lon="9.936190000">
        <ele>0.0000000</ele>
        <time>2010-01-01T04:02:52Z</time>
      </trkpt>
      <trkpt lat="50.55902000" lon="9.936140000">
        <ele>0.0000000</ele>
        <time>2010-01-01T04:02:53Z</time>
      </trkpt>
      <trkpt lat="50.55904000" lon="9.936040000">
        <ele>0.0000000</ele>
        <time>2010-01-01T04:02:56Z</time>
      </trkpt>
      <trkpt lat="50.55906000" lon="9.935980000">
        <ele>0.0000000</ele>
        <time>2010-01-01T04:02:58Z</time>
      </trkpt>
      <trkpt lat="50.55908000" lon="9.935870000">
        <ele>0.0000000</ele>
        <time>2010-01-01T04:03:01Z</time>
      </trkpt>
      <trkpt lat="50.55921000" lon="9.935450000">
        <ele>0.0000000</ele>
        <time>2010-01-01T04:03:13Z</time>
      </trkpt>
      <trkpt lat="50.55922000" lon="9.935310000">
        <ele>0.0000000</ele>
        <time>2010-01-01T04:03:16Z</time>
      </trkpt>
      <trkpt lat="50.55977000" lon="9.933370000">
        <ele>0.0000000</ele>
        <time>2010-01-01T04:04:10Z</time>
      </trkpt>
      <trkpt lat="50.56021000" lon="9.932090000">
        <ele>0.0000000</ele>
        <time>2010-01-01T04:04:47Z</time>
      </trkpt>
      <trkpt lat="50.56036000" lon="9.931470000">
        <ele>0.0000000</ele>
        <time>2010-01-01T04:05:04Z</time>
      </trkpt>
      <trkpt lat="50.56039000" lon="9.931240000">
        <ele>0.0000000</ele>
        <time>2010-01-01T04:05:10Z</time>
      </trkpt>
      <trkpt lat="50.56063000" lon="9.929860000">
        <ele>0.0000000</ele>
        <time>2010-01-01T04:05:46Z</time>
      </trkpt>
      <trkpt lat="50.56072000" lon="9.929440000">
        <ele>0.0000000</ele>
        <time>2010-01-01T04:05:58Z</time>
      </trkpt>
      <trkpt lat="50.56095000" lon="9.928730000">
        <ele>0.0000000</ele>
        <time>2010-01-01T04:06:18Z</time>
      </trkpt>
      <trkpt lat="50.56110000" lon="9.928390000">
        <ele>0.0000000</ele>
        <time>2010-01-01T04:06:29Z</time>
      </trkpt>
      <trkpt lat="50.56140000" lon="9.927630000">
        <ele>0.0000000</ele>
        <time>2010-01-01T04:06:51Z</time>
      </trkpt>
      <trkpt lat="50.56143000" lon="9.927530000">
        <ele>0.0000000</ele>
        <time>2010-01-01T04:06:54Z</time>
      </trkpt>
      <trkpt lat="50.56148000" lon="9.927420000">
        <ele>0.0000000</ele>
        <time>2010-01-01T04:06:58Z</time>
      </trkpt>
      <trkpt lat="50.56148000" lon="9.927410000">
        <ele>0.0000000</ele>
        <time>2010-01-01T04:06:58Z</time>
      </trkpt>
      <trkpt lat="50.56163000" lon="9.926900000">
        <ele>0.0000000</ele>
        <time>2010-01-01T04:07:12Z</time>
      </trkpt>
      <trkpt lat="50.56172000" lon="9.926500000">
        <ele>0.0000000</ele>
        <time>2010-01-01T04:07:23Z</time>
      </trkpt>
      <trkpt lat="50.56180000" lon="9.925960000">
        <ele>0.0000000</ele>
        <time>2010-01-01T04:07:37Z</time>
      </trkpt>
      <trkpt lat="50.56183000" lon="9.925640000">
        <ele>0.0000000</ele>
        <time>2010-01-01T04:07:45Z</time>
      </trkpt>
      <trkpt lat="50.56184000" lon="9.921250000">
        <ele>0.0000000</ele>
        <time>2010-01-01T04:09:37Z</time>
      </trkpt>
      <trkpt lat="50.56177000" lon="9.920360000">
        <ele>0.0000000</ele>
        <time>2010-01-01T04:10:00Z</time>
      </trkpt>
      <trkpt lat="50.56168000" lon="9.919850000">
        <ele>0.0000000</ele>
        <time>2010-01-01T04:10:13Z</time>
      </trkpt>
      <trkpt lat="50.56164000" lon="9.919450000">
        <ele>0.0000000</ele>
        <time>2010-01-01T04:10:23Z</time>
      </trkpt>
      <trkpt lat="50.56163000" lon="9.919040000">
        <ele>0.0000000</ele>
        <time>2010-01-01T04:10:34Z</time>
      </trkpt>
      <trkpt lat="50.56164000" lon="9.918400000">
        <ele>0.0000000</ele>
        <time>2010-01-01T04:10:50Z</time>
      </trkpt>
      <trkpt lat="50.56168000" lon="9.917930000">
        <ele>0.0000000</ele>
        <time>2010-01-01T04:11:02Z</time>
      </trkpt>
      <trkpt lat="50.56167000" lon="9.917360000">
        <ele>0.0000000</ele>
        <time>2010-01-01T04:11:17Z</time>
      </trkpt>
      <trkpt lat="50.56165000" lon="9.917100000">
        <ele>0.0000000</ele>
        <time>2010-01-01T04:11:23Z</time>
      </trkpt>
      <trkpt lat="50.56156000" lon="9.916550000">
        <ele>0.0000000</ele>
        <time>2010-01-01T04:11:38Z</time>
      </trkpt>
      <trkpt lat="50.56130000" lon="9.915500000">
        <ele>0.0000000</ele>
        <time>2010-01-01T04:12:06Z</time>
      </trkpt>
      <trkpt lat="50.56112000" lon="9.914860000">
        <ele>0.0000000</ele>
        <time>2010-01-01T04:12:24Z</time>
      </trkpt>
      <trkpt lat="50.56105000" lon="9.914560000">
        <ele>0.0000000</ele>
        <time>2010-01-01T04:12:32Z</time>
      </trkpt>
      <trkpt lat="50.56098000" lon="9.914320000">
        <ele>0.0000000</ele>
        <time>2010-01-01T04:12:39Z</time>
      </trkpt>
      <trkpt lat="50.56089000" lon="9.913780000">
        <ele>0.0000000</ele>
        <time>2010-01-01T04:12:53Z</time>
      </trkpt>
      <trkpt lat="50.56086000" lon="9.913390000">
        <ele>0.0000000</ele>
        <time>2010-01-01T04:13:03Z</time>
      </trkpt>
      <trkpt lat="50.56081000" lon="9.911250000">
        <ele>0.0000000</ele>
        <time>2010-01-01T04:13:58Z</time>
      </trkpt>
      <trkpt lat="50.56079000" lon="9.911000000">
        <ele>0.0000000</ele>
        <time>2010-01-01T04:14:04Z</time>
      </trkpt>
      <trkpt lat="50.56079000" lon="9.910880000">
        <ele>0.0000000</ele>
        <time>2010-01-01T04:14:07Z</time>
      </trkpt>
      <trkpt lat="50.56075000" lon="9.910550000">
        <ele>0.0000000</ele>
        <time>2010-01-01T04:14:16Z</time>
      </trkpt>
      <trkpt lat="50.56065000" lon="9.909960000">
        <ele>0.0000000</ele>
        <time>2010-01-01T04:14:31Z</time>
      </trkpt>
      <trkpt lat="50.56026000" lon="9.908690000">
        <ele>0.0000000</ele>
        <time>2010-01-01T04:15:07Z</time>
      </trkpt>
      <trkpt lat="50.56020000" lon="9.908450000">
        <ele>0.0000000</ele>
        <time>2010-01-01T04:15:14Z</time>
      </trkpt>
      <trkpt lat="50.56017000" lon="9.908360000">
        <ele>0.0000000</ele>
        <time>2010-01-01T04:15:16Z</time>
      </trkpt>
      <trkpt lat="50.56010000" lon="9.908050000">
        <ele>0.0000000</ele>
        <time>2010-01-01T04:15:25Z</time>
      </trkpt>
      <trkpt lat="50.56004000" lon="9.907620000">
        <ele>0.0000000</ele>
        <time>2010-01-01T04:15:36Z</time>
      </trkpt>
      <trkpt lat="50.56002000" lon="9.907370000">
        <ele>0.0000000</ele>
        <time>2010-01-01T04:15:42Z</time>
      </trkpt>
      <trkpt lat="50.56002000" lon="9.907210000">
        <ele>0.0000000</ele>
        <time>2010-01-01T04:15:46Z</time>
      </trkpt>
      <trkpt lat="50.56006000" lon="9.907140000">
        <ele>0.0000000</ele>
        <time>2010-01-01T04:15:49Z</time>
      </trkpt>
      <trkpt lat="50.56013000" lon="9.906310000">
        <ele>0.0000000</ele>
        <time>2010-01-01T04:16:10Z</time>
      </trkpt>
      <trkpt lat="50.56013000" lon="9.906230000">
        <ele>0.0000000</ele>
        <time>2010-01-01T04:16:12Z</time>
      </trkpt>
      <trkpt lat="50.56016000" lon="9.906030000">
        <ele>0.0000000</ele>
        <time>2010-01-01T04:16:17Z</time>
      </trkpt>
      <trkpt lat="50.56035000" lon="9.905150000">
        <ele>0.0000000</ele>
        <time>2010-01-01T04:16:41Z</time>
      </trkpt>
      <trkpt lat="50.56042000" lon="9.904700000">
        <ele>0.0000000</ele>
        <time>2010-01-01T04:16:53Z</time>
      </trkpt>
      <trkpt lat="50.56044000" lon="9.904380000">
        <ele>0.0000000</ele>
        <time>2010-01-01T04:17:01Z</time>
      </trkpt>
      <trkpt lat="50.56043000" lon="9.904020000">
        <ele>0.0000000</ele>
        <time>2010-01-01T04:17:10Z</time>
      </trkpt>
      <trkpt lat="50.56041000" lon="9.903810000">
        <ele>0.0000000</ele>
        <time>2010-01-01T04:17:15Z</time>
      </trkpt>
      <trkpt lat="50.56036000" lon="9.903530000">
        <ele>0.0000000</ele>
        <time>2010-01-01T04:17:23Z</time>
      </trkpt>
      <trkpt lat="50.56029000" lon="9.903260000">
        <ele>0.0000000</ele>
        <time>2010-01-01T04:17:30Z</time>
      </trkpt>
      <trkpt lat="50.56022000" lon="9.903060000">
        <ele>0.0000000</ele>
        <time>2010-01-01T04:17:36Z</time>
      </trkpt>
      <trkpt lat="50.56014000" lon="9.902880000">
        <ele>0.0000000</ele>
        <time>2010-01-01T04:17:42Z</time>
      </trkpt>
      <trkpt lat="50.56000000" lon="9.902620000">
        <ele>0.0000000</ele>
        <time>2010-01-01T04:17:50Z</time>
      </trkpt>
      <trkpt lat="50.55987000" lon="9.902430000">
        <ele>0.0000000</ele>
        <time>2010-01-01T04:17:57Z</time>
      </trkpt>
      <trkpt lat="50.55968000" lon="9.902230000">
        <ele>0.0000000</ele>
        <time>2010-01-01T04:18:06Z</time>
      </trkpt>
      <trkpt lat="50.55957000" lon="9.902140000">
        <ele>0.0000000</ele>
        <time>2010-01-01T04:18:11Z</time>
      </trkpt>
      <trkpt lat="50.55937000" lon="9.902010000">
        <ele>0.0000000</ele>
        <time>2010-01-01T04:18:20Z</time>
      </trkpt>
      <trkpt lat="50.55926000" lon="9.901970000">
        <ele>0.0000000</ele>
        <time>2010-01-01T04:18:25Z</time>
      </trkpt>
      <trkpt lat="50.55907000" lon="9.901920000">
        <ele>0.0000000</ele>
        <time>2010-01-01T04:18:32Z</time>
      </trkpt>
      <trkpt lat="50.55898000" lon="9.901910000">
        <ele>0.0000000</ele>
        <time>2010-01-01T04:18:36Z</time>
      </trkpt>
      <trkpt lat="50.55873000" lon="9.901910000">
        <ele>0.0000000</ele>
        <time>2010-01-01T04:18:46Z</time>
      </trkpt>
      <trkpt lat="50.55778000" lon="9.901980000">
        <ele>0.0000000</ele>
        <time>2010-01-01T04:19:24Z</time>
      </trkpt>
      <trkpt lat="50.55756000" lon="9.901980000">
        <ele>0.0000000</ele>
        <time>2010-01-01T04:19:33Z</time>
      </trkpt>
      <trkpt lat="50.55728000" lon="9.901940000">
        <ele>0.0000000</ele>
        <time>2010-01-01T04:19:44Z</time>
      </trkpt>
      <trkpt lat="50.55714000" lon="9.901900000">
        <ele>0.0000000</ele>
        <time>2010-01-01T04:19:50Z</time>
      </trkpt>
      <trkpt lat="50.55685000" lon="9.901790000">
        <ele>0.0000000</ele>
        <time>2010-01-01T04:20:02Z</time>
      </trkpt>
      <trkpt lat="50.55673000" lon="9.901730000">
        <ele>0.0000000</ele>
        <time>2010-01-01T04:20:07Z</time>
      </trkpt>
      <trkpt lat="50.55631000" lon="9.901450000">
        <ele>0.0000000</ele>
        <time>2010-01-01T04:20:25Z</time>
      </trkpt>
      <trkpt lat="50.55602000" lon="9.901160000">
        <ele>0.0000000</ele>
        <time>2010-01-01T04:20:39Z</time>
      </trkpt>
      <trkpt lat="50.55581000" lon="9.900900000">
        <ele>0.0000000</ele>
        <time>2010-01-01T04:20:49Z</time>
      </trkpt>
      <trkpt lat="50.55566000" lon="9.900660000">
        <ele>0.0000000</ele>
        <time>2010-01-01T04:20:58Z</time>
      </trkpt>
      <trkpt lat="50.55547000" lon="9.900320000">
        <ele>0.0000000</ele>
        <time>2010-01-01T04:21:10Z</time>
      </trkpt>
      <trkpt lat="50.55546000" lon="9.900240000">
        <ele>0.0000000</ele>
        <time>2010-01-01T04:21:12Z</time>
      </trkpt>
      <trkpt lat="50.55537000" lon="9.899980000">
        <ele>0.0000000</ele>
        <time>2010-01-01T04:21:19Z</time>
      </trkpt>
      <trkpt lat="50.55534000" lon="9.899850000">
        <ele>0.0000000</ele>
        <time>2010-01-01T04:21:23Z</time>
      </trkpt>
      <trkpt lat="50.55527000" lon="9.899630000">
        <ele>0.0000000</ele>
        <time>2010-01-01T04:21:29Z</time>
      </trkpt>
      <trkpt lat="50.55519000" lon="9.899430000">
        <ele>0.0000000</ele>
        <time>2010-01-01T04:21:35Z</time>
      </trkpt>
      <trkpt lat="50.55488000" lon="9.897840000">
        <ele>0.0000000</ele>
        <time>2010-01-01T04:22:17Z</time>
      </trkpt>
      <trkpt lat="50.55477000" lon="9.897550000">
        <ele>0.0000000</ele>
        <time>2010-01-01T04:22:26Z</time>
      </trkpt>
      <trkpt lat="50.55476000" lon="9.897500000">
        <ele>0.0000000</ele>
        <time>2010-01-01T04:22:27Z</time>
      </trkpt>
      <trkpt lat="50.55472000" lon="9.897440000">
        <ele>0.0000000</ele>
        <time>2010-01-01T04:22:29Z</time>
      </trkpt>
      <trkpt lat="50.55471000" lon="9.897410000">
        <ele>0.0000000</ele>
        <time>2010-01-01T04:22:30Z</time>
      </trkpt>
      <trkpt lat="50.55458000" lon="9.897230000">
        <ele>0.0000000</ele>
        <time>2010-01-01T04:22:37Z</time>
      </trkpt>
      <trkpt lat="50.55452000" lon="9.897160000">
        <ele>0.0000000</ele>
        <time>2010-01-01T04:22:40Z</time>
      </trkpt>
      <trkpt lat="50.55433000" lon="9.896970000">
        <ele>0.0000000</ele>
        <time>2010-01-01T04:22:49Z</time>
      </trkpt>
      <trkpt lat="50.55424000" lon="9.896900000">
        <ele>0.0000000</ele>
        <time>2010-01-01T04:22:53Z</time>
      </trkpt>
      <trkpt lat="50.55419000" lon="9.896830000">
        <ele>0.0000000</ele>
        <time>2010-01-01T04:22:56Z</time>
      </trkpt>
      <trkpt lat="50.55392000" lon="9.896630000">
        <ele>0.0000000</ele>
        <time>2010-01-01T04:23:08Z</time>
      </trkpt>
      <trkpt lat="50.55383000" lon="9.896550000">
        <ele>0.0000000</ele>
        <time>2010-01-01T04:23:12Z</time>
      </trkpt>
      <trkpt lat="50.55359000" lon="9.896290000">
        <ele>0.0000000</ele>
        <time>2010-01-01T04:23:24Z</time>
      </trkpt>
      <trkpt lat="50.55349000" lon="9.896130000">
        <ele>0.0000000</ele>
        <time>2010-01-01T04:23:29Z</time>
      </trkpt>
      <trkpt lat="50.55338000" lon="9.895880000">
        <ele>0.0000000</ele>
        <time>2010-01-01T04:23:37Z</time>
      </trkpt>
      <trkpt lat="50.55324000" lon="9.895450000">
        <ele>0.0000000</ele>
        <time>2010-01-01T04:23:49Z</time>
      </trkpt>
      <trkpt lat="50.55316000" lon="9.895280000">
        <ele>0.0000000</ele>
        <time>2010-01-01T04:23:55Z</time>
      </trkpt>
      <trkpt lat="50.55196000" lon="9.890330000">
        <ele>0.0000000</ele>
        <time>2010-01-01T04:26:09Z</time>
      </trkpt>
      <trkpt lat="50.55195000" lon="9.890200000">
        <ele>0.0000000</ele>
        <time>2010-01-01T04:26:13Z</time>
      </trkpt>
      <trkpt lat="50.55195000" lon="9.889980000">
        <ele>0.0000000</ele>
        <time>2010-01-01T04:26:18Z</time>
      </trkpt>
      <trkpt lat="50.55199000" lon="9.889480000">
        <ele>0.0000000</ele>
        <time>2010-01-01T04:26:31Z</time>
      </trkpt>
      <trkpt lat="50.55199000" lon="9.889380000">
        <ele>0.0000000</ele>
        <time>2010-01-01T04:26:34Z</time>
      </trkpt>
      <trkpt lat="50.55198000" lon="9.889350000">
        <ele>0.0000000</ele>
        <time>2010-01-01T04:26:35Z</time>
      </trkpt>
      <trkpt lat="50.55196000" lon="9.889230000">
        <ele>0.0000000</ele>
        <time>2010-01-01T04:26:38Z</time>
      </trkpt>
      <trkpt lat="50.55195000" lon="9.889200000">
        <ele>0.0000000</ele>
        <time>2010-01-01T04:26:39Z</time>
      </trkpt>
      <trkpt lat="50.55190000" lon="9.889120000">
        <ele>0.0000000</ele>
        <time>2010-01-01T04:26:42Z</time>
      </trkpt>
      <trkpt lat="50.55184000" lon="9.889060000">
        <ele>0.0000000</ele>
        <time>2010-01-01T04:26:44Z</time>
      </trkpt>
      <trkpt lat="50.55181000" lon="9.889040000">
        <ele>0.0000000</ele>
        <time>2010-01-01T04:26:46Z</time>
      </trkpt>
      <trkpt lat="50.55175000" lon="9.889020000">
        <ele>0.0000000</ele>
        <time>2010-01-01T04:26:48Z</time>
      </trkpt>
      <trkpt lat="50.55171000" lon="9.889000000">
        <ele>0.0000000</ele>
        <time>2010-01-01T04:26:50Z</time>
      </trkpt>
      <trkpt lat="50.55168000" lon="9.889000000">
        <ele>0.0000000</ele>
        <time>2010-01-01T04:26:51Z</time>
      </trkpt>
      <trkpt lat="50.55158000" lon="9.888980000">
        <ele>0.0000000</ele>
        <time>2010-01-01T04:26:55Z</time>
      </trkpt>
      <trkpt lat="50.55151000" lon="9.888980000">
        <ele>0.0000000</ele>
        <time>2010-01-01T04:26:58Z</time>
      </trkpt>
      <trkpt lat="50.55134000" lon="9.889020000">
        <ele>0.0000000</ele>
        <time>2010-01-01T04:27:05Z</time>
      </trkpt>
      <trkpt lat="50.55130000" lon="9.889050000">
        <ele>0.0000000</ele>
        <time>2010-01-01T04:27:06Z</time>
      </trkpt>
      <trkpt lat="50.55115000" lon="9.889140000">
        <ele>0.0000000</ele>
        <time>2010-01-01T04:27:13Z</time>
      </trkpt>
      <trkpt lat="50.55101000" lon="9.889200000">
        <ele>0.0000000</ele>
        <time>2010-01-01T04:27:19Z</time>
      </trkpt>
      <trkpt lat="50.55093000" lon="9.889200000">
        <ele>0.0000000</ele>
        <time>2010-01-01T04:27:22Z</time>
      </trkpt>
      <trkpt lat="50.55082000" lon="9.889170000">
        <ele>0.0000000</ele>
        <time>2010-01-01T04:27:26Z</time>
      </trkpt>
      <trkpt lat="50.55079000" lon="9.889120000">
        <ele>0.0000000</ele>
        <time>2010-01-01T04:27:28Z</time>
      </trkpt>
      <trkpt lat="50.55076000" lon="9.889090000">
        <ele>0.0000000</ele>
        <time>2010-01-01T04:27:30Z</time>
      </trkpt>
      <trkpt lat="50.55070000" lon="9.888970000">
        <ele>0.0000000</ele>
        <time>2010-01-01T04:27:33Z</time>
      </trkpt>
      <trkpt lat="50.55068000" lon="9.888900000">
        <ele>0.0000000</ele>
        <time>2010-01-01T04:27:35Z</time>
      </trkpt>
      <trkpt lat="50.55064000" lon="9.888680000">
        <ele>0.0000000</ele>
        <time>2010-01-01T04:27:41Z</time>
      </trkpt>
      <trkpt lat="50.55055000" lon="9.887360000">
        <ele>0.0000000</ele>
        <time>2010-01-01T04:28:15Z</time>
      </trkpt>
      <trkpt lat="50.55055000" lon="9.887200000">
        <ele>0.0000000</ele>
        <time>2010-01-01T04:28:19Z</time>
      </trkpt>
      <trkpt lat="50.55056000" lon="9.887090000">
        <ele>0.0000000</ele>
        <time>2010-01-01T04:28:22Z</time>
      </trkpt>
      <trkpt lat="50.55062000" lon="9.886800000">
        <ele>0.0000000</ele>
        <time>2010-01-01T04:28:30Z</time>
      </trkpt>
      <trkpt lat="50.55065000" lon="9.886720000">
        <ele>0.0000000</ele>
        <time>2010-01-01T04:28:32Z</time>
      </trkpt>
      <trkpt lat="50.55068000" lon="9.886610000">
        <ele>0.0000000</ele>
        <time>2010-01-01T04:28:35Z</time>
      </trkpt>
      <trkpt lat="50.55076000" lon="9.886460000">
        <ele>0.0000000</ele>
        <time>2010-01-01T04:28:40Z</time>
      </trkpt>
      <trkpt lat="50.55084000" lon="9.886340000">
        <ele>0.0000000</ele>
        <time>2010-01-01T04:28:44Z</time>
      </trkpt>
      <trkpt lat="50.55102000" lon="9.886140000">
        <ele>0.0000000</ele>
        <time>2010-01-01T04:28:53Z</time>
      </trkpt>
      <trkpt lat="50.55114000" lon="9.885940000">
        <ele>0.0000000</ele>
        <time>2010-01-01T04:29:00Z</time>
      </trkpt>
      <trkpt lat="50.55116000" lon="9.885880000">
        <ele>0.0000000</ele>
        <time>2010-01-01T04:29:02Z</time>
      </trkpt>
      <trkpt lat="50.55121000" lon="9.885770000">
        <ele>0.0000000</ele>
        <time>2010-01-01T04:29:05Z</time>
      </trkpt>
      <trkpt lat="50.55164000" lon="9.883670000">
        <ele>0.0000000</ele>
        <time>2010-01-01T04:30:02Z</time>
      </trkpt>
      <trkpt lat="50.55174000" lon="9.883400000">
        <ele>0.0000000</ele>
        <time>2010-01-01T04:30:09Z</time>
      </trkpt>
      <trkpt lat="50.55179000" lon="9.883310000">
        <ele>0.0000000</ele>
        <time>2010-01-01T04:30:13Z</time>
      </trkpt>
      <trkpt lat="50.55190000" lon="9.883160000">
        <ele>0.0000000</ele>
        <time>2010-01-01T04:30:18Z</time>
      </trkpt>
      <trkpt lat="50.55229000" lon="9.882830000">
        <ele>0.0000000</ele>
        <time>2010-01-01T04:30:36Z</time>
      </trkpt>
      <trkpt lat="50.55239000" lon="9.882720000">
        <ele>0.0000000</ele>
        <time>2010-01-01T04:30:41Z</time>
      </trkpt>
      <trkpt lat="50.55246000" lon="9.882630000">
        <ele>0.0000000</ele>
        <time>2010-01-01T04:30:45Z</time>
      </trkpt>
      <trkpt lat="50.55253000" lon="9.882520000">
        <ele>0.0000000</ele>
        <time>2010-01-01T04:30:49Z</time>
      </trkpt>
      <trkpt lat="50.55259000" lon="9.882400000">
        <ele>0.0000000</ele>
        <time>2010-01-01T04:30:52Z</time>
      </trkpt>
      <trkpt lat="50.55268000" lon="9.882150000">
        <ele>0.0000000</ele>
        <time>2010-01-01T04:31:00Z</time>
      </trkpt>
      <trkpt lat="50.55316000" lon="9.880480000">
        <ele>0.0000000</ele>
        <time>2010-01-01T04:31:46Z</time>
      </trkpt>
      <trkpt lat="50.55320000" lon="9.880290000">
        <ele>0.0000000</ele>
        <time>2010-01-01T04:31:51Z</time>
      </trkpt>
      <trkpt lat="50.55323000" lon="9.880030000">
        <ele>0.0000000</ele>
        <time>2010-01-01T04:31:58Z</time>
      </trkpt>
      <trkpt lat="50.55322000" lon="9.879730000">
        <ele>0.0000000</ele>
        <time>2010-01-01T04:32:06Z</time>
      </trkpt>
      <trkpt lat="50.55321000" lon="9.879650000">
        <ele>0.0000000</ele>
        <time>2010-01-01T04:32:08Z</time>
      </trkpt>
      <trkpt lat="50.55319000" lon="9.879560000">
        <ele>0.0000000</ele>
        <time>2010-01-01T04:32:10Z</time>
      </trkpt>
      <trkpt lat="50.55313000" lon="9.879370000">
        <ele>0.0000000</ele>
        <time>2010-01-01T04:32:16Z</time>
      </trkpt>
      <trkpt lat="50.55290000" lon="9.878880000">
        <ele>0.0000000</ele>
        <time>2010-01-01T04:32:31Z</time>
      </trkpt>
      <trkpt lat="50.55283000" lon="9.878690000">
        <ele>0.0000000</ele>
        <time>2010-01-01T04:32:37Z</time>
      </trkpt>
      <trkpt lat="50.55278000" lon="9.878450000">
        <ele>0.0000000</ele>
        <time>2010-01-01T04:32:43Z</time>
      </trkpt>
      <trkpt lat="50.55278000" lon="9.878040000">
        <ele>0.0000000</ele>
        <time>2010-01-01T04:32:54Z</time>
      </trkpt>
      <trkpt lat="50.55283000" lon="9.877910000">
        <ele>0.0000000</ele>
        <time>2010-01-01T04:32:58Z</time>
      </trkpt>
      <trkpt lat="50.55299000" lon="9.877580000">
        <ele>0.0000000</ele>
        <time>2010-01-01T04:33:08Z</time>
      </trkpt>
      <trkpt lat="50.55326000" lon="9.877140000">
        <ele>0.0000000</ele>
        <time>2010-01-01T04:33:24Z</time>
      </trkpt>
      <trkpt lat="50.55337000" lon="9.876990000">
        <ele>0.0000000</ele>
        <time>2010-01-01T04:33:29Z</time>
      </trkpt>
      <trkpt lat="50.55524000" lon="9.874110000">
        <ele>0.0000000</ele>
        <time>2010-01-01T04:35:14Z</time>
      </trkpt>
      <trkpt lat="50.55554000" lon="9.873680000">
        <ele>0.0000000</ele>
        <time>2010-01-01T04:35:30Z</time>
      </trkpt>
      <trkpt lat="50.55590000" lon="9.873240000">
        <ele>0.0000000</ele>
        <time>2010-01-01T04:35:49Z</time>
      </trkpt>
      <trkpt lat="50.55635000" lon="9.872810000">
        <ele>0.0000000</ele>
        <time>2010-01-01T04:36:10Z</time>
      </trkpt>
      <trkpt lat="50.55644000" lon="9.872740000">
        <ele>0.0000000</ele>
        <time>2010-01-01T04:36:14Z</time>
      </trkpt>
      <trkpt lat="50.55685000" lon="9.872480000">
        <ele>0.0000000</ele>
        <time>2010-01-01T04:36:31Z</time>
      </trkpt>
      <trkpt lat="50.55705000" lon="9.872410000">
        <ele>0.0000000</ele>
        <time>2010-01-01T04:36:40Z</time>
      </trkpt>
      <trkpt lat="50.55724000" lon="9.872360000">
        <ele>0.0000000</ele>
        <time>2010-01-01T04:36:47Z</time>
      </trkpt>
      <trkpt lat="50.55776000" lon="9.872290000">
        <ele>0.0000000</ele>
        <time>2010-01-01T04:37:08Z</time>
      </trkpt>
      <trkpt lat="50.55796000" lon="9.872310000">
        <ele>0.0000000</ele>
        <time>2010-01-01T04:37:16Z</time>
      </trkpt>
      <trkpt lat="50.55828000" lon="9.872370000">
        <ele>0.0000000</ele>
        <time>2010-01-01T04:37:29Z</time>
      </trkpt>
      <trkpt lat="50.55848000" lon="9.872420000">
        <ele>0.0000000</ele>
        <time>2010-01-01T04:37:37Z</time>
      </trkpt>
      <trkpt lat="50.55877000" lon="9.872530000">
        <ele>0.0000000</ele>
        <time>2010-01-01T04:37:49Z</time>
      </trkpt>
      <trkpt lat="50.55935000" lon="9.872780000">
        <ele>0.0000000</ele>
        <time>2010-01-01T04:38:13Z</time>
      </trkpt>
      <trkpt lat="50.55953000" lon="9.872840000">
        <ele>0.0000000</ele>
        <time>2010-01-01T04:38:21Z</time>
      </trkpt>
      <trkpt lat="50.55979000" lon="9.872910000">
        <ele>0.0000000</ele>
        <time>2010-01-01T04:38:31Z</time>
      </trkpt>
      <trkpt lat="50.56007000" lon="9.872920000">
        <ele>0.0000000</ele>
        <time>2010-01-01T04:38:42Z</time>
      </trkpt>
      <trkpt lat="50.56025000" lon="9.872910000">
        <ele>0.0000000</ele>
        <time>2010-01-01T04:38:50Z</time>
      </trkpt>
      <trkpt lat="50.56067000" lon="9.872840000">
        <ele>0.0000000</ele>
        <time>2010-01-01T04:39:07Z</time>
      </trkpt>
      <trkpt lat="50.56118000" lon="9.872720000">
        <ele>0.0000000</ele>
        <time>2010-01-01T04:39:27Z</time>
      </trkpt>
      <trkpt lat="50.56142000" lon="9.872650000">
        <ele>0.0000000</ele>
        <time>2010-01-01T04:39:37Z</time>
      </trkpt>
      <trkpt lat="50.56165000" lon="9.872550000">
        <ele>0.0000000</ele>
        <time>2010-01-01T04:39:47Z</time>
      </trkpt>
      <trkpt lat="50.56201000" lon="9.872350000">
        <ele>0.0000000</ele>
        <time>2010-01-01T04:40:02Z</time>
      </trkpt>
      <trkpt lat="50.56241000" lon="9.872080000">
        <ele>0.0000000</ele>
        <time>2010-01-01T04:40:19Z</time>
      </trkpt>
      <trkpt lat="50.56263000" lon="9.871950000">
        <ele>0.0000000</ele>
        <time>2010-01-01T04:40:29Z</time>
      </trkpt>
      <trkpt lat="50.56308000" lon="9.871780000">
        <ele>0.0000000</ele>
        <time>2010-01-01T04:40:47Z</time>
      </trkpt>
      <trkpt lat="50.56342000" lon="9.871740000">
        <ele>0.0000000</ele>
        <time>2010-01-01T04:41:01Z</time>
      </trkpt>
      <trkpt lat="50.56365000" lon="9.871730000">
        <ele>0.0000000</ele>
        <time>2010-01-01T04:41:10Z</time>
      </trkpt>
      <trkpt lat="50.56528000" lon="9.871760000">
        <ele>0.0000000</ele>
        <time>2010-01-01T04:42:15Z</time>
      </trkpt>
      <trkpt lat="50.56536000" lon="9.871750000">
        <ele>0.0000000</ele>
        <time>2010-01-01T04:42:18Z</time>
      </trkpt>
      <trkpt lat="50.56601000" lon="9.871760000">
        <ele>0.0000000</ele>
        <time>2010-01-01T04:42:44Z</time>
      </trkpt>
      <trkpt lat="50.56610000" lon="9.871750000">
        <ele>0.0000000</ele>
        <time>2010-01-01T04:42:48Z</time>
      </trkpt>
      <trkpt lat="50.56624000" lon="9.871750000">
        <ele>0.0000000</ele>
        <time>2010-01-01T04:42:54Z</time>
      </trkpt>
      <trkpt lat="50.56638000" lon="9.871740000">
        <ele>0.0000000</ele>
        <time>2010-01-01T04:42:59Z</time>
      </trkpt>
      <trkpt lat="50.56656000" lon="9.871710000">
        <ele>0.0000000</ele>
        <time>2010-01-01T04:43:07Z</time>
      </trkpt>
      <trkpt lat="50.56687000" lon="9.871640000">
        <ele>0.0000000</ele>
        <time>2010-01-01T04:43:19Z</time>
      </trkpt>
      <trkpt lat="50.56700000" lon="9.871600000">
        <ele>0.0000000</ele>
        <time>2010-01-01T04:43:24Z</time>
      </trkpt>
      <trkpt lat="50.56736000" lon="9.871420000">
        <ele>0.0000000</ele>
        <time>2010-01-01T04:43:40Z</time>
      </trkpt>
      <trkpt lat="50.56776000" lon="9.871120000">
        <ele>0.0000000</ele>
        <time>2010-01-01T04:43:57Z</time>
      </trkpt>
      <trkpt lat="50.56801000" lon="9.870870000">
        <ele>0.0000000</ele>
        <time>2010-01-01T04:44:09Z</time>
      </trkpt>
      <trkpt lat="50.56819000" lon="9.870670000">
        <ele>0.0000000</ele>
        <time>2010-01-01T04:44:18Z</time>
      </trkpt>
      <trkpt lat="50.56834000" lon="9.870470000">
        <ele>0.0000000</ele>
        <time>2010-01-01T04:44:26Z</time>
      </trkpt>
      <trkpt lat="50.56843000" lon="9.870330000">
        <ele>0.0000000</ele>
        <time>2010-01-01T04:44:31Z</time>
      </trkpt>
      <trkpt lat="50.56848000" lon="9.870270000">
        <ele>0.0000000</ele>
        <time>2010-01-01T04:44:33Z</time>
      </trkpt>
      <trkpt lat="50.56895000" lon="9.869560000">
        <ele>0.0000000</ele>
        <time>2010-01-01T04:44:59Z</time>
      </trkpt>
      <trkpt lat="50.56924000" lon="9.869250000">
        <ele>0.0000000</ele>
        <time>2010-01-01T04:45:13Z</time>
      </trkpt>
      <trkpt lat="50.56965000" lon="9.868880000">
        <ele>0.0000000</ele>
        <time>2010-01-01T04:45:32Z</time>
      </trkpt>
      <trkpt lat="50.56979000" lon="9.868740000">
        <ele>0.0000000</ele>
        <time>2010-01-01T04:45:39Z</time>
      </trkpt>
      <trkpt lat="50.56987000" lon="9.868640000">
        <ele>0.0000000</ele>
        <time>2010-01-01T04:45:43Z</time>
      </trkpt>
      <trkpt lat="50.56991000" lon="9.868570000">
        <ele>0.0000000</ele>
        <time>2010-01-01T04:45:46Z</time>
      </trkpt>
      <trkpt lat="50.56998000" lon="9.868470000">
        <ele>0.0000000</ele>
        <time>2010-01-01T04:45:49Z</time>
      </trkpt>
      <trkpt lat="50.57010000" lon="9.868240000">
        <ele>0.0000000</ele>
        <time>2010-01-01T04:45:57Z</time>
      </trkpt>
      <trkpt lat="50.57023000" lon="9.867920000">
        <ele>0.0000000</ele>
        <time>2010-01-01T04:46:07Z</time>
      </trkpt>
      <trkpt lat="50.57029000" lon="9.867730000">
        <ele>0.0000000</ele>
        <time>2010-01-01T04:46:12Z</time>
      </trkpt>
      <trkpt lat="50.57030000" lon="9.867660000">
        <ele>0.0000000</ele>
        <time>2010-01-01T04:46:14Z</time>
      </trkpt>
      <trkpt lat="50.57036000" lon="9.867400000">
        <ele>0.0000000</ele>
        <time>2010-01-01T04:46:21Z</time>
      </trkpt>
      <trkpt lat="50.57041000" lon="9.867000000">
        <ele>0.0000000</ele>
        <time>2010-01-01T04:46:31Z</time>
      </trkpt>
      <trkpt lat="50.57041000" lon="9.866930000">
        <ele>0.0000000</ele>
        <time>2010-01-01T04:46:33Z</time>
      </trkpt>
      <trkpt lat="50.57048000" lon="9.866190000">
        <ele>0.0000000</ele>
        <time>2010-01-01T04:46:52Z</time>
      </trkpt>
      <trkpt lat="50.57053000" lon="9.865900000">
        <ele>0.0000000</ele>
        <time>2010-01-01T04:47:00Z</time>
      </trkpt>
      <trkpt lat="50.57059000" lon="9.865670000">
        <ele>0.0000000</ele>
        <time>2010-01-01T04:47:06Z</time>
      </trkpt>
      <trkpt lat="50.57072000" lon="9.865290000">
        <ele>0.0000000</ele>
        <time>2010-01-01T04:47:17Z</time>
      </trkpt>
      <trkpt lat="50.57085000" lon="9.864970000">
        <ele>0.0000000</ele>
        <time>2010-01-01T04:47:27Z</time>
      </trkpt>
      <trkpt lat="50.57101000" lon="9.864470000">
        <ele>0.0000000</ele>
        <time>2010-01-01T04:47:41Z</time>
      </trkpt>
      <trkpt lat="50.57109000" lon="9.864070000">
        <ele>0.0000000</ele>
        <time>2010-01-01T04:47:51Z</time>
      </trkpt>
      <trkpt lat="50.57137000" lon="9.861860000">
        <ele>0.0000000</ele>
        <time>2010-01-01T04:48:49Z</time>
      </trkpt>
      <trkpt lat="50.57142000" lon="9.861280000">
        <ele>0.0000000</ele>
        <time>2010-01-01T04:49:04Z</time>
      </trkpt>
      <trkpt lat="50.57140000" lon="9.860340000">
        <ele>0.0000000</ele>
        <time>2010-01-01T04:49:28Z</time>
      </trkpt>
      <trkpt lat="50.57143000" lon="9.860030000">
        <ele>0.0000000</ele>
        <time>2010-01-01T04:49:36Z</time>
      </trkpt>
      <trkpt lat="50.57147000" lon="9.859770000">
        <ele>0.0000000</ele>
        <time>2010-01-01T04:49:42Z</time>
      </trkpt>
      <trkpt lat="50.57159000" lon="9.859320000">
        <ele>0.0000000</ele>
        <time>2010-01-01T04:49:55Z</time>
      </trkpt>
      <trkpt lat="50.57222000" lon="9.857600000">
        <ele>0.0000000</ele>
        <time>2010-01-01T04:50:45Z</time>
      </trkpt>
      <trkpt lat="50.57225000" lon="9.857470000">
        <ele>0.0000000</ele>
        <time>2010-01-01T04:50:49Z</time>
      </trkpt>
      <trkpt lat="50.57229000" lon="9.857350000">
        <ele>0.0000000</ele>
        <time>2010-01-01T04:50:52Z</time>
      </trkpt>
      <trkpt lat="50.57235000" lon="9.857070000">
        <ele>0.0000000</ele>
        <time>2010-01-01T04:51:00Z</time>
      </trkpt>
      <trkpt lat="50.57240000" lon="9.856550000">
        <ele>0.0000000</ele>
        <time>2010-01-01T04:51:13Z</time>
      </trkpt>
      <trkpt lat="50.57251000" lon="9.856590000">
        <ele>0.0000000</ele>
        <time>2010-01-01T04:51:18Z</time>
      </trkpt>
      <trkpt lat="50.57259000" lon="9.856610000">
        <ele>0.0000000</ele>
        <time>2010-01-01T04:51:21Z</time>
      </trkpt>
      <trkpt lat="50.57277000" lon="9.856570000">
        <ele>0.0000000</ele>
        <time>2010-01-01T04:51:28Z</time>
      </trkpt>
      <trkpt lat="50.57283000" lon="9.856550000">
        <ele>0.0000000</ele>
        <time>2010-01-01T04:51:31Z</time>
      </trkpt>
      <trkpt lat="50.57300000" lon="9.856430000">
        <ele>0.0000000</ele>
        <time>2010-01-01T04:51:38Z</time>
      </trkpt>
      <trkpt lat="50.57328000" lon="9.856150000">
        <ele>0.0000000</ele>
        <time>2010-01-01T04:51:51Z</time>
      </trkpt>
      <trkpt lat="50.57364000" lon="9.855820000">
        <ele>0.0000000</ele>
        <time>2010-01-01T04:52:08Z</time>
      </trkpt>
      <trkpt lat="50.57378000" lon="9.855710000">
        <ele>0.0000000</ele>
        <time>2010-01-01T04:52:14Z</time>
      </trkpt>
      <trkpt lat="50.57387000" lon="9.855660000">
        <ele>0.0000000</ele>
        <time>2010-01-01T04:52:18Z</time>
      </trkpt>
      <trkpt lat="50.57406000" lon="9.855640000">
        <ele>0.0000000</ele>
        <time>2010-01-01T04:52:26Z</time>
      </trkpt>
      <trkpt lat="50.57434000" lon="9.855660000">
        <ele>0.0000000</ele>
        <time>2010-01-01T04:52:37Z</time>
      </trkpt>
      <trkpt lat="50.57549000" lon="9.855270000">
        <ele>0.0000000</ele>
        <time>2010-01-01T04:53:24Z</time>
      </trkpt>
      <trkpt lat="50.57578000" lon="9.855250000">
        <ele>0.0000000</ele>
        <time>2010-01-01T04:53:36Z</time>
      </trkpt>
      <trkpt lat="50.57630000" lon="9.855300000">
        <ele>0.0000000</ele>
        <time>2010-01-01T04:53:56Z</time>
      </trkpt>
      <trkpt lat="50.57740000" lon="9.855120000">
        <ele>0.0000000</ele>
        <time>2010-01-01T04:54:41Z</time>
      </trkpt>
      <trkpt lat="50.57993000" lon="9.854240000">
        <ele>0.0000000</ele>
        <time>2010-01-01T04:56:24Z</time>
      </trkpt>
      <trkpt lat="50.58021000" lon="9.854090000">
        <ele>0.0000000</ele>
        <time>2010-01-01T04:56:36Z</time>
      </trkpt>
      <trkpt lat="50.58043000" lon="9.853940000">
        <ele>0.0000000</ele>
        <time>2010-01-01T04:56:46Z</time>
      </trkpt>
      <trkpt lat="50.58124000" lon="9.853230000">
        <ele>0.0000000</ele>
        <time>2010-01-01T04:57:23Z</time>
      </trkpt>
      <trkpt lat="50.58130000" lon="9.853190000">
        <ele>0.0000000</ele>
        <time>2010-01-01T04:57:26Z</time>
      </trkpt>
      <trkpt lat="50.58141000" lon="9.853170000">
        <ele>0.0000000</ele>
        <time>2010-01-01T04:57:30Z</time>
      </trkpt>
      <trkpt lat="50.58157000" lon="9.853280000">
        <ele>0.0000000</ele>
        <time>2010-01-01T04:57:37Z</time>
      </trkpt>
      <trkpt lat="50.58171000" lon="9.853390000">
        <ele>0.0000000</ele>
        <time>2010-01-01T04:57:43Z</time>
      </trkpt>
      <trkpt lat="50.58183000" lon="9.853500000">
        <ele>0.0000000</ele>
        <time>2010-01-01T04:57:49Z</time>
      </trkpt>
      <trkpt lat="50.58263000" lon="9.854490000">
        <ele>0.0000000</ele>
        <time>2010-01-01T04:58:30Z</time>
      </trkpt>
      <trkpt lat="50.58296000" lon="9.854810000">
        <ele>0.0000000</ele>
        <time>2010-01-01T04:58:45Z</time>
      </trkpt>
      <trkpt lat="50.58359000" lon="9.855370000">
        <ele>0.0000000</ele>
        <time>2010-01-01T04:59:14Z</time>
      </trkpt>
      <trkpt lat="50.58508000" lon="9.856550000">
        <ele>0.0000000</ele>
        <time>2010-01-01T05:00:21Z</time>
      </trkpt>
      <trkpt lat="50.58568000" lon="9.856960000">
        <ele>0.0000000</ele>
        <time>2010-01-01T05:00:47Z</time>
      </trkpt>
      <trkpt lat="50.58592000" lon="9.857030000">
        <ele>0.0000000</ele>
        <time>2010-01-01T05:00:57Z</time>
      </trkpt>
      <trkpt lat="50.58621000" lon="9.857050000">
        <ele>0.0000000</ele>
        <time>2010-01-01T05:01:08Z</time>
      </trkpt>
      <trkpt lat="50.58634000" lon="9.857050000">
        <ele>0.0000000</ele>
        <time>2010-01-01T05:01:14Z</time>
      </trkpt>
      <trkpt lat="50.58636000" lon="9.857200000">
        <ele>0.0000000</ele>
        <time>2010-01-01T05:01:17Z</time>
      </trkpt>
      <trkpt lat="50.58640000" lon="9.857380000">
        <ele>0.0000000</ele>
        <time>2010-01-01T05:01:22Z</time>
      </trkpt>
      <trkpt lat="50.58640000" lon="9.857420000">
        <ele>0.0000000</ele>
        <time>2010-01-01T05:01:23Z</time>
      </trkpt>
      <trkpt lat="50.58645000" lon="9.857620000">
        <ele>0.0000000</ele>
        <time>2010-01-01T05:01:29Z</time>
      </trkpt>
      <trkpt lat="50.58645000" lon="9.857630000">
        <ele>0.0000000</ele>
        <time>2010-01-01T05:01:29Z</time>
      </trkpt>
      <trkpt lat="50.58648000" lon="9.857740000">
        <ele>0.0000000</ele>
        <time>2010-01-01T05:01:32Z</time>
      </trkpt>
      <trkpt lat="50.58652000" lon="9.857850000">
        <ele>0.0000000</ele>
        <time>2010-01-01T05:01:35Z</time>
      </trkpt>
      <trkpt lat="50.58673000" lon="9.858280000">
        <ele>0.0000000</ele>
        <time>2010-01-01T05:01:49Z</time>
      </trkpt>
      <trkpt lat="50.58684000" lon="9.858440000">
        <ele>0.0000000</ele>
        <time>2010-01-01T05:01:55Z</time>
      </trkpt>
      <trkpt lat="50.58688000" lon="9.858480000">
        <ele>0.0000000</ele>
        <time>2010-01-01T05:01:57Z</time>
      </trkpt>
      <trkpt lat="50.58691000" lon="9.858480000">
        <ele>0.0000000</ele>
        <time>2010-01-01T05:01:58Z</time>
      </trkpt>
      <trkpt lat="50.58704000" lon="9.858630000">
        <ele>0.0000000</ele>
        <time>2010-01-01T05:02:05Z</time>
      </trkpt>
      <trkpt lat="50.58733000" lon="9.858910000">
        <ele>0.0000000</ele>
        <time>2010-01-01T05:02:18Z</time>
      </trkpt>
      <trkpt lat="50.58763000" lon="9.859130000">
        <ele>0.0000000</ele>
        <time>2010-01-01T05:02:31Z</time>
      </trkpt>
      <trkpt lat="50.58813000" lon="9.859430000">
        <ele>0.0000000</ele>
        <time>2010-01-01T05:02:53Z</time>
      </trkpt>
      <trkpt lat="50.58837000" lon="9.859600000">
        <ele>0.0000000</ele>
        <time>2010-01-01T05:03:03Z</time>
      </trkpt>
      <trkpt lat="50.58852000" lon="9.859720000">
        <ele>0.0000000</ele>
        <time>2010-01-01T05:03:10Z</time>
      </trkpt>
      <trkpt lat="50.58873000" lon="9.860020000">
        <ele>0.0000000</ele>
        <time>2010-01-01T05:03:22Z</time>
      </trkpt>
      <trkpt lat="50.58885000" lon="9.860260000">
        <ele>0.0000000</ele>
        <time>2010-01-01T05:03:29Z</time>
      </trkpt>
      <trkpt lat="50.58901000" lon="9.860800000">
        <ele>0.0000000</ele>
        <time>2010-01-01T05:03:44Z</time>
      </trkpt>
      <trkpt lat="50.58921000" lon="9.861880000">
        <ele>0.0000000</ele>
        <time>2010-01-01T05:04:13Z</time>
      </trkpt>
      <trkpt lat="50.58931000" lon="9.862230000">
        <ele>0.0000000</ele>
        <time>2010-01-01T05:04:23Z</time>
      </trkpt>
      <trkpt lat="50.58937000" lon="9.862380000">
        <ele>0.0000000</ele>
        <time>2010-01-01T05:04:27Z</time>
      </trkpt>
      <trkpt lat="50.58947000" lon="9.862570000">
        <ele>0.0000000</ele>
        <time>2010-01-01T05:04:34Z</time>
      </trkpt>
      <trkpt lat="50.58978000" lon="9.863040000">
        <ele>0.0000000</ele>
        <time>2010-01-01T05:04:51Z</time>
      </trkpt>
      <trkpt lat="50.59040000" lon="9.863810000">
        <ele>0.0000000</ele>
        <time>2010-01-01T05:05:22Z</time>
      </trkpt>
      <trkpt lat="50.59102000" lon="9.864510000">
        <ele>0.0000000</ele>
        <time>2010-01-01T05:05:53Z</time>
      </trkpt>
      <trkpt lat="50.59136000" lon="9.865070000">
        <ele>0.0000000</ele>
        <time>2010-01-01T05:06:13Z</time>
      </trkpt>
      <trkpt lat="50.59175000" lon="9.865830000">
        <ele>0.0000000</ele>
        <time>2010-01-01T05:06:37Z</time>
      </trkpt>
      <trkpt lat="50.59289000" lon="9.867410000">
        <ele>0.0000000</ele>
        <time>2010-01-01T05:07:38Z</time>
      </trkpt>
      <trkpt lat="50.59318000" lon="9.867950000">
        <ele>0.0000000</ele>
        <time>2010-01-01T05:07:56Z</time>
      </trkpt>
      <trkpt lat="50.59375000" lon="9.869260000">
        <ele>0.0000000</ele>
        <time>2010-01-01T05:08:37Z</time>
      </trkpt>
      <trkpt lat="50.59382000" lon="9.869460000">
        <ele>0.0000000</ele>
        <time>2010-01-01T05:08:42Z</time>
      </trkpt>
      <trkpt lat="50.59390000" lon="9.869740000">
        <ele>0.0000000</ele>
        <time>2010-01-01T05:08:50Z</time>
      </trkpt>
      <trkpt lat="50.59399000" lon="9.870210000">
        <ele>0.0000000</ele>
        <time>2010-01-01T05:09:03Z</time>
      </trkpt>
      <trkpt lat="50.59420000" lon="9.871920000">
        <ele>0.0000000</ele>
        <time>2010-01-01T05:09:47Z</time>
      </trkpt>
      <trkpt lat="50.59422000" lon="9.871970000">
        <ele>0.0000000</ele>
        <time>2010-01-01T05:09:48Z</time>
      </trkpt>
      <trkpt lat="50.59427000" lon="9.872180000">
        <ele>0.0000000</ele>
        <time>2010-01-01T05:09:54Z</time>
      </trkpt>
      <trkpt lat="50.59432000" lon="9.872280000">
        <ele>0.0000000</ele>
        <time>2010-01-01T05:09:57Z</time>
      </trkpt>
      <trkpt lat="50.59436000" lon="9.872330000">
        <ele>0.0000000</ele>
        <time>2010-01-01T05:09:59Z</time>
      </trkpt>
      <trkpt lat="50.59437000" lon="9.872350000">
        <ele>0.0000000</ele>
        <time>2010-01-01T05:10:00Z</time>
      </trkpt>
      <trkpt lat="50.59441000" lon="9.872400000">
        <ele>0.0000000</ele>
        <time>2010-01-01T05:10:02Z</time>
      </trkpt>
      <trkpt lat="50.59445000" lon="9.872430000">
        <ele>0.0000000</ele>
        <time>2010-01-01T05:10:04Z</time>
      </trkpt>
      <trkpt lat="50.59451000" lon="9.872490000">
        <ele>0.0000000</ele>
        <time>2010-01-01T05:10:07Z</time>
      </trkpt>
      <trkpt lat="50.59455000" lon="9.872510000">
        <ele>0.0000000</ele>
        <time>2010-01-01T05:10:08Z</time>
      </trkpt>
      <trkpt lat="50.59467000" lon="9.872540000">
        <ele>0.0000000</ele>
        <time>2010-01-01T05:10:13Z</time>
      </trkpt>
      <trkpt lat="50.59523000" lon="9.872530000">
        <ele>0.0000000</ele>
        <time>2010-01-01T05:10:36Z</time>
      </trkpt>
      <trkpt lat="50.59534000" lon="9.872550000">
        <ele>0.0000000</ele>
        <time>2010-01-01T05:10:40Z</time>
      </trkpt>
      <trkpt lat="50.59541000" lon="9.872570000">
        <ele>0.0000000</ele>
        <time>2010-01-01T05:10:43Z</time>
      </trkpt>
      <trkpt lat="50.59556000" lon="9.872640000">
        <ele>0.0000000</ele>
        <time>2010-01-01T05:10:49Z</time>
      </trkpt>
      <trkpt lat="50.59562000" lon="9.872690000">
        <ele>0.0000000</ele>
        <time>2010-01-01T05:10:52Z</time>
      </trkpt>
      <trkpt lat="50.59568000" lon="9.872730000">
        <ele>0.0000000</ele>
        <time>2010-01-01T05:10:55Z</time>
      </trkpt>
      <trkpt lat="50.59578000" lon="9.872830000">
        <ele>0.0000000</ele>
        <time>2010-01-01T05:10:59Z</time>
      </trkpt>
      <trkpt lat="50.59596000" lon="9.873060000">
        <ele>0.0000000</ele>
        <time>2010-01-01T05:11:09Z</time>
      </trkpt>
      <trkpt lat="50.59639000" lon="9.873770000">
        <ele>0.0000000</ele>
        <time>2010-01-01T05:11:33Z</time>
      </trkpt>
      <trkpt lat="50.59646000" lon="9.873870000">
        <ele>0.0000000</ele>
        <time>2010-01-01T05:11:37Z</time>
      </trkpt>
      <trkpt lat="50.59654000" lon="9.873960000">
        <ele>0.0000000</ele>
        <time>2010-01-01T05:11:41Z</time>
      </trkpt>
      <trkpt lat="50.59671000" lon="9.874110000">
        <ele>0.0000000</ele>
        <time>2010-01-01T05:11:49Z</time>
      </trkpt>
      <trkpt lat="50.59686000" lon="9.874210000">
        <ele>0.0000000</ele>
        <time>2010-01-01T05:11:56Z</time>
      </trkpt>
      <trkpt lat="50.59705000" lon="9.874260000">
        <ele>0.0000000</ele>
        <time>2010-01-01T05:12:03Z</time>
      </trkpt>
      <trkpt lat="50.59753000" lon="9.874360000">
        <ele>0.0000000</ele>
        <time>2010-01-01T05:12:23Z</time>
      </trkpt>
      <trkpt lat="50.59792000" lon="9.874460000">
        <ele>0.0000000</ele>
        <time>2010-01-01T05:12:38Z</time>
      </trkpt>
      <trkpt lat="50.59820000" lon="9.874590000">
        <ele>0.0000000</ele>
        <time>2010-01-01T05:12:50Z</time>
      </trkpt>
      <trkpt lat="50.59829000" lon="9.874650000">
        <ele>0.0000000</ele>
        <time>2010-01-01T05:12:54Z</time>
      </trkpt>
      <trkpt lat="50.59876000" lon="9.875090000">
        <ele>0.0000000</ele>
        <time>2010-01-01T05:13:16Z</time>
      </trkpt>
      <trkpt lat="50.59883000" lon="9.875170000">
        <ele>0.0000000</ele>
        <time>2010-01-01T05:13:19Z</time>
      </trkpt>
      <trkpt lat="50.59908000" lon="9.875350000">
        <ele>0.0000000</ele>
        <time>2010-01-01T05:13:30Z</time>
      </trkpt>
      <trkpt lat="50.59929000" lon="9.875420000">
        <ele>0.0000000</ele>
        <time>2010-01-01T05:13:39Z</time>
      </trkpt>
      <trkpt lat="50.59966000" lon="9.875500000">
        <ele>0.0000000</ele>
        <time>2010-01-01T05:13:54Z</time>
      </trkpt>
      <trkpt lat="50.60055000" lon="9.875590000">
        <ele>0.0000000</ele>
        <time>2010-01-01T05:14:30Z</time>
      </trkpt>
      <trkpt lat="50.60062000" lon="9.875610000">
        <ele>0.0000000</ele>
        <time>2010-01-01T05:14:32Z</time>
      </trkpt>
      <trkpt lat="50.60068000" lon="9.875620000">
        <ele>0.0000000</ele>
        <time>2010-01-01T05:14:35Z</time>
      </trkpt>
      <trkpt lat="50.60080000" lon="9.875670000">
        <ele>0.0000000</ele>
        <time>2010-01-01T05:14:40Z</time>
      </trkpt>
      <trkpt lat="50.60091000" lon="9.875750000">
        <ele>0.0000000</ele>
        <time>2010-01-01T05:14:45Z</time>
      </trkpt>
      <trkpt lat="50.60106000" lon="9.875900000">
        <ele>0.0000000</ele>
        <time>2010-01-01T05:14:52Z</time>
      </trkpt>
      <trkpt lat="50.60116000" lon="9.876020000">
        <ele>0.0000000</ele>
        <time>2010-01-01T05:14:57Z</time>
      </trkpt>
      <trkpt lat="50.60125000" lon="9.876160000">
        <ele>0.0000000</ele>
        <time>2010-01-01T05:15:02Z</time>
      </trkpt>
      <trkpt lat="50.60133000" lon="9.876330000">
        <ele>0.0000000</ele>
        <time>2010-01-01T05:15:07Z</time>
      </trkpt>
      <trkpt lat="50.60155000" lon="9.876890000">
        <ele>0.0000000</ele>
        <time>2010-01-01T05:15:24Z</time>
      </trkpt>
      <trkpt lat="50.60186000" lon="9.877840000">
        <ele>0.0000000</ele>
        <time>2010-01-01T05:15:51Z</time>
      </trkpt>
      <trkpt lat="50.60206000" lon="9.878730000">
        <ele>0.0000000</ele>
        <time>2010-01-01T05:16:15Z</time>
      </trkpt>
      <trkpt lat="50.60211000" lon="9.878910000">
        <ele>0.0000000</ele>
        <time>2010-01-01T05:16:20Z</time>
      </trkpt>
      <trkpt lat="50.60213000" lon="9.878950000">
        <ele>0.0000000</ele>
        <time>2010-01-01T05:16:21Z</time>
      </trkpt>
      <trkpt lat="50.60215000" lon="9.879010000">
        <ele>0.0000000</ele>
        <time>2010-01-01T05:16:23Z</time>
      </trkpt>
      <trkpt lat="50.60222000" lon="9.879170000">
        <ele>0.0000000</ele>
        <time>2010-01-01T05:16:28Z</time>
      </trkpt>
      <trkpt lat="50.60232000" lon="9.879350000">
        <ele>0.0000000</ele>
        <time>2010-01-01T05:16:34Z</time>
      </trkpt>
      <trkpt lat="50.60235000" lon="9.879380000">
        <ele>0.0000000</ele>
        <time>2010-01-01T05:16:36Z</time>
      </trkpt>
      <trkpt lat="50.60256000" lon="9.879640000">
        <ele>0.0000000</ele>
        <time>2010-01-01T05:16:46Z</time>
      </trkpt>
      <trkpt lat="50.60268000" lon="9.879770000">
        <ele>0.0000000</ele>
        <time>2010-01-01T05:16:52Z</time>
      </trkpt>
      <trkpt lat="50.60280000" lon="9.879970000">
        <ele>0.0000000</ele>
        <time>2010-01-01T05:16:59Z</time>
      </trkpt>
      <trkpt lat="50.60289000" lon="9.880150000">
        <ele>0.0000000</ele>
        <time>2010-01-01T05:17:05Z</time>
      </trkpt>
      <trkpt lat="50.60296000" lon="9.880320000">
        <ele>0.0000000</ele>
        <time>2010-01-01T05:17:10Z</time>
      </trkpt>
      <trkpt lat="50.60311000" lon="9.880820000">
        <ele>0.0000000</ele>
        <time>2010-01-01T05:17:24Z</time>
      </trkpt>
      <trkpt lat="50.60319000" lon="9.881000000">
        <ele>0.0000000</ele>
        <time>2010-01-01T05:17:30Z</time>
      </trkpt>
      <trkpt lat="50.60329000" lon="9.881150000">
        <ele>0.0000000</ele>
        <time>2010-01-01T05:17:35Z</time>
      </trkpt>
      <trkpt lat="50.60343000" lon="9.881310000">
        <ele>0.0000000</ele>
        <time>2010-01-01T05:17:42Z</time>
      </trkpt>
      <trkpt lat="50.60359000" lon="9.881410000">
        <ele>0.0000000</ele>
        <time>2010-01-01T05:17:49Z</time>
      </trkpt>
      <trkpt lat="50.60371000" lon="9.881450000">
        <ele>0.0000000</ele>
        <time>2010-01-01T05:17:54Z</time>
      </trkpt>
      <trkpt lat="50.60384000" lon="9.881480000">
        <ele>0.0000000</ele>
        <time>2010-01-01T05:17:59Z</time>
      </trkpt>
      <trkpt lat="50.60509000" lon="9.881480000">
        <ele>0.0000000</ele>
        <time>2010-01-01T05:18:49Z</time>
      </trkpt>
      <trkpt lat="50.60549000" lon="9.881500000">
        <ele>0.0000000</ele>
        <time>2010-01-01T05:19:05Z</time>
      </trkpt>
      <trkpt lat="50.60569000" lon="9.881560000">
        <ele>0.0000000</ele>
        <time>2010-01-01T05:19:13Z</time>
      </trkpt>
      <trkpt lat="50.60586000" lon="9.881640000">
        <ele>0.0000000</ele>
        <time>2010-01-01T05:19:21Z</time>
      </trkpt>
      <trkpt lat="50.60598000" lon="9.881750000">
        <ele>0.0000000</ele>
        <time>2010-01-01T05:19:26Z</time>
      </trkpt>
      <trkpt lat="50.60612000" lon="9.881900000">
        <ele>0.0000000</ele>
        <time>2010-01-01T05:19:33Z</time>
      </trkpt>
      <trkpt lat="50.60635000" lon="9.882340000">
        <ele>0.0000000</ele>
        <time>2010-01-01T05:19:47Z</time>
      </trkpt>
      <trkpt lat="50.60643000" lon="9.882600000">
        <ele>0.0000000</ele>
        <time>2010-01-01T05:19:55Z</time>
      </trkpt>
      <trkpt lat="50.60655000" lon="9.883080000">
        <ele>0.0000000</ele>
        <time>2010-01-01T05:20:08Z</time>
      </trkpt>
      <trkpt lat="50.60700000" lon="9.885240000">
        <ele>0.0000000</ele>
        <time>2010-01-01T05:21:06Z</time>
      </trkpt>
      <trkpt lat="50.60722000" lon="9.886560000">
        <ele>0.0000000</ele>
        <time>2010-01-01T05:21:40Z</time>
      </trkpt>
      <trkpt lat="50.60725000" lon="9.886840000">
        <ele>0.0000000</ele>
        <time>2010-01-01T05:21:47Z</time>
      </trkpt>
      <trkpt lat="50.60734000" lon="9.889140000">
        <ele>0.0000000</ele>
        <time>2010-01-01T05:22:46Z</time>
      </trkpt>
      <trkpt lat="50.60740000" lon="9.889850000">
        <ele>0.0000000</ele>
        <time>2010-01-01T05:23:04Z</time>
      </trkpt>
      <trkpt lat="50.60760000" lon="9.890870000">
        <ele>0.0000000</ele>
        <time>2010-01-01T05:23:31Z</time>
      </trkpt>
      <trkpt lat="50.60775000" lon="9.891340000">
        <ele>0.0000000</ele>
        <time>2010-01-01T05:23:45Z</time>
      </trkpt>
      <trkpt lat="50.60789000" lon="9.891720000">
        <ele>0.0000000</ele>
        <time>2010-01-01T05:23:56Z</time>
      </trkpt>
      <trkpt lat="50.60814000" lon="9.892270000">
        <ele>0.0000000</ele>
        <time>2010-01-01T05:24:13Z</time>
      </trkpt>
      <trkpt lat="50.60956000" lon="9.894710000">
        <ele>0.0000000</ele>
        <time>2010-01-01T05:25:37Z</time>
      </trkpt>
      <trkpt lat="50.60974000" lon="9.894990000">
        <ele>0.0000000</ele>
        <time>2010-01-01T05:25:47Z</time>
      </trkpt>
      <trkpt lat="50.61078000" lon="9.896820000">
        <ele>0.0000000</ele>
        <time>2010-01-01T05:26:50Z</time>
      </trkpt>
      <trkpt lat="50.61089000" lon="9.896990000">
        <ele>0.0000000</ele>
        <time>2010-01-01T05:26:56Z</time>
      </trkpt>
      <trkpt lat="50.61192000" lon="9.898920000">
        <ele>0.0000000</ele>
        <time>2010-01-01T05:28:00Z</time>
      </trkpt>
      <trkpt lat="50.61226000" lon="9.899640000">
        <ele>0.0000000</ele>
        <time>2010-01-01T05:28:23Z</time>
      </trkpt>
      <trkpt lat="50.61272000" lon="9.900700000">
        <ele>0.0000000</ele>
        <time>2010-01-01T05:28:55Z</time>
      </trkpt>
      <trkpt lat="50.61282000" lon="9.900990000">
        <ele>0.0000000</ele>
        <time>2010-01-01T05:29:04Z</time>
      </trkpt>
      <trkpt lat="50.61283000" lon="9.901010000">
        <ele>0.0000000</ele>
        <time>2010-01-01T05:29:04Z</time>
      </trkpt>
      <trkpt lat="50.61290000" lon="9.901220000">
        <ele>0.0000000</ele>
        <time>2010-01-01T05:29:10Z</time>
      </trkpt>
      <trkpt lat="50.61294000" lon="9.901410000">
        <ele>0.0000000</ele>
        <time>2010-01-01T05:29:15Z</time>
      </trkpt>
      <trkpt lat="50.61315000" lon="9.901970000">
        <ele>0.0000000</ele>
        <time>2010-01-01T05:29:32Z</time>
      </trkpt>
      <trkpt lat="50.61330000" lon="9.902470000">
        <ele>0.0000000</ele>
        <time>2010-01-01T05:29:46Z</time>
      </trkpt>
      <trkpt lat="50.61375000" lon="9.904310000">
        <ele>0.0000000</ele>
        <time>2010-01-01T05:30:36Z</time>
      </trkpt>
      <trkpt lat="50.61380000" lon="9.904460000">
        <ele>0.0000000</ele>
        <time>2010-01-01T05:30:40Z</time>
      </trkpt>
      <trkpt lat="50.61417000" lon="9.906770000">
        <ele>0.0000000</ele>
        <time>2010-01-01T05:31:41Z</time>
      </trkpt>
      <trkpt lat="50.61432000" lon="9.908880000">
        <ele>0.0000000</ele>
        <time>2010-01-01T05:32:35Z</time>
      </trkpt>
      <trkpt lat="50.61432000" lon="9.910240000">
        <ele>0.0000000</ele>
        <time>2010-01-01T05:33:09Z</time>
      </trkpt>
      <trkpt lat="50.61423000" lon="9.911970000">
        <ele>0.0000000</ele>
        <time>2010-01-01T05:33:53Z</time>
      </trkpt>
      <trkpt lat="50.61407000" lon="9.913420000">
        <ele>0.0000000</ele>
        <time>2010-01-01T05:34:31Z</time>
      </trkpt>
      <trkpt lat="50.61376000" lon="9.915580000">
        <ele>0.0000000</ele>
        <time>2010-01-01T05:35:27Z</time>
      </trkpt>
      <trkpt lat="50.61231000" lon="9.923600000">
        <ele>0.0000000</ele>
        <time>2010-01-01T05:38:59Z</time>
      </trkpt>
      <trkpt lat="50.61229000" lon="9.923820000">
        <ele>0.0000000</ele>
        <time>2010-01-01T05:39:05Z</time>
      </trkpt>
      <trkpt lat="50.61230000" lon="9.924610000">
        <ele>0.0000000</ele>
        <time>2010-01-01T05:39:25Z</time>
      </trkpt>
      <trkpt lat="50.61238000" lon="9.925140000">
        <ele>0.0000000</ele>
        <time>2010-01-01T05:39:38Z</time>
      </trkpt>
      <trkpt lat="50.61243000" lon="9.925280000">
        <ele>0.0000000</ele>
        <time>2010-01-01T05:39:43Z</time>
      </trkpt>
      <trkpt lat="50.61252000" lon="9.925670000">
        <ele>0.0000000</ele>
        <time>2010-01-01T05:39:53Z</time>
      </trkpt>
      <trkpt lat="50.61283000" lon="9.926220000">
        <ele>0.0000000</ele>
        <time>2010-01-01T05:40:12Z</time>
      </trkpt>
      <trkpt lat="50.61294000" lon="9.926390000">
        <ele>0.0000000</ele>
        <time>2010-01-01T05:40:18Z</time>
      </trkpt>
      <trkpt lat="50.61303000" lon="9.926510000">
        <ele>0.0000000</ele>
        <time>2010-01-01T05:40:23Z</time>
      </trkpt>
      <trkpt lat="50.61322000" lon="9.926670000">
        <ele>0.0000000</ele>
        <time>2010-01-01T05:40:31Z</time>
      </trkpt>
      <trkpt lat="50.61330000" lon="9.926710000">
        <ele>0.0000000</ele>
        <time>2010-01-01T05:40:35Z</time>
      </trkpt>
      <trkpt lat="50.61343000" lon="9.926850000">
        <ele>0.0000000</ele>
        <time>2010-01-01T05:40:41Z</time>
      </trkpt>
      <trkpt lat="50.61394000" lon="9.927320000">
        <ele>0.0000000</ele>
        <time>2010-01-01T05:41:05Z</time>
      </trkpt>
      <trkpt lat="50.61405000" lon="9.927460000">
        <ele>0.0000000</ele>
        <time>2010-01-01T05:41:10Z</time>
      </trkpt>
      <trkpt lat="50.61426000" lon="9.927800000">
        <ele>0.0000000</ele>
        <time>2010-01-01T05:41:22Z</time>
      </trkpt>
      <trkpt lat="50.61430000" lon="9.927900000">
        <ele>0.0000000</ele>
        <time>2010-01-01T05:41:25Z</time>
      </trkpt>
      <trkpt lat="50.61439000" lon="9.928210000">
        <ele>0.0000000</ele>
        <time>2010-01-01T05:41:34Z</time>
      </trkpt>
      <trkpt lat="50.61542000" lon="9.932650000">
        <ele>0.0000000</ele>
        <time>2010-01-01T05:43:34Z</time>
      </trkpt>
      <trkpt lat="50.61553000" lon="9.933300000">
        <ele>0.0000000</ele>
        <time>2010-01-01T05:43:51Z</time>
      </trkpt>
      <trkpt lat="50.61556000" lon="9.933840000">
        <ele>0.0000000</ele>
        <time>2010-01-01T05:44:05Z</time>
      </trkpt>
      <trkpt lat="50.61553000" lon="9.934360000">
        <ele>0.0000000</ele>
        <time>2010-01-01T05:44:18Z</time>
      </trkpt>
      <trkpt lat="50.61544000" lon="9.934950000">
        <ele>0.0000000</ele>
        <time>2010-01-01T05:44:34Z</time>
      </trkpt>
      <trkpt lat="50.61509000" lon="9.936270000">
        <ele>0.0000000</ele>
        <time>2010-01-01T05:45:10Z</time>
      </trkpt>
      <trkpt lat="50.61506000" lon="9.936430000">
        <ele>0.0000000</ele>
        <time>2010-01-01T05:45:14Z</time>
      </trkpt>
      <trkpt lat="50.61502000" lon="9.936850000">
        <ele>0.0000000</ele>
        <time>2010-01-01T05:45:25Z</time>
      </trkpt>
      <trkpt lat="50.61503000" lon="9.937610000">
        <ele>0.0000000</ele>
        <time>2010-01-01T05:45:44Z</time>
      </trkpt>
      <trkpt lat="50.61506000" lon="9.937750000">
        <ele>0.0000000</ele>
        <time>2010-01-01T05:45:48Z</time>
      </trkpt>
      <trkpt lat="50.61515000" lon="9.938360000">
        <ele>0.0000000</ele>
        <time>2010-01-01T05:46:04Z</time>
      </trkpt>
      <trkpt lat="50.61522000" lon="9.938680000">
        <ele>0.0000000</ele>
        <time>2010-01-01T05:46:13Z</time>
      </trkpt>
      <trkpt lat="50.61531000" lon="9.938980000">
        <ele>0.0000000</ele>
        <time>2010-01-01T05:46:21Z</time>
      </trkpt>
      <trkpt lat="50.61551000" lon="9.939460000">
        <ele>0.0000000</ele>
        <time>2010-01-01T05:46:36Z</time>
      </trkpt>
      <trkpt lat="50.61571000" lon="9.939840000">
        <ele>0.0000000</ele>
        <time>2010-01-01T05:46:48Z</time>
      </trkpt>
      <trkpt lat="50.61632000" lon="9.940750000">
        <ele>0.0000000</ele>
        <time>2010-01-01T05:47:22Z</time>
      </trkpt>
      <trkpt lat="50.61644000" lon="9.940950000">
        <ele>0.0000000</ele>
        <time>2010-01-01T05:47:29Z</time>
      </trkpt>
      <trkpt lat="50.61658000" lon="9.941230000">
        <ele>0.0000000</ele>
        <time>2010-01-01T05:47:38Z</time>
      </trkpt>
      <trkpt lat="50.61668000" lon="9.941480000">
        <ele>0.0000000</ele>
        <time>2010-01-01T05:47:45Z</time>
      </trkpt>
      <trkpt lat="50.61684000" lon="9.942100000">
        <ele>0.0000000</ele>
        <time>2010-01-01T05:48:02Z</time>
      </trkpt>
      <trkpt lat="50.61721000" lon="9.944040000">
        <ele>0.0000000</ele>
        <time>2010-01-01T05:48:54Z</time>
      </trkpt>
      <trkpt lat="50.61745000" lon="9.945590000">
        <ele>0.0000000</ele>
        <time>2010-01-01T05:49:34Z</time>
      </trkpt>
      <trkpt lat="50.61758000" lon="9.946650000">
        <ele>0.0000000</ele>
        <time>2010-01-01T05:50:02Z</time>
      </trkpt>
      <trkpt lat="50.61760000" lon="9.947000000">
        <ele>0.0000000</ele>
        <time>2010-01-01T05:50:11Z</time>
      </trkpt>
      <trkpt lat="50.61757000" lon="9.947850000">
        <ele>0.0000000</ele>
        <time>2010-01-01T05:50:32Z</time>
      </trkpt>
      <trkpt lat="50.61744000" lon="9.949020000">
        <ele>0.0000000</ele>
        <time>2010-01-01T05:51:02Z</time>
      </trkpt>
      <trkpt lat="50.61744000" lon="9.949890000">
        <ele>0.0000000</ele>
        <time>2010-01-01T05:51:24Z</time>
      </trkpt>
      <trkpt lat="50.61745000" lon="9.949950000">
        <ele>0.0000000</ele>
        <time>2010-01-01T05:51:26Z</time>
      </trkpt>
      <trkpt lat="50.61749000" lon="9.951450000">
        <ele>0.0000000</ele>
        <time>2010-01-01T05:52:04Z</time>
      </trkpt>
      <trkpt lat="50.61747000" lon="9.953000000">
        <ele>0.0000000</ele>
        <time>2010-01-01T05:52:44Z</time>
      </trkpt>
      <trkpt lat="50.61739000" lon="9.954180000">
        <ele>0.0000000</ele>
        <time>2010-01-01T05:53:14Z</time>
      </trkpt>
      <trkpt lat="50.61726000" lon="9.955530000">
        <ele>0.0000000</ele>
        <time>2010-01-01T05:53:48Z</time>
      </trkpt>
      <trkpt lat="50.61723000" lon="9.957620000">
        <ele>0.0000000</ele>
        <time>2010-01-01T05:54:41Z</time>
      </trkpt>
      <trkpt lat="50.61720000" lon="9.957850000">
        <ele>0.0000000</ele>
        <time>2010-01-01T05:54:47Z</time>
      </trkpt>
      <trkpt lat="50.61697000" lon="9.960560000">
        <ele>0.0000000</ele>
        <time>2010-01-01T05:55:57Z</time>
      </trkpt>
      <trkpt lat="50.61690000" lon="9.961180000">
        <ele>0.0000000</ele>
        <time>2010-01-01T05:56:13Z</time>
      </trkpt>
      <trkpt lat="50.61674000" lon="9.962230000">
        <ele>0.0000000</ele>
        <time>2010-01-01T05:56:40Z</time>
      </trkpt>
      <trkpt lat="50.61667000" lon="9.962540000">
        <ele>0.0000000</ele>
        <time>2010-01-01T05:56:49Z</time>
      </trkpt>
      <trkpt lat="50.61660000" lon="9.962780000">
        <ele>0.0000000</ele>
        <time>2010-01-01T05:56:55Z</time>
      </trkpt>
      <trkpt lat="50.61654000" lon="9.962940000">
        <ele>0.0000000</ele>
        <time>2010-01-01T05:57:00Z</time>
      </trkpt>
      <trkpt lat="50.61649000" lon="9.963110000">
        <ele>0.0000000</ele>
        <time>2010-01-01T05:57:05Z</time>
      </trkpt>
      <trkpt lat="50.61624000" lon="9.963750000">
        <ele>0.0000000</ele>
        <time>2010-01-01T05:57:24Z</time>
      </trkpt>
      <trkpt lat="50.61618000" lon="9.963950000">
        <ele>0.0000000</ele>
        <time>2010-01-01T05:57:30Z</time>
      </trkpt>
      <trkpt lat="50.61611000" lon="9.964330000">
        <ele>0.0000000</ele>
        <time>2010-01-01T05:57:40Z</time>
      </trkpt>
      <trkpt lat="50.61610000" lon="9.964440000">
        <ele>0.0000000</ele>
        <time>2010-01-01T05:57:42Z</time>
      </trkpt>
      <trkpt lat="50.61607000" lon="9.966640000">
        <ele>0.0000000</ele>
        <time>2010-01-01T05:58:38Z</time>
      </trkpt>
      <trkpt lat="50.61608000" lon="9.966900000">
        <ele>0.0000000</ele>
        <time>2010-01-01T05:58:45Z</time>
      </trkpt>
      <trkpt lat="50.61617000" lon="9.967670000">
        <ele>0.0000000</ele>
        <time>2010-01-01T05:59:05Z</time>
      </trkpt>
      <trkpt lat="50.61624000" lon="9.968080000">
        <ele>0.0000000</ele>
        <time>2010-01-01T05:59:16Z</time>
      </trkpt>
      <trkpt lat="50.61631000" lon="9.968690000">
        <ele>0.0000000</ele>
        <time>2010-01-01T05:59:31Z</time>
      </trkpt>
      <trkpt lat="50.61636000" lon="9.969570000">
        <ele>0.0000000</ele>
        <time>2010-01-01T05:59:54Z</time>
      </trkpt>
      <trkpt lat="50.61632000" lon="9.971590000">
        <ele>0.0000000</ele>
        <time>2010-01-01T06:00:45Z</time>
      </trkpt>
      <trkpt lat="50.61636000" lon="9.972220000">
        <ele>0.0000000</ele>
        <time>2010-01-01T06:01:01Z</time>
      </trkpt>
      <trkpt lat="50.61640000" lon="9.972480000">
        <ele>0.0000000</ele>
        <time>2010-01-01T06:01:08Z</time>
      </trkpt>
      <trkpt lat="50.61655000" lon="9.973180000">
        <ele>0.0000000</ele>
        <time>2010-01-01T06:01:27Z</time>
      </trkpt>
      <trkpt lat="50.61685000" lon="9.974250000">
        <ele>0.0000000</ele>
        <time>2010-01-01T06:01:56Z</time>
      </trkpt>
      <trkpt lat="50.61703000" lon="9.974720000">
        <ele>0.0000000</ele>
        <time>2010-01-01T06:02:10Z</time>
      </trkpt>
      <trkpt lat="50.61711000" lon="9.974880000">
        <ele>0.0000000</ele>
        <time>2010-01-01T06:02:16Z</time>
      </trkpt>
      <trkpt lat="50.61732000" lon="9.975240000">
        <ele>0.0000000</ele>
        <time>2010-01-01T06:02:28Z</time>
      </trkpt>
      <trkpt lat="50.61759000" lon="9.975600000">
        <ele>0.0000000</ele>
        <time>2010-01-01T06:02:42Z</time>
      </trkpt>
      <trkpt lat="50.61775000" lon="9.975840000">
        <ele>0.0000000</ele>
        <time>2010-01-01T06:02:51Z</time>
      </trkpt>
      <trkpt lat="50.61803000" lon="9.976370000">
        <ele>0.0000000</ele>
        <time>2010-01-01T06:03:09Z</time>
      </trkpt>
      <trkpt lat="50.61814000" lon="9.976610000">
        <ele>0.0000000</ele>
        <time>2010-01-01T06:03:16Z</time>
      </trkpt>
      <trkpt lat="50.61839000" lon="9.977260000">
        <ele>0.0000000</ele>
        <time>2010-01-01T06:03:35Z</time>
      </trkpt>
      <trkpt lat="50.61848000" lon="9.977590000">
        <ele>0.0000000</ele>
        <time>2010-01-01T06:03:44Z</time>
      </trkpt>
      <trkpt lat="50.61856000" lon="9.977950000">
        <ele>0.0000000</ele>
        <time>2010-01-01T06:03:54Z</time>
      </trkpt>
      <trkpt lat="50.61863000" lon="9.978350000">
        <ele>0.0000000</ele>
        <time>2010-01-01T06:04:05Z</time>
      </trkpt>
      <trkpt lat="50.61869000" lon="9.978830000">
        <ele>0.0000000</ele>
        <time>2010-01-01T06:04:17Z</time>
      </trkpt>
      <trkpt lat="50.61875000" lon="9.979900000">
        <ele>0.0000000</ele>
        <time>2010-01-01T06:04:44Z</time>
      </trkpt>
      <trkpt lat="50.61881000" lon="9.980580000">
        <ele>0.0000000</ele>
        <time>2010-01-01T06:05:02Z</time>
      </trkpt>
      <trkpt lat="50.61893000" lon="9.981240000">
        <ele>0.0000000</ele>
        <time>2010-01-01T06:05:19Z</time>
      </trkpt>
      <trkpt lat="50.61925000" lon="9.982500000">
        <ele>0.0000000</ele>
        <time>2010-01-01T06:05:54Z</time>
      </trkpt>
      <trkpt lat="50.61932000" lon="9.982840000">
        <ele>0.0000000</ele>
        <time>2010-01-01T06:06:03Z</time>
      </trkpt>
      <trkpt lat="50.61962000" lon="9.984860000">
        <ele>0.0000000</ele>
        <time>2010-01-01T06:06:56Z</time>
      </trkpt>
      <trkpt lat="50.62026000" lon="9.987580000">
        <ele>0.0000000</ele>
        <time>2010-01-01T06:08:09Z</time>
      </trkpt>
      <trkpt lat="50.62031000" lon="9.987740000">
        <ele>0.0000000</ele>
        <time>2010-01-01T06:08:14Z</time>
      </trkpt>
      <trkpt lat="50.62047000" lon="9.988150000">
        <ele>0.0000000</ele>
        <time>2010-01-01T06:08:26Z</time>
      </trkpt>
      <trkpt lat="50.62076000" lon="9.988780000">
        <ele>0.0000000</ele>
        <time>2010-01-01T06:08:46Z</time>
      </trkpt>
      <trkpt lat="50.62084000" lon="9.989050000">
        <ele>0.0000000</ele>
        <time>2010-01-01T06:08:53Z</time>
      </trkpt>
      <trkpt lat="50.62086000" lon="9.989150000">
        <ele>0.0000000</ele>
        <time>2010-01-01T06:08:56Z</time>
      </trkpt>
      <trkpt lat="50.62089000" lon="9.989240000">
        <ele>0.0000000</ele>
        <time>2010-01-01T06:08:59Z</time>
      </trkpt>
      <trkpt lat="50.62093000" lon="9.989510000">
        <ele>0.0000000</ele>
        <time>2010-01-01T06:09:06Z</time>
      </trkpt>
      <trkpt lat="50.62093000" lon="9.989740000">
        <ele>0.0000000</ele>
        <time>2010-01-01T06:09:11Z</time>
      </trkpt>
      <trkpt lat="50.62070000" lon="9.991190000">
        <ele>0.0000000</ele>
        <time>2010-01-01T06:09:49Z</time>
      </trkpt>
      <trkpt lat="50.62069000" lon="9.991320000">
        <ele>0.0000000</ele>
        <time>2010-01-01T06:09:53Z</time>
      </trkpt>
      <trkpt lat="50.62069000" lon="9.991710000">
        <ele>0.0000000</ele>
        <time>2010-01-01T06:10:03Z</time>
      </trkpt>
      <trkpt lat="50.62075000" lon="9.992060000">
        <ele>0.0000000</ele>
        <time>2010-01-01T06:10:12Z</time>
      </trkpt>
      <trkpt lat="50.62080000" lon="9.992210000">
        <ele>0.0000000</ele>
        <time>2010-01-01T06:10:16Z</time>
      </trkpt>
      <trkpt lat="50.62095000" lon="9.992520000">
        <ele>0.0000000</ele>
        <time>2010-01-01T06:10:26Z</time>
      </trkpt>
      <trkpt lat="50.62144000" lon="9.993200000">
        <ele>0.0000000</ele>
        <time>2010-01-01T06:10:52Z</time>
      </trkpt>
      <trkpt lat="50.62324000" lon="9.995280000">
        <ele>0.0000000</ele>
        <time>2010-01-01T06:12:22Z</time>
      </trkpt>
      <trkpt lat="50.62333000" lon="9.995410000">
        <ele>0.0000000</ele>
        <time>2010-01-01T06:12:26Z</time>
      </trkpt>
      <trkpt lat="50.62340000" lon="9.995540000">
        <ele>0.0000000</ele>
        <time>2010-01-01T06:12:31Z</time>
      </trkpt>
      <trkpt lat="50.62352000" lon="9.995830000">
        <ele>0.0000000</ele>
        <time>2010-01-01T06:12:40Z</time>
      </trkpt>
      <trkpt lat="50.62358000" lon="9.996040000">
        <ele>0.0000000</ele>
        <time>2010-01-01T06:12:45Z</time>
      </trkpt>
      <trkpt lat="50.62395000" lon="9.997830000">
        <ele>0.0000000</ele>
        <time>2010-01-01T06:13:33Z</time>
      </trkpt>
      <trkpt lat="50.62413000" lon="9.998490000">
        <ele>0.0000000</ele>
        <time>2010-01-01T06:13:51Z</time>
      </trkpt>
      <trkpt lat="50.62439000" lon="9.999300000">
        <ele>0.0000000</ele>
        <time>2010-01-01T06:14:14Z</time>
      </trkpt>
      <trkpt lat="50.62443000" lon="9.999510000">
        <ele>0.0000000</ele>
        <time>2010-01-01T06:14:20Z</time>
      </trkpt>
      <trkpt lat="50.62443000" lon="9.999600000">
        <ele>0.0000000</ele>
        <time>2010-01-01T06:14:22Z</time>
      </trkpt>
      <trkpt lat="50.62441000" lon="9.999750000">
        <ele>0.0000000</ele>
        <time>2010-01-01T06:14:26Z</time>
      </trkpt>
      <trkpt lat="50.62439000" lon="9.999830000">
        <ele>0.0000000</ele>
        <time>2010-01-01T06:14:28Z</time>
      </trkpt>
      <trkpt lat="50.62436000" lon="9.999900000">
        <ele>0.0000000</ele>
        <time>2010-01-01T06:14:31Z</time>
      </trkpt>
      <trkpt lat="50.62424000" lon="10.00010000">
        <ele>0.0000000</ele>
        <time>2010-01-01T06:14:38Z</time>
      </trkpt>
      <trkpt lat="50.62419000" lon="10.00016000">
        <ele>0.0000000</ele>
        <time>2010-01-01T06:14:40Z</time>
      </trkpt>
      <trkpt lat="50.62412000" lon="10.00022000">
        <ele>0.0000000</ele>
        <time>2010-01-01T06:14:43Z</time>
      </trkpt>
      <trkpt lat="50.62407000" lon="10.00028000">
        <ele>0.0000000</ele>
        <time>2010-01-01T06:14:46Z</time>
      </trkpt>
      <trkpt lat="50.62393000" lon="10.00037000">
        <ele>0.0000000</ele>
        <time>2010-01-01T06:14:52Z</time>
      </trkpt>
      <trkpt lat="50.62376000" lon="10.00045000">
        <ele>0.0000000</ele>
        <time>2010-01-01T06:14:59Z</time>
      </trkpt>
      <trkpt lat="50.62373000" lon="10.00046000">
        <ele>0.0000000</ele>
        <time>2010-01-01T06:15:00Z</time>
      </trkpt>
      <trkpt lat="50.62361000" lon="10.00053000">
        <ele>0.0000000</ele>
        <time>2010-01-01T06:15:05Z</time>
      </trkpt>
      <trkpt lat="50.62354000" lon="10.00062000">
        <ele>0.0000000</ele>
        <time>2010-01-01T06:15:09Z</time>
      </trkpt>
      <trkpt lat="50.62349000" lon="10.00070000">
        <ele>0.0000000</ele>
        <time>2010-01-01T06:15:12Z</time>
      </trkpt>
      <trkpt lat="50.62340000" lon="10.00090000">
        <ele>0.0000000</ele>
        <time>2010-01-01T06:15:18Z</time>
      </trkpt>
      <trkpt lat="50.62333000" lon="10.00111000">
        <ele>0.0000000</ele>
        <time>2010-01-01T06:15:24Z</time>
      </trkpt>
      <trkpt lat="50.62330000" lon="10.00126000">
        <ele>0.0000000</ele>
        <time>2010-01-01T06:15:28Z</time>
      </trkpt>
      <trkpt lat="50.62330000" lon="10.00128000">
        <ele>0.0000000</ele>
        <time>2010-01-01T06:15:28Z</time>
      </trkpt>
      <trkpt lat="50.62316000" lon="10.00229000">
        <ele>0.0000000</ele>
        <time>2010-01-01T06:15:55Z</time>
      </trkpt>
      <trkpt lat="50.62310000" lon="10.00258000">
        <ele>0.0000000</ele>
        <time>2010-01-01T06:16:02Z</time>
      </trkpt>
      <trkpt lat="50.62301000" lon="10.00283000">
        <ele>0.0000000</ele>
        <time>2010-01-01T06:16:10Z</time>
      </trkpt>
      <trkpt lat="50.62293000" lon="10.00298000">
        <ele>0.0000000</ele>
        <time>2010-01-01T06:16:15Z</time>
      </trkpt>
      <trkpt lat="50.62288000" lon="10.00304000">
        <ele>0.0000000</ele>
        <time>2010-01-01T06:16:17Z</time>
      </trkpt>
      <trkpt lat="50.62284000" lon="10.00310000">
        <ele>0.0000000</ele>
        <time>2010-01-01T06:16:20Z</time>
      </trkpt>
      <trkpt lat="50.62279000" lon="10.00315000">
        <ele>0.0000000</ele>
        <time>2010-01-01T06:16:22Z</time>
      </trkpt>
      <trkpt lat="50.62267000" lon="10.00325000">
        <ele>0.0000000</ele>
        <time>2010-01-01T06:16:27Z</time>
      </trkpt>
      <trkpt lat="50.62255000" lon="10.00343000">
        <ele>0.0000000</ele>
        <time>2010-01-01T06:16:34Z</time>
      </trkpt>
      <trkpt lat="50.62229000" lon="10.00378000">
        <ele>0.0000000</ele>
        <time>2010-01-01T06:16:48Z</time>
      </trkpt>
      <trkpt lat="50.62206000" lon="10.00416000">
        <ele>0.0000000</ele>
        <time>2010-01-01T06:17:01Z</time>
      </trkpt>
      <trkpt lat="50.62239000" lon="10.00483000">
        <ele>0.0000000</ele>
        <time>2010-01-01T06:17:23Z</time>
      </trkpt>
      <trkpt lat="50.62260000" lon="10.00537000">
        <ele>0.0000000</ele>
        <time>2010-01-01T06:17:39Z</time>
      </trkpt>
      <trkpt lat="50.62276000" lon="10.00586000">
        <ele>0.0000000</ele>
        <time>2010-01-01T06:17:53Z</time>
      </trkpt>
      <trkpt lat="50.62289000" lon="10.00632000">
        <ele>0.0000000</ele>
        <time>2010-01-01T06:18:05Z</time>
      </trkpt>
      <trkpt lat="50.62362000" lon="10.00943000">
        <ele>0.0000000</ele>
        <time>2010-01-01T06:19:30Z</time>
      </trkpt>
      <trkpt lat="50.62454000" lon="10.01223000">
        <ele>0.0000000</ele>
        <time>2010-01-01T06:20:50Z</time>
      </trkpt>
      <trkpt lat="50.62472000" lon="10.01260000">
        <ele>0.0000000</ele>
        <time>2010-01-01T06:21:02Z</time>
      </trkpt>
      <trkpt lat="50.62499000" lon="10.01305000">
        <ele>0.0000000</ele>
        <time>2010-01-01T06:21:17Z</time>
      </trkpt>
      <trkpt lat="50.62522000" lon="10.01337000">
        <ele>0.0000000</ele>
        <time>2010-01-01T06:21:30Z</time>
      </trkpt>
      <trkpt lat="50.62535000" lon="10.01353000">
        <ele>0.0000000</ele>
        <time>2010-01-01T06:21:36Z</time>
      </trkpt>
      <trkpt lat="50.62569000" lon="10.01387000">
        <ele>0.0000000</ele>
        <time>2010-01-01T06:21:52Z</time>
      </trkpt>
      <trkpt lat="50.62595000" lon="10.01410000">
        <ele>0.0000000</ele>
        <time>2010-01-01T06:22:04Z</time>
      </trkpt>
      <trkpt lat="50.62679000" lon="10.01478000">
        <ele>0.0000000</ele>
        <time>2010-01-01T06:22:42Z</time>
      </trkpt>
      <trkpt lat="50.62727000" lon="10.01513000">
        <ele>0.0000000</ele>
        <time>2010-01-01T06:23:03Z</time>
      </trkpt>
      <trkpt lat="50.62793000" lon="10.01551000">
        <ele>0.0000000</ele>
        <time>2010-01-01T06:23:31Z</time>
      </trkpt>
      <trkpt lat="50.62967000" lon="10.01643000">
        <ele>0.0000000</ele>
        <time>2010-01-01T06:24:45Z</time>
      </trkpt>
      <trkpt lat="50.63033000" lon="10.01673000">
        <ele>0.0000000</ele>
        <time>2010-01-01T06:25:12Z</time>
      </trkpt>
      <trkpt lat="50.63101000" lon="10.01689000">
        <ele>0.0000000</ele>
        <time>2010-01-01T06:25:40Z</time>
      </trkpt>
      <trkpt lat="50.63119000" lon="10.01697000">
        <ele>0.0000000</ele>
        <time>2010-01-01T06:25:47Z</time>
      </trkpt>
      <trkpt lat="50.63132000" lon="10.01705000">
        <ele>0.0000000</ele>
        <time>2010-01-01T06:25:53Z</time>
      </trkpt>
      <trkpt lat="50.63162000" lon="10.01720000">
        <ele>0.0000000</ele>
        <time>2010-01-01T06:26:05Z</time>
      </trkpt>
      <trkpt lat="50.63191000" lon="10.01724000">
        <ele>0.0000000</ele>
        <time>2010-01-01T06:26:17Z</time>
      </trkpt>
      <trkpt lat="50.63204000" lon="10.01723000">
        <ele>0.0000000</ele>
        <time>2010-01-01T06:26:22Z</time>
      </trkpt>
      <trkpt lat="50.63220000" lon="10.01720000">
        <ele>0.0000000</ele>
        <time>2010-01-01T06:26:29Z</time>
      </trkpt>
      <trkpt lat="50.63246000" lon="10.01711000">
        <ele>0.0000000</ele>
        <time>2010-01-01T06:26:39Z</time>
      </trkpt>
      <trkpt lat="50.63262000" lon="10.01707000">
        <ele>0.0000000</ele>
        <time>2010-01-01T06:26:46Z</time>
      </trkpt>
      <trkpt lat="50.63274000" lon="10.01708000">
        <ele>0.0000000</ele>
        <time>2010-01-01T06:26:51Z</time>
      </trkpt>
      <trkpt lat="50.63291000" lon="10.01714000">
        <ele>0.0000000</ele>
        <time>2010-01-01T06:26:58Z</time>
      </trkpt>
      <trkpt lat="50.63330000" lon="10.01736000">
        <ele>0.0000000</ele>
        <time>2010-01-01T06:27:14Z</time>
      </trkpt>
      <trkpt lat="50.63353000" lon="10.01742000">
        <ele>0.0000000</ele>
        <time>2010-01-01T06:27:24Z</time>
      </trkpt>
      <trkpt lat="50.63364000" lon="10.01742000">
        <ele>0.0000000</ele>
        <time>2010-01-01T06:27:28Z</time>
      </trkpt>
      <trkpt lat="50.63374000" lon="10.01740000">
        <ele>0.0000000</ele>
        <time>2010-01-01T06:27:32Z</time>
      </trkpt>
      <trkpt lat="50.63385000" lon="10.01739000">
        <ele>0.0000000</ele>
        <time>2010-01-01T06:27:36Z</time>
      </trkpt>
      <trkpt lat="50.63425000" lon="10.01739000">
        <ele>0.0000000</ele>
        <time>2010-01-01T06:27:52Z</time>
      </trkpt>
      <trkpt lat="50.63439000" lon="10.01741000">
        <ele>0.0000000</ele>
        <time>2010-01-01T06:27:58Z</time>
      </trkpt>
      <trkpt lat="50.63455000" lon="10.01746000">
        <ele>0.0000000</ele>
        <time>2010-01-01T06:28:05Z</time>
      </trkpt>
      <trkpt lat="50.63472000" lon="10.01754000">
        <ele>0.0000000</ele>
        <time>2010-01-01T06:28:12Z</time>
      </trkpt>
      <trkpt lat="50.63485000" lon="10.01763000">
        <ele>0.0000000</ele>
        <time>2010-01-01T06:28:17Z</time>
      </trkpt>
      <trkpt lat="50.63676000" lon="10.01946000">
        <ele>0.0000000</ele>
        <time>2010-01-01T06:29:47Z</time>
      </trkpt>
      <trkpt lat="50.63709000" lon="10.01970000">
        <ele>0.0000000</ele>
        <time>2010-01-01T06:30:01Z</time>
      </trkpt>
      <trkpt lat="50.63752000" lon="10.01996000">
        <ele>0.0000000</ele>
        <time>2010-01-01T06:30:20Z</time>
      </trkpt>
      <trkpt lat="50.63858000" lon="10.02044000">
        <ele>0.0000000</ele>
        <time>2010-01-01T06:31:04Z</time>
      </trkpt>
      <trkpt lat="50.63883000" lon="10.02057000">
        <ele>0.0000000</ele>
        <time>2010-01-01T06:31:15Z</time>
      </trkpt>
      <trkpt lat="50.63927000" lon="10.02094000">
        <ele>0.0000000</ele>
        <time>2010-01-01T06:31:34Z</time>
      </trkpt>
      <trkpt lat="50.63942000" lon="10.02112000">
        <ele>0.0000000</ele>
        <time>2010-01-01T06:31:42Z</time>
      </trkpt>
      <trkpt lat="50.63972000" lon="10.02143000">
        <ele>0.0000000</ele>
        <time>2010-01-01T06:31:56Z</time>
      </trkpt>
      <trkpt lat="50.64059000" lon="10.02243000">
        <ele>0.0000000</ele>
        <time>2010-01-01T06:32:39Z</time>
      </trkpt>
      <trkpt lat="50.64069000" lon="10.02249000">
        <ele>0.0000000</ele>
        <time>2010-01-01T06:32:44Z</time>
      </trkpt>
      <trkpt lat="50.64078000" lon="10.02251000">
        <ele>0.0000000</ele>
        <time>2010-01-01T06:32:47Z</time>
      </trkpt>
      <trkpt lat="50.64103000" lon="10.02252000">
        <ele>0.0000000</ele>
        <time>2010-01-01T06:32:57Z</time>
      </trkpt>
      <trkpt lat="50.64146000" lon="10.02256000">
        <ele>0.0000000</ele>
        <time>2010-01-01T06:33:15Z</time>
      </trkpt>
      <trkpt lat="50.64170000" lon="10.02261000">
        <ele>0.0000000</ele>
        <time>2010-01-01T06:33:24Z</time>
      </trkpt>
      <trkpt lat="50.64237000" lon="10.02281000">
        <ele>0.0000000</ele>
        <time>2010-01-01T06:33:52Z</time>
      </trkpt>
      <trkpt lat="50.64259000" lon="10.02290000">
        <ele>0.0000000</ele>
        <time>2010-01-01T06:34:01Z</time>
      </trkpt>
      <trkpt lat="50.64372000" lon="10.02328000">
        <ele>0.0000000</ele>
        <time>2010-01-01T06:34:47Z</time>
      </trkpt>
      <trkpt lat="50.64396000" lon="10.02333000">
        <ele>0.0000000</ele>
        <time>2010-01-01T06:34:57Z</time>
      </trkpt>
      <trkpt lat="50.64409000" lon="10.02334000">
        <ele>0.0000000</ele>
        <time>2010-01-01T06:35:02Z</time>
      </trkpt>
      <trkpt lat="50.64421000" lon="10.02332000">
        <ele>0.0000000</ele>
        <time>2010-01-01T06:35:07Z</time>
      </trkpt>
      <trkpt lat="50.64433000" lon="10.02327000">
        <ele>0.0000000</ele>
        <time>2010-01-01T06:35:12Z</time>
      </trkpt>
      <trkpt lat="50.64444000" lon="10.02319000">
        <ele>0.0000000</ele>
        <time>2010-01-01T06:35:17Z</time>
      </trkpt>
      <trkpt lat="50.64449000" lon="10.02314000">
        <ele>0.0000000</ele>
        <time>2010-01-01T06:35:19Z</time>
      </trkpt>
      <trkpt lat="50.64460000" lon="10.02299000">
        <ele>0.0000000</ele>
        <time>2010-01-01T06:35:25Z</time>
      </trkpt>
      <trkpt lat="50.64474000" lon="10.02274000">
        <ele>0.0000000</ele>
        <time>2010-01-01T06:35:33Z</time>
      </trkpt>
      <trkpt lat="50.64481000" lon="10.02265000">
        <ele>0.0000000</ele>
        <time>2010-01-01T06:35:37Z</time>
      </trkpt>
      <trkpt lat="50.64485000" lon="10.02261000">
        <ele>0.0000000</ele>
        <time>2010-01-01T06:35:39Z</time>
      </trkpt>
      <trkpt lat="50.64490000" lon="10.02257000">
        <ele>0.0000000</ele>
        <time>2010-01-01T06:35:41Z</time>
      </trkpt>
      <trkpt lat="50.64494000" lon="10.02253000">
        <ele>0.0000000</ele>
        <time>2010-01-01T06:35:43Z</time>
      </trkpt>
      <trkpt lat="50.64538000" lon="10.02221000">
        <ele>0.0000000</ele>
        <time>2010-01-01T06:36:02Z</time>
      </trkpt>
      <trkpt lat="50.64555000" lon="10.02213000">
        <ele>0.0000000</ele>
        <time>2010-01-01T06:36:09Z</time>
      </trkpt>
      <trkpt lat="50.64566000" lon="10.02210000">
        <ele>0.0000000</ele>
        <time>2010-01-01T06:36:14Z</time>
      </trkpt>
      <trkpt lat="50.64585000" lon="10.02208000">
        <ele>0.0000000</ele>
        <time>2010-01-01T06:36:21Z</time>
      </trkpt>
      <trkpt lat="50.64617000" lon="10.02211000">
        <ele>0.0000000</ele>
        <time>2010-01-01T06:36:34Z</time>
      </trkpt>
      <trkpt lat="50.64634000" lon="10.02211000">
        <ele>0.0000000</ele>
        <time>2010-01-01T06:36:41Z</time>
      </trkpt>
      <trkpt lat="50.64662000" lon="10.02213000">
        <ele>0.0000000</ele>
        <time>2010-01-01T06:36:52Z</time>
      </trkpt>
      <trkpt lat="50.64683000" lon="10.02211000">
        <ele>0.0000000</ele>
        <time>2010-01-01T06:37:01Z</time>
      </trkpt>
      <trkpt lat="50.64703000" lon="10.02206000">
        <ele>0.0000000</ele>
        <time>2010-01-01T06:37:09Z</time>
      </trkpt>
      <trkpt lat="50.64967000" lon="10.02111000">
        <ele>0.0000000</ele>
        <time>2010-01-01T06:38:57Z</time>
      </trkpt>
      <trkpt lat="50.65006000" lon="10.02086000">
        <ele>0.0000000</ele>
        <time>2010-01-01T06:39:14Z</time>
      </trkpt>
      <trkpt lat="50.65020000" lon="10.02074000">
        <ele>0.0000000</ele>
        <time>2010-01-01T06:39:20Z</time>
      </trkpt>
      <trkpt lat="50.65030000" lon="10.02064000">
        <ele>0.0000000</ele>
        <time>2010-01-01T06:39:25Z</time>
      </trkpt>
      <trkpt lat="50.65044000" lon="10.02048000">
        <ele>0.0000000</ele>
        <time>2010-01-01T06:39:32Z</time>
      </trkpt>
      <trkpt lat="50.65065000" lon="10.02019000">
        <ele>0.0000000</ele>
        <time>2010-01-01T06:39:43Z</time>
      </trkpt>
      <trkpt lat="50.65080000" lon="10.01993000">
        <ele>0.0000000</ele>
        <time>2010-01-01T06:39:52Z</time>
      </trkpt>
      <trkpt lat="50.65097000" lon="10.01959000">
        <ele>0.0000000</ele>
        <time>2010-01-01T06:40:03Z</time>
      </trkpt>
      <trkpt lat="50.65115000" lon="10.01913000">
        <ele>0.0000000</ele>
        <time>2010-01-01T06:40:17Z</time>
      </trkpt>
      <trkpt lat="50.65124000" lon="10.01880000">
        <ele>0.0000000</ele>
        <time>2010-01-01T06:40:26Z</time>
      </trkpt>
      <trkpt lat="50.65136000" lon="10.01823000">
        <ele>0.0000000</ele>
        <time>2010-01-01T06:40:41Z</time>
      </trkpt>
      <trkpt lat="50.65146000" lon="10.01764000">
        <ele>0.0000000</ele>
        <time>2010-01-01T06:40:57Z</time>
      </trkpt>
      <trkpt lat="50.65155000" lon="10.01692000">
        <ele>0.0000000</ele>
        <time>2010-01-01T06:41:15Z</time>
      </trkpt>
      <trkpt lat="50.65160000" lon="10.01634000">
        <ele>0.0000000</ele>
        <time>2010-01-01T06:41:30Z</time>
      </trkpt>
      <trkpt lat="50.65170000" lon="10.01444000">
        <ele>0.0000000</ele>
        <time>2010-01-01T06:42:19Z</time>
      </trkpt>
      <trkpt lat="50.65174000" lon="10.01410000">
        <ele>0.0000000</ele>
        <time>2010-01-01T06:42:27Z</time>
      </trkpt>
      <trkpt lat="50.65182000" lon="10.01367000">
        <ele>0.0000000</ele>
        <time>2010-01-01T06:42:39Z</time>
      </trkpt>
      <trkpt lat="50.65207000" lon="10.01279000">
        <ele>0.0000000</ele>
        <time>2010-01-01T06:43:03Z</time>
      </trkpt>
      <trkpt lat="50.65247000" lon="10.01162000">
        <ele>0.0000000</ele>
        <time>2010-01-01T06:43:37Z</time>
      </trkpt>
      <trkpt lat="50.65279000" lon="10.01078000">
        <ele>0.0000000</ele>
        <time>2010-01-01T06:44:02Z</time>
      </trkpt>
      <trkpt lat="50.65311000" lon="10.01005000">
        <ele>0.0000000</ele>
        <time>2010-01-01T06:44:24Z</time>
      </trkpt>
      <trkpt lat="50.65378000" lon="10.00879000">
        <ele>0.0000000</ele>
        <time>2010-01-01T06:45:06Z</time>
      </trkpt>
      <trkpt lat="50.65412000" lon="10.00807000">
        <ele>0.0000000</ele>
        <time>2010-01-01T06:45:29Z</time>
      </trkpt>
      <trkpt lat="50.65417000" lon="10.00799000">
        <ele>0.0000000</ele>
        <time>2010-01-01T06:45:32Z</time>
      </trkpt>
      <trkpt lat="50.65422000" lon="10.00788000">
        <ele>0.0000000</ele>
        <time>2010-01-01T06:45:35Z</time>
      </trkpt>
      <trkpt lat="50.65434000" lon="10.00769000">
        <ele>0.0000000</ele>
        <time>2010-01-01T06:45:42Z</time>
      </trkpt>
      <trkpt lat="50.65446000" lon="10.00754000">
        <ele>0.0000000</ele>
        <time>2010-01-01T06:45:48Z</time>
      </trkpt>
      <trkpt lat="50.65509000" lon="10.00690000">
        <ele>0.0000000</ele>
        <time>2010-01-01T06:46:18Z</time>
      </trkpt>
      <trkpt lat="50.65516000" lon="10.00681000">
        <ele>0.0000000</ele>
        <time>2010-01-01T06:46:22Z</time>
      </trkpt>
      <trkpt lat="50.65525000" lon="10.00672000">
        <ele>0.0000000</ele>
        <time>2010-01-01T06:46:26Z</time>
      </trkpt>
      <trkpt lat="50.65563000" lon="10.00619000">
        <ele>0.0000000</ele>
        <time>2010-01-01T06:46:46Z</time>
      </trkpt>
      <trkpt lat="50.65566000" lon="10.00616000">
        <ele>0.0000000</ele>
        <time>2010-01-01T06:46:48Z</time>
      </trkpt>
      <trkpt lat="50.65701000" lon="10.00419000">
        <ele>0.0000000</ele>
        <time>2010-01-01T06:48:01Z</time>
      </trkpt>
      <trkpt lat="50.65718000" lon="10.00388000">
        <ele>0.0000000</ele>
        <time>2010-01-01T06:48:12Z</time>
      </trkpt>
      <trkpt lat="50.65742000" lon="10.00331000">
        <ele>0.0000000</ele>
        <time>2010-01-01T06:48:29Z</time>
      </trkpt>
      <trkpt lat="50.65754000" lon="10.00290000">
        <ele>0.0000000</ele>
        <time>2010-01-01T06:48:41Z</time>
      </trkpt>
      <trkpt lat="50.65906000" lon="9.996920000">
        <ele>0.0000000</ele>
        <time>2010-01-01T06:51:24Z</time>
      </trkpt>
      <trkpt lat="50.65917000" lon="9.996550000">
        <ele>0.0000000</ele>
        <time>2010-01-01T06:51:34Z</time>
      </trkpt>
      <trkpt lat="50.65921000" lon="9.996470000">
        <ele>0.0000000</ele>
        <time>2010-01-01T06:51:37Z</time>
      </trkpt>
      <trkpt lat="50.65923000" lon="9.996400000">
        <ele>0.0000000</ele>
        <time>2010-01-01T06:51:39Z</time>
      </trkpt>
      <trkpt lat="50.65929000" lon="9.996270000">
        <ele>0.0000000</ele>
        <time>2010-01-01T06:51:43Z</time>
      </trkpt>
      <trkpt lat="50.65948000" lon="9.995930000">
        <ele>0.0000000</ele>
        <time>2010-01-01T06:51:55Z</time>
      </trkpt>
      <trkpt lat="50.65968000" lon="9.995660000">
        <ele>0.0000000</ele>
        <time>2010-01-01T06:52:05Z</time>
      </trkpt>
      <trkpt lat="50.65981000" lon="9.995520000">
        <ele>0.0000000</ele>
        <time>2010-01-01T06:52:11Z</time>
      </trkpt>
      <trkpt lat="50.65989000" lon="9.995420000">
        <ele>0.0000000</ele>
        <time>2010-01-01T06:52:16Z</time>
      </trkpt>
      <trkpt lat="50.66006000" lon="9.995240000">
        <ele>0.0000000</ele>
        <time>2010-01-01T06:52:24Z</time>
      </trkpt>
      <trkpt lat="50.66020000" lon="9.995110000">
        <ele>0.0000000</ele>
        <time>2010-01-01T06:52:30Z</time>
      </trkpt>
      <trkpt lat="50.66073000" lon="9.994670000">
        <ele>0.0000000</ele>
        <time>2010-01-01T06:52:54Z</time>
      </trkpt>
      <trkpt lat="50.66155000" lon="9.994050000">
        <ele>0.0000000</ele>
        <time>2010-01-01T06:53:31Z</time>
      </trkpt>
      <trkpt lat="50.66187000" lon="9.993690000">
        <ele>0.0000000</ele>
        <time>2010-01-01T06:53:46Z</time>
      </trkpt>
      <trkpt lat="50.66217000" lon="9.993250000">
        <ele>0.0000000</ele>
        <time>2010-01-01T06:54:03Z</time>
      </trkpt>
      <trkpt lat="50.66379000" lon="9.990540000">
        <ele>0.0000000</ele>
        <time>2010-01-01T06:55:37Z</time>
      </trkpt>
      <trkpt lat="50.66412000" lon="9.990020000">
        <ele>0.0000000</ele>
        <time>2010-01-01T06:55:56Z</time>
      </trkpt>
      <trkpt lat="50.66416000" lon="9.989980000">
        <ele>0.0000000</ele>
        <time>2010-01-01T06:55:58Z</time>
      </trkpt>
      <trkpt lat="50.66421000" lon="9.989900000">
        <ele>0.0000000</ele>
        <time>2010-01-01T06:56:01Z</time>
      </trkpt>
      <trkpt lat="50.66445000" lon="9.989620000">
        <ele>0.0000000</ele>
        <time>2010-01-01T06:56:13Z</time>
      </trkpt>
      <trkpt lat="50.66504000" lon="9.989000000">
        <ele>0.0000000</ele>
        <time>2010-01-01T06:56:41Z</time>
      </trkpt>
      <trkpt lat="50.66536000" lon="9.988640000">
        <ele>0.0000000</ele>
        <time>2010-01-01T06:56:57Z</time>
      </trkpt>
      <trkpt lat="50.66549000" lon="9.988450000">
        <ele>0.0000000</ele>
        <time>2010-01-01T06:57:04Z</time>
      </trkpt>
      <trkpt lat="50.66709000" lon="9.985790000">
        <ele>0.0000000</ele>
        <time>2010-01-01T06:58:37Z</time>
      </trkpt>
      <trkpt lat="50.66744000" lon="9.985320000">
        <ele>0.0000000</ele>
        <time>2010-01-01T06:58:55Z</time>
      </trkpt>
      <trkpt lat="50.66777000" lon="9.984950000">
        <ele>0.0000000</ele>
        <time>2010-01-01T06:59:11Z</time>
      </trkpt>
      <trkpt lat="50.66777000" lon="9.984940000">
        <ele>0.0000000</ele>
        <time>2010-01-01T06:59:12Z</time>
      </trkpt>
      <trkpt lat="50.66846000" lon="9.984150000">
        <ele>0.0000000</ele>
        <time>2010-01-01T06:59:46Z</time>
      </trkpt>
      <trkpt lat="50.66870000" lon="9.983840000">
        <ele>0.0000000</ele>
        <time>2010-01-01T06:59:58Z</time>
      </trkpt>
      <trkpt lat="50.66895000" lon="9.983550000">
        <ele>0.0000000</ele>
        <time>2010-01-01T07:00:11Z</time>
      </trkpt>
      <trkpt lat="50.66899000" lon="9.983490000">
        <ele>0.0000000</ele>
        <time>2010-01-01T07:00:13Z</time>
      </trkpt>
      <trkpt lat="50.66997000" lon="9.982300000">
        <ele>0.0000000</ele>
        <time>2010-01-01T07:01:02Z</time>
      </trkpt>
      <trkpt lat="50.67079000" lon="9.981250000">
        <ele>0.0000000</ele>
        <time>2010-01-01T07:01:45Z</time>
      </trkpt>
      <trkpt lat="50.67089000" lon="9.981140000">
        <ele>0.0000000</ele>
        <time>2010-01-01T07:01:50Z</time>
      </trkpt>
      <trkpt lat="50.67135000" lon="9.980530000">
        <ele>0.0000000</ele>
        <time>2010-01-01T07:02:14Z</time>
      </trkpt>
      <trkpt lat="50.67142000" lon="9.980410000">
        <ele>0.0000000</ele>
        <time>2010-01-01T07:02:18Z</time>
      </trkpt>
      <trkpt lat="50.67155000" lon="9.980140000">
        <ele>0.0000000</ele>
        <time>2010-01-01T07:02:26Z</time>
      </trkpt>
      <trkpt lat="50.67224000" lon="9.978430000">
        <ele>0.0000000</ele>
        <time>2010-01-01T07:03:18Z</time>
      </trkpt>
      <trkpt lat="50.67283000" lon="9.977200000">
        <ele>0.0000000</ele>
        <time>2010-01-01T07:03:57Z</time>
      </trkpt>
      <trkpt lat="50.67297000" lon="9.976960000">
        <ele>0.0000000</ele>
        <time>2010-01-01T07:04:05Z</time>
      </trkpt>
      <trkpt lat="50.67328000" lon="9.976520000">
        <ele>0.0000000</ele>
        <time>2010-01-01T07:04:22Z</time>
      </trkpt>
      <trkpt lat="50.67338000" lon="9.976410000">
        <ele>0.0000000</ele>
        <time>2010-01-01T07:04:27Z</time>
      </trkpt>
      <trkpt lat="50.67350000" lon="9.976300000">
        <ele>0.0000000</ele>
        <time>2010-01-01T07:04:32Z</time>
      </trkpt>
      <trkpt lat="50.67372000" lon="9.976130000">
        <ele>0.0000000</ele>
        <time>2010-01-01T07:04:42Z</time>
      </trkpt>
      <trkpt lat="50.67382000" lon="9.976070000">
        <ele>0.0000000</ele>
        <time>2010-01-01T07:04:46Z</time>
      </trkpt>
      <trkpt lat="50.67445000" lon="9.975750000">
        <ele>0.0000000</ele>
        <time>2010-01-01T07:05:13Z</time>
      </trkpt>
      <trkpt lat="50.67475000" lon="9.975570000">
        <ele>0.0000000</ele>
        <time>2010-01-01T07:05:26Z</time>
      </trkpt>
      <trkpt lat="50.67493000" lon="9.975420000">
        <ele>0.0000000</ele>
        <time>2010-01-01T07:05:34Z</time>
      </trkpt>
      <trkpt lat="50.67639000" lon="9.973690000">
        <ele>0.0000000</ele>
        <time>2010-01-01T07:06:47Z</time>
      </trkpt>
      <trkpt lat="50.67647000" lon="9.973580000">
        <ele>0.0000000</ele>
        <time>2010-01-01T07:06:51Z</time>
      </trkpt>
      <trkpt lat="50.67707000" lon="9.972870000">
        <ele>0.0000000</ele>
        <time>2010-01-01T07:07:21Z</time>
      </trkpt>
      <trkpt lat="50.67742000" lon="9.972500000">
        <ele>0.0000000</ele>
        <time>2010-01-01T07:07:38Z</time>
      </trkpt>
      <trkpt lat="50.67864000" lon="9.971440000">
        <ele>0.0000000</ele>
        <time>2010-01-01T07:08:34Z</time>
      </trkpt>
      <trkpt lat="50.67889000" lon="9.971240000">
        <ele>0.0000000</ele>
        <time>2010-01-01T07:08:45Z</time>
      </trkpt>
      <trkpt lat="50.67910000" lon="9.971020000">
        <ele>0.0000000</ele>
        <time>2010-01-01T07:08:55Z</time>
      </trkpt>
      <trkpt lat="50.67916000" lon="9.970970000">
        <ele>0.0000000</ele>
        <time>2010-01-01T07:08:58Z</time>
      </trkpt>
      <trkpt lat="50.67942000" lon="9.970630000">
        <ele>0.0000000</ele>
        <time>2010-01-01T07:09:11Z</time>
      </trkpt>
      <trkpt lat="50.67965000" lon="9.970250000">
        <ele>0.0000000</ele>
        <time>2010-01-01T07:09:25Z</time>
      </trkpt>
      <trkpt lat="50.67978000" lon="9.969960000">
        <ele>0.0000000</ele>
        <time>2010-01-01T07:09:34Z</time>
      </trkpt>
      <trkpt lat="50.68043000" lon="9.968120000">
        <ele>0.0000000</ele>
        <time>2010-01-01T07:10:27Z</time>
      </trkpt>
      <trkpt lat="50.68054000" lon="9.967760000">
        <ele>0.0000000</ele>
        <time>2010-01-01T07:10:37Z</time>
      </trkpt>
      <trkpt lat="50.68062000" lon="9.967550000">
        <ele>0.0000000</ele>
        <time>2010-01-01T07:10:43Z</time>
      </trkpt>
      <trkpt lat="50.68067000" lon="9.967450000">
        <ele>0.0000000</ele>
        <time>2010-01-01T07:10:47Z</time>
      </trkpt>
      <trkpt lat="50.68073000" lon="9.967360000">
        <ele>0.0000000</ele>
        <time>2010-01-01T07:10:50Z</time>
      </trkpt>
      <trkpt lat="50.68079000" lon="9.967290000">
        <ele>0.0000000</ele>
        <time>2010-01-01T07:10:53Z</time>
      </trkpt>
      <trkpt lat="50.68086000" lon="9.967230000">
        <ele>0.0000000</ele>
        <time>2010-01-01T07:10:56Z</time>
      </trkpt>
      <trkpt lat="50.68094000" lon="9.967180000">
        <ele>0.0000000</ele>
        <time>2010-01-01T07:11:00Z</time>
      </trkpt>
      <trkpt lat="50.68117000" lon="9.967090000">
        <ele>0.0000000</ele>
        <time>2010-01-01T07:11:09Z</time>
      </trkpt>
      <trkpt lat="50.68170000" lon="9.966910000">
        <ele>0.0000000</ele>
        <time>2010-01-01T07:11:31Z</time>
      </trkpt>
      <trkpt lat="50.68196000" lon="9.966790000">
        <ele>0.0000000</ele>
        <time>2010-01-01T07:11:42Z</time>
      </trkpt>
      <trkpt lat="50.68202000" lon="9.966750000">
        <ele>0.0000000</ele>
        <time>2010-01-01T07:11:44Z</time>
      </trkpt>
      <trkpt lat="50.68223000" lon="9.966560000">
        <ele>0.0000000</ele>
        <time>2010-01-01T07:11:54Z</time>
      </trkpt>
      <trkpt lat="50.68247000" lon="9.966240000">
        <ele>0.0000000</ele>
        <time>2010-01-01T07:12:07Z</time>
      </trkpt>
      <trkpt lat="50.68251000" lon="9.966200000">
        <ele>0.0000000</ele>
        <time>2010-01-01T07:12:08Z</time>
      </trkpt>
      <trkpt lat="50.68281000" lon="9.965790000">
        <ele>0.0000000</ele>
        <time>2010-01-01T07:12:24Z</time>
      </trkpt>
      <trkpt lat="50.68305000" lon="9.965490000">
        <ele>0.0000000</ele>
        <time>2010-01-01T07:12:37Z</time>
      </trkpt>
      <trkpt lat="50.68333000" lon="9.965210000">
        <ele>0.0000000</ele>
        <time>2010-01-01T07:12:50Z</time>
      </trkpt>
      <trkpt lat="50.68340000" lon="9.965130000">
        <ele>0.0000000</ele>
        <time>2010-01-01T07:12:53Z</time>
      </trkpt>
      <trkpt lat="50.68359000" lon="9.964970000">
        <ele>0.0000000</ele>
        <time>2010-01-01T07:13:02Z</time>
      </trkpt>
      <trkpt lat="50.68364000" lon="9.964920000">
        <ele>0.0000000</ele>
        <time>2010-01-01T07:13:04Z</time>
      </trkpt>
      <trkpt lat="50.68369000" lon="9.964880000">
        <ele>0.0000000</ele>
        <time>2010-01-01T07:13:07Z</time>
      </trkpt>
      <trkpt lat="50.68388000" lon="9.964700000">
        <ele>0.0000000</ele>
        <time>2010-01-01T07:13:15Z</time>
      </trkpt>
      <trkpt lat="50.68398000" lon="9.964630000">
        <ele>0.0000000</ele>
        <time>2010-01-01T07:13:20Z</time>
      </trkpt>
      <trkpt lat="50.68416000" lon="9.964480000">
        <ele>0.0000000</ele>
        <time>2010-01-01T07:13:28Z</time>
      </trkpt>
      <trkpt lat="50.68426000" lon="9.964410000">
        <ele>0.0000000</ele>
        <time>2010-01-01T07:13:32Z</time>
      </trkpt>
      <trkpt lat="50.68438000" lon="9.964340000">
        <ele>0.0000000</ele>
        <time>2010-01-01T07:13:37Z</time>
      </trkpt>
      <trkpt lat="50.68477000" lon="9.964160000">
        <ele>0.0000000</ele>
        <time>2010-01-01T07:13:54Z</time>
      </trkpt>
      <trkpt lat="50.68561000" lon="9.963810000">
        <ele>0.0000000</ele>
        <time>2010-01-01T07:14:29Z</time>
      </trkpt>
      <trkpt lat="50.68642000" lon="9.963370000">
        <ele>0.0000000</ele>
        <time>2010-01-01T07:15:03Z</time>
      </trkpt>
      <trkpt lat="50.68760000" lon="9.962660000">
        <ele>0.0000000</ele>
        <time>2010-01-01T07:15:53Z</time>
      </trkpt>
      <trkpt lat="50.68783000" lon="9.962540000">
        <ele>0.0000000</ele>
        <time>2010-01-01T07:16:03Z</time>
      </trkpt>
      <trkpt lat="50.68805000" lon="9.962450000">
        <ele>0.0000000</ele>
        <time>2010-01-01T07:16:12Z</time>
      </trkpt>
      <trkpt lat="50.68813000" lon="9.962440000">
        <ele>0.0000000</ele>
        <time>2010-01-01T07:16:15Z</time>
      </trkpt>
      <trkpt lat="50.68824000" lon="9.962410000">
        <ele>0.0000000</ele>
        <time>2010-01-01T07:16:20Z</time>
      </trkpt>
      <trkpt lat="50.68845000" lon="9.962390000">
        <ele>0.0000000</ele>
        <time>2010-01-01T07:16:28Z</time>
      </trkpt>
      <trkpt lat="50.68911000" lon="9.962400000">
        <ele>0.0000000</ele>
        <time>2010-01-01T07:16:55Z</time>
      </trkpt>
      <trkpt lat="50.68951000" lon="9.962370000">
        <ele>0.0000000</ele>
        <time>2010-01-01T07:17:11Z</time>
      </trkpt>
      <trkpt lat="50.68975000" lon="9.962320000">
        <ele>0.0000000</ele>
        <time>2010-01-01T07:17:20Z</time>
      </trkpt>
      <trkpt lat="50.69060000" lon="9.962060000">
        <ele>0.0000000</ele>
        <time>2010-01-01T07:17:55Z</time>
      </trkpt>
      <trkpt lat="50.69089000" lon="9.961950000">
        <ele>0.0000000</ele>
        <time>2010-01-01T07:18:07Z</time>
      </trkpt>
      <trkpt lat="50.69123000" lon="9.961790000">
        <ele>0.0000000</ele>
        <time>2010-01-01T07:18:21Z</time>
      </trkpt>
      <trkpt lat="50.69144000" lon="9.961660000">
        <ele>0.0000000</ele>
        <time>2010-01-01T07:18:30Z</time>
      </trkpt>
      <trkpt lat="50.69173000" lon="9.961440000">
        <ele>0.0000000</ele>
        <time>2010-01-01T07:18:43Z</time>
      </trkpt>
      <trkpt lat="50.69201000" lon="9.961200000">
        <ele>0.0000000</ele>
        <time>2010-01-01T07:18:56Z</time>
      </trkpt>
      <trkpt lat="50.69257000" lon="9.960680000">
        <ele>0.0000000</ele>
        <time>2010-01-01T07:19:22Z</time>
      </trkpt>
      <trkpt lat="50.69266000" lon="9.960580000">
        <ele>0.0000000</ele>
        <time>2010-01-01T07:19:26Z</time>
      </trkpt>
      <trkpt lat="50.69275000" lon="9.960500000">
        <ele>0.0000000</ele>
        <time>2010-01-01T07:19:30Z</time>
      </trkpt>
      <trkpt lat="50.69295000" lon="9.960290000">
        <ele>0.0000000</ele>
        <time>2010-01-01T07:19:40Z</time>
      </trkpt>
      <trkpt lat="50.69305000" lon="9.960210000">
        <ele>0.0000000</ele>
        <time>2010-01-01T07:19:45Z</time>
      </trkpt>
      <trkpt lat="50.69368000" lon="9.959590000">
        <ele>0.0000000</ele>
        <time>2010-01-01T07:20:14Z</time>
      </trkpt>
      <trkpt lat="50.69430000" lon="9.959030000">
        <ele>0.0000000</ele>
        <time>2010-01-01T07:20:43Z</time>
      </trkpt>
      <trkpt lat="50.69445000" lon="9.958920000">
        <ele>0.0000000</ele>
        <time>2010-01-01T07:20:49Z</time>
      </trkpt>
      <trkpt lat="50.69452000" lon="9.958860000">
        <ele>0.0000000</ele>
        <time>2010-01-01T07:20:53Z</time>
      </trkpt>
      <trkpt lat="50.69467000" lon="9.958770000">
        <ele>0.0000000</ele>
        <time>2010-01-01T07:20:59Z</time>
      </trkpt>
      <trkpt lat="50.69474000" lon="9.958720000">
        <ele>0.0000000</ele>
        <time>2010-01-01T07:21:02Z</time>
      </trkpt>
      <trkpt lat="50.69489000" lon="9.958640000">
        <ele>0.0000000</ele>
        <time>2010-01-01T07:21:08Z</time>
      </trkpt>
      <trkpt lat="50.69585000" lon="9.958260000">
        <ele>0.0000000</ele>
        <time>2010-01-01T07:21:48Z</time>
      </trkpt>
      <trkpt lat="50.69600000" lon="9.958180000">
        <ele>0.0000000</ele>
        <time>2010-01-01T07:21:54Z</time>
      </trkpt>
      <trkpt lat="50.69607000" lon="9.958150000">
        <ele>0.0000000</ele>
        <time>2010-01-01T07:21:57Z</time>
      </trkpt>
      <trkpt lat="50.69622000" lon="9.958060000">
        <ele>0.0000000</ele>
        <time>2010-01-01T07:22:04Z</time>
      </trkpt>
      <trkpt lat="50.69664000" lon="9.957740000">
        <ele>0.0000000</ele>
        <time>2010-01-01T07:22:22Z</time>
      </trkpt>
      <trkpt lat="50.69758000" lon="9.956900000">
        <ele>0.0000000</ele>
        <time>2010-01-01T07:23:06Z</time>
      </trkpt>
      <trkpt lat="50.69774000" lon="9.956790000">
        <ele>0.0000000</ele>
        <time>2010-01-01T07:23:13Z</time>
      </trkpt>
      <trkpt lat="50.69812000" lon="9.956570000">
        <ele>0.0000000</ele>
        <time>2010-01-01T07:23:29Z</time>
      </trkpt>
      <trkpt lat="50.69843000" lon="9.956450000">
        <ele>0.0000000</ele>
        <time>2010-01-01T07:23:42Z</time>
      </trkpt>
      <trkpt lat="50.69864000" lon="9.956390000">
        <ele>0.0000000</ele>
        <time>2010-01-01T07:23:50Z</time>
      </trkpt>
      <trkpt lat="50.70033000" lon="9.956070000">
        <ele>0.0000000</ele>
        <time>2010-01-01T07:24:58Z</time>
      </trkpt>
      <trkpt lat="50.70043000" lon="9.956060000">
        <ele>0.0000000</ele>
        <time>2010-01-01T07:25:02Z</time>
      </trkpt>
      <trkpt lat="50.70067000" lon="9.956010000">
        <ele>0.0000000</ele>
        <time>2010-01-01T07:25:12Z</time>
      </trkpt>
      <trkpt lat="50.70077000" lon="9.956000000">
        <ele>0.0000000</ele>
        <time>2010-01-01T07:25:16Z</time>
      </trkpt>
      <trkpt lat="50.70129000" lon="9.955900000">
        <ele>0.0000000</ele>
        <time>2010-01-01T07:25:37Z</time>
      </trkpt>
      <trkpt lat="50.70179000" lon="9.955770000">
        <ele>0.0000000</ele>
        <time>2010-01-01T07:25:57Z</time>
      </trkpt>
      <trkpt lat="50.70214000" lon="9.955620000">
        <ele>0.0000000</ele>
        <time>2010-01-01T07:26:12Z</time>
      </trkpt>
      <trkpt lat="50.70357000" lon="9.954870000">
        <ele>0.0000000</ele>
        <time>2010-01-01T07:27:12Z</time>
      </trkpt>
      <trkpt lat="50.70400000" lon="9.954680000">
        <ele>0.0000000</ele>
        <time>2010-01-01T07:27:30Z</time>
      </trkpt>
      <trkpt lat="50.70439000" lon="9.954570000">
        <ele>0.0000000</ele>
        <time>2010-01-01T07:27:46Z</time>
      </trkpt>
      <trkpt lat="50.70479000" lon="9.954540000">
        <ele>0.0000000</ele>
        <time>2010-01-01T07:28:02Z</time>
      </trkpt>
      <trkpt lat="50.70503000" lon="9.954550000">
        <ele>0.0000000</ele>
        <time>2010-01-01T07:28:11Z</time>
      </trkpt>
      <trkpt lat="50.70536000" lon="9.954610000">
        <ele>0.0000000</ele>
        <time>2010-01-01T07:28:25Z</time>
      </trkpt>
      <trkpt lat="50.70850000" lon="9.955330000">
        <ele>0.0000000</ele>
        <time>2010-01-01T07:30:32Z</time>
      </trkpt>
      <trkpt lat="50.70876000" lon="9.955410000">
        <ele>0.0000000</ele>
        <time>2010-01-01T07:30:42Z</time>
      </trkpt>
      <trkpt lat="50.70931000" lon="9.955630000">
        <ele>0.0000000</ele>
        <time>2010-01-01T07:31:05Z</time>
      </trkpt>
      <trkpt lat="50.71109000" lon="9.956440000">
        <ele>0.0000000</ele>
        <time>2010-01-01T07:32:19Z</time>
      </trkpt>
      <trkpt lat="50.71156000" lon="9.956580000">
        <ele>0.0000000</ele>
        <time>2010-01-01T07:32:38Z</time>
      </trkpt>
      <trkpt lat="50.71214000" lon="9.956630000">
        <ele>0.0000000</ele>
        <time>2010-01-01T07:33:02Z</time>
      </trkpt>
      <trkpt lat="50.71263000" lon="9.956700000">
        <ele>0.0000000</ele>
        <time>2010-01-01T07:33:21Z</time>
      </trkpt>
      <trkpt lat="50.71286000" lon="9.956710000">
        <ele>0.0000000</ele>
        <time>2010-01-01T07:33:31Z</time>
      </trkpt>
      <trkpt lat="50.71296000" lon="9.956750000">
        <ele>0.0000000</ele>
        <time>2010-01-01T07:33:35Z</time>
      </trkpt>
      <trkpt lat="50.71305000" lon="9.956750000">
        <ele>0.0000000</ele>
        <time>2010-01-01T07:33:38Z</time>
      </trkpt>
      <trkpt lat="50.71407000" lon="9.956820000">
        <ele>0.0000000</ele>
        <time>2010-01-01T07:34:19Z</time>
      </trkpt>
      <trkpt lat="50.71413000" lon="9.956800000">
        <ele>0.0000000</ele>
        <time>2010-01-01T07:34:22Z</time>
      </trkpt>
      <trkpt lat="50.71595000" lon="9.956940000">
        <ele>0.0000000</ele>
        <time>2010-01-01T07:35:35Z</time>
      </trkpt>
      <trkpt lat="50.71643000" lon="9.957020000">
        <ele>0.0000000</ele>
        <time>2010-01-01T07:35:54Z</time>
      </trkpt>
      <trkpt lat="50.71654000" lon="9.957050000">
        <ele>0.0000000</ele>
        <time>2010-01-01T07:35:58Z</time>
      </trkpt>
      <trkpt lat="50.71665000" lon="9.957110000">
        <ele>0.0000000</ele>
        <time>2010-01-01T07:36:03Z</time>
      </trkpt>
      <trkpt lat="50.71709000" lon="9.957250000">
        <ele>0.0000000</ele>
        <time>2010-01-01T07:36:21Z</time>
      </trkpt>
      <trkpt lat="50.71709000" lon="9.957160000">
        <ele>0.0000000</ele>
        <time>2010-01-01T07:36:23Z</time>
      </trkpt>
      <trkpt lat="50.71712000" lon="9.956820000">
        <ele>0.0000000</ele>
        <time>2010-01-01T07:36:32Z</time>
      </trkpt>
      <trkpt lat="50.71712000" lon="9.956630000">
        <ele>0.0000000</ele>
        <time>2010-01-01T07:36:37Z</time>
      </trkpt>
      <trkpt lat="50.71709000" lon="9.956300000">
        <ele>0.0000000</ele>
        <time>2010-01-01T07:36:45Z</time>
      </trkpt>
      <trkpt lat="50.71711000" lon="9.955620000">
        <ele>0.0000000</ele>
        <time>2010-01-01T07:37:02Z</time>
      </trkpt>
      <trkpt lat="50.71706000" lon="9.955140000">
        <ele>0.0000000</ele>
        <time>2010-01-01T07:37:15Z</time>
      </trkpt>
      <trkpt lat="50.71702000" lon="9.954450000">
        <ele>0.0000000</ele>
        <time>2010-01-01T07:37:32Z</time>
      </trkpt>
      <trkpt lat="50.71696000" lon="9.953880000">
        <ele>0.0000000</ele>
        <time>2010-01-01T07:37:47Z</time>
      </trkpt>
      <trkpt lat="50.71684000" lon="9.952190000">
        <ele>0.0000000</ele>
        <time>2010-01-01T07:38:30Z</time>
      </trkpt>
      <trkpt lat="50.71684000" lon="9.952070000">
        <ele>0.0000000</ele>
        <time>2010-01-01T07:38:33Z</time>
      </trkpt>
      <trkpt lat="50.71686000" lon="9.951810000">
        <ele>0.0000000</ele>
        <time>2010-01-01T07:38:40Z</time>
      </trkpt>
      <trkpt lat="50.71688000" lon="9.951700000">
        <ele>0.0000000</ele>
        <time>2010-01-01T07:38:43Z</time>
      </trkpt>
      <trkpt lat="50.71689000" lon="9.951180000">
        <ele>0.0000000</ele>
        <time>2010-01-01T07:38:56Z</time>
      </trkpt>
      <trkpt lat="50.71688000" lon="9.951000000">
        <ele>0.0000000</ele>
        <time>2010-01-01T07:39:00Z</time>
      </trkpt>
      <trkpt lat="50.71673000" lon="9.950290000">
        <ele>0.0000000</ele>
        <time>2010-01-01T07:39:19Z</time>
      </trkpt>
      <trkpt lat="50.71670000" lon="9.950080000">
        <ele>0.0000000</ele>
        <time>2010-01-01T07:39:25Z</time>
      </trkpt>
      <trkpt lat="50.71668000" lon="9.950000000">
        <ele>0.0000000</ele>
        <time>2010-01-01T07:39:27Z</time>
      </trkpt>
      <trkpt lat="50.71698000" lon="9.949950000">
        <ele>0.0000000</ele>
        <time>2010-01-01T07:39:39Z</time>
      </trkpt>
      <trkpt lat="50.71704000" lon="9.949920000">
        <ele>0.0000000</ele>
        <time>2010-01-01T07:39:42Z</time>
      </trkpt>
      <trkpt lat="50.71718000" lon="9.949800000">
        <ele>0.0000000</ele>
        <time>2010-01-01T07:39:48Z</time>
      </trkpt>
      <trkpt lat="50.71726000" lon="9.949720000">
        <ele>0.0000000</ele>
        <time>2010-01-01T07:39:52Z</time>
      </trkpt>
      <trkpt lat="50.71730000" lon="9.949670000">
        <ele>0.0000000</ele>
        <time>2010-01-01T07:39:54Z</time>
      </trkpt>
      <trkpt lat="50.71737000" lon="9.949520000">
        <ele>0.0000000</ele>
        <time>2010-01-01T07:39:59Z</time>
      </trkpt>
      <trkpt lat="50.71739000" lon="9.949490000">
        <ele>0.0000000</ele>
        <time>2010-01-01T07:40:00Z</time>
      </trkpt>
      <trkpt lat="50.71746000" lon="9.949330000">
        <ele>0.0000000</ele>
        <time>2010-01-01T07:40:05Z</time>
      </trkpt>
      <trkpt lat="50.71752000" lon="9.949070000">
        <ele>0.0000000</ele>
        <time>2010-01-01T07:40:12Z</time>
      </trkpt>
      <trkpt lat="50.71758000" lon="9.948680000">
        <ele>0.0000000</ele>
        <time>2010-01-01T07:40:22Z</time>
      </trkpt>
      <trkpt lat="50.71770000" lon="9.948200000">
        <ele>0.0000000</ele>
        <time>2010-01-01T07:40:35Z</time>
      </trkpt>
      <trkpt lat="50.71782000" lon="9.947830000">
        <ele>0.0000000</ele>
        <time>2010-01-01T07:40:45Z</time>
      </trkpt>
      <trkpt lat="50.71831000" lon="9.946720000">
        <ele>0.0000000</ele>
        <time>2010-01-01T07:41:20Z</time>
      </trkpt>
      <trkpt lat="50.71878000" lon="9.945730000">
        <ele>0.0000000</ele>
        <time>2010-01-01T07:41:51Z</time>
      </trkpt>
      <trkpt lat="50.71879000" lon="9.945690000">
        <ele>0.0000000</ele>
        <time>2010-01-01T07:41:52Z</time>
      </trkpt>
      <trkpt lat="50.71905000" lon="9.945110000">
        <ele>0.0000000</ele>
        <time>2010-01-01T07:42:10Z</time>
      </trkpt>
      <trkpt lat="50.71910000" lon="9.945020000">
        <ele>0.0000000</ele>
        <time>2010-01-01T07:42:13Z</time>
      </trkpt>
      <trkpt lat="50.71972000" lon="9.943700000">
        <ele>0.0000000</ele>
        <time>2010-01-01T07:42:55Z</time>
      </trkpt>
      <trkpt lat="50.71987000" lon="9.943470000">
        <ele>0.0000000</ele>
        <time>2010-01-01T07:43:03Z</time>
      </trkpt>
      <trkpt lat="50.72023000" lon="9.943050000">
        <ele>0.0000000</ele>
        <time>2010-01-01T07:43:21Z</time>
      </trkpt>
      <trkpt lat="50.72034000" lon="9.942950000">
        <ele>0.0000000</ele>
        <time>2010-01-01T07:43:26Z</time>
      </trkpt>
      <trkpt lat="50.72063000" lon="9.942590000">
        <ele>0.0000000</ele>
        <time>2010-01-01T07:43:41Z</time>
      </trkpt>
      <trkpt lat="50.72065000" lon="9.942580000">
        <ele>0.0000000</ele>
        <time>2010-01-01T07:43:42Z</time>
      </trkpt>
      <trkpt lat="50.72079000" lon="9.942400000">
        <ele>0.0000000</ele>
        <time>2010-01-01T07:43:49Z</time>
      </trkpt>
      <trkpt lat="50.72086000" lon="9.942290000">
        <ele>0.0000000</ele>
        <time>2010-01-01T07:43:53Z</time>
      </trkpt>
      <trkpt lat="50.72090000" lon="9.942200000">
        <ele>0.0000000</ele>
        <time>2010-01-01T07:43:56Z</time>
      </trkpt>
      <trkpt lat="50.72117000" lon="9.941040000">
        <ele>0.0000000</ele>
        <time>2010-01-01T07:44:27Z</time>
      </trkpt>
      <trkpt lat="50.72118000" lon="9.940740000">
        <ele>0.0000000</ele>
        <time>2010-01-01T07:44:35Z</time>
      </trkpt>
      <trkpt lat="50.72116000" lon="9.940650000">
        <ele>0.0000000</ele>
        <time>2010-01-01T07:44:37Z</time>
      </trkpt>
      <trkpt lat="50.71975000" lon="9.936240000">
        <ele>0.0000000</ele>
        <time>2010-01-01T07:46:42Z</time>
      </trkpt>
      <trkpt lat="50.71969000" lon="9.936010000">
        <ele>0.0000000</ele>
        <time>2010-01-01T07:46:49Z</time>
      </trkpt>
      <trkpt lat="50.71965000" lon="9.935720000">
        <ele>0.0000000</ele>
        <time>2010-01-01T07:46:56Z</time>
      </trkpt>
      <trkpt lat="50.71968000" lon="9.932720000">
        <ele>0.0000000</ele>
        <time>2010-01-01T07:48:12Z</time>
      </trkpt>
      <trkpt lat="50.71965000" lon="9.932270000">
        <ele>0.0000000</ele>
        <time>2010-01-01T07:48:24Z</time>
      </trkpt>
      <trkpt lat="50.71900000" lon="9.928040000">
        <ele>0.0000000</ele>
        <time>2010-01-01T07:50:14Z</time>
      </trkpt>
      <trkpt lat="50.71894000" lon="9.927450000">
        <ele>0.0000000</ele>
        <time>2010-01-01T07:50:29Z</time>
      </trkpt>
      <trkpt lat="50.71892000" lon="9.927040000">
        <ele>0.0000000</ele>
        <time>2010-01-01T07:50:40Z</time>
      </trkpt>
      <trkpt lat="50.71892000" lon="9.926720000">
        <ele>0.0000000</ele>
        <time>2010-01-01T07:50:48Z</time>
      </trkpt>
      <trkpt lat="50.71894000" lon="9.926380000">
        <ele>0.0000000</ele>
        <time>2010-01-01T07:50:56Z</time>
      </trkpt>
      <trkpt lat="50.71933000" lon="9.923470000">
        <ele>0.0000000</ele>
        <time>2010-01-01T07:52:12Z</time>
      </trkpt>
      <trkpt lat="50.71954000" lon="9.921310000">
        <ele>0.0000000</ele>
        <time>2010-01-01T07:53:07Z</time>
      </trkpt>
      <trkpt lat="50.71955000" lon="9.920760000">
        <ele>0.0000000</ele>
        <time>2010-01-01T07:53:21Z</time>
      </trkpt>
      <trkpt lat="50.71944000" lon="9.916350000">
        <ele>0.0000000</ele>
        <time>2010-01-01T07:55:13Z</time>
      </trkpt>
      <trkpt lat="50.71890000" lon="9.914720000">
        <ele>0.0000000</ele>
        <time>2010-01-01T07:56:00Z</time>
      </trkpt>
      <trkpt lat="50.71882000" lon="9.914410000">
        <ele>0.0000000</ele>
        <time>2010-01-01T07:56:08Z</time>
      </trkpt>
      <trkpt lat="50.71878000" lon="9.914200000">
        <ele>0.0000000</ele>
        <time>2010-01-01T07:56:14Z</time>
      </trkpt>
      <trkpt lat="50.71875000" lon="9.913910000">
        <ele>0.0000000</ele>
        <time>2010-01-01T07:56:21Z</time>
      </trkpt>
      <trkpt lat="50.71873000" lon="9.913100000">
        <ele>0.0000000</ele>
        <time>2010-01-01T07:56:42Z</time>
      </trkpt>
      <trkpt lat="50.71878000" lon="9.912500000">
        <ele>0.0000000</ele>
        <time>2010-01-01T07:56:57Z</time>
      </trkpt>
      <trkpt lat="50.71878000" lon="9.912240000">
        <ele>0.0000000</ele>
        <time>2010-01-01T07:57:04Z</time>
      </trkpt>
      <trkpt lat="50.71876000" lon="9.912110000">
        <ele>0.0000000</ele>
        <time>2010-01-01T07:57:07Z</time>
      </trkpt>
      <trkpt lat="50.71855000" lon="9.911160000">
        <ele>0.0000000</ele>
        <time>2010-01-01T07:57:32Z</time>
      </trkpt>
      <trkpt lat="50.71848000" lon="9.910660000">
        <ele>0.0000000</ele>
        <time>2010-01-01T07:57:45Z</time>
      </trkpt>
      <trkpt lat="50.71838000" lon="9.908650000">
        <ele>0.0000000</ele>
        <time>2010-01-01T07:58:36Z</time>
      </trkpt>
      <trkpt lat="50.71845000" lon="9.907570000">
        <ele>0.0000000</ele>
        <time>2010-01-01T07:59:04Z</time>
      </trkpt>
      <trkpt lat="50.71851000" lon="9.903970000">
        <ele>0.0000000</ele>
        <time>2010-01-01T08:00:35Z</time>
      </trkpt>
      <trkpt lat="50.71852000" lon="9.903930000">
        <ele>0.0000000</ele>
        <time>2010-01-01T08:00:36Z</time>
      </trkpt>
      <trkpt lat="50.71852000" lon="9.903900000">
        <ele>0.0000000</ele>
        <time>2010-01-01T08:00:37Z</time>
      </trkpt>
      <trkpt lat="50.71859000" lon="9.903740000">
        <ele>0.0000000</ele>
        <time>2010-01-01T08:00:42Z</time>
      </trkpt>
      <trkpt lat="50.71886000" lon="9.904520000">
        <ele>0.0000000</ele>
        <time>2010-01-01T08:01:05Z</time>
      </trkpt>
      <trkpt lat="50.71903000" lon="9.904880000">
        <ele>0.0000000</ele>
        <time>2010-01-01T08:01:16Z</time>
      </trkpt>
      <trkpt lat="50.71915000" lon="9.905090000">
        <ele>0.0000000</ele>
        <time>2010-01-01T08:01:23Z</time>
      </trkpt>
      <trkpt lat="50.71921000" lon="9.905180000">
        <ele>0.0000000</ele>
        <time>2010-01-01T08:01:26Z</time>
      </trkpt>
      <trkpt lat="50.71938000" lon="9.905390000">
        <ele>0.0000000</ele>
        <time>2010-01-01T08:01:35Z</time>
      </trkpt>
      <trkpt lat="50.72018000" lon="9.906260000">
        <ele>0.0000000</ele>
        <time>2010-01-01T08:02:14Z</time>
      </trkpt>
      <trkpt lat="50.72039000" lon="9.906550000">
        <ele>0.0000000</ele>
        <time>2010-01-01T08:02:25Z</time>
      </trkpt>
      <trkpt lat="50.72150000" lon="9.908680000">
        <ele>0.0000000</ele>
        <time>2010-01-01T08:03:35Z</time>
      </trkpt>
      <trkpt lat="50.72172000" lon="9.909030000">
        <ele>0.0000000</ele>
        <time>2010-01-01T08:03:48Z</time>
      </trkpt>
      <trkpt lat="50.72187000" lon="9.909230000">
        <ele>0.0000000</ele>
        <time>2010-01-01T08:03:55Z</time>
      </trkpt>
      <trkpt lat="50.72222000" lon="9.909630000">
        <ele>0.0000000</ele>
        <time>2010-01-01T08:04:13Z</time>
      </trkpt>
      <trkpt lat="50.72238000" lon="9.909850000">
        <ele>0.0000000</ele>
        <time>2010-01-01T08:04:21Z</time>
      </trkpt>
      <trkpt lat="50.72258000" lon="9.910240000">
        <ele>0.0000000</ele>
        <time>2010-01-01T08:04:34Z</time>
      </trkpt>
      <trkpt lat="50.72264000" lon="9.910430000">
        <ele>0.0000000</ele>
        <time>2010-01-01T08:04:39Z</time>
      </trkpt>
      <trkpt lat="50.72274000" lon="9.910860000">
        <ele>0.0000000</ele>
        <time>2010-01-01T08:04:51Z</time>
      </trkpt>
      <trkpt lat="50.72299000" lon="9.912480000">
        <ele>0.0000000</ele>
        <time>2010-01-01T08:05:33Z</time>
      </trkpt>
      <trkpt lat="50.72312000" lon="9.912940000">
        <ele>0.0000000</ele>
        <time>2010-01-01T08:05:46Z</time>
      </trkpt>
      <trkpt lat="50.72317000" lon="9.913080000">
        <ele>0.0000000</ele>
        <time>2010-01-01T08:05:50Z</time>
      </trkpt>
      <trkpt lat="50.72329000" lon="9.913350000">
        <ele>0.0000000</ele>
        <time>2010-01-01T08:05:58Z</time>
      </trkpt>
      <trkpt lat="50.72371000" lon="9.914100000">
        <ele>0.0000000</ele>
        <time>2010-01-01T08:06:24Z</time>
      </trkpt>
      <trkpt lat="50.72425000" lon="9.914990000">
        <ele>0.0000000</ele>
        <time>2010-01-01T08:06:55Z</time>
      </trkpt>
      <trkpt lat="50.72446000" lon="9.915290000">
        <ele>0.0000000</ele>
        <time>2010-01-01T08:07:06Z</time>
      </trkpt>
      <trkpt lat="50.72493000" lon="9.915890000">
        <ele>0.0000000</ele>
        <time>2010-01-01T08:07:30Z</time>
      </trkpt>
      <trkpt lat="50.72670000" lon="9.917890000">
        <ele>0.0000000</ele>
        <time>2010-01-01T08:08:58Z</time>
      </trkpt>
      <trkpt lat="50.72698000" lon="9.918100000">
        <ele>0.0000000</ele>
        <time>2010-01-01T08:09:10Z</time>
      </trkpt>
      <trkpt lat="50.72711000" lon="9.918150000">
        <ele>0.0000000</ele>
        <time>2010-01-01T08:09:15Z</time>
      </trkpt>
      <trkpt lat="50.72716000" lon="9.918180000">
        <ele>0.0000000</ele>
        <time>2010-01-01T08:09:17Z</time>
      </trkpt>
      <trkpt lat="50.72911000" lon="9.918590000">
        <ele>0.0000000</ele>
        <time>2010-01-01T08:10:36Z</time>
      </trkpt>
      <trkpt lat="50.73032000" lon="9.918810000">
        <ele>0.0000000</ele>
        <time>2010-01-01T08:11:25Z</time>
      </trkpt>
      <trkpt lat="50.73045000" lon="9.918850000">
        <ele>0.0000000</ele>
        <time>2010-01-01T08:11:30Z</time>
      </trkpt>
      <trkpt lat="50.73063000" lon="9.918930000">
        <ele>0.0000000</ele>
        <time>2010-01-01T08:11:38Z</time>
      </trkpt>
      <trkpt lat="50.73539000" lon="9.922240000">
        <ele>0.0000000</ele>
        <time>2010-01-01T08:15:06Z</time>
      </trkpt>
      <trkpt lat="50.73568000" lon="9.922420000">
        <ele>0.0000000</ele>
        <time>2010-01-01T08:15:18Z</time>
      </trkpt>
      <trkpt lat="50.73615000" lon="9.922760000">
        <ele>0.0000000</ele>
        <time>2010-01-01T08:15:39Z</time>
      </trkpt>
      <trkpt lat="50.73633000" lon="9.922920000">
        <ele>0.0000000</ele>
        <time>2010-01-01T08:15:47Z</time>
      </trkpt>
      <trkpt lat="50.73665000" lon="9.923260000">
        <ele>0.0000000</ele>
        <time>2010-01-01T08:16:03Z</time>
      </trkpt>
      <trkpt lat="50.73685000" lon="9.923510000">
        <ele>0.0000000</ele>
        <time>2010-01-01T08:16:13Z</time>
      </trkpt>
      <trkpt lat="50.73708000" lon="9.923840000">
        <ele>0.0000000</ele>
        <time>2010-01-01T08:16:25Z</time>
      </trkpt>
      <trkpt lat="50.73745000" lon="9.924430000">
        <ele>0.0000000</ele>
        <time>2010-01-01T08:16:47Z</time>
      </trkpt>
      <trkpt lat="50.73757000" lon="9.924710000">
        <ele>0.0000000</ele>
        <time>2010-01-01T08:16:55Z</time>
      </trkpt>
      <trkpt lat="50.73767000" lon="9.925080000">
        <ele>0.0000000</ele>
        <time>2010-01-01T08:17:05Z</time>
      </trkpt>
      <trkpt lat="50.73793000" lon="9.926310000">
        <ele>0.0000000</ele>
        <time>2010-01-01T08:17:38Z</time>
      </trkpt>
      <trkpt lat="50.73844000" lon="9.929250000">
        <ele>0.0000000</ele>
        <time>2010-01-01T08:18:55Z</time>
      </trkpt>
      <trkpt lat="50.73851000" lon="9.929550000">
        <ele>0.0000000</ele>
        <time>2010-01-01T08:19:03Z</time>
      </trkpt>
      <trkpt lat="50.73857000" lon="9.929730000">
        <ele>0.0000000</ele>
        <time>2010-01-01T08:19:09Z</time>
      </trkpt>
      <trkpt lat="50.73869000" lon="9.929980000">
        <ele>0.0000000</ele>
        <time>2010-01-01T08:19:17Z</time>
      </trkpt>
      <trkpt lat="50.73936000" lon="9.931090000">
        <ele>0.0000000</ele>
        <time>2010-01-01T08:19:55Z</time>
      </trkpt>
      <trkpt lat="50.73947000" lon="9.931320000">
        <ele>0.0000000</ele>
        <time>2010-01-01T08:20:03Z</time>
      </trkpt>
      <trkpt lat="50.73959000" lon="9.931670000">
        <ele>0.0000000</ele>
        <time>2010-01-01T08:20:13Z</time>
      </trkpt>
      <trkpt lat="50.73967000" lon="9.931980000">
        <ele>0.0000000</ele>
        <time>2010-01-01T08:20:21Z</time>
      </trkpt>
      <trkpt lat="50.73980000" lon="9.932370000">
        <ele>0.0000000</ele>
        <time>2010-01-01T08:20:32Z</time>
      </trkpt>
      <trkpt lat="50.73989000" lon="9.932540000">
        <ele>0.0000000</ele>
        <time>2010-01-01T08:20:38Z</time>
      </trkpt>
      <trkpt lat="50.74005000" lon="9.932760000">
        <ele>0.0000000</ele>
        <time>2010-01-01T08:20:47Z</time>
      </trkpt>
      <trkpt lat="50.74024000" lon="9.932970000">
        <ele>0.0000000</ele>
        <time>2010-01-01T08:20:56Z</time>
      </trkpt>
      <trkpt lat="50.74192000" lon="9.934400000">
        <ele>0.0000000</ele>
        <time>2010-01-01T08:22:12Z</time>
      </trkpt>
      <trkpt lat="50.74206000" lon="9.934490000">
        <ele>0.0000000</ele>
        <time>2010-01-01T08:22:18Z</time>
      </trkpt>
      <trkpt lat="50.74359000" lon="9.935270000">
        <ele>0.0000000</ele>
        <time>2010-01-01T08:23:23Z</time>
      </trkpt>
      <trkpt lat="50.74556000" lon="9.936180000">
        <ele>0.0000000</ele>
        <time>2010-01-01T08:24:45Z</time>
      </trkpt>
      <trkpt lat="50.74568000" lon="9.936260000">
        <ele>0.0000000</ele>
        <time>2010-01-01T08:24:50Z</time>
      </trkpt>
      <trkpt lat="50.74589000" lon="9.936480000">
        <ele>0.0000000</ele>
        <time>2010-01-01T08:25:00Z</time>
      </trkpt>
      <trkpt lat="50.74598000" lon="9.936600000">
        <ele>0.0000000</ele>
        <time>2010-01-01T08:25:05Z</time>
      </trkpt>
      <trkpt lat="50.74618000" lon="9.936940000">
        <ele>0.0000000</ele>
        <time>2010-01-01T08:25:17Z</time>
      </trkpt>
      <trkpt lat="50.74632000" lon="9.937230000">
        <ele>0.0000000</ele>
        <time>2010-01-01T08:25:26Z</time>
      </trkpt>
      <trkpt lat="50.74737000" lon="9.940120000">
        <ele>0.0000000</ele>
        <time>2010-01-01T08:26:50Z</time>
      </trkpt>
      <trkpt lat="50.74740000" lon="9.940180000">
        <ele>0.0000000</ele>
        <time>2010-01-01T08:26:52Z</time>
      </trkpt>
      <trkpt lat="50.74868000" lon="9.943660000">
        <ele>0.0000000</ele>
        <time>2010-01-01T08:28:34Z</time>
      </trkpt>
      <trkpt lat="50.74884000" lon="9.944220000">
        <ele>0.0000000</ele>
        <time>2010-01-01T08:28:50Z</time>
      </trkpt>
      <trkpt lat="50.74893000" lon="9.944780000">
        <ele>0.0000000</ele>
        <time>2010-01-01T08:29:04Z</time>
      </trkpt>
      <trkpt lat="50.74905000" lon="9.946300000">
        <ele>0.0000000</ele>
        <time>2010-01-01T08:29:43Z</time>
      </trkpt>
      <trkpt lat="50.74909000" lon="9.946460000">
        <ele>0.0000000</ele>
        <time>2010-01-01T08:29:47Z</time>
      </trkpt>
      <trkpt lat="50.74917000" lon="9.946670000">
        <ele>0.0000000</ele>
        <time>2010-01-01T08:29:54Z</time>
      </trkpt>
      <trkpt lat="50.74928000" lon="9.946810000">
        <ele>0.0000000</ele>
        <time>2010-01-01T08:29:59Z</time>
      </trkpt>
      <trkpt lat="50.74943000" lon="9.946910000">
        <ele>0.0000000</ele>
        <time>2010-01-01T08:30:06Z</time>
      </trkpt>
      <trkpt lat="50.74956000" lon="9.946950000">
        <ele>0.0000000</ele>
        <time>2010-01-01T08:30:11Z</time>
      </trkpt>
      <trkpt lat="50.75078000" lon="9.947040000">
        <ele>0.0000000</ele>
        <time>2010-01-01T08:31:00Z</time>
      </trkpt>
      <trkpt lat="50.75157000" lon="9.947170000">
        <ele>0.0000000</ele>
        <time>2010-01-01T08:31:32Z</time>
      </trkpt>
      <trkpt lat="50.75175000" lon="9.947220000">
        <ele>0.0000000</ele>
        <time>2010-01-01T08:31:39Z</time>
      </trkpt>
      <trkpt lat="50.75183000" lon="9.947230000">
        <ele>0.0000000</ele>
        <time>2010-01-01T08:31:42Z</time>
      </trkpt>
      <trkpt lat="50.75222000" lon="9.947340000">
        <ele>0.0000000</ele>
        <time>2010-01-01T08:31:58Z</time>
      </trkpt>
      <trkpt lat="50.75226000" lon="9.947360000">
        <ele>0.0000000</ele>
        <time>2010-01-01T08:32:00Z</time>
      </trkpt>
      <trkpt lat="50.75232000" lon="9.947380000">
        <ele>0.0000000</ele>
        <time>2010-01-01T08:32:02Z</time>
      </trkpt>
      <trkpt lat="50.75248000" lon="9.947490000">
        <ele>0.0000000</ele>
        <time>2010-01-01T08:32:09Z</time>
      </trkpt>
      <trkpt lat="50.75266000" lon="9.947660000">
        <ele>0.0000000</ele>
        <time>2010-01-01T08:32:18Z</time>
      </trkpt>
      <trkpt lat="50.75284000" lon="9.947900000">
        <ele>0.0000000</ele>
        <time>2010-01-01T08:32:27Z</time>
      </trkpt>
      <trkpt lat="50.75303000" lon="9.948190000">
        <ele>0.0000000</ele>
        <time>2010-01-01T08:32:38Z</time>
      </trkpt>
      <trkpt lat="50.75315000" lon="9.948410000">
        <ele>0.0000000</ele>
        <time>2010-01-01T08:32:45Z</time>
      </trkpt>
      <trkpt lat="50.75333000" lon="9.948700000">
        <ele>0.0000000</ele>
        <time>2010-01-01T08:32:55Z</time>
      </trkpt>
      <trkpt lat="50.75352000" lon="9.948930000">
        <ele>0.0000000</ele>
        <time>2010-01-01T08:33:05Z</time>
      </trkpt>
      <trkpt lat="50.75361000" lon="9.949020000">
        <ele>0.0000000</ele>
        <time>2010-01-01T08:33:09Z</time>
      </trkpt>
      <trkpt lat="50.75379000" lon="9.948810000">
        <ele>0.0000000</ele>
        <time>2010-01-01T08:33:18Z</time>
      </trkpt>
      <trkpt lat="50.75398000" lon="9.948620000">
        <ele>0.0000000</ele>
        <time>2010-01-01T08:33:27Z</time>
      </trkpt>
      <trkpt lat="50.75484000" lon="9.947860000">
        <ele>0.0000000</ele>
        <time>2010-01-01T08:34:07Z</time>
      </trkpt>
      <trkpt lat="50.75504000" lon="9.947700000">
        <ele>0.0000000</ele>
        <time>2010-01-01T08:34:16Z</time>
      </trkpt>
      <trkpt lat="50.75523000" lon="9.947570000">
        <ele>0.0000000</ele>
        <time>2010-01-01T08:34:24Z</time>
      </trkpt>
      <trkpt lat="50.75543000" lon="9.947490000">
        <ele>0.0000000</ele>
        <time>2010-01-01T08:34:32Z</time>
      </trkpt>
      <trkpt lat="50.75604000" lon="9.947140000">
        <ele>0.0000000</ele>
        <time>2010-01-01T08:34:58Z</time>
      </trkpt>
      <trkpt lat="50.75627000" lon="9.946970000">
        <ele>0.0000000</ele>
        <time>2010-01-01T08:35:08Z</time>
      </trkpt>
      <trkpt lat="50.75664000" lon="9.946620000">
        <ele>0.0000000</ele>
        <time>2010-01-01T08:35:26Z</time>
      </trkpt>
      <trkpt lat="50.75688000" lon="9.946320000">
        <ele>0.0000000</ele>
        <time>2010-01-01T08:35:38Z</time>
      </trkpt>
      <trkpt lat="50.75708000" lon="9.945970000">
        <ele>0.0000000</ele>
        <time>2010-01-01T08:35:50Z</time>
      </trkpt>
      <trkpt lat="50.75728000" lon="9.945540000">
        <ele>0.0000000</ele>
        <time>2010-01-01T08:36:03Z</time>
      </trkpt>
      <trkpt lat="50.75738000" lon="9.945280000">
        <ele>0.0000000</ele>
        <time>2010-01-01T08:36:11Z</time>
      </trkpt>
      <trkpt lat="50.75754000" lon="9.945000000">
        <ele>0.0000000</ele>
        <time>2010-01-01T08:36:21Z</time>
      </trkpt>
      <trkpt lat="50.75765000" lon="9.944880000">
        <ele>0.0000000</ele>
        <time>2010-01-01T08:36:26Z</time>
      </trkpt>
      <trkpt lat="50.75769000" lon="9.944820000">
        <ele>0.0000000</ele>
        <time>2010-01-01T08:36:28Z</time>
      </trkpt>
      <trkpt lat="50.75770000" lon="9.944810000">
        <ele>0.0000000</ele>
        <time>2010-01-01T08:36:29Z</time>
      </trkpt>
      <trkpt lat="50.75780000" lon="9.944670000">
        <ele>0.0000000</ele>
        <time>2010-01-01T08:36:34Z</time>
      </trkpt>
      <trkpt lat="50.75797000" lon="9.944490000">
        <ele>0.0000000</ele>
        <time>2010-01-01T08:36:42Z</time>
      </trkpt>
      <trkpt lat="50.75798000" lon="9.944470000">
        <ele>0.0000000</ele>
        <time>2010-01-01T08:36:43Z</time>
      </trkpt>
      <trkpt lat="50.75812000" lon="9.944320000">
        <ele>0.0000000</ele>
        <time>2010-01-01T08:36:49Z</time>
      </trkpt>
      <trkpt lat="50.75813000" lon="9.944300000">
        <ele>0.0000000</ele>
        <time>2010-01-01T08:36:50Z</time>
      </trkpt>
      <trkpt lat="50.75884000" lon="9.943590000">
        <ele>0.0000000</ele>
        <time>2010-01-01T08:37:24Z</time>
      </trkpt>
      <trkpt lat="50.75932000" lon="9.943080000">
        <ele>0.0000000</ele>
        <time>2010-01-01T08:37:47Z</time>
      </trkpt>
      <trkpt lat="50.75970000" lon="9.942630000">
        <ele>0.0000000</ele>
        <time>2010-01-01T08:38:06Z</time>
      </trkpt>
      <trkpt lat="50.75992000" lon="9.942410000">
        <ele>0.0000000</ele>
        <time>2010-01-01T08:38:16Z</time>
      </trkpt>
      <trkpt lat="50.76045000" lon="9.942080000">
        <ele>0.0000000</ele>
        <time>2010-01-01T08:38:39Z</time>
      </trkpt>
      <trkpt lat="50.76109000" lon="9.941770000">
        <ele>0.0000000</ele>
        <time>2010-01-01T08:39:06Z</time>
      </trkpt>
      <trkpt lat="50.76143000" lon="9.941560000">
        <ele>0.0000000</ele>
        <time>2010-01-01T08:39:21Z</time>
      </trkpt>
      <trkpt lat="50.76168000" lon="9.941490000">
        <ele>0.0000000</ele>
        <time>2010-01-01T08:39:31Z</time>
      </trkpt>
      <trkpt lat="50.76206000" lon="9.941440000">
        <ele>0.0000000</ele>
        <time>2010-01-01T08:39:46Z</time>
      </trkpt>
      <trkpt lat="50.76297000" lon="9.941400000">
        <ele>0.0000000</ele>
        <time>2010-01-01T08:40:22Z</time>
      </trkpt>
      <trkpt lat="50.76360000" lon="9.941180000">
        <ele>0.0000000</ele>
        <time>2010-01-01T08:40:48Z</time>
      </trkpt>
      <trkpt lat="50.76435000" lon="9.940770000">
        <ele>0.0000000</ele>
        <time>2010-01-01T08:41:20Z</time>
      </trkpt>
      <trkpt lat="50.76465000" lon="9.940500000">
        <ele>0.0000000</ele>
        <time>2010-01-01T08:41:34Z</time>
      </trkpt>
      <trkpt lat="50.76486000" lon="9.940340000">
        <ele>0.0000000</ele>
        <time>2010-01-01T08:41:43Z</time>
      </trkpt>
      <trkpt lat="50.76521000" lon="9.940180000">
        <ele>0.0000000</ele>
        <time>2010-01-01T08:41:58Z</time>
      </trkpt>
      <trkpt lat="50.76553000" lon="9.940110000">
        <ele>0.0000000</ele>
        <time>2010-01-01T08:42:11Z</time>
      </trkpt>
      <trkpt lat="50.76557000" lon="9.940110000">
        <ele>0.0000000</ele>
        <time>2010-01-01T08:42:12Z</time>
      </trkpt>
      <trkpt lat="50.76672000" lon="9.940250000">
        <ele>0.0000000</ele>
        <time>2010-01-01T08:42:58Z</time>
      </trkpt>
      <trkpt lat="50.76677000" lon="9.940270000">
        <ele>0.0000000</ele>
        <time>2010-01-01T08:43:01Z</time>
      </trkpt>
      <trkpt lat="50.76734000" lon="9.940380000">
        <ele>0.0000000</ele>
        <time>2010-01-01T08:43:24Z</time>
      </trkpt>
      <trkpt lat="50.76881000" lon="9.940840000">
        <ele>0.0000000</ele>
        <time>2010-01-01T08:44:23Z</time>
      </trkpt>
      <trkpt lat="50.76915000" lon="9.940510000">
        <ele>0.0000000</ele>
        <time>2010-01-01T08:44:39Z</time>
      </trkpt>
      <trkpt lat="50.76924000" lon="9.940400000">
        <ele>0.0000000</ele>
        <time>2010-01-01T08:44:44Z</time>
      </trkpt>
      <trkpt lat="50.76951000" lon="9.939900000">
        <ele>0.0000000</ele>
        <time>2010-01-01T08:45:01Z</time>
      </trkpt>
      <trkpt lat="50.76956000" lon="9.939790000">
        <ele>0.0000000</ele>
        <time>2010-01-01T08:45:04Z</time>
      </trkpt>
      <trkpt lat="50.76957000" lon="9.939740000">
        <ele>0.0000000</ele>
        <time>2010-01-01T08:45:05Z</time>
      </trkpt>
      <trkpt lat="50.76957000" lon="9.939690000">
        <ele>0.0000000</ele>
        <time>2010-01-01T08:45:07Z</time>
      </trkpt>
      <trkpt lat="50.76975000" lon="9.937640000">
        <ele>0.0000000</ele>
        <time>2010-01-01T08:45:59Z</time>
      </trkpt>
      <trkpt lat="50.76975000" lon="9.937500000">
        <ele>0.0000000</ele>
        <time>2010-01-01T08:46:03Z</time>
      </trkpt>
      <trkpt lat="50.77014000" lon="9.936960000">
        <ele>0.0000000</ele>
        <time>2010-01-01T08:46:23Z</time>
      </trkpt>
      <trkpt lat="50.77031000" lon="9.936780000">
        <ele>0.0000000</ele>
        <time>2010-01-01T08:46:32Z</time>
      </trkpt>
      <trkpt lat="50.77082000" lon="9.936390000">
        <ele>0.0000000</ele>
        <time>2010-01-01T08:46:54Z</time>
      </trkpt>
      <trkpt lat="50.77092000" lon="9.936330000">
        <ele>0.0000000</ele>
        <time>2010-01-01T08:46:59Z</time>
      </trkpt>
      <trkpt lat="50.77118000" lon="9.936100000">
        <ele>0.0000000</ele>
        <time>2010-01-01T08:47:10Z</time>
      </trkpt>
      <trkpt lat="50.77158000" lon="9.935780000">
        <ele>0.0000000</ele>
        <time>2010-01-01T08:47:28Z</time>
      </trkpt>
      <trkpt lat="50.77186000" lon="9.935470000">
        <ele>0.0000000</ele>
        <time>2010-01-01T08:47:42Z</time>
      </trkpt>
      <trkpt lat="50.77242000" lon="9.934650000">
        <ele>0.0000000</ele>
        <time>2010-01-01T08:48:13Z</time>
      </trkpt>
      <trkpt lat="50.77283000" lon="9.934090000">
        <ele>0.0000000</ele>
        <time>2010-01-01T08:48:34Z</time>
      </trkpt>
      <trkpt lat="50.77293000" lon="9.933990000">
        <ele>0.0000000</ele>
        <time>2010-01-01T08:48:39Z</time>
      </trkpt>
      <trkpt lat="50.77308000" lon="9.933760000">
        <ele>0.0000000</ele>
        <time>2010-01-01T08:48:47Z</time>
      </trkpt>
      <trkpt lat="50.77315000" lon="9.933610000">
        <ele>0.0000000</ele>
        <time>2010-01-01T08:48:52Z</time>
      </trkpt>
      <trkpt lat="50.77318000" lon="9.933500000">
        <ele>0.0000000</ele>
        <time>2010-01-01T08:48:55Z</time>
      </trkpt>
      <trkpt lat="50.77318000" lon="9.933040000">
        <ele>0.0000000</ele>
        <time>2010-01-01T08:49:07Z</time>
      </trkpt>
      <trkpt lat="50.77317000" lon="9.932890000">
        <ele>0.0000000</ele>
        <time>2010-01-01T08:49:11Z</time>
      </trkpt>
      <trkpt lat="50.77318000" lon="9.932740000">
        <ele>0.0000000</ele>
        <time>2010-01-01T08:49:14Z</time>
      </trkpt>
      <trkpt lat="50.77319000" lon="9.932680000">
        <ele>0.0000000</ele>
        <time>2010-01-01T08:49:16Z</time>
      </trkpt>
      <trkpt lat="50.77322000" lon="9.932570000">
        <ele>0.0000000</ele>
        <time>2010-01-01T08:49:19Z</time>
      </trkpt>
      <trkpt lat="50.77324000" lon="9.932530000">
        <ele>0.0000000</ele>
        <time>2010-01-01T08:49:20Z</time>
      </trkpt>
      <trkpt lat="50.77335000" lon="9.932400000">
        <ele>0.0000000</ele>
        <time>2010-01-01T08:49:26Z</time>
      </trkpt>
      <trkpt lat="50.77370000" lon="9.932160000">
        <ele>0.0000000</ele>
        <time>2010-01-01T08:49:41Z</time>
      </trkpt>
      <trkpt lat="50.77399000" lon="9.931980000">
        <ele>0.0000000</ele>
        <time>2010-01-01T08:49:54Z</time>
      </trkpt>
      <trkpt lat="50.77440000" lon="9.931750000">
        <ele>0.0000000</ele>
        <time>2010-01-01T08:50:11Z</time>
      </trkpt>
      <trkpt lat="50.77466000" lon="9.931570000">
        <ele>0.0000000</ele>
        <time>2010-01-01T08:50:22Z</time>
      </trkpt>
      <trkpt lat="50.77485000" lon="9.931400000">
        <ele>0.0000000</ele>
        <time>2010-01-01T08:50:31Z</time>
      </trkpt>
      <trkpt lat="50.77508000" lon="9.931130000">
        <ele>0.0000000</ele>
        <time>2010-01-01T08:50:43Z</time>
      </trkpt>
      <trkpt lat="50.77570000" lon="9.930320000">
        <ele>0.0000000</ele>
        <time>2010-01-01T08:51:15Z</time>
      </trkpt>
      <trkpt lat="50.77576000" lon="9.930230000">
        <ele>0.0000000</ele>
        <time>2010-01-01T08:51:18Z</time>
      </trkpt>
      <trkpt lat="50.77585000" lon="9.930120000">
        <ele>0.0000000</ele>
        <time>2010-01-01T08:51:23Z</time>
      </trkpt>
      <trkpt lat="50.77603000" lon="9.929790000">
        <ele>0.0000000</ele>
        <time>2010-01-01T08:51:34Z</time>
      </trkpt>
      <trkpt lat="50.77621000" lon="9.929400000">
        <ele>0.0000000</ele>
        <time>2010-01-01T08:51:46Z</time>
      </trkpt>
      <trkpt lat="50.77625000" lon="9.929260000">
        <ele>0.0000000</ele>
        <time>2010-01-01T08:51:50Z</time>
      </trkpt>
      <trkpt lat="50.77701000" lon="9.927360000">
        <ele>0.0000000</ele>
        <time>2010-01-01T08:52:47Z</time>
      </trkpt>
      <trkpt lat="50.77786000" lon="9.925600000">
        <ele>0.0000000</ele>
        <time>2010-01-01T08:53:43Z</time>
      </trkpt>
      <trkpt lat="50.77808000" lon="9.925100000">
        <ele>0.0000000</ele>
        <time>2010-01-01T08:53:58Z</time>
      </trkpt>
      <trkpt lat="50.77815000" lon="9.924840000">
        <ele>0.0000000</ele>
        <time>2010-01-01T08:54:05Z</time>
      </trkpt>
      <trkpt lat="50.77820000" lon="9.924590000">
        <ele>0.0000000</ele>
        <time>2010-01-01T08:54:12Z</time>
      </trkpt>
      <trkpt lat="50.77838000" lon="9.924010000">
        <ele>0.0000000</ele>
        <time>2010-01-01T08:54:28Z</time>
      </trkpt>
      <trkpt lat="50.77869000" lon="9.923170000">
        <ele>0.0000000</ele>
        <time>2010-01-01T08:54:53Z</time>
      </trkpt>
      <trkpt lat="50.77880000" lon="9.922920000">
        <ele>0.0000000</ele>
        <time>2010-01-01T08:55:01Z</time>
      </trkpt>
      <trkpt lat="50.77882000" lon="9.922890000">
        <ele>0.0000000</ele>
        <time>2010-01-01T08:55:02Z</time>
      </trkpt>
      <trkpt lat="50.77886000" lon="9.922810000">
        <ele>0.0000000</ele>
        <time>2010-01-01T08:55:04Z</time>
      </trkpt>
      <trkpt lat="50.77903000" lon="9.922540000">
        <ele>0.0000000</ele>
        <time>2010-01-01T08:55:14Z</time>
      </trkpt>
      <trkpt lat="50.77905000" lon="9.922490000">
        <ele>0.0000000</ele>
        <time>2010-01-01T08:55:15Z</time>
      </trkpt>
      <trkpt lat="50.77907000" lon="9.922460000">
        <ele>0.0000000</ele>
        <time>2010-01-01T08:55:17Z</time>
      </trkpt>
      <trkpt lat="50.77912000" lon="9.922310000">
        <ele>0.0000000</ele>
        <time>2010-01-01T08:55:21Z</time>
      </trkpt>
      <trkpt lat="50.77913000" lon="9.922290000">
        <ele>0.0000000</ele>
        <time>2010-01-01T08:55:21Z</time>
      </trkpt>
      <trkpt lat="50.77913000" lon="9.922250000">
        <ele>0.0000000</ele>
        <time>2010-01-01T08:55:23Z</time>
      </trkpt>
      <trkpt lat="50.77915000" lon="9.922190000">
        <ele>0.0000000</ele>
        <time>2010-01-01T08:55:24Z</time>
      </trkpt>
      <trkpt lat="50.77950000" lon="9.920150000">
        <ele>0.0000000</ele>
        <time>2010-01-01T08:56:18Z</time>
      </trkpt>
      <trkpt lat="50.77960000" lon="9.919200000">
        <ele>0.0000000</ele>
        <time>2010-01-01T08:56:42Z</time>
      </trkpt>
      <trkpt lat="50.77963000" lon="9.919090000">
        <ele>0.0000000</ele>
        <time>2010-01-01T08:56:45Z</time>
      </trkpt>
      <trkpt lat="50.77969000" lon="9.918770000">
        <ele>0.0000000</ele>
        <time>2010-01-01T08:56:54Z</time>
      </trkpt>
      <trkpt lat="50.77992000" lon="9.917880000">
        <ele>0.0000000</ele>
        <time>2010-01-01T08:57:18Z</time>
      </trkpt>
      <trkpt lat="50.78002000" lon="9.917240000">
        <ele>0.0000000</ele>
        <time>2010-01-01T08:57:35Z</time>
      </trkpt>
      <trkpt lat="50.78006000" lon="9.917070000">
        <ele>0.0000000</ele>
        <time>2010-01-01T08:57:39Z</time>
      </trkpt>
      <trkpt lat="50.78010000" lon="9.916950000">
        <ele>0.0000000</ele>
        <time>2010-01-01T08:57:43Z</time>
      </trkpt>
      <trkpt lat="50.78042000" lon="9.916450000">
        <ele>0.0000000</ele>
        <time>2010-01-01T08:58:01Z</time>
      </trkpt>
      <trkpt lat="50.78074000" lon="9.915750000">
        <ele>0.0000000</ele>
        <time>2010-01-01T08:58:22Z</time>
      </trkpt>
      <trkpt lat="50.78088000" lon="9.915490000">
        <ele>0.0000000</ele>
        <time>2010-01-01T08:58:31Z</time>
      </trkpt>
      <trkpt lat="50.78095000" lon="9.915380000">
        <ele>0.0000000</ele>
        <time>2010-01-01T08:58:35Z</time>
      </trkpt>
      <trkpt lat="50.78102000" lon="9.915290000">
        <ele>0.0000000</ele>
        <time>2010-01-01T08:58:39Z</time>
      </trkpt>
      <trkpt lat="50.78105000" lon="9.915260000">
        <ele>0.0000000</ele>
        <time>2010-01-01T08:58:40Z</time>
      </trkpt>
      <trkpt lat="50.78113000" lon="9.915210000">
        <ele>0.0000000</ele>
        <time>2010-01-01T08:58:44Z</time>
      </trkpt>
      <trkpt lat="50.78114000" lon="9.915210000">
        <ele>0.0000000</ele>
        <time>2010-01-01T08:58:44Z</time>
      </trkpt>
      <trkpt lat="50.78118000" lon="9.915190000">
        <ele>0.0000000</ele>
        <time>2010-01-01T08:58:46Z</time>
      </trkpt>
      <trkpt lat="50.78121000" lon="9.915180000">
        <ele>0.0000000</ele>
        <time>2010-01-01T08:58:47Z</time>
      </trkpt>
      <trkpt lat="50.78138000" lon="9.915150000">
        <ele>0.0000000</ele>
        <time>2010-01-01T08:58:54Z</time>
      </trkpt>
      <trkpt lat="50.78152000" lon="9.915110000">
        <ele>0.0000000</ele>
        <time>2010-01-01T08:58:59Z</time>
      </trkpt>
      <trkpt lat="50.78174000" lon="9.915030000">
        <ele>0.0000000</ele>
        <time>2010-01-01T08:59:08Z</time>
      </trkpt>
      <trkpt lat="50.78178000" lon="9.915010000">
        <ele>0.0000000</ele>
        <time>2010-01-01T08:59:10Z</time>
      </trkpt>
      <trkpt lat="50.78208000" lon="9.914780000">
        <ele>0.0000000</ele>
        <time>2010-01-01T08:59:23Z</time>
      </trkpt>
      <trkpt lat="50.78211000" lon="9.914750000">
        <ele>0.0000000</ele>
        <time>2010-01-01T08:59:25Z</time>
      </trkpt>
      <trkpt lat="50.78216000" lon="9.914720000">
        <ele>0.0000000</ele>
        <time>2010-01-01T08:59:27Z</time>
      </trkpt>
      <trkpt lat="50.78218000" lon="9.914700000">
        <ele>0.0000000</ele>
        <time>2010-01-01T08:59:28Z</time>
      </trkpt>
      <trkpt lat="50.78221000" lon="9.914690000">
        <ele>0.0000000</ele>
        <time>2010-01-01T08:59:29Z</time>
      </trkpt>
      <trkpt lat="50.78225000" lon="9.914670000">
        <ele>0.0000000</ele>
        <time>2010-01-01T08:59:31Z</time>
      </trkpt>
      <trkpt lat="50.78237000" lon="9.914680000">
        <ele>0.0000000</ele>
        <time>2010-01-01T08:59:36Z</time>
      </trkpt>
      <trkpt lat="50.78241000" lon="9.914700000">
        <ele>0.0000000</ele>
        <time>2010-01-01T08:59:37Z</time>
      </trkpt>
      <trkpt lat="50.78246000" lon="9.914710000">
        <ele>0.0000000</ele>
        <time>2010-01-01T08:59:39Z</time>
      </trkpt>
      <trkpt lat="50.78251000" lon="9.914740000">
        <ele>0.0000000</ele>
        <time>2010-01-01T08:59:42Z</time>
      </trkpt>
      <trkpt lat="50.78252000" lon="9.914740000">
        <ele>0.0000000</ele>
        <time>2010-01-01T08:59:42Z</time>
      </trkpt>
      <trkpt lat="50.78261000" lon="9.914770000">
        <ele>0.0000000</ele>
        <time>2010-01-01T08:59:46Z</time>
      </trkpt>
      <trkpt lat="50.78269000" lon="9.914770000">
        <ele>0.0000000</ele>
        <time>2010-01-01T08:59:49Z</time>
      </trkpt>
      <trkpt lat="50.78295000" lon="9.914720000">
        <ele>0.0000000</ele>
        <time>2010-01-01T08:59:59Z</time>
      </trkpt>
      <trkpt lat="50.78305000" lon="9.914690000">
        <ele>0.0000000</ele>
        <time>2010-01-01T09:00:03Z</time>
      </trkpt>
      <trkpt lat="50.78322000" lon="9.914660000">
        <ele>0.0000000</ele>
        <time>2010-01-01T09:00:10Z</time>
      </trkpt>
      <trkpt lat="50.78334000" lon="9.915150000">
        <ele>0.0000000</ele>
        <time>2010-01-01T09:00:24Z</time>
      </trkpt>
      <trkpt lat="50.78336000" lon="9.915180000">
        <ele>0.0000000</ele>
        <time>2010-01-01T09:00:25Z</time>
      </trkpt>
      <trkpt lat="50.78337000" lon="9.915220000">
        <ele>0.0000000</ele>
        <time>2010-01-01T09:00:26Z</time>
      </trkpt>
      <trkpt lat="50.78340000" lon="9.915280000">
        <ele>0.0000000</ele>
        <time>2010-01-01T09:00:28Z</time>
      </trkpt>
      <trkpt lat="50.78342000" lon="9.915310000">
        <ele>0.0000000</ele>
        <time>2010-01-01T09:00:29Z</time>
      </trkpt>
      <trkpt lat="50.78344000" lon="9.915330000">
        <ele>0.0000000</ele>
        <time>2010-01-01T09:00:30Z</time>
      </trkpt>
      <trkpt lat="50.78346000" lon="9.915330000">
        <ele>0.0000000</ele>
        <time>2010-01-01T09:00:31Z</time>
      </trkpt>
      <trkpt lat="50.78350000" lon="9.915340000">
        <ele>0.0000000</ele>
        <time>2010-01-01T09:00:32Z</time>
      </trkpt>
      <trkpt lat="50.78378000" lon="9.915350000">
        <ele>0.0000000</ele>
        <time>2010-01-01T09:00:43Z</time>
      </trkpt>
      <trkpt lat="50.78390000" lon="9.915400000">
        <ele>0.0000000</ele>
        <time>2010-01-01T09:00:48Z</time>
      </trkpt>
      <trkpt lat="50.78398000" lon="9.915470000">
        <ele>0.0000000</ele>
        <time>2010-01-01T09:00:52Z</time>
      </trkpt>
      <trkpt lat="50.78409000" lon="9.915590000">
        <ele>0.0000000</ele>
        <time>2010-01-01T09:00:57Z</time>
      </trkpt>
      <trkpt lat="50.78413000" lon="9.915620000">
        <ele>0.0000000</ele>
        <time>2010-01-01T09:00:59Z</time>
      </trkpt>
      <trkpt lat="50.78416000" lon="9.915650000">
        <ele>0.0000000</ele>
        <time>2010-01-01T09:01:01Z</time>
      </trkpt>
      <trkpt lat="50.78421000" lon="9.915680000">
        <ele>0.0000000</ele>
        <time>2010-01-01T09:01:03Z</time>
      </trkpt>
      <trkpt lat="50.78425000" lon="9.915720000">
        <ele>0.0000000</ele>
        <time>2010-01-01T09:01:05Z</time>
      </trkpt>
      <trkpt lat="50.78433000" lon="9.915760000">
        <ele>0.0000000</ele>
        <time>2010-01-01T09:01:08Z</time>
      </trkpt>
      <trkpt lat="50.78472000" lon="9.915900000">
        <ele>0.0000000</ele>
        <time>2010-01-01T09:01:24Z</time>
      </trkpt>
      <trkpt lat="50.78487000" lon="9.915990000">
        <ele>0.0000000</ele>
        <time>2010-01-01T09:01:30Z</time>
      </trkpt>
      <trkpt lat="50.78494000" lon="9.916040000">
        <ele>0.0000000</ele>
        <time>2010-01-01T09:01:33Z</time>
      </trkpt>
      <trkpt lat="50.78506000" lon="9.916110000">
        <ele>0.0000000</ele>
        <time>2010-01-01T09:01:39Z</time>
      </trkpt>
      <trkpt lat="50.78520000" lon="9.916170000">
        <ele>0.0000000</ele>
        <time>2010-01-01T09:01:44Z</time>
      </trkpt>
      <trkpt lat="50.78530000" lon="9.916190000">
        <ele>0.0000000</ele>
        <time>2010-01-01T09:01:48Z</time>
      </trkpt>
      <trkpt lat="50.78540000" lon="9.916190000">
        <ele>0.0000000</ele>
        <time>2010-01-01T09:01:52Z</time>
      </trkpt>
      <trkpt lat="50.78548000" lon="9.916200000">
        <ele>0.0000000</ele>
        <time>2010-01-01T09:01:56Z</time>
      </trkpt>
      <trkpt lat="50.78597000" lon="9.916210000">
        <ele>0.0000000</ele>
        <time>2010-01-01T09:02:15Z</time>
      </trkpt>
      <trkpt lat="50.78604000" lon="9.916220000">
        <ele>0.0000000</ele>
        <time>2010-01-01T09:02:18Z</time>
      </trkpt>
      <trkpt lat="50.78615000" lon="9.916250000">
        <ele>0.0000000</ele>
        <time>2010-01-01T09:02:22Z</time>
      </trkpt>
      <trkpt lat="50.78623000" lon="9.916280000">
        <ele>0.0000000</ele>
        <time>2010-01-01T09:02:26Z</time>
      </trkpt>
      <trkpt lat="50.78629000" lon="9.916290000">
        <ele>0.0000000</ele>
        <time>2010-01-01T09:02:28Z</time>
      </trkpt>
      <trkpt lat="50.78689000" lon="9.916590000">
        <ele>0.0000000</ele>
        <time>2010-01-01T09:02:53Z</time>
      </trkpt>
      <trkpt lat="50.78715000" lon="9.916670000">
        <ele>0.0000000</ele>
        <time>2010-01-01T09:03:04Z</time>
      </trkpt>
      <trkpt lat="50.78790000" lon="9.916950000">
        <ele>0.0000000</ele>
        <time>2010-01-01T09:03:35Z</time>
      </trkpt>
      <trkpt lat="50.78815000" lon="9.917070000">
        <ele>0.0000000</ele>
        <time>2010-01-01T09:03:45Z</time>
      </trkpt>
      <trkpt lat="50.78831000" lon="9.917170000">
        <ele>0.0000000</ele>
        <time>2010-01-01T09:03:52Z</time>
      </trkpt>
      <trkpt lat="50.78905000" lon="9.917760000">
        <ele>0.0000000</ele>
        <time>2010-01-01T09:04:25Z</time>
      </trkpt>
      <trkpt lat="50.78930000" lon="9.917940000">
        <ele>0.0000000</ele>
        <time>2010-01-01T09:04:36Z</time>
      </trkpt>
      <trkpt lat="50.78949000" lon="9.918060000">
        <ele>0.0000000</ele>
        <time>2010-01-01T09:04:45Z</time>
      </trkpt>
      <trkpt lat="50.79047000" lon="9.918560000">
        <ele>0.0000000</ele>
        <time>2010-01-01T09:05:26Z</time>
      </trkpt>
      <trkpt lat="50.79071000" lon="9.918670000">
        <ele>0.0000000</ele>
        <time>2010-01-01T09:05:36Z</time>
      </trkpt>
      <trkpt lat="50.79084000" lon="9.918720000">
        <ele>0.0000000</ele>
        <time>2010-01-01T09:05:41Z</time>
      </trkpt>
      <trkpt lat="50.79103000" lon="9.918750000">
        <ele>0.0000000</ele>
        <time>2010-01-01T09:05:49Z</time>
      </trkpt>
      <trkpt lat="50.79124000" lon="9.918770000">
        <ele>0.0000000</ele>
        <time>2010-01-01T09:05:57Z</time>
      </trkpt>
      <trkpt lat="50.79136000" lon="9.918770000">
        <ele>0.0000000</ele>
        <time>2010-01-01T09:06:02Z</time>
      </trkpt>
      <trkpt lat="50.79149000" lon="9.918840000">
        <ele>0.0000000</ele>
        <time>2010-01-01T09:06:07Z</time>
      </trkpt>
      <trkpt lat="50.79154000" lon="9.918890000">
        <ele>0.0000000</ele>
        <time>2010-01-01T09:06:10Z</time>
      </trkpt>
      <trkpt lat="50.79166000" lon="9.918980000">
        <ele>0.0000000</ele>
        <time>2010-01-01T09:06:15Z</time>
      </trkpt>
      <trkpt lat="50.79173000" lon="9.919090000">
        <ele>0.0000000</ele>
        <time>2010-01-01T09:06:19Z</time>
      </trkpt>
      <trkpt lat="50.79228000" lon="9.919730000">
        <ele>0.0000000</ele>
        <time>2010-01-01T09:06:46Z</time>
      </trkpt>
      <trkpt lat="50.79247000" lon="9.919910000">
        <ele>0.0000000</ele>
        <time>2010-01-01T09:06:55Z</time>
      </trkpt>
      <trkpt lat="50.79249000" lon="9.919920000">
        <ele>0.0000000</ele>
        <time>2010-01-01T09:06:56Z</time>
      </trkpt>
      <trkpt lat="50.79268000" lon="9.920070000">
        <ele>0.0000000</ele>
        <time>2010-01-01T09:07:05Z</time>
      </trkpt>
      <trkpt lat="50.79357000" lon="9.920670000">
        <ele>0.0000000</ele>
        <time>2010-01-01T09:07:43Z</time>
      </trkpt>
      <trkpt lat="50.79401000" lon="9.921020000">
        <ele>0.0000000</ele>
        <time>2010-01-01T09:08:03Z</time>
      </trkpt>
      <trkpt lat="50.79444000" lon="9.921450000">
        <ele>0.0000000</ele>
        <time>2010-01-01T09:08:23Z</time>
      </trkpt>
      <trkpt lat="50.79493000" lon="9.921830000">
        <ele>0.0000000</ele>
        <time>2010-01-01T09:08:45Z</time>
      </trkpt>
      <trkpt lat="50.79511000" lon="9.921950000">
        <ele>0.0000000</ele>
        <time>2010-01-01T09:08:53Z</time>
      </trkpt>
      <trkpt lat="50.79598000" lon="9.922420000">
        <ele>0.0000000</ele>
        <time>2010-01-01T09:09:30Z</time>
      </trkpt>
      <trkpt lat="50.79610000" lon="9.922470000">
        <ele>0.0000000</ele>
        <time>2010-01-01T09:09:35Z</time>
      </trkpt>
      <trkpt lat="50.79639000" lon="9.922570000">
        <ele>0.0000000</ele>
        <time>2010-01-01T09:09:47Z</time>
      </trkpt>
      <trkpt lat="50.79642000" lon="9.922570000">
        <ele>0.0000000</ele>
        <time>2010-01-01T09:09:48Z</time>
      </trkpt>
      <trkpt lat="50.79644000" lon="9.922580000">
        <ele>0.0000000</ele>
        <time>2010-01-01T09:09:49Z</time>
      </trkpt>
      <trkpt lat="50.79669000" lon="9.922610000">
        <ele>0.0000000</ele>
        <time>2010-01-01T09:09:59Z</time>
      </trkpt>
      <trkpt lat="50.79792000" lon="9.922700000">
        <ele>0.0000000</ele>
        <time>2010-01-01T09:10:48Z</time>
      </trkpt>
      <trkpt lat="50.79824000" lon="9.922690000">
        <ele>0.0000000</ele>
        <time>2010-01-01T09:11:01Z</time>
      </trkpt>
      <trkpt lat="50.79848000" lon="9.922620000">
        <ele>0.0000000</ele>
        <time>2010-01-01T09:11:11Z</time>
      </trkpt>
      <trkpt lat="50.79862000" lon="9.922560000">
        <ele>0.0000000</ele>
        <time>2010-01-01T09:11:17Z</time>
      </trkpt>
      <trkpt lat="50.79892000" lon="9.922400000">
        <ele>0.0000000</ele>
        <time>2010-01-01T09:11:29Z</time>
      </trkpt>
      <trkpt lat="50.79966000" lon="9.921960000">
        <ele>0.0000000</ele>
        <time>2010-01-01T09:12:01Z</time>
      </trkpt>
      <trkpt lat="50.80034000" lon="9.921670000">
        <ele>0.0000000</ele>
        <time>2010-01-01T09:12:29Z</time>
      </trkpt>
      <trkpt lat="50.80231000" lon="9.920890000">
        <ele>0.0000000</ele>
        <time>2010-01-01T09:13:50Z</time>
      </trkpt>
      <trkpt lat="50.80254000" lon="9.920840000">
        <ele>0.0000000</ele>
        <time>2010-01-01T09:14:00Z</time>
      </trkpt>
      <trkpt lat="50.80301000" lon="9.920810000">
        <ele>0.0000000</ele>
        <time>2010-01-01T09:14:18Z</time>
      </trkpt>
      <trkpt lat="50.80314000" lon="9.920780000">
        <ele>0.0000000</ele>
        <time>2010-01-01T09:14:24Z</time>
      </trkpt>
      <trkpt lat="50.80333000" lon="9.920700000">
        <ele>0.0000000</ele>
        <time>2010-01-01T09:14:32Z</time>
      </trkpt>
      <trkpt lat="50.80406000" lon="9.920320000">
        <ele>0.0000000</ele>
        <time>2010-01-01T09:15:02Z</time>
      </trkpt>
      <trkpt lat="50.80449000" lon="9.920050000">
        <ele>0.0000000</ele>
        <time>2010-01-01T09:15:21Z</time>
      </trkpt>
      <trkpt lat="50.80459000" lon="9.920040000">
        <ele>0.0000000</ele>
        <time>2010-01-01T09:15:25Z</time>
      </trkpt>
      <trkpt lat="50.80469000" lon="9.920060000">
        <ele>0.0000000</ele>
        <time>2010-01-01T09:15:29Z</time>
      </trkpt>
      <trkpt lat="50.80480000" lon="9.920110000">
        <ele>0.0000000</ele>
        <time>2010-01-01T09:15:33Z</time>
      </trkpt>
      <trkpt lat="50.80512000" lon="9.920640000">
        <ele>0.0000000</ele>
        <time>2010-01-01T09:15:52Z</time>
      </trkpt>
      <trkpt lat="50.80524000" lon="9.920780000">
        <ele>0.0000000</ele>
        <time>2010-01-01T09:15:58Z</time>
      </trkpt>
      <trkpt lat="50.80536000" lon="9.920890000">
        <ele>0.0000000</ele>
        <time>2010-01-01T09:16:04Z</time>
      </trkpt>
      <trkpt lat="50.80550000" lon="9.921000000">
        <ele>0.0000000</ele>
        <time>2010-01-01T09:16:10Z</time>
      </trkpt>
      <trkpt lat="50.80555000" lon="9.921060000">
        <ele>0.0000000</ele>
        <time>2010-01-01T09:16:12Z</time>
      </trkpt>
      <trkpt lat="50.80596000" lon="9.921440000">
        <ele>0.0000000</ele>
        <time>2010-01-01T09:16:31Z</time>
      </trkpt>
      <trkpt lat="50.80633000" lon="9.921700000">
        <ele>0.0000000</ele>
        <time>2010-01-01T09:16:48Z</time>
      </trkpt>
      <trkpt lat="50.80656000" lon="9.921900000">
        <ele>0.0000000</ele>
        <time>2010-01-01T09:16:58Z</time>
      </trkpt>
      <trkpt lat="50.80696000" lon="9.922360000">
        <ele>0.0000000</ele>
        <time>2010-01-01T09:17:18Z</time>
      </trkpt>
      <trkpt lat="50.80743000" lon="9.922830000">
        <ele>0.0000000</ele>
        <time>2010-01-01T09:17:40Z</time>
      </trkpt>
      <trkpt lat="50.80771000" lon="9.923070000">
        <ele>0.0000000</ele>
        <time>2010-01-01T09:17:53Z</time>
      </trkpt>
      <trkpt lat="50.80785000" lon="9.923130000">
        <ele>0.0000000</ele>
        <time>2010-01-01T09:17:59Z</time>
      </trkpt>
      <trkpt lat="50.80797000" lon="9.923160000">
        <ele>0.0000000</ele>
        <time>2010-01-01T09:18:04Z</time>
      </trkpt>
      <trkpt lat="50.80811000" lon="9.923170000">
        <ele>0.0000000</ele>
        <time>2010-01-01T09:18:09Z</time>
      </trkpt>
      <trkpt lat="50.80826000" lon="9.923130000">
        <ele>0.0000000</ele>
        <time>2010-01-01T09:18:15Z</time>
      </trkpt>
      <trkpt lat="50.80834000" lon="9.923100000">
        <ele>0.0000000</ele>
        <time>2010-01-01T09:18:18Z</time>
      </trkpt>
      <trkpt lat="50.80844000" lon="9.923050000">
        <ele>0.0000000</ele>
        <time>2010-01-01T09:18:23Z</time>
      </trkpt>
      <trkpt lat="50.80877000" lon="9.922830000">
        <ele>0.0000000</ele>
        <time>2010-01-01T09:18:37Z</time>
      </trkpt>
      <trkpt lat="50.80918000" lon="9.922640000">
        <ele>0.0000000</ele>
        <time>2010-01-01T09:18:54Z</time>
      </trkpt>
      <trkpt lat="50.81228000" lon="9.921770000">
        <ele>0.0000000</ele>
        <time>2010-01-01T09:21:00Z</time>
      </trkpt>
      <trkpt lat="50.81237000" lon="9.921730000">
        <ele>0.0000000</ele>
        <time>2010-01-01T09:21:04Z</time>
      </trkpt>
      <trkpt lat="50.81241000" lon="9.921700000">
        <ele>0.0000000</ele>
        <time>2010-01-01T09:21:06Z</time>
      </trkpt>
      <trkpt lat="50.81244000" lon="9.921670000">
        <ele>0.0000000</ele>
        <time>2010-01-01T09:21:07Z</time>
      </trkpt>
      <trkpt lat="50.81248000" lon="9.921640000">
        <ele>0.0000000</ele>
        <time>2010-01-01T09:21:09Z</time>
      </trkpt>
      <trkpt lat="50.81251000" lon="9.921600000">
        <ele>0.0000000</ele>
        <time>2010-01-01T09:21:10Z</time>
      </trkpt>
      <trkpt lat="50.81258000" lon="9.921470000">
        <ele>0.0000000</ele>
        <time>2010-01-01T09:21:15Z</time>
      </trkpt>
      <trkpt lat="50.81260000" lon="9.921420000">
        <ele>0.0000000</ele>
        <time>2010-01-01T09:21:16Z</time>
      </trkpt>
      <trkpt lat="50.81261000" lon="9.921360000">
        <ele>0.0000000</ele>
        <time>2010-01-01T09:21:18Z</time>
      </trkpt>
      <trkpt lat="50.81263000" lon="9.921300000">
        <ele>0.0000000</ele>
        <time>2010-01-01T09:21:20Z</time>
      </trkpt>
      <trkpt lat="50.81264000" lon="9.921220000">
        <ele>0.0000000</ele>
        <time>2010-01-01T09:21:22Z</time>
      </trkpt>
      <trkpt lat="50.81274000" lon="9.919350000">
        <ele>0.0000000</ele>
        <time>2010-01-01T09:22:09Z</time>
      </trkpt>
      <trkpt lat="50.81278000" lon="9.919070000">
        <ele>0.0000000</ele>
        <time>2010-01-01T09:22:16Z</time>
      </trkpt>
      <trkpt lat="50.81282000" lon="9.918910000">
        <ele>0.0000000</ele>
        <time>2010-01-01T09:22:21Z</time>
      </trkpt>
      <trkpt lat="50.81293000" lon="9.918790000">
        <ele>0.0000000</ele>
        <time>2010-01-01T09:22:26Z</time>
      </trkpt>
      <trkpt lat="50.81419000" lon="9.918170000">
        <ele>0.0000000</ele>
        <time>2010-01-01T09:23:19Z</time>
      </trkpt>
      <trkpt lat="50.81435000" lon="9.918080000">
        <ele>0.0000000</ele>
        <time>2010-01-01T09:23:26Z</time>
      </trkpt>
      <trkpt lat="50.81445000" lon="9.917990000">
        <ele>0.0000000</ele>
        <time>2010-01-01T09:23:30Z</time>
      </trkpt>
      <trkpt lat="50.81502000" lon="9.917390000">
        <ele>0.0000000</ele>
        <time>2010-01-01T09:23:58Z</time>
      </trkpt>
      <trkpt lat="50.81808000" lon="9.913960000">
        <ele>0.0000000</ele>
        <time>2010-01-01T09:26:28Z</time>
      </trkpt>
      <trkpt lat="50.81866000" lon="9.913390000">
        <ele>0.0000000</ele>
        <time>2010-01-01T09:26:55Z</time>
      </trkpt>
      <trkpt lat="50.82003000" lon="9.912210000">
        <ele>0.0000000</ele>
        <time>2010-01-01T09:27:58Z</time>
      </trkpt>
      <trkpt lat="50.82059000" lon="9.911640000">
        <ele>0.0000000</ele>
        <time>2010-01-01T09:28:24Z</time>
      </trkpt>
      <trkpt lat="50.82102000" lon="9.911030000">
        <ele>0.0000000</ele>
        <time>2010-01-01T09:28:47Z</time>
      </trkpt>
      <trkpt lat="50.82132000" lon="9.910520000">
        <ele>0.0000000</ele>
        <time>2010-01-01T09:29:05Z</time>
      </trkpt>
      <trkpt lat="50.82181000" lon="9.909570000">
        <ele>0.0000000</ele>
        <time>2010-01-01T09:29:36Z</time>
      </trkpt>
      <trkpt lat="50.82205000" lon="9.909140000">
        <ele>0.0000000</ele>
        <time>2010-01-01T09:29:50Z</time>
      </trkpt>
      <trkpt lat="50.82220000" lon="9.908960000">
        <ele>0.0000000</ele>
        <time>2010-01-01T09:29:58Z</time>
      </trkpt>
      <trkpt lat="50.82221000" lon="9.908960000">
        <ele>0.0000000</ele>
        <time>2010-01-01T09:29:58Z</time>
      </trkpt>
      <trkpt lat="50.82230000" lon="9.908850000">
        <ele>0.0000000</ele>
        <time>2010-01-01T09:30:03Z</time>
      </trkpt>
      <trkpt lat="50.82237000" lon="9.908790000">
        <ele>0.0000000</ele>
        <time>2010-01-01T09:30:06Z</time>
      </trkpt>
      <trkpt lat="50.82204000" lon="9.907490000">
        <ele>0.0000000</ele>
        <time>2010-01-01T09:30:42Z</time>
      </trkpt>
      <trkpt lat="50.82170000" lon="9.905760000">
        <ele>0.0000000</ele>
        <time>2010-01-01T09:31:27Z</time>
      </trkpt>
      <trkpt lat="50.82165000" lon="9.905660000">
        <ele>0.0000000</ele>
        <time>2010-01-01T09:31:31Z</time>
      </trkpt>
      <trkpt lat="50.82136000" lon="9.904120000">
        <ele>0.0000000</ele>
        <time>2010-01-01T09:32:11Z</time>
      </trkpt>
      <trkpt lat="50.82099000" lon="9.902760000">
        <ele>0.0000000</ele>
        <time>2010-01-01T09:32:49Z</time>
      </trkpt>
      <trkpt lat="50.81953000" lon="9.898690000">
        <ele>0.0000000</ele>
        <time>2010-01-01T09:34:47Z</time>
      </trkpt>
      <trkpt lat="50.81911000" lon="9.897330000">
        <ele>0.0000000</ele>
        <time>2010-01-01T09:35:25Z</time>
      </trkpt>
      <trkpt lat="50.81882000" lon="9.896270000">
        <ele>0.0000000</ele>
        <time>2010-01-01T09:35:55Z</time>
      </trkpt>
      <trkpt lat="50.81842000" lon="9.894570000">
        <ele>0.0000000</ele>
        <time>2010-01-01T09:36:40Z</time>
      </trkpt>
      <trkpt lat="50.81801000" lon="9.892500000">
        <ele>0.0000000</ele>
        <time>2010-01-01T09:37:35Z</time>
      </trkpt>
      <trkpt lat="50.81789000" lon="9.891730000">
        <ele>0.0000000</ele>
        <time>2010-01-01T09:37:55Z</time>
      </trkpt>
      <trkpt lat="50.81770000" lon="9.890200000">
        <ele>0.0000000</ele>
        <time>2010-01-01T09:38:35Z</time>
      </trkpt>
      <trkpt lat="50.81760000" lon="9.888900000">
        <ele>0.0000000</ele>
        <time>2010-01-01T09:39:08Z</time>
      </trkpt>
      <trkpt lat="50.81756000" lon="9.887900000">
        <ele>0.0000000</ele>
        <time>2010-01-01T09:39:33Z</time>
      </trkpt>
      <trkpt lat="50.81756000" lon="9.887050000">
        <ele>0.0000000</ele>
        <time>2010-01-01T09:39:55Z</time>
      </trkpt>
      <trkpt lat="50.81762000" lon="9.886010000">
        <ele>0.0000000</ele>
        <time>2010-01-01T09:40:21Z</time>
      </trkpt>
      <trkpt lat="50.81772000" lon="9.884860000">
        <ele>0.0000000</ele>
        <time>2010-01-01T09:40:50Z</time>
      </trkpt>
      <trkpt lat="50.81784000" lon="9.884050000">
        <ele>0.0000000</ele>
        <time>2010-01-01T09:41:12Z</time>
      </trkpt>
      <trkpt lat="50.81846000" lon="9.880910000">
        <ele>0.0000000</ele>
        <time>2010-01-01T09:42:35Z</time>
      </trkpt>
      <trkpt lat="50.81854000" lon="9.880380000">
        <ele>0.0000000</ele>
        <time>2010-01-01T09:42:49Z</time>
      </trkpt>
      <trkpt lat="50.81860000" lon="9.879820000">
        <ele>0.0000000</ele>
        <time>2010-01-01T09:43:03Z</time>
      </trkpt>
      <trkpt lat="50.81864000" lon="9.878650000">
        <ele>0.0000000</ele>
        <time>2010-01-01T09:43:32Z</time>
      </trkpt>
      <trkpt lat="50.81861000" lon="9.877700000">
        <ele>0.0000000</ele>
        <time>2010-01-01T09:43:57Z</time>
      </trkpt>
      <trkpt lat="50.81819000" lon="9.874060000">
        <ele>0.0000000</ele>
        <time>2010-01-01T09:45:30Z</time>
      </trkpt>
      <trkpt lat="50.81797000" lon="9.870500000">
        <ele>0.0000000</ele>
        <time>2010-01-01T09:47:01Z</time>
      </trkpt>
      <trkpt lat="50.81783000" lon="9.869400000">
        <ele>0.0000000</ele>
        <time>2010-01-01T09:47:29Z</time>
      </trkpt>
      <trkpt lat="50.81772000" lon="9.868800000">
        <ele>0.0000000</ele>
        <time>2010-01-01T09:47:45Z</time>
      </trkpt>
      <trkpt lat="50.81755000" lon="9.868030000">
        <ele>0.0000000</ele>
        <time>2010-01-01T09:48:05Z</time>
      </trkpt>
      <trkpt lat="50.81723000" lon="9.866910000">
        <ele>0.0000000</ele>
        <time>2010-01-01T09:48:36Z</time>
      </trkpt>
      <trkpt lat="50.81683000" lon="9.865840000">
        <ele>0.0000000</ele>
        <time>2010-01-01T09:49:08Z</time>
      </trkpt>
      <trkpt lat="50.81646000" lon="9.864990000">
        <ele>0.0000000</ele>
        <time>2010-01-01T09:49:34Z</time>
      </trkpt>
      <trkpt lat="50.81545000" lon="9.862820000">
        <ele>0.0000000</ele>
        <time>2010-01-01T09:50:42Z</time>
      </trkpt>
      <trkpt lat="50.81525000" lon="9.862330000">
        <ele>0.0000000</ele>
        <time>2010-01-01T09:50:57Z</time>
      </trkpt>
      <trkpt lat="50.81494000" lon="9.861490000">
        <ele>0.0000000</ele>
        <time>2010-01-01T09:51:22Z</time>
      </trkpt>
      <trkpt lat="50.81470000" lon="9.860690000">
        <ele>0.0000000</ele>
        <time>2010-01-01T09:51:44Z</time>
      </trkpt>
      <trkpt lat="50.81445000" lon="9.859610000">
        <ele>0.0000000</ele>
        <time>2010-01-01T09:52:13Z</time>
      </trkpt>
      <trkpt lat="50.81433000" lon="9.858970000">
        <ele>0.0000000</ele>
        <time>2010-01-01T09:52:30Z</time>
      </trkpt>
      <trkpt lat="50.81424000" lon="9.858270000">
        <ele>0.0000000</ele>
        <time>2010-01-01T09:52:48Z</time>
      </trkpt>
      <trkpt lat="50.81415000" lon="9.856820000">
        <ele>0.0000000</ele>
        <time>2010-01-01T09:53:25Z</time>
      </trkpt>
      <trkpt lat="50.81413000" lon="9.856020000">
        <ele>0.0000000</ele>
        <time>2010-01-01T09:53:45Z</time>
      </trkpt>
      <trkpt lat="50.81415000" lon="9.853050000">
        <ele>0.0000000</ele>
        <time>2010-01-01T09:55:00Z</time>
      </trkpt>
      <trkpt lat="50.81413000" lon="9.852300000">
        <ele>0.0000000</ele>
        <time>2010-01-01T09:55:19Z</time>
      </trkpt>
      <trkpt lat="50.81406000" lon="9.851270000">
        <ele>0.0000000</ele>
        <time>2010-01-01T09:55:45Z</time>
      </trkpt>
      <trkpt lat="50.81389000" lon="9.850160000">
        <ele>0.0000000</ele>
        <time>2010-01-01T09:56:14Z</time>
      </trkpt>
      <trkpt lat="50.81383000" lon="9.849900000">
        <ele>0.0000000</ele>
        <time>2010-01-01T09:56:21Z</time>
      </trkpt>
      <trkpt lat="50.81378000" lon="9.849590000">
        <ele>0.0000000</ele>
        <time>2010-01-01T09:56:29Z</time>
      </trkpt>
      <trkpt lat="50.81366000" lon="9.849140000">
        <ele>0.0000000</ele>
        <time>2010-01-01T09:56:42Z</time>
      </trkpt>
      <trkpt lat="50.81366000" lon="9.849130000">
        <ele>0.0000000</ele>
        <time>2010-01-01T09:56:42Z</time>
      </trkpt>
      <trkpt lat="50.81340000" lon="9.848320000">
        <ele>0.0000000</ele>
        <time>2010-01-01T09:57:05Z</time>
      </trkpt>
      <trkpt lat="50.81308000" lon="9.847470000">
        <ele>0.0000000</ele>
        <time>2010-01-01T09:57:30Z</time>
      </trkpt>
      <trkpt lat="50.81283000" lon="9.846950000">
        <ele>0.0000000</ele>
        <time>2010-01-01T09:57:47Z</time>
      </trkpt>
      <trkpt lat="50.81259000" lon="9.846510000">
        <ele>0.0000000</ele>
        <time>2010-01-01T09:58:01Z</time>
      </trkpt>
      <trkpt lat="50.81253000" lon="9.846440000">
        <ele>0.0000000</ele>
        <time>2010-01-01T09:58:04Z</time>
      </trkpt>
      <trkpt lat="50.81220000" lon="9.845920000">
        <ele>0.0000000</ele>
        <time>2010-01-01T09:58:23Z</time>
      </trkpt>
      <trkpt lat="50.81172000" lon="9.845300000">
        <ele>0.0000000</ele>
        <time>2010-01-01T09:58:48Z</time>
      </trkpt>
      <trkpt lat="50.81156000" lon="9.845120000">
        <ele>0.0000000</ele>
        <time>2010-01-01T09:58:56Z</time>
      </trkpt>
      <trkpt lat="50.81095000" lon="9.844530000">
        <ele>0.0000000</ele>
        <time>2010-01-01T09:59:24Z</time>
      </trkpt>
      <trkpt lat="50.81079000" lon="9.844400000">
        <ele>0.0000000</ele>
        <time>2010-01-01T09:59:31Z</time>
      </trkpt>
      <trkpt lat="50.80977000" lon="9.843650000">
        <ele>0.0000000</ele>
        <time>2010-01-01T10:00:16Z</time>
      </trkpt>
      <trkpt lat="50.80890000" lon="9.842940000">
        <ele>0.0000000</ele>
        <time>2010-01-01T10:00:56Z</time>
      </trkpt>
      <trkpt lat="50.80821000" lon="9.842500000">
        <ele>0.0000000</ele>
        <time>2010-01-01T10:01:25Z</time>
      </trkpt>
      <trkpt lat="50.80778000" lon="9.842140000">
        <ele>0.0000000</ele>
        <time>2010-01-01T10:01:45Z</time>
      </trkpt>
      <trkpt lat="50.80721000" lon="9.841570000">
        <ele>0.0000000</ele>
        <time>2010-01-01T10:02:12Z</time>
      </trkpt>
      <trkpt lat="50.80682000" lon="9.841230000">
        <ele>0.0000000</ele>
        <time>2010-01-01T10:02:30Z</time>
      </trkpt>
      <trkpt lat="50.80665000" lon="9.841110000">
        <ele>0.0000000</ele>
        <time>2010-01-01T10:02:37Z</time>
      </trkpt>
      <trkpt lat="50.80660000" lon="9.841090000">
        <ele>0.0000000</ele>
        <time>2010-01-01T10:02:39Z</time>
      </trkpt>
      <trkpt lat="50.80430000" lon="9.839940000">
        <ele>0.0000000</ele>
        <time>2010-01-01T10:04:16Z</time>
      </trkpt>
      <trkpt lat="50.80375000" lon="9.839550000">
        <ele>0.0000000</ele>
        <time>2010-01-01T10:04:40Z</time>
      </trkpt>
      <trkpt lat="50.80333000" lon="9.839220000">
        <ele>0.0000000</ele>
        <time>2010-01-01T10:04:59Z</time>
      </trkpt>
      <trkpt lat="50.80294000" lon="9.838850000">
        <ele>0.0000000</ele>
        <time>2010-01-01T10:05:17Z</time>
      </trkpt>
      <trkpt lat="50.80233000" lon="9.838160000">
        <ele>0.0000000</ele>
        <time>2010-01-01T10:05:47Z</time>
      </trkpt>
      <trkpt lat="50.80204000" lon="9.837780000">
        <ele>0.0000000</ele>
        <time>2010-01-01T10:06:02Z</time>
      </trkpt>
      <trkpt lat="50.80157000" lon="9.837050000">
        <ele>0.0000000</ele>
        <time>2010-01-01T10:06:28Z</time>
      </trkpt>
      <trkpt lat="50.80133000" lon="9.836620000">
        <ele>0.0000000</ele>
        <time>2010-01-01T10:06:43Z</time>
      </trkpt>
      <trkpt lat="50.80066000" lon="9.835270000">
        <ele>0.0000000</ele>
        <time>2010-01-01T10:07:26Z</time>
      </trkpt>
      <trkpt lat="50.79986000" lon="9.833890000">
        <ele>0.0000000</ele>
        <time>2010-01-01T10:08:14Z</time>
      </trkpt>
      <trkpt lat="50.79976000" lon="9.833770000">
        <ele>0.0000000</ele>
        <time>2010-01-01T10:08:19Z</time>
      </trkpt>
      <trkpt lat="50.79966000" lon="9.833700000">
        <ele>0.0000000</ele>
        <time>2010-01-01T10:08:23Z</time>
      </trkpt>
      <trkpt lat="50.79954000" lon="9.833630000">
        <ele>0.0000000</ele>
        <time>2010-01-01T10:08:28Z</time>
      </trkpt>
      <trkpt lat="50.79941000" lon="9.833580000">
        <ele>0.0000000</ele>
        <time>2010-01-01T10:08:33Z</time>
      </trkpt>
      <trkpt lat="50.79930000" lon="9.833560000">
        <ele>0.0000000</ele>
        <time>2010-01-01T10:08:38Z</time>
      </trkpt>
      <trkpt lat="50.79928000" lon="9.833560000">
        <ele>0.0000000</ele>
        <time>2010-01-01T10:08:39Z</time>
      </trkpt>
      <trkpt lat="50.79921000" lon="9.833580000">
        <ele>0.0000000</ele>
        <time>2010-01-01T10:08:42Z</time>
      </trkpt>
      <trkpt lat="50.79916000" lon="9.833610000">
        <ele>0.0000000</ele>
        <time>2010-01-01T10:08:44Z</time>
      </trkpt>
      <trkpt lat="50.79908000" lon="9.833750000">
        <ele>0.0000000</ele>
        <time>2010-01-01T10:08:48Z</time>
      </trkpt>
      <trkpt lat="50.79897000" lon="9.834090000">
        <ele>0.0000000</ele>
        <time>2010-01-01T10:08:58Z</time>
      </trkpt>
      <trkpt lat="50.79859000" lon="9.834920000">
        <ele>0.0000000</ele>
        <time>2010-01-01T10:09:24Z</time>
      </trkpt>
      <trkpt lat="50.79847000" lon="9.835100000">
        <ele>0.0000000</ele>
        <time>2010-01-01T10:09:31Z</time>
      </trkpt>
      <trkpt lat="50.79828000" lon="9.835050000">
        <ele>0.0000000</ele>
        <time>2010-01-01T10:09:38Z</time>
      </trkpt>
      <trkpt lat="50.79816000" lon="9.835000000">
        <ele>0.0000000</ele>
        <time>2010-01-01T10:09:43Z</time>
      </trkpt>
      <trkpt lat="50.79786000" lon="9.834830000">
        <ele>0.0000000</ele>
        <time>2010-01-01T10:09:56Z</time>
      </trkpt>
      <trkpt lat="50.79765000" lon="9.834640000">
        <ele>0.0000000</ele>
        <time>2010-01-01T10:10:06Z</time>
      </trkpt>
      <trkpt lat="50.79715000" lon="9.834010000">
        <ele>0.0000000</ele>
        <time>2010-01-01T10:10:31Z</time>
      </trkpt>
      <trkpt lat="50.79699000" lon="9.833780000">
        <ele>0.0000000</ele>
        <time>2010-01-01T10:10:40Z</time>
      </trkpt>
      <trkpt lat="50.79679000" lon="9.833400000">
        <ele>0.0000000</ele>
        <time>2010-01-01T10:10:53Z</time>
      </trkpt>
      <trkpt lat="50.79667000" lon="9.833220000">
        <ele>0.0000000</ele>
        <time>2010-01-01T10:10:59Z</time>
      </trkpt>
      <trkpt lat="50.79655000" lon="9.833080000">
        <ele>0.0000000</ele>
        <time>2010-01-01T10:11:05Z</time>
      </trkpt>
      <trkpt lat="50.79643000" lon="9.832960000">
        <ele>0.0000000</ele>
        <time>2010-01-01T10:11:11Z</time>
      </trkpt>
      <trkpt lat="50.79633000" lon="9.832840000">
        <ele>0.0000000</ele>
        <time>2010-01-01T10:11:16Z</time>
      </trkpt>
      <trkpt lat="50.79629000" lon="9.832780000">
        <ele>0.0000000</ele>
        <time>2010-01-01T10:11:18Z</time>
      </trkpt>
      <trkpt lat="50.79624000" lon="9.832720000">
        <ele>0.0000000</ele>
        <time>2010-01-01T10:11:21Z</time>
      </trkpt>
      <trkpt lat="50.79620000" lon="9.832660000">
        <ele>0.0000000</ele>
        <time>2010-01-01T10:11:23Z</time>
      </trkpt>
      <trkpt lat="50.79608000" lon="9.832440000">
        <ele>0.0000000</ele>
        <time>2010-01-01T10:11:30Z</time>
      </trkpt>
      <trkpt lat="50.79588000" lon="9.832010000">
        <ele>0.0000000</ele>
        <time>2010-01-01T10:11:44Z</time>
      </trkpt>
      <trkpt lat="50.79575000" lon="9.831810000">
        <ele>0.0000000</ele>
        <time>2010-01-01T10:11:51Z</time>
      </trkpt>
      <trkpt lat="50.79544000" lon="9.831510000">
        <ele>0.0000000</ele>
        <time>2010-01-01T10:12:05Z</time>
      </trkpt>
      <trkpt lat="50.79512000" lon="9.831130000">
        <ele>0.0000000</ele>
        <time>2010-01-01T10:12:21Z</time>
      </trkpt>
      <trkpt lat="50.79489000" lon="9.830800000">
        <ele>0.0000000</ele>
        <time>2010-01-01T10:12:34Z</time>
      </trkpt>
      <trkpt lat="50.79444000" lon="9.830010000">
        <ele>0.0000000</ele>
        <time>2010-01-01T10:13:01Z</time>
      </trkpt>
      <trkpt lat="50.79330000" lon="9.827640000">
        <ele>0.0000000</ele>
        <time>2010-01-01T10:14:16Z</time>
      </trkpt>
      <trkpt lat="50.79307000" lon="9.827220000">
        <ele>0.0000000</ele>
        <time>2010-01-01T10:14:30Z</time>
      </trkpt>
      <trkpt lat="50.79269000" lon="9.826670000">
        <ele>0.0000000</ele>
        <time>2010-01-01T10:14:51Z</time>
      </trkpt>
      <trkpt lat="50.79224000" lon="9.826180000">
        <ele>0.0000000</ele>
        <time>2010-01-01T10:15:13Z</time>
      </trkpt>
      <trkpt lat="50.79206000" lon="9.826020000">
        <ele>0.0000000</ele>
        <time>2010-01-01T10:15:21Z</time>
      </trkpt>
      <trkpt lat="50.79183000" lon="9.825840000">
        <ele>0.0000000</ele>
        <time>2010-01-01T10:15:31Z</time>
      </trkpt>
      <trkpt lat="50.79166000" lon="9.825740000">
        <ele>0.0000000</ele>
        <time>2010-01-01T10:15:38Z</time>
      </trkpt>
      <trkpt lat="50.79108000" lon="9.825480000">
        <ele>0.0000000</ele>
        <time>2010-01-01T10:16:03Z</time>
      </trkpt>
      <trkpt lat="50.79092000" lon="9.825390000">
        <ele>0.0000000</ele>
        <time>2010-01-01T10:16:09Z</time>
      </trkpt>
      <trkpt lat="50.79059000" lon="9.825160000">
        <ele>0.0000000</ele>
        <time>2010-01-01T10:16:24Z</time>
      </trkpt>
      <trkpt lat="50.78987000" lon="9.824530000">
        <ele>0.0000000</ele>
        <time>2010-01-01T10:16:57Z</time>
      </trkpt>
      <trkpt lat="50.78954000" lon="9.824280000">
        <ele>0.0000000</ele>
        <time>2010-01-01T10:17:11Z</time>
      </trkpt>
      <trkpt lat="50.78843000" lon="9.823580000">
        <ele>0.0000000</ele>
        <time>2010-01-01T10:17:59Z</time>
      </trkpt>
      <trkpt lat="50.78632000" lon="9.822000000">
        <ele>0.0000000</ele>
        <time>2010-01-01T10:19:33Z</time>
      </trkpt>
      <trkpt lat="50.78599000" lon="9.821790000">
        <ele>0.0000000</ele>
        <time>2010-01-01T10:19:47Z</time>
      </trkpt>
      <trkpt lat="50.78470000" lon="9.821110000">
        <ele>0.0000000</ele>
        <time>2010-01-01T10:20:41Z</time>
      </trkpt>
      <trkpt lat="50.78420000" lon="9.820900000">
        <ele>0.0000000</ele>
        <time>2010-01-01T10:21:02Z</time>
      </trkpt>
      <trkpt lat="50.78329000" lon="9.820640000">
        <ele>0.0000000</ele>
        <time>2010-01-01T10:21:39Z</time>
      </trkpt>
      <trkpt lat="50.78310000" lon="9.820560000">
        <ele>0.0000000</ele>
        <time>2010-01-01T10:21:47Z</time>
      </trkpt>
      <trkpt lat="50.78275000" lon="9.820290000">
        <ele>0.0000000</ele>
        <time>2010-01-01T10:22:03Z</time>
      </trkpt>
      <trkpt lat="50.78264000" lon="9.820180000">
        <ele>0.0000000</ele>
        <time>2010-01-01T10:22:08Z</time>
      </trkpt>
      <trkpt lat="50.78248000" lon="9.819970000">
        <ele>0.0000000</ele>
        <time>2010-01-01T10:22:16Z</time>
      </trkpt>
      <trkpt lat="50.78231000" lon="9.819660000">
        <ele>0.0000000</ele>
        <time>2010-01-01T10:22:26Z</time>
      </trkpt>
      <trkpt lat="50.78215000" lon="9.819320000">
        <ele>0.0000000</ele>
        <time>2010-01-01T10:22:37Z</time>
      </trkpt>
      <trkpt lat="50.78206000" lon="9.819070000">
        <ele>0.0000000</ele>
        <time>2010-01-01T10:22:44Z</time>
      </trkpt>
      <trkpt lat="50.78177000" lon="9.818400000">
        <ele>0.0000000</ele>
        <time>2010-01-01T10:23:05Z</time>
      </trkpt>
      <trkpt lat="50.78150000" lon="9.817830000">
        <ele>0.0000000</ele>
        <time>2010-01-01T10:23:23Z</time>
      </trkpt>
      <trkpt lat="50.78115000" lon="9.817150000">
        <ele>0.0000000</ele>
        <time>2010-01-01T10:23:45Z</time>
      </trkpt>
      <trkpt lat="50.77963000" lon="9.813470000">
        <ele>0.0000000</ele>
        <time>2010-01-01T10:25:37Z</time>
      </trkpt>
      <trkpt lat="50.77911000" lon="9.812560000">
        <ele>0.0000000</ele>
        <time>2010-01-01T10:26:08Z</time>
      </trkpt>
      <trkpt lat="50.77823000" lon="9.811230000">
        <ele>0.0000000</ele>
        <time>2010-01-01T10:26:56Z</time>
      </trkpt>
      <trkpt lat="50.77710000" lon="9.809680000">
        <ele>0.0000000</ele>
        <time>2010-01-01T10:27:56Z</time>
      </trkpt>
      <trkpt lat="50.77697000" lon="9.809580000">
        <ele>0.0000000</ele>
        <time>2010-01-01T10:28:02Z</time>
      </trkpt>
      <trkpt lat="50.77673000" lon="9.809430000">
        <ele>0.0000000</ele>
        <time>2010-01-01T10:28:12Z</time>
      </trkpt>
      <trkpt lat="50.77639000" lon="9.809260000">
        <ele>0.0000000</ele>
        <time>2010-01-01T10:28:27Z</time>
      </trkpt>
      <trkpt lat="50.77631000" lon="9.809200000">
        <ele>0.0000000</ele>
        <time>2010-01-01T10:28:30Z</time>
      </trkpt>
      <trkpt lat="50.77621000" lon="9.809100000">
        <ele>0.0000000</ele>
        <time>2010-01-01T10:28:35Z</time>
      </trkpt>
      <trkpt lat="50.77609000" lon="9.809000000">
        <ele>0.0000000</ele>
        <time>2010-01-01T10:28:40Z</time>
      </trkpt>
      <trkpt lat="50.77573000" lon="9.808550000">
        <ele>0.0000000</ele>
        <time>2010-01-01T10:28:59Z</time>
      </trkpt>
      <trkpt lat="50.77562000" lon="9.808440000">
        <ele>0.0000000</ele>
        <time>2010-01-01T10:29:04Z</time>
      </trkpt>
      <trkpt lat="50.77549000" lon="9.808380000">
        <ele>0.0000000</ele>
        <time>2010-01-01T10:29:09Z</time>
      </trkpt>
      <trkpt lat="50.77535000" lon="9.808330000">
        <ele>0.0000000</ele>
        <time>2010-01-01T10:29:15Z</time>
      </trkpt>
      <trkpt lat="50.77519000" lon="9.808300000">
        <ele>0.0000000</ele>
        <time>2010-01-01T10:29:21Z</time>
      </trkpt>
      <trkpt lat="50.77487000" lon="9.808100000">
        <ele>0.0000000</ele>
        <time>2010-01-01T10:29:35Z</time>
      </trkpt>
      <trkpt lat="50.76863000" lon="9.803690000">
        <ele>0.0000000</ele>
        <time>2010-01-01T10:34:09Z</time>
      </trkpt>
      <trkpt lat="50.76597000" lon="9.801580000">
        <ele>0.0000000</ele>
        <time>2010-01-01T10:36:08Z</time>
      </trkpt>
      <trkpt lat="50.76582000" lon="9.801480000">
        <ele>0.0000000</ele>
        <time>2010-01-01T10:36:14Z</time>
      </trkpt>
      <trkpt lat="50.76577000" lon="9.801440000">
        <ele>0.0000000</ele>
        <time>2010-01-01T10:36:17Z</time>
      </trkpt>
      <trkpt lat="50.76566000" lon="9.801370000">
        <ele>0.0000000</ele>
        <time>2010-01-01T10:36:21Z</time>
      </trkpt>
      <trkpt lat="50.76561000" lon="9.801350000">
        <ele>0.0000000</ele>
        <time>2010-01-01T10:36:24Z</time>
      </trkpt>
      <trkpt lat="50.76547000" lon="9.801270000">
        <ele>0.0000000</ele>
        <time>2010-01-01T10:36:29Z</time>
      </trkpt>
      <trkpt lat="50.76502000" lon="9.801100000">
        <ele>0.0000000</ele>
        <time>2010-01-01T10:36:48Z</time>
      </trkpt>
      <trkpt lat="50.76480000" lon="9.801000000">
        <ele>0.0000000</ele>
        <time>2010-01-01T10:36:57Z</time>
      </trkpt>
      <trkpt lat="50.76459000" lon="9.800860000">
        <ele>0.0000000</ele>
        <time>2010-01-01T10:37:06Z</time>
      </trkpt>
      <trkpt lat="50.76442000" lon="9.800720000">
        <ele>0.0000000</ele>
        <time>2010-01-01T10:37:14Z</time>
      </trkpt>
      <trkpt lat="50.76387000" lon="9.800200000">
        <ele>0.0000000</ele>
        <time>2010-01-01T10:37:40Z</time>
      </trkpt>
      <trkpt lat="50.76322000" lon="9.799650000">
        <ele>0.0000000</ele>
        <time>2010-01-01T10:38:09Z</time>
      </trkpt>
      <trkpt lat="50.76284000" lon="9.799290000">
        <ele>0.0000000</ele>
        <time>2010-01-01T10:38:27Z</time>
      </trkpt>
      <trkpt lat="50.76271000" lon="9.799150000">
        <ele>0.0000000</ele>
        <time>2010-01-01T10:38:33Z</time>
      </trkpt>
      <trkpt lat="50.76261000" lon="9.799010000">
        <ele>0.0000000</ele>
        <time>2010-01-01T10:38:39Z</time>
      </trkpt>
      <trkpt lat="50.76258000" lon="9.798950000">
        <ele>0.0000000</ele>
        <time>2010-01-01T10:38:40Z</time>
      </trkpt>
      <trkpt lat="50.76251000" lon="9.798850000">
        <ele>0.0000000</ele>
        <time>2010-01-01T10:38:44Z</time>
      </trkpt>
      <trkpt lat="50.76233000" lon="9.798470000">
        <ele>0.0000000</ele>
        <time>2010-01-01T10:38:56Z</time>
      </trkpt>
      <trkpt lat="50.76227000" lon="9.798380000">
        <ele>0.0000000</ele>
        <time>2010-01-01T10:39:00Z</time>
      </trkpt>
      <trkpt lat="50.76190000" lon="9.797690000">
        <ele>0.0000000</ele>
        <time>2010-01-01T10:39:22Z</time>
      </trkpt>
      <trkpt lat="50.76186000" lon="9.797560000">
        <ele>0.0000000</ele>
        <time>2010-01-01T10:39:26Z</time>
      </trkpt>
      <trkpt lat="50.76166000" lon="9.797120000">
        <ele>0.0000000</ele>
        <time>2010-01-01T10:39:40Z</time>
      </trkpt>
      <trkpt lat="50.76135000" lon="9.796860000">
        <ele>0.0000000</ele>
        <time>2010-01-01T10:39:54Z</time>
      </trkpt>
      <trkpt lat="50.76129000" lon="9.796870000">
        <ele>0.0000000</ele>
        <time>2010-01-01T10:39:56Z</time>
      </trkpt>
      <trkpt lat="50.76089000" lon="9.796650000">
        <ele>0.0000000</ele>
        <time>2010-01-01T10:40:13Z</time>
      </trkpt>
      <trkpt lat="50.76085000" lon="9.796620000">
        <ele>0.0000000</ele>
        <time>2010-01-01T10:40:15Z</time>
      </trkpt>
      <trkpt lat="50.76080000" lon="9.796570000">
        <ele>0.0000000</ele>
        <time>2010-01-01T10:40:17Z</time>
      </trkpt>
      <trkpt lat="50.76073000" lon="9.796410000">
        <ele>0.0000000</ele>
        <time>2010-01-01T10:40:22Z</time>
      </trkpt>
      <trkpt lat="50.76071000" lon="9.796330000">
        <ele>0.0000000</ele>
        <time>2010-01-01T10:40:25Z</time>
      </trkpt>
      <trkpt lat="50.76070000" lon="9.796240000">
        <ele>0.0000000</ele>
        <time>2010-01-01T10:40:27Z</time>
      </trkpt>
      <trkpt lat="50.76066000" lon="9.796070000">
        <ele>0.0000000</ele>
        <time>2010-01-01T10:40:31Z</time>
      </trkpt>
      <trkpt lat="50.76062000" lon="9.795820000">
        <ele>0.0000000</ele>
        <time>2010-01-01T10:40:38Z</time>
      </trkpt>
      <trkpt lat="50.76050000" lon="9.795270000">
        <ele>0.0000000</ele>
        <time>2010-01-01T10:40:53Z</time>
      </trkpt>
      <trkpt lat="50.76046000" lon="9.795190000">
        <ele>0.0000000</ele>
        <time>2010-01-01T10:40:55Z</time>
      </trkpt>
      <trkpt lat="50.76039000" lon="9.795090000">
        <ele>0.0000000</ele>
        <time>2010-01-01T10:40:59Z</time>
      </trkpt>
      <trkpt lat="50.76034000" lon="9.795050000">
        <ele>0.0000000</ele>
        <time>2010-01-01T10:41:01Z</time>
      </trkpt>
      <trkpt lat="50.76030000" lon="9.795010000">
        <ele>0.0000000</ele>
        <time>2010-01-01T10:41:03Z</time>
      </trkpt>
      <trkpt lat="50.76025000" lon="9.794990000">
        <ele>0.0000000</ele>
        <time>2010-01-01T10:41:05Z</time>
      </trkpt>
      <trkpt lat="50.76021000" lon="9.794990000">
        <ele>0.0000000</ele>
        <time>2010-01-01T10:41:07Z</time>
      </trkpt>
      <trkpt lat="50.76014000" lon="9.795010000">
        <ele>0.0000000</ele>
        <time>2010-01-01T10:41:10Z</time>
      </trkpt>
      <trkpt lat="50.75986000" lon="9.795190000">
        <ele>0.0000000</ele>
        <time>2010-01-01T10:41:22Z</time>
      </trkpt>
      <trkpt lat="50.75975000" lon="9.795190000">
        <ele>0.0000000</ele>
        <time>2010-01-01T10:41:26Z</time>
      </trkpt>
      <trkpt lat="50.75973000" lon="9.795180000">
        <ele>0.0000000</ele>
        <time>2010-01-01T10:41:27Z</time>
      </trkpt>
      <trkpt lat="50.75972000" lon="9.795170000">
        <ele>0.0000000</ele>
        <time>2010-01-01T10:41:27Z</time>
      </trkpt>
      <trkpt lat="50.75969000" lon="9.795150000">
        <ele>0.0000000</ele>
        <time>2010-01-01T10:41:29Z</time>
      </trkpt>
      <trkpt lat="50.75967000" lon="9.795130000">
        <ele>0.0000000</ele>
        <time>2010-01-01T10:41:30Z</time>
      </trkpt>
      <trkpt lat="50.75958000" lon="9.794980000">
        <ele>0.0000000</ele>
        <time>2010-01-01T10:41:35Z</time>
      </trkpt>
      <trkpt lat="50.75932000" lon="9.794430000">
        <ele>0.0000000</ele>
        <time>2010-01-01T10:41:52Z</time>
      </trkpt>
      <trkpt lat="50.75927000" lon="9.794360000">
        <ele>0.0000000</ele>
        <time>2010-01-01T10:41:55Z</time>
      </trkpt>
      <trkpt lat="50.75921000" lon="9.794320000">
        <ele>0.0000000</ele>
        <time>2010-01-01T10:41:58Z</time>
      </trkpt>
      <trkpt lat="50.75921000" lon="9.794140000">
        <ele>0.0000000</ele>
        <time>2010-01-01T10:42:02Z</time>
      </trkpt>
      <trkpt lat="50.75920000" lon="9.794080000">
        <ele>0.0000000</ele>
        <time>2010-01-01T10:42:04Z</time>
      </trkpt>
      <trkpt lat="50.75920000" lon="9.794020000">
        <ele>0.0000000</ele>
        <time>2010-01-01T10:42:05Z</time>
      </trkpt>
      <trkpt lat="50.75917000" lon="9.793900000">
        <ele>0.0000000</ele>
        <time>2010-01-01T10:42:09Z</time>
      </trkpt>
      <trkpt lat="50.75910000" lon="9.793710000">
        <ele>0.0000000</ele>
        <time>2010-01-01T10:42:14Z</time>
      </trkpt>
      <trkpt lat="50.75908000" lon="9.793630000">
        <ele>0.0000000</ele>
        <time>2010-01-01T10:42:16Z</time>
      </trkpt>
      <trkpt lat="50.75883000" lon="9.792970000">
        <ele>0.0000000</ele>
        <time>2010-01-01T10:42:36Z</time>
      </trkpt>
      <trkpt lat="50.75864000" lon="9.792410000">
        <ele>0.0000000</ele>
        <time>2010-01-01T10:42:52Z</time>
      </trkpt>
      <trkpt lat="50.75851000" lon="9.792090000">
        <ele>0.0000000</ele>
        <time>2010-01-01T10:43:02Z</time>
      </trkpt>
      <trkpt lat="50.75838000" lon="9.791820000">
        <ele>0.0000000</ele>
        <time>2010-01-01T10:43:10Z</time>
      </trkpt>
      <trkpt lat="50.75797000" lon="9.791170000">
        <ele>0.0000000</ele>
        <time>2010-01-01T10:43:33Z</time>
      </trkpt>
      <trkpt lat="50.75781000" lon="9.790860000">
        <ele>0.0000000</ele>
        <time>2010-01-01T10:43:43Z</time>
      </trkpt>
      <trkpt lat="50.75776000" lon="9.790740000">
        <ele>0.0000000</ele>
        <time>2010-01-01T10:43:47Z</time>
      </trkpt>
      <trkpt lat="50.75768000" lon="9.790480000">
        <ele>0.0000000</ele>
        <time>2010-01-01T10:43:54Z</time>
      </trkpt>
      <trkpt lat="50.75762000" lon="9.790220000">
        <ele>0.0000000</ele>
        <time>2010-01-01T10:44:01Z</time>
      </trkpt>
      <trkpt lat="50.75757000" lon="9.789900000">
        <ele>0.0000000</ele>
        <time>2010-01-01T10:44:10Z</time>
      </trkpt>
      <trkpt lat="50.75735000" lon="9.787120000">
        <ele>0.0000000</ele>
        <time>2010-01-01T10:45:21Z</time>
      </trkpt>
      <trkpt lat="50.75735000" lon="9.787060000">
        <ele>0.0000000</ele>
        <time>2010-01-01T10:45:22Z</time>
      </trkpt>
      <trkpt lat="50.75734000" lon="9.787000000">
        <ele>0.0000000</ele>
        <time>2010-01-01T10:45:24Z</time>
      </trkpt>
      <trkpt lat="50.75736000" lon="9.786650000">
        <ele>0.0000000</ele>
        <time>2010-01-01T10:45:33Z</time>
      </trkpt>
      <trkpt lat="50.75749000" lon="9.785550000">
        <ele>0.0000000</ele>
        <time>2010-01-01T10:46:01Z</time>
      </trkpt>
      <trkpt lat="50.75749000" lon="9.785050000">
        <ele>0.0000000</ele>
        <time>2010-01-01T10:46:14Z</time>
      </trkpt>
      <trkpt lat="50.75745000" lon="9.784660000">
        <ele>0.0000000</ele>
        <time>2010-01-01T10:46:24Z</time>
      </trkpt>
      <trkpt lat="50.75735000" lon="9.784180000">
        <ele>0.0000000</ele>
        <time>2010-01-01T10:46:37Z</time>
      </trkpt>
      <trkpt lat="50.75706000" lon="9.783330000">
        <ele>0.0000000</ele>
        <time>2010-01-01T10:47:01Z</time>
      </trkpt>
      <trkpt lat="50.75702000" lon="9.783170000">
        <ele>0.0000000</ele>
        <time>2010-01-01T10:47:05Z</time>
      </trkpt>
      <trkpt lat="50.75697000" lon="9.782780000">
        <ele>0.0000000</ele>
        <time>2010-01-01T10:47:15Z</time>
      </trkpt>
      <trkpt lat="50.75697000" lon="9.782250000">
        <ele>0.0000000</ele>
        <time>2010-01-01T10:47:29Z</time>
      </trkpt>
      <trkpt lat="50.75698000" lon="9.782110000">
        <ele>0.0000000</ele>
        <time>2010-01-01T10:47:32Z</time>
      </trkpt>
      <trkpt lat="50.75719000" lon="9.780830000">
        <ele>0.0000000</ele>
        <time>2010-01-01T10:48:06Z</time>
      </trkpt>
      <trkpt lat="50.75722000" lon="9.780560000">
        <ele>0.0000000</ele>
        <time>2010-01-01T10:48:13Z</time>
      </trkpt>
      <trkpt lat="50.75725000" lon="9.780080000">
        <ele>0.0000000</ele>
        <time>2010-01-01T10:48:25Z</time>
      </trkpt>
      <trkpt lat="50.75731000" lon="9.776730000">
        <ele>0.0000000</ele>
        <time>2010-01-01T10:49:50Z</time>
      </trkpt>
      <trkpt lat="50.75730000" lon="9.776700000">
        <ele>0.0000000</ele>
        <time>2010-01-01T10:49:51Z</time>
      </trkpt>
      <trkpt lat="50.75729000" lon="9.776410000">
        <ele>0.0000000</ele>
        <time>2010-01-01T10:49:58Z</time>
      </trkpt>
      <trkpt lat="50.75723000" lon="9.775980000">
        <ele>0.0000000</ele>
        <time>2010-01-01T10:50:09Z</time>
      </trkpt>
      <trkpt lat="50.75721000" lon="9.775910000">
        <ele>0.0000000</ele>
        <time>2010-01-01T10:50:11Z</time>
      </trkpt>
      <trkpt lat="50.75720000" lon="9.775840000">
        <ele>0.0000000</ele>
        <time>2010-01-01T10:50:13Z</time>
      </trkpt>
      <trkpt lat="50.75627000" lon="9.772620000">
        <ele>0.0000000</ele>
        <time>2010-01-01T10:51:43Z</time>
      </trkpt>
      <trkpt lat="50.75617000" lon="9.772350000">
        <ele>0.0000000</ele>
        <time>2010-01-01T10:51:51Z</time>
      </trkpt>
      <trkpt lat="50.75587000" lon="9.771640000">
        <ele>0.0000000</ele>
        <time>2010-01-01T10:52:12Z</time>
      </trkpt>
      <trkpt lat="50.75576000" lon="9.771260000">
        <ele>0.0000000</ele>
        <time>2010-01-01T10:52:23Z</time>
      </trkpt>
      <trkpt lat="50.75569000" lon="9.770910000">
        <ele>0.0000000</ele>
        <time>2010-01-01T10:52:32Z</time>
      </trkpt>
      <trkpt lat="50.75564000" lon="9.770510000">
        <ele>0.0000000</ele>
        <time>2010-01-01T10:52:42Z</time>
      </trkpt>
      <trkpt lat="50.75560000" lon="9.769980000">
        <ele>0.0000000</ele>
        <time>2010-01-01T10:52:56Z</time>
      </trkpt>
      <trkpt lat="50.75550000" lon="9.769340000">
        <ele>0.0000000</ele>
        <time>2010-01-01T10:53:13Z</time>
      </trkpt>
      <trkpt lat="50.75545000" lon="9.769150000">
        <ele>0.0000000</ele>
        <time>2010-01-01T10:53:18Z</time>
      </trkpt>
      <trkpt lat="50.75530000" lon="9.768690000">
        <ele>0.0000000</ele>
        <time>2010-01-01T10:53:31Z</time>
      </trkpt>
      <trkpt lat="50.75509000" lon="9.768250000">
        <ele>0.0000000</ele>
        <time>2010-01-01T10:53:45Z</time>
      </trkpt>
      <trkpt lat="50.75461000" lon="9.767360000">
        <ele>0.0000000</ele>
        <time>2010-01-01T10:54:15Z</time>
      </trkpt>
      <trkpt lat="50.75455000" lon="9.767100000">
        <ele>0.0000000</ele>
        <time>2010-01-01T10:54:22Z</time>
      </trkpt>
      <trkpt lat="50.75455000" lon="9.767040000">
        <ele>0.0000000</ele>
        <time>2010-01-01T10:54:23Z</time>
      </trkpt>
      <trkpt lat="50.75454000" lon="9.766950000">
        <ele>0.0000000</ele>
        <time>2010-01-01T10:54:25Z</time>
      </trkpt>
      <trkpt lat="50.75454000" lon="9.766810000">
        <ele>0.0000000</ele>
        <time>2010-01-01T10:54:29Z</time>
      </trkpt>
      <trkpt lat="50.75458000" lon="9.766650000">
        <ele>0.0000000</ele>
        <time>2010-01-01T10:54:33Z</time>
      </trkpt>
      <trkpt lat="50.75451000" lon="9.766580000">
        <ele>0.0000000</ele>
        <time>2010-01-01T10:54:37Z</time>
      </trkpt>
      <trkpt lat="50.75446000" lon="9.766490000">
        <ele>0.0000000</ele>
        <time>2010-01-01T10:54:40Z</time>
      </trkpt>
      <trkpt lat="50.75435000" lon="9.766210000">
        <ele>0.0000000</ele>
        <time>2010-01-01T10:54:48Z</time>
      </trkpt>
      <trkpt lat="50.75423000" lon="9.765950000">
        <ele>0.0000000</ele>
        <time>2010-01-01T10:54:56Z</time>
      </trkpt>
      <trkpt lat="50.75393000" lon="9.765390000">
        <ele>0.0000000</ele>
        <time>2010-01-01T10:55:15Z</time>
      </trkpt>
      <trkpt lat="50.75380000" lon="9.765190000">
        <ele>0.0000000</ele>
        <time>2010-01-01T10:55:22Z</time>
      </trkpt>
      <trkpt lat="50.75359000" lon="9.764950000">
        <ele>0.0000000</ele>
        <time>2010-01-01T10:55:32Z</time>
      </trkpt>
      <trkpt lat="50.75326000" lon="9.764610000">
        <ele>0.0000000</ele>
        <time>2010-01-01T10:55:48Z</time>
      </trkpt>
      <trkpt lat="50.75307000" lon="9.764340000">
        <ele>0.0000000</ele>
        <time>2010-01-01T10:55:58Z</time>
      </trkpt>
      <trkpt lat="50.75296000" lon="9.764160000">
        <ele>0.0000000</ele>
        <time>2010-01-01T10:56:05Z</time>
      </trkpt>
      <trkpt lat="50.75256000" lon="9.763290000">
        <ele>0.0000000</ele>
        <time>2010-01-01T10:56:32Z</time>
      </trkpt>
      <trkpt lat="50.75228000" lon="9.762800000">
        <ele>0.0000000</ele>
        <time>2010-01-01T10:56:49Z</time>
      </trkpt>
      <trkpt lat="50.75218000" lon="9.762650000">
        <ele>0.0000000</ele>
        <time>2010-01-01T10:56:54Z</time>
      </trkpt>
      <trkpt lat="50.75162000" lon="9.761960000">
        <ele>0.0000000</ele>
        <time>2010-01-01T10:57:23Z</time>
      </trkpt>
      <trkpt lat="50.75060000" lon="9.760580000">
        <ele>0.0000000</ele>
        <time>2010-01-01T10:58:16Z</time>
      </trkpt>
      <trkpt lat="50.75034000" lon="9.760130000">
        <ele>0.0000000</ele>
        <time>2010-01-01T10:58:32Z</time>
      </trkpt>
      <trkpt lat="50.75019000" lon="9.759770000">
        <ele>0.0000000</ele>
        <time>2010-01-01T10:58:43Z</time>
      </trkpt>
      <trkpt lat="50.74987000" lon="9.758800000">
        <ele>0.0000000</ele>
        <time>2010-01-01T10:59:10Z</time>
      </trkpt>
      <trkpt lat="50.74925000" lon="9.756720000">
        <ele>0.0000000</ele>
        <time>2010-01-01T11:00:09Z</time>
      </trkpt>
      <trkpt lat="50.74900000" lon="9.755710000">
        <ele>0.0000000</ele>
        <time>2010-01-01T11:00:36Z</time>
      </trkpt>
      <trkpt lat="50.74896000" lon="9.755460000">
        <ele>0.0000000</ele>
        <time>2010-01-01T11:00:43Z</time>
      </trkpt>
      <trkpt lat="50.74897000" lon="9.754400000">
        <ele>0.0000000</ele>
        <time>2010-01-01T11:01:09Z</time>
      </trkpt>
      <trkpt lat="50.74898000" lon="9.754240000">
        <ele>0.0000000</ele>
        <time>2010-01-01T11:01:14Z</time>
      </trkpt>
      <trkpt lat="50.74898000" lon="9.753840000">
        <ele>0.0000000</ele>
        <time>2010-01-01T11:01:24Z</time>
      </trkpt>
      <trkpt lat="50.74896000" lon="9.753750000">
        <ele>0.0000000</ele>
        <time>2010-01-01T11:01:26Z</time>
      </trkpt>
      <trkpt lat="50.74893000" lon="9.753510000">
        <ele>0.0000000</ele>
        <time>2010-01-01T11:01:32Z</time>
      </trkpt>
      <trkpt lat="50.74873000" lon="9.752540000">
        <ele>0.0000000</ele>
        <time>2010-01-01T11:01:58Z</time>
      </trkpt>
      <trkpt lat="50.74871000" lon="9.752470000">
        <ele>0.0000000</ele>
        <time>2010-01-01T11:02:00Z</time>
      </trkpt>
      <trkpt lat="50.74863000" lon="9.752260000">
        <ele>0.0000000</ele>
        <time>2010-01-01T11:02:06Z</time>
      </trkpt>
      <trkpt lat="50.74852000" lon="9.752100000">
        <ele>0.0000000</ele>
        <time>2010-01-01T11:02:12Z</time>
      </trkpt>
      <trkpt lat="50.74820000" lon="9.751800000">
        <ele>0.0000000</ele>
        <time>2010-01-01T11:02:27Z</time>
      </trkpt>
      <trkpt lat="50.74808000" lon="9.751630000">
        <ele>0.0000000</ele>
        <time>2010-01-01T11:02:34Z</time>
      </trkpt>
      <trkpt lat="50.74795000" lon="9.751280000">
        <ele>0.0000000</ele>
        <time>2010-01-01T11:02:44Z</time>
      </trkpt>
      <trkpt lat="50.74778000" lon="9.750580000">
        <ele>0.0000000</ele>
        <time>2010-01-01T11:03:03Z</time>
      </trkpt>
      <trkpt lat="50.74777000" lon="9.750260000">
        <ele>0.0000000</ele>
        <time>2010-01-01T11:03:11Z</time>
      </trkpt>
      <trkpt lat="50.74781000" lon="9.749940000">
        <ele>0.0000000</ele>
        <time>2010-01-01T11:03:19Z</time>
      </trkpt>
      <trkpt lat="50.74782000" lon="9.749580000">
        <ele>0.0000000</ele>
        <time>2010-01-01T11:03:28Z</time>
      </trkpt>
      <trkpt lat="50.74781000" lon="9.749500000">
        <ele>0.0000000</ele>
        <time>2010-01-01T11:03:30Z</time>
      </trkpt>
      <trkpt lat="50.74777000" lon="9.749320000">
        <ele>0.0000000</ele>
        <time>2010-01-01T11:03:35Z</time>
      </trkpt>
      <trkpt lat="50.74772000" lon="9.749160000">
        <ele>0.0000000</ele>
        <time>2010-01-01T11:03:40Z</time>
      </trkpt>
      <trkpt lat="50.74766000" lon="9.749010000">
        <ele>0.0000000</ele>
        <time>2010-01-01T11:03:44Z</time>
      </trkpt>
      <trkpt lat="50.74761000" lon="9.748930000">
        <ele>0.0000000</ele>
        <time>2010-01-01T11:03:47Z</time>
      </trkpt>
      <trkpt lat="50.74757000" lon="9.748900000">
        <ele>0.0000000</ele>
        <time>2010-01-01T11:03:49Z</time>
      </trkpt>
      <trkpt lat="50.74749000" lon="9.748860000">
        <ele>0.0000000</ele>
        <time>2010-01-01T11:03:52Z</time>
      </trkpt>
      <trkpt lat="50.74743000" lon="9.748850000">
        <ele>0.0000000</ele>
        <time>2010-01-01T11:03:55Z</time>
      </trkpt>
      <trkpt lat="50.74715000" lon="9.748900000">
        <ele>0.0000000</ele>
        <time>2010-01-01T11:04:06Z</time>
      </trkpt>
      <trkpt lat="50.74703000" lon="9.748930000">
        <ele>0.0000000</ele>
        <time>2010-01-01T11:04:11Z</time>
      </trkpt>
      <trkpt lat="50.74691000" lon="9.748940000">
        <ele>0.0000000</ele>
        <time>2010-01-01T11:04:16Z</time>
      </trkpt>
      <trkpt lat="50.74677000" lon="9.748940000">
        <ele>0.0000000</ele>
        <time>2010-01-01T11:04:21Z</time>
      </trkpt>
      <trkpt lat="50.74670000" lon="9.748920000">
        <ele>0.0000000</ele>
        <time>2010-01-01T11:04:24Z</time>
      </trkpt>
      <trkpt lat="50.74664000" lon="9.748910000">
        <ele>0.0000000</ele>
        <time>2010-01-01T11:04:27Z</time>
      </trkpt>
      <trkpt lat="50.74644000" lon="9.748800000">
        <ele>0.0000000</ele>
        <time>2010-01-01T11:04:35Z</time>
      </trkpt>
      <trkpt lat="50.74628000" lon="9.748690000">
        <ele>0.0000000</ele>
        <time>2010-01-01T11:04:42Z</time>
      </trkpt>
      <trkpt lat="50.74594000" lon="9.748500000">
        <ele>0.0000000</ele>
        <time>2010-01-01T11:04:56Z</time>
      </trkpt>
      <trkpt lat="50.74585000" lon="9.748460000">
        <ele>0.0000000</ele>
        <time>2010-01-01T11:05:00Z</time>
      </trkpt>
      <trkpt lat="50.74577000" lon="9.748440000">
        <ele>0.0000000</ele>
        <time>2010-01-01T11:05:03Z</time>
      </trkpt>
      <trkpt lat="50.74564000" lon="9.748430000">
        <ele>0.0000000</ele>
        <time>2010-01-01T11:05:09Z</time>
      </trkpt>
      <trkpt lat="50.74548000" lon="9.748440000">
        <ele>0.0000000</ele>
        <time>2010-01-01T11:05:15Z</time>
      </trkpt>
      <trkpt lat="50.74493000" lon="9.748530000">
        <ele>0.0000000</ele>
        <time>2010-01-01T11:05:37Z</time>
      </trkpt>
      <trkpt lat="50.74474000" lon="9.748530000">
        <ele>0.0000000</ele>
        <time>2010-01-01T11:05:45Z</time>
      </trkpt>
      <trkpt lat="50.74409000" lon="9.748450000">
        <ele>0.0000000</ele>
        <time>2010-01-01T11:06:11Z</time>
      </trkpt>
      <trkpt lat="50.74394000" lon="9.748420000">
        <ele>0.0000000</ele>
        <time>2010-01-01T11:06:17Z</time>
      </trkpt>
      <trkpt lat="50.74325000" lon="9.748320000">
        <ele>0.0000000</ele>
        <time>2010-01-01T11:06:45Z</time>
      </trkpt>
      <trkpt lat="50.74286000" lon="9.748200000">
        <ele>0.0000000</ele>
        <time>2010-01-01T11:07:01Z</time>
      </trkpt>
      <trkpt lat="50.74273000" lon="9.748140000">
        <ele>0.0000000</ele>
        <time>2010-01-01T11:07:06Z</time>
      </trkpt>
      <trkpt lat="50.74258000" lon="9.748050000">
        <ele>0.0000000</ele>
        <time>2010-01-01T11:07:12Z</time>
      </trkpt>
      <trkpt lat="50.74192000" lon="9.747600000">
        <ele>0.0000000</ele>
        <time>2010-01-01T11:07:41Z</time>
      </trkpt>
      <trkpt lat="50.74179000" lon="9.747530000">
        <ele>0.0000000</ele>
        <time>2010-01-01T11:07:47Z</time>
      </trkpt>
      <trkpt lat="50.74168000" lon="9.747510000">
        <ele>0.0000000</ele>
        <time>2010-01-01T11:07:51Z</time>
      </trkpt>
      <trkpt lat="50.74160000" lon="9.747530000">
        <ele>0.0000000</ele>
        <time>2010-01-01T11:07:54Z</time>
      </trkpt>
      <trkpt lat="50.74158000" lon="9.747530000">
        <ele>0.0000000</ele>
        <time>2010-01-01T11:07:55Z</time>
      </trkpt>
      <trkpt lat="50.74155000" lon="9.747550000">
        <ele>0.0000000</ele>
        <time>2010-01-01T11:07:56Z</time>
      </trkpt>
      <trkpt lat="50.74150000" lon="9.747570000">
        <ele>0.0000000</ele>
        <time>2010-01-01T11:07:59Z</time>
      </trkpt>
      <trkpt lat="50.74060000" lon="9.748070000">
        <ele>0.0000000</ele>
        <time>2010-01-01T11:08:37Z</time>
      </trkpt>
      <trkpt lat="50.74047000" lon="9.748130000">
        <ele>0.0000000</ele>
        <time>2010-01-01T11:08:42Z</time>
      </trkpt>
      <trkpt lat="50.74042000" lon="9.748140000">
        <ele>0.0000000</ele>
        <time>2010-01-01T11:08:44Z</time>
      </trkpt>
      <trkpt lat="50.74038000" lon="9.748140000">
        <ele>0.0000000</ele>
        <time>2010-01-01T11:08:46Z</time>
      </trkpt>
      <trkpt lat="50.74035000" lon="9.748130000">
        <ele>0.0000000</ele>
        <time>2010-01-01T11:08:47Z</time>
      </trkpt>
      <trkpt lat="50.74018000" lon="9.748100000">
        <ele>0.0000000</ele>
        <time>2010-01-01T11:08:54Z</time>
      </trkpt>
      <trkpt lat="50.74014000" lon="9.748080000">
        <ele>0.0000000</ele>
        <time>2010-01-01T11:08:55Z</time>
      </trkpt>
      <trkpt lat="50.73998000" lon="9.748030000">
        <ele>0.0000000</ele>
        <time>2010-01-01T11:09:02Z</time>
      </trkpt>
      <trkpt lat="50.73985000" lon="9.747970000">
        <ele>0.0000000</ele>
        <time>2010-01-01T11:09:07Z</time>
      </trkpt>
      <trkpt lat="50.73945000" lon="9.747750000">
        <ele>0.0000000</ele>
        <time>2010-01-01T11:09:24Z</time>
      </trkpt>
      <trkpt lat="50.73923000" lon="9.747680000">
        <ele>0.0000000</ele>
        <time>2010-01-01T11:09:33Z</time>
      </trkpt>
      <trkpt lat="50.73888000" lon="9.747640000">
        <ele>0.0000000</ele>
        <time>2010-01-01T11:09:47Z</time>
      </trkpt>
      <trkpt lat="50.73839000" lon="9.747620000">
        <ele>0.0000000</ele>
        <time>2010-01-01T11:10:07Z</time>
      </trkpt>
      <trkpt lat="50.73675000" lon="9.747250000">
        <ele>0.0000000</ele>
        <time>2010-01-01T11:11:13Z</time>
      </trkpt>
      <trkpt lat="50.73631000" lon="9.747120000">
        <ele>0.0000000</ele>
        <time>2010-01-01T11:11:31Z</time>
      </trkpt>
      <trkpt lat="50.73537000" lon="9.746730000">
        <ele>0.0000000</ele>
        <time>2010-01-01T11:12:10Z</time>
      </trkpt>
      <trkpt lat="50.73528000" lon="9.746700000">
        <ele>0.0000000</ele>
        <time>2010-01-01T11:12:14Z</time>
      </trkpt>
      <trkpt lat="50.73520000" lon="9.746690000">
        <ele>0.0000000</ele>
        <time>2010-01-01T11:12:17Z</time>
      </trkpt>
      <trkpt lat="50.73516000" lon="9.746680000">
        <ele>0.0000000</ele>
        <time>2010-01-01T11:12:19Z</time>
      </trkpt>
      <trkpt lat="50.73510000" lon="9.746680000">
        <ele>0.0000000</ele>
        <time>2010-01-01T11:12:21Z</time>
      </trkpt>
      <trkpt lat="50.73493000" lon="9.746700000">
        <ele>0.0000000</ele>
        <time>2010-01-01T11:12:28Z</time>
      </trkpt>
      <trkpt lat="50.73487000" lon="9.746720000">
        <ele>0.0000000</ele>
        <time>2010-01-01T11:12:30Z</time>
      </trkpt>
      <trkpt lat="50.73479000" lon="9.746760000">
        <ele>0.0000000</ele>
        <time>2010-01-01T11:12:34Z</time>
      </trkpt>
      <trkpt lat="50.73398000" lon="9.747480000">
        <ele>0.0000000</ele>
        <time>2010-01-01T11:13:11Z</time>
      </trkpt>
      <trkpt lat="50.73361000" lon="9.747750000">
        <ele>0.0000000</ele>
        <time>2010-01-01T11:13:27Z</time>
      </trkpt>
      <trkpt lat="50.73347000" lon="9.747830000">
        <ele>0.0000000</ele>
        <time>2010-01-01T11:13:33Z</time>
      </trkpt>
      <trkpt lat="50.73328000" lon="9.747890000">
        <ele>0.0000000</ele>
        <time>2010-01-01T11:13:41Z</time>
      </trkpt>
      <trkpt lat="50.73208000" lon="9.748190000">
        <ele>0.0000000</ele>
        <time>2010-01-01T11:14:30Z</time>
      </trkpt>
      <trkpt lat="50.73189000" lon="9.748210000">
        <ele>0.0000000</ele>
        <time>2010-01-01T11:14:37Z</time>
      </trkpt>
      <trkpt lat="50.73178000" lon="9.748210000">
        <ele>0.0000000</ele>
        <time>2010-01-01T11:14:42Z</time>
      </trkpt>
      <trkpt lat="50.73167000" lon="9.748190000">
        <ele>0.0000000</ele>
        <time>2010-01-01T11:14:46Z</time>
      </trkpt>
      <trkpt lat="50.73152000" lon="9.748150000">
        <ele>0.0000000</ele>
        <time>2010-01-01T11:14:52Z</time>
      </trkpt>
      <trkpt lat="50.73138000" lon="9.748090000">
        <ele>0.0000000</ele>
        <time>2010-01-01T11:14:58Z</time>
      </trkpt>
      <trkpt lat="50.73047000" lon="9.747460000">
        <ele>0.0000000</ele>
        <time>2010-01-01T11:15:38Z</time>
      </trkpt>
      <trkpt lat="50.73033000" lon="9.747350000">
        <ele>0.0000000</ele>
        <time>2010-01-01T11:15:44Z</time>
      </trkpt>
      <trkpt lat="50.72996000" lon="9.746940000">
        <ele>0.0000000</ele>
        <time>2010-01-01T11:16:02Z</time>
      </trkpt>
      <trkpt lat="50.72994000" lon="9.746910000">
        <ele>0.0000000</ele>
        <time>2010-01-01T11:16:03Z</time>
      </trkpt>
      <trkpt lat="50.72991000" lon="9.746890000">
        <ele>0.0000000</ele>
        <time>2010-01-01T11:16:05Z</time>
      </trkpt>
      <trkpt lat="50.72989000" lon="9.746860000">
        <ele>0.0000000</ele>
        <time>2010-01-01T11:16:06Z</time>
      </trkpt>
      <trkpt lat="50.72973000" lon="9.746680000">
        <ele>0.0000000</ele>
        <time>2010-01-01T11:16:13Z</time>
      </trkpt>
      <trkpt lat="50.72899000" lon="9.746170000">
        <ele>0.0000000</ele>
        <time>2010-01-01T11:16:46Z</time>
      </trkpt>
      <trkpt lat="50.72874000" lon="9.745940000">
        <ele>0.0000000</ele>
        <time>2010-01-01T11:16:57Z</time>
      </trkpt>
      <trkpt lat="50.72856000" lon="9.745700000">
        <ele>0.0000000</ele>
        <time>2010-01-01T11:17:07Z</time>
      </trkpt>
      <trkpt lat="50.72841000" lon="9.745420000">
        <ele>0.0000000</ele>
        <time>2010-01-01T11:17:16Z</time>
      </trkpt>
      <trkpt lat="50.72828000" lon="9.745060000">
        <ele>0.0000000</ele>
        <time>2010-01-01T11:17:27Z</time>
      </trkpt>
      <trkpt lat="50.72818000" lon="9.744720000">
        <ele>0.0000000</ele>
        <time>2010-01-01T11:17:36Z</time>
      </trkpt>
      <trkpt lat="50.72808000" lon="9.744150000">
        <ele>0.0000000</ele>
        <time>2010-01-01T11:17:51Z</time>
      </trkpt>
      <trkpt lat="50.72790000" lon="9.742140000">
        <ele>0.0000000</ele>
        <time>2010-01-01T11:18:43Z</time>
      </trkpt>
      <trkpt lat="50.72786000" lon="9.741470000">
        <ele>0.0000000</ele>
        <time>2010-01-01T11:19:00Z</time>
      </trkpt>
      <trkpt lat="50.72789000" lon="9.740820000">
        <ele>0.0000000</ele>
        <time>2010-01-01T11:19:16Z</time>
      </trkpt>
      <trkpt lat="50.72788000" lon="9.740530000">
        <ele>0.0000000</ele>
        <time>2010-01-01T11:19:23Z</time>
      </trkpt>
      <trkpt lat="50.72786000" lon="9.740390000">
        <ele>0.0000000</ele>
        <time>2010-01-01T11:19:27Z</time>
      </trkpt>
      <trkpt lat="50.72782000" lon="9.740260000">
        <ele>0.0000000</ele>
        <time>2010-01-01T11:19:31Z</time>
      </trkpt>
      <trkpt lat="50.72769000" lon="9.739940000">
        <ele>0.0000000</ele>
        <time>2010-01-01T11:19:40Z</time>
      </trkpt>
      <trkpt lat="50.72707000" lon="9.738870000">
        <ele>0.0000000</ele>
        <time>2010-01-01T11:20:17Z</time>
      </trkpt>
      <trkpt lat="50.72656000" lon="9.738090000">
        <ele>0.0000000</ele>
        <time>2010-01-01T11:20:46Z</time>
      </trkpt>
      <trkpt lat="50.72531000" lon="9.736430000">
        <ele>0.0000000</ele>
        <time>2010-01-01T11:21:51Z</time>
      </trkpt>
      <trkpt lat="50.72510000" lon="9.736070000">
        <ele>0.0000000</ele>
        <time>2010-01-01T11:22:03Z</time>
      </trkpt>
      <trkpt lat="50.72483000" lon="9.735410000">
        <ele>0.0000000</ele>
        <time>2010-01-01T11:22:23Z</time>
      </trkpt>
      <trkpt lat="50.72464000" lon="9.734990000">
        <ele>0.0000000</ele>
        <time>2010-01-01T11:22:36Z</time>
      </trkpt>
      <trkpt lat="50.72285000" lon="9.732350000">
        <ele>0.0000000</ele>
        <time>2010-01-01T11:24:14Z</time>
      </trkpt>
      <trkpt lat="50.72259000" lon="9.731920000">
        <ele>0.0000000</ele>
        <time>2010-01-01T11:24:29Z</time>
      </trkpt>
      <trkpt lat="50.72249000" lon="9.731700000">
        <ele>0.0000000</ele>
        <time>2010-01-01T11:24:36Z</time>
      </trkpt>
      <trkpt lat="50.72234000" lon="9.731310000">
        <ele>0.0000000</ele>
        <time>2010-01-01T11:24:48Z</time>
      </trkpt>
      <trkpt lat="50.72218000" lon="9.730640000">
        <ele>0.0000000</ele>
        <time>2010-01-01T11:25:06Z</time>
      </trkpt>
      <trkpt lat="50.72205000" lon="9.729990000">
        <ele>0.0000000</ele>
        <time>2010-01-01T11:25:23Z</time>
      </trkpt>
      <trkpt lat="50.72196000" lon="9.729700000">
        <ele>0.0000000</ele>
        <time>2010-01-01T11:25:31Z</time>
      </trkpt>
      <trkpt lat="50.72188000" lon="9.729510000">
        <ele>0.0000000</ele>
        <time>2010-01-01T11:25:37Z</time>
      </trkpt>
      <trkpt lat="50.72179000" lon="9.729340000">
        <ele>0.0000000</ele>
        <time>2010-01-01T11:25:43Z</time>
      </trkpt>
      <trkpt lat="50.72152000" lon="9.728930000">
        <ele>0.0000000</ele>
        <time>2010-01-01T11:25:58Z</time>
      </trkpt>
      <trkpt lat="50.72134000" lon="9.728690000">
        <ele>0.0000000</ele>
        <time>2010-01-01T11:26:07Z</time>
      </trkpt>
      <trkpt lat="50.72112000" lon="9.728510000">
        <ele>0.0000000</ele>
        <time>2010-01-01T11:26:17Z</time>
      </trkpt>
      <trkpt lat="50.72031000" lon="9.727960000">
        <ele>0.0000000</ele>
        <time>2010-01-01T11:26:52Z</time>
      </trkpt>
      <trkpt lat="50.72008000" lon="9.727760000">
        <ele>0.0000000</ele>
        <time>2010-01-01T11:27:03Z</time>
      </trkpt>
      <trkpt lat="50.71994000" lon="9.727610000">
        <ele>0.0000000</ele>
        <time>2010-01-01T11:27:10Z</time>
      </trkpt>
      <trkpt lat="50.71822000" lon="9.725430000">
        <ele>0.0000000</ele>
        <time>2010-01-01T11:28:38Z</time>
      </trkpt>
      <trkpt lat="50.71799000" lon="9.725060000">
        <ele>0.0000000</ele>
        <time>2010-01-01T11:28:51Z</time>
      </trkpt>
      <trkpt lat="50.71788000" lon="9.724860000">
        <ele>0.0000000</ele>
        <time>2010-01-01T11:28:58Z</time>
      </trkpt>
      <trkpt lat="50.71775000" lon="9.724550000">
        <ele>0.0000000</ele>
        <time>2010-01-01T11:29:07Z</time>
      </trkpt>
      <trkpt lat="50.71728000" lon="9.723210000">
        <ele>0.0000000</ele>
        <time>2010-01-01T11:29:46Z</time>
      </trkpt>
      <trkpt lat="50.71681000" lon="9.722040000">
        <ele>0.0000000</ele>
        <time>2010-01-01T11:30:21Z</time>
      </trkpt>
      <trkpt lat="50.71644000" lon="9.721250000">
        <ele>0.0000000</ele>
        <time>2010-01-01T11:30:46Z</time>
      </trkpt>
      <trkpt lat="50.71625000" lon="9.720920000">
        <ele>0.0000000</ele>
        <time>2010-01-01T11:30:57Z</time>
      </trkpt>
      <trkpt lat="50.71607000" lon="9.720650000">
        <ele>0.0000000</ele>
        <time>2010-01-01T11:31:07Z</time>
      </trkpt>
      <trkpt lat="50.71586000" lon="9.720370000">
        <ele>0.0000000</ele>
        <time>2010-01-01T11:31:18Z</time>
      </trkpt>
      <trkpt lat="50.71577000" lon="9.720270000">
        <ele>0.0000000</ele>
        <time>2010-01-01T11:31:23Z</time>
      </trkpt>
      <trkpt lat="50.71553000" lon="9.720060000">
        <ele>0.0000000</ele>
        <time>2010-01-01T11:31:34Z</time>
      </trkpt>
      <trkpt lat="50.71539000" lon="9.719960000">
        <ele>0.0000000</ele>
        <time>2010-01-01T11:31:40Z</time>
      </trkpt>
      <trkpt lat="50.71518000" lon="9.719850000">
        <ele>0.0000000</ele>
        <time>2010-01-01T11:31:49Z</time>
      </trkpt>
      <trkpt lat="50.71427000" lon="9.719520000">
        <ele>0.0000000</ele>
        <time>2010-01-01T11:32:26Z</time>
      </trkpt>
      <trkpt lat="50.71373000" lon="9.719380000">
        <ele>0.0000000</ele>
        <time>2010-01-01T11:32:48Z</time>
      </trkpt>
      <trkpt lat="50.71367000" lon="9.719310000">
        <ele>0.0000000</ele>
        <time>2010-01-01T11:32:51Z</time>
      </trkpt>
      <trkpt lat="50.71362000" lon="9.719280000">
        <ele>0.0000000</ele>
        <time>2010-01-01T11:32:53Z</time>
      </trkpt>
      <trkpt lat="50.71355000" lon="9.719250000">
        <ele>0.0000000</ele>
        <time>2010-01-01T11:32:56Z</time>
      </trkpt>
      <trkpt lat="50.71350000" lon="9.719220000">
        <ele>0.0000000</ele>
        <time>2010-01-01T11:32:58Z</time>
      </trkpt>
      <trkpt lat="50.71346000" lon="9.719180000">
        <ele>0.0000000</ele>
        <time>2010-01-01T11:33:00Z</time>
      </trkpt>
      <trkpt lat="50.71334000" lon="9.719000000">
        <ele>0.0000000</ele>
        <time>2010-01-01T11:33:07Z</time>
      </trkpt>
      <trkpt lat="50.71322000" lon="9.718730000">
        <ele>0.0000000</ele>
        <time>2010-01-01T11:33:15Z</time>
      </trkpt>
      <trkpt lat="50.71319000" lon="9.718640000">
        <ele>0.0000000</ele>
        <time>2010-01-01T11:33:18Z</time>
      </trkpt>
      <trkpt lat="50.71313000" lon="9.718700000">
        <ele>0.0000000</ele>
        <time>2010-01-01T11:33:21Z</time>
      </trkpt>
      <trkpt lat="50.71226000" lon="9.719420000">
        <ele>0.0000000</ele>
        <time>2010-01-01T11:34:00Z</time>
      </trkpt>
      <trkpt lat="50.71191000" lon="9.719660000">
        <ele>0.0000000</ele>
        <time>2010-01-01T11:34:15Z</time>
      </trkpt>
      <trkpt lat="50.71120000" lon="9.720080000">
        <ele>0.0000000</ele>
        <time>2010-01-01T11:34:46Z</time>
      </trkpt>
      <trkpt lat="50.71048000" lon="9.720460000">
        <ele>0.0000000</ele>
        <time>2010-01-01T11:35:16Z</time>
      </trkpt>
      <trkpt lat="50.70877000" lon="9.721260000">
        <ele>0.0000000</ele>
        <time>2010-01-01T11:36:27Z</time>
      </trkpt>
      <trkpt lat="50.70810000" lon="9.721530000">
        <ele>0.0000000</ele>
        <time>2010-01-01T11:36:55Z</time>
      </trkpt>
      <trkpt lat="50.70803000" lon="9.721570000">
        <ele>0.0000000</ele>
        <time>2010-01-01T11:36:58Z</time>
      </trkpt>
      <trkpt lat="50.70795000" lon="9.721630000">
        <ele>0.0000000</ele>
        <time>2010-01-01T11:37:02Z</time>
      </trkpt>
      <trkpt lat="50.70517000" lon="9.722830000">
        <ele>0.0000000</ele>
        <time>2010-01-01T11:38:57Z</time>
      </trkpt>
      <trkpt lat="50.70455000" lon="9.723150000">
        <ele>0.0000000</ele>
        <time>2010-01-01T11:39:23Z</time>
      </trkpt>
      <trkpt lat="50.70404000" lon="9.723490000">
        <ele>0.0000000</ele>
        <time>2010-01-01T11:39:45Z</time>
      </trkpt>
      <trkpt lat="50.70359000" lon="9.723830000">
        <ele>0.0000000</ele>
        <time>2010-01-01T11:40:05Z</time>
      </trkpt>
      <trkpt lat="50.70304000" lon="9.724320000">
        <ele>0.0000000</ele>
        <time>2010-01-01T11:40:30Z</time>
      </trkpt>
      <trkpt lat="50.70304000" lon="9.724330000">
        <ele>0.0000000</ele>
        <time>2010-01-01T11:40:31Z</time>
      </trkpt>
      <trkpt lat="50.70274000" lon="9.724630000">
        <ele>0.0000000</ele>
        <time>2010-01-01T11:40:45Z</time>
      </trkpt>
      <trkpt lat="50.70234000" lon="9.725120000">
        <ele>0.0000000</ele>
        <time>2010-01-01T11:41:05Z</time>
      </trkpt>
      <trkpt lat="50.70175000" lon="9.725970000">
        <ele>0.0000000</ele>
        <time>2010-01-01T11:41:37Z</time>
      </trkpt>
      <trkpt lat="50.70129000" lon="9.726840000">
        <ele>0.0000000</ele>
        <time>2010-01-01T11:42:06Z</time>
      </trkpt>
      <trkpt lat="50.70118000" lon="9.727100000">
        <ele>0.0000000</ele>
        <time>2010-01-01T11:42:14Z</time>
      </trkpt>
      <trkpt lat="50.70112000" lon="9.727190000">
        <ele>0.0000000</ele>
        <time>2010-01-01T11:42:17Z</time>
      </trkpt>
      <trkpt lat="50.70085000" lon="9.727780000">
        <ele>0.0000000</ele>
        <time>2010-01-01T11:42:36Z</time>
      </trkpt>
      <trkpt lat="50.69943000" lon="9.731410000">
        <ele>0.0000000</ele>
        <time>2010-01-01T11:44:24Z</time>
      </trkpt>
      <trkpt lat="50.69939000" lon="9.731570000">
        <ele>0.0000000</ele>
        <time>2010-01-01T11:44:28Z</time>
      </trkpt>
      <trkpt lat="50.69843000" lon="9.734150000">
        <ele>0.0000000</ele>
        <time>2010-01-01T11:45:44Z</time>
      </trkpt>
      <trkpt lat="50.69631000" lon="9.739610000">
        <ele>0.0000000</ele>
        <time>2010-01-01T11:48:26Z</time>
      </trkpt>
      <trkpt lat="50.69631000" lon="9.739630000">
        <ele>0.0000000</ele>
        <time>2010-01-01T11:48:27Z</time>
      </trkpt>
      <trkpt lat="50.69417000" lon="9.745140000">
        <ele>0.0000000</ele>
        <time>2010-01-01T11:51:11Z</time>
      </trkpt>
      <trkpt lat="50.69391000" lon="9.745740000">
        <ele>0.0000000</ele>
        <time>2010-01-01T11:51:29Z</time>
      </trkpt>
      <trkpt lat="50.69326000" lon="9.747010000">
        <ele>0.0000000</ele>
        <time>2010-01-01T11:52:11Z</time>
      </trkpt>
      <trkpt lat="50.69294000" lon="9.747570000">
        <ele>0.0000000</ele>
        <time>2010-01-01T11:52:30Z</time>
      </trkpt>
      <trkpt lat="50.69283000" lon="9.747730000">
        <ele>0.0000000</ele>
        <time>2010-01-01T11:52:36Z</time>
      </trkpt>
      <trkpt lat="50.69271000" lon="9.747940000">
        <ele>0.0000000</ele>
        <time>2010-01-01T11:52:43Z</time>
      </trkpt>
      <trkpt lat="50.69214000" lon="9.748760000">
        <ele>0.0000000</ele>
        <time>2010-01-01T11:53:14Z</time>
      </trkpt>
      <trkpt lat="50.69103000" lon="9.750100000">
        <ele>0.0000000</ele>
        <time>2010-01-01T11:54:10Z</time>
      </trkpt>
      <trkpt lat="50.69097000" lon="9.750130000">
        <ele>0.0000000</ele>
        <time>2010-01-01T11:54:12Z</time>
      </trkpt>
      <trkpt lat="50.69084000" lon="9.750220000">
        <ele>0.0000000</ele>
        <time>2010-01-01T11:54:18Z</time>
      </trkpt>
      <trkpt lat="50.69027000" lon="9.750720000">
        <ele>0.0000000</ele>
        <time>2010-01-01T11:54:44Z</time>
      </trkpt>
      <trkpt lat="50.68976000" lon="9.751120000">
        <ele>0.0000000</ele>
        <time>2010-01-01T11:55:07Z</time>
      </trkpt>
      <trkpt lat="50.68946000" lon="9.751330000">
        <ele>0.0000000</ele>
        <time>2010-01-01T11:55:20Z</time>
      </trkpt>
      <trkpt lat="50.68940000" lon="9.751420000">
        <ele>0.0000000</ele>
        <time>2010-01-01T11:55:23Z</time>
      </trkpt>
      <trkpt lat="50.68923000" lon="9.751550000">
        <ele>0.0000000</ele>
        <time>2010-01-01T11:55:31Z</time>
      </trkpt>
      <trkpt lat="50.68906000" lon="9.751660000">
        <ele>0.0000000</ele>
        <time>2010-01-01T11:55:38Z</time>
      </trkpt>
      <trkpt lat="50.68905000" lon="9.751670000">
        <ele>0.0000000</ele>
        <time>2010-01-01T11:55:39Z</time>
      </trkpt>
      <trkpt lat="50.68900000" lon="9.751700000">
        <ele>0.0000000</ele>
        <time>2010-01-01T11:55:41Z</time>
      </trkpt>
      <trkpt lat="50.68897000" lon="9.751710000">
        <ele>0.0000000</ele>
        <time>2010-01-01T11:55:42Z</time>
      </trkpt>
      <trkpt lat="50.68842000" lon="9.752030000">
        <ele>0.0000000</ele>
        <time>2010-01-01T11:56:05Z</time>
      </trkpt>
      <trkpt lat="50.68794000" lon="9.752250000">
        <ele>0.0000000</ele>
        <time>2010-01-01T11:56:25Z</time>
      </trkpt>
      <trkpt lat="50.68741000" lon="9.752450000">
        <ele>0.0000000</ele>
        <time>2010-01-01T11:56:47Z</time>
      </trkpt>
      <trkpt lat="50.68707000" lon="9.752550000">
        <ele>0.0000000</ele>
        <time>2010-01-01T11:57:01Z</time>
      </trkpt>
      <trkpt lat="50.68625000" lon="9.752740000">
        <ele>0.0000000</ele>
        <time>2010-01-01T11:57:34Z</time>
      </trkpt>
      <trkpt lat="50.68543000" lon="9.752820000">
        <ele>0.0000000</ele>
        <time>2010-01-01T11:58:07Z</time>
      </trkpt>
      <trkpt lat="50.68381000" lon="9.752900000">
        <ele>0.0000000</ele>
        <time>2010-01-01T11:59:12Z</time>
      </trkpt>
      <trkpt lat="50.68341000" lon="9.752950000">
        <ele>0.0000000</ele>
        <time>2010-01-01T11:59:28Z</time>
      </trkpt>
      <trkpt lat="50.68268000" lon="9.753100000">
        <ele>0.0000000</ele>
        <time>2010-01-01T11:59:58Z</time>
      </trkpt>
      <trkpt lat="50.68205000" lon="9.753300000">
        <ele>0.0000000</ele>
        <time>2010-01-01T12:00:23Z</time>
      </trkpt>
      <trkpt lat="50.68178000" lon="9.753420000">
        <ele>0.0000000</ele>
        <time>2010-01-01T12:00:35Z</time>
      </trkpt>
      <trkpt lat="50.68164000" lon="9.753470000">
        <ele>0.0000000</ele>
        <time>2010-01-01T12:00:40Z</time>
      </trkpt>
      <trkpt lat="50.68102000" lon="9.753780000">
        <ele>0.0000000</ele>
        <time>2010-01-01T12:01:06Z</time>
      </trkpt>
      <trkpt lat="50.68058000" lon="9.754040000">
        <ele>0.0000000</ele>
        <time>2010-01-01T12:01:25Z</time>
      </trkpt>
      <trkpt lat="50.68012000" lon="9.754370000">
        <ele>0.0000000</ele>
        <time>2010-01-01T12:01:45Z</time>
      </trkpt>
      <trkpt lat="50.67961000" lon="9.754780000">
        <ele>0.0000000</ele>
        <time>2010-01-01T12:02:08Z</time>
      </trkpt>
      <trkpt lat="50.67958000" lon="9.754810000">
        <ele>0.0000000</ele>
        <time>2010-01-01T12:02:10Z</time>
      </trkpt>
      <trkpt lat="50.67950000" lon="9.754870000">
        <ele>0.0000000</ele>
        <time>2010-01-01T12:02:13Z</time>
      </trkpt>
      <trkpt lat="50.67944000" lon="9.754930000">
        <ele>0.0000000</ele>
        <time>2010-01-01T12:02:16Z</time>
      </trkpt>
      <trkpt lat="50.67927000" lon="9.755070000">
        <ele>0.0000000</ele>
        <time>2010-01-01T12:02:24Z</time>
      </trkpt>
      <trkpt lat="50.67793000" lon="9.756320000">
        <ele>0.0000000</ele>
        <time>2010-01-01T12:03:26Z</time>
      </trkpt>
      <trkpt lat="50.67749000" lon="9.756700000">
        <ele>0.0000000</ele>
        <time>2010-01-01T12:03:46Z</time>
      </trkpt>
      <trkpt lat="50.67702000" lon="9.757040000">
        <ele>0.0000000</ele>
        <time>2010-01-01T12:04:07Z</time>
      </trkpt>
      <trkpt lat="50.67634000" lon="9.757430000">
        <ele>0.0000000</ele>
        <time>2010-01-01T12:04:36Z</time>
      </trkpt>
      <trkpt lat="50.67591000" lon="9.757610000">
        <ele>0.0000000</ele>
        <time>2010-01-01T12:04:54Z</time>
      </trkpt>
      <trkpt lat="50.67578000" lon="9.757580000">
        <ele>0.0000000</ele>
        <time>2010-01-01T12:04:59Z</time>
      </trkpt>
      <trkpt lat="50.67527000" lon="9.757720000">
        <ele>0.0000000</ele>
        <time>2010-01-01T12:05:20Z</time>
      </trkpt>
      <trkpt lat="50.67490000" lon="9.757780000">
        <ele>0.0000000</ele>
        <time>2010-01-01T12:05:34Z</time>
      </trkpt>
      <trkpt lat="50.67457000" lon="9.757810000">
        <ele>0.0000000</ele>
        <time>2010-01-01T12:05:48Z</time>
      </trkpt>
      <trkpt lat="50.67419000" lon="9.757810000">
        <ele>0.0000000</ele>
        <time>2010-01-01T12:06:03Z</time>
      </trkpt>
      <trkpt lat="50.67383000" lon="9.757790000">
        <ele>0.0000000</ele>
        <time>2010-01-01T12:06:17Z</time>
      </trkpt>
      <trkpt lat="50.67359000" lon="9.757750000">
        <ele>0.0000000</ele>
        <time>2010-01-01T12:06:27Z</time>
      </trkpt>
      <trkpt lat="50.67350000" lon="9.757750000">
        <ele>0.0000000</ele>
        <time>2010-01-01T12:06:31Z</time>
      </trkpt>
      <trkpt lat="50.67322000" lon="9.757690000">
        <ele>0.0000000</ele>
        <time>2010-01-01T12:06:42Z</time>
      </trkpt>
      <trkpt lat="50.67236000" lon="9.757420000">
        <ele>0.0000000</ele>
        <time>2010-01-01T12:07:17Z</time>
      </trkpt>
      <trkpt lat="50.66210000" lon="9.753040000">
        <ele>0.0000000</ele>
        <time>2010-01-01T12:14:22Z</time>
      </trkpt>
      <trkpt lat="50.66177000" lon="9.752920000">
        <ele>0.0000000</ele>
        <time>2010-01-01T12:14:36Z</time>
      </trkpt>
      <trkpt lat="50.66135000" lon="9.752790000">
        <ele>0.0000000</ele>
        <time>2010-01-01T12:14:53Z</time>
      </trkpt>
      <trkpt lat="50.66118000" lon="9.752750000">
        <ele>0.0000000</ele>
        <time>2010-01-01T12:15:00Z</time>
      </trkpt>
      <trkpt lat="50.66104000" lon="9.752730000">
        <ele>0.0000000</ele>
        <time>2010-01-01T12:15:06Z</time>
      </trkpt>
      <trkpt lat="50.66097000" lon="9.752710000">
        <ele>0.0000000</ele>
        <time>2010-01-01T12:15:09Z</time>
      </trkpt>
      <trkpt lat="50.66057000" lon="9.752660000">
        <ele>0.0000000</ele>
        <time>2010-01-01T12:15:25Z</time>
      </trkpt>
      <trkpt lat="50.66029000" lon="9.752650000">
        <ele>0.0000000</ele>
        <time>2010-01-01T12:15:36Z</time>
      </trkpt>
      <trkpt lat="50.66006000" lon="9.752660000">
        <ele>0.0000000</ele>
        <time>2010-01-01T12:15:45Z</time>
      </trkpt>
      <trkpt lat="50.65996000" lon="9.752570000">
        <ele>0.0000000</ele>
        <time>2010-01-01T12:15:50Z</time>
      </trkpt>
      <trkpt lat="50.65982000" lon="9.752550000">
        <ele>0.0000000</ele>
        <time>2010-01-01T12:15:55Z</time>
      </trkpt>
      <trkpt lat="50.65973000" lon="9.752520000">
        <ele>0.0000000</ele>
        <time>2010-01-01T12:15:59Z</time>
      </trkpt>
      <trkpt lat="50.65963000" lon="9.752450000">
        <ele>0.0000000</ele>
        <time>2010-01-01T12:16:03Z</time>
      </trkpt>
      <trkpt lat="50.65954000" lon="9.752350000">
        <ele>0.0000000</ele>
        <time>2010-01-01T12:16:08Z</time>
      </trkpt>
      <trkpt lat="50.65933000" lon="9.752010000">
        <ele>0.0000000</ele>
        <time>2010-01-01T12:16:20Z</time>
      </trkpt>
      <trkpt lat="50.65922000" lon="9.751810000">
        <ele>0.0000000</ele>
        <time>2010-01-01T12:16:26Z</time>
      </trkpt>
      <trkpt lat="50.65914000" lon="9.751750000">
        <ele>0.0000000</ele>
        <time>2010-01-01T12:16:30Z</time>
      </trkpt>
      <trkpt lat="50.65907000" lon="9.751680000">
        <ele>0.0000000</ele>
        <time>2010-01-01T12:16:33Z</time>
      </trkpt>
      <trkpt lat="50.65902000" lon="9.751650000">
        <ele>0.0000000</ele>
        <time>2010-01-01T12:16:35Z</time>
      </trkpt>
      <trkpt lat="50.65890000" lon="9.751610000">
        <ele>0.0000000</ele>
        <time>2010-01-01T12:16:40Z</time>
      </trkpt>
      <trkpt lat="50.65878000" lon="9.751580000">
        <ele>0.0000000</ele>
        <time>2010-01-01T12:16:45Z</time>
      </trkpt>
      <trkpt lat="50.65863000" lon="9.751580000">
        <ele>0.0000000</ele>
        <time>2010-01-01T12:16:51Z</time>
      </trkpt>
      <trkpt lat="50.65847000" lon="9.751620000">
        <ele>0.0000000</ele>
        <time>2010-01-01T12:16:58Z</time>
      </trkpt>
      <trkpt lat="50.65839000" lon="9.751620000">
        <ele>0.0000000</ele>
        <time>2010-01-01T12:17:01Z</time>
      </trkpt>
      <trkpt lat="50.65801000" lon="9.751800000">
        <ele>0.0000000</ele>
        <time>2010-01-01T12:17:17Z</time>
      </trkpt>
      <trkpt lat="50.65751000" lon="9.750100000">
        <ele>0.0000000</ele>
        <time>2010-01-01T12:18:04Z</time>
      </trkpt>
      <trkpt lat="50.65747000" lon="9.750040000">
        <ele>0.0000000</ele>
        <time>2010-01-01T12:18:07Z</time>
      </trkpt>
      <trkpt lat="50.65650000" lon="9.746900000">
        <ele>0.0000000</ele>
        <time>2010-01-01T12:19:35Z</time>
      </trkpt>
      <trkpt lat="50.65637000" lon="9.746420000">
        <ele>0.0000000</ele>
        <time>2010-01-01T12:19:48Z</time>
      </trkpt>
      <trkpt lat="50.65623000" lon="9.745630000">
        <ele>0.0000000</ele>
        <time>2010-01-01T12:20:09Z</time>
      </trkpt>
      <trkpt lat="50.65621000" lon="9.744880000">
        <ele>0.0000000</ele>
        <time>2010-01-01T12:20:28Z</time>
      </trkpt>
      <trkpt lat="50.65623000" lon="9.744420000">
        <ele>0.0000000</ele>
        <time>2010-01-01T12:20:40Z</time>
      </trkpt>
      <trkpt lat="50.65626000" lon="9.744080000">
        <ele>0.0000000</ele>
        <time>2010-01-01T12:20:49Z</time>
      </trkpt>
      <trkpt lat="50.65629000" lon="9.743940000">
        <ele>0.0000000</ele>
        <time>2010-01-01T12:20:53Z</time>
      </trkpt>
      <trkpt lat="50.65629000" lon="9.743900000">
        <ele>0.0000000</ele>
        <time>2010-01-01T12:20:54Z</time>
      </trkpt>
      <trkpt lat="50.65645000" lon="9.743160000">
        <ele>0.0000000</ele>
        <time>2010-01-01T12:21:13Z</time>
      </trkpt>
      <trkpt lat="50.65655000" lon="9.742840000">
        <ele>0.0000000</ele>
        <time>2010-01-01T12:21:22Z</time>
      </trkpt>
      <trkpt lat="50.65689000" lon="9.741930000">
        <ele>0.0000000</ele>
        <time>2010-01-01T12:21:49Z</time>
      </trkpt>
      <trkpt lat="50.65757000" lon="9.740510000">
        <ele>0.0000000</ele>
        <time>2010-01-01T12:22:34Z</time>
      </trkpt>
      <trkpt lat="50.65793000" lon="9.739660000">
        <ele>0.0000000</ele>
        <time>2010-01-01T12:23:00Z</time>
      </trkpt>
      <trkpt lat="50.65822000" lon="9.738820000">
        <ele>0.0000000</ele>
        <time>2010-01-01T12:23:25Z</time>
      </trkpt>
      <trkpt lat="50.65842000" lon="9.738080000">
        <ele>0.0000000</ele>
        <time>2010-01-01T12:23:45Z</time>
      </trkpt>
      <trkpt lat="50.65860000" lon="9.737280000">
        <ele>0.0000000</ele>
        <time>2010-01-01T12:24:07Z</time>
      </trkpt>
      <trkpt lat="50.65874000" lon="9.736190000">
        <ele>0.0000000</ele>
        <time>2010-01-01T12:24:35Z</time>
      </trkpt>
      <trkpt lat="50.65884000" lon="9.734340000">
        <ele>0.0000000</ele>
        <time>2010-01-01T12:25:22Z</time>
      </trkpt>
      <trkpt lat="50.65884000" lon="9.733500000">
        <ele>0.0000000</ele>
        <time>2010-01-01T12:25:43Z</time>
      </trkpt>
      <trkpt lat="50.65878000" lon="9.731940000">
        <ele>0.0000000</ele>
        <time>2010-01-01T12:26:23Z</time>
      </trkpt>
      <trkpt lat="50.65770000" lon="9.717110000">
        <ele>0.0000000</ele>
        <time>2010-01-01T12:32:42Z</time>
      </trkpt>
      <trkpt lat="50.65756000" lon="9.715840000">
        <ele>0.0000000</ele>
        <time>2010-01-01T12:33:14Z</time>
      </trkpt>
      <trkpt lat="50.65747000" lon="9.715320000">
        <ele>0.0000000</ele>
        <time>2010-01-01T12:33:28Z</time>
      </trkpt>
      <trkpt lat="50.65731000" lon="9.714570000">
        <ele>0.0000000</ele>
        <time>2010-01-01T12:33:48Z</time>
      </trkpt>
      <trkpt lat="50.65697000" lon="9.713320000">
        <ele>0.0000000</ele>
        <time>2010-01-01T12:34:23Z</time>
      </trkpt>
      <trkpt lat="50.65616000" lon="9.710740000">
        <ele>0.0000000</ele>
        <time>2010-01-01T12:35:36Z</time>
      </trkpt>
      <trkpt lat="50.65589000" lon="9.709560000">
        <ele>0.0000000</ele>
        <time>2010-01-01T12:36:08Z</time>
      </trkpt>
      <trkpt lat="50.65569000" lon="9.708310000">
        <ele>0.0000000</ele>
        <time>2010-01-01T12:36:40Z</time>
      </trkpt>
      <trkpt lat="50.65563000" lon="9.706990000">
        <ele>0.0000000</ele>
        <time>2010-01-01T12:37:14Z</time>
      </trkpt>
      <trkpt lat="50.65565000" lon="9.706380000">
        <ele>0.0000000</ele>
        <time>2010-01-01T12:37:29Z</time>
      </trkpt>
      <trkpt lat="50.65573000" lon="9.705620000">
        <ele>0.0000000</ele>
        <time>2010-01-01T12:37:49Z</time>
      </trkpt>
      <trkpt lat="50.65585000" lon="9.704840000">
        <ele>0.0000000</ele>
        <time>2010-01-01T12:38:09Z</time>
      </trkpt>
      <trkpt lat="50.65610000" lon="9.703800000">
        <ele>0.0000000</ele>
        <time>2010-01-01T12:38:38Z</time>
      </trkpt>
      <trkpt lat="50.65651000" lon="9.702610000">
        <ele>0.0000000</ele>
        <time>2010-01-01T12:39:12Z</time>
      </trkpt>
      <trkpt lat="50.65730000" lon="9.700960000">
        <ele>0.0000000</ele>
        <time>2010-01-01T12:40:04Z</time>
      </trkpt>
      <trkpt lat="50.65823000" lon="9.699190000">
        <ele>0.0000000</ele>
        <time>2010-01-01T12:41:03Z</time>
      </trkpt>
      <trkpt lat="50.65841000" lon="9.698760000">
        <ele>0.0000000</ele>
        <time>2010-01-01T12:41:16Z</time>
      </trkpt>
      <trkpt lat="50.65844000" lon="9.698670000">
        <ele>0.0000000</ele>
        <time>2010-01-01T12:41:18Z</time>
      </trkpt>
      <trkpt lat="50.65853000" lon="9.698480000">
        <ele>0.0000000</ele>
        <time>2010-01-01T12:41:24Z</time>
      </trkpt>
      <trkpt lat="50.65853000" lon="9.698450000">
        <ele>0.0000000</ele>
        <time>2010-01-01T12:41:25Z</time>
      </trkpt>
      <trkpt lat="50.65874000" lon="9.697790000">
        <ele>0.0000000</ele>
        <time>2010-01-01T12:41:44Z</time>
      </trkpt>
      <trkpt lat="50.65897000" lon="9.696870000">
        <ele>0.0000000</ele>
        <time>2010-01-01T12:42:09Z</time>
      </trkpt>
      <trkpt lat="50.65910000" lon="9.695990000">
        <ele>0.0000000</ele>
        <time>2010-01-01T12:42:32Z</time>
      </trkpt>
      <trkpt lat="50.65916000" lon="9.695260000">
        <ele>0.0000000</ele>
        <time>2010-01-01T12:42:51Z</time>
      </trkpt>
      <trkpt lat="50.65915000" lon="9.693970000">
        <ele>0.0000000</ele>
        <time>2010-01-01T12:43:23Z</time>
      </trkpt>
      <trkpt lat="50.65909000" lon="9.693280000">
        <ele>0.0000000</ele>
        <time>2010-01-01T12:43:41Z</time>
      </trkpt>
      <trkpt lat="50.65887000" lon="9.691980000">
        <ele>0.0000000</ele>
        <time>2010-01-01T12:44:15Z</time>
      </trkpt>
      <trkpt lat="50.65854000" lon="9.690440000">
        <ele>0.0000000</ele>
        <time>2010-01-01T12:44:56Z</time>
      </trkpt>
      <trkpt lat="50.65839000" lon="9.689560000">
        <ele>0.0000000</ele>
        <time>2010-01-01T12:45:20Z</time>
      </trkpt>
      <trkpt lat="50.65831000" lon="9.688720000">
        <ele>0.0000000</ele>
        <time>2010-01-01T12:45:41Z</time>
      </trkpt>
      <trkpt lat="50.65826000" lon="9.687950000">
        <ele>0.0000000</ele>
        <time>2010-01-01T12:46:01Z</time>
      </trkpt>
      <trkpt lat="50.65824000" lon="9.687150000">
        <ele>0.0000000</ele>
        <time>2010-01-01T12:46:21Z</time>
      </trkpt>
      <trkpt lat="50.65826000" lon="9.686410000">
        <ele>0.0000000</ele>
        <time>2010-01-01T12:46:40Z</time>
      </trkpt>
      <trkpt lat="50.65832000" lon="9.685550000">
        <ele>0.0000000</ele>
        <time>2010-01-01T12:47:02Z</time>
      </trkpt>
      <trkpt lat="50.65851000" lon="9.683950000">
        <ele>0.0000000</ele>
        <time>2010-01-01T12:47:43Z</time>
      </trkpt>
      <trkpt lat="50.65883000" lon="9.682080000">
        <ele>0.0000000</ele>
        <time>2010-01-01T12:48:32Z</time>
      </trkpt>
      <trkpt lat="50.65926000" lon="9.680140000">
        <ele>0.0000000</ele>
        <time>2010-01-01T12:49:24Z</time>
      </trkpt>
      <trkpt lat="50.65929000" lon="9.680080000">
        <ele>0.0000000</ele>
        <time>2010-01-01T12:49:26Z</time>
      </trkpt>
      <trkpt lat="50.65958000" lon="9.679000000">
        <ele>0.0000000</ele>
        <time>2010-01-01T12:49:56Z</time>
      </trkpt>
      <trkpt lat="50.65966000" lon="9.678600000">
        <ele>0.0000000</ele>
        <time>2010-01-01T12:50:07Z</time>
      </trkpt>
      <trkpt lat="50.65977000" lon="9.677820000">
        <ele>0.0000000</ele>
        <time>2010-01-01T12:50:27Z</time>
      </trkpt>
      <trkpt lat="50.65996000" lon="9.675260000">
        <ele>0.0000000</ele>
        <time>2010-01-01T12:51:32Z</time>
      </trkpt>
      <trkpt lat="50.66005000" lon="9.674360000">
        <ele>0.0000000</ele>
        <time>2010-01-01T12:51:56Z</time>
      </trkpt>
      <trkpt lat="50.66022000" lon="9.673350000">
        <ele>0.0000000</ele>
        <time>2010-01-01T12:52:22Z</time>
      </trkpt>
      <trkpt lat="50.66049000" lon="9.672210000">
        <ele>0.0000000</ele>
        <time>2010-01-01T12:52:53Z</time>
      </trkpt>
      <trkpt lat="50.66090000" lon="9.670960000">
        <ele>0.0000000</ele>
        <time>2010-01-01T12:53:29Z</time>
      </trkpt>
      <trkpt lat="50.66092000" lon="9.670830000">
        <ele>0.0000000</ele>
        <time>2010-01-01T12:53:32Z</time>
      </trkpt>
      <trkpt lat="50.66098000" lon="9.670670000">
        <ele>0.0000000</ele>
        <time>2010-01-01T12:53:37Z</time>
      </trkpt>
      <trkpt lat="50.66128000" lon="9.670030000">
        <ele>0.0000000</ele>
        <time>2010-01-01T12:53:57Z</time>
      </trkpt>
      <trkpt lat="50.66163000" lon="9.669340000">
        <ele>0.0000000</ele>
        <time>2010-01-01T12:54:19Z</time>
      </trkpt>
      <trkpt lat="50.66201000" lon="9.668730000">
        <ele>0.0000000</ele>
        <time>2010-01-01T12:54:41Z</time>
      </trkpt>
      <trkpt lat="50.66269000" lon="9.667780000">
        <ele>0.0000000</ele>
        <time>2010-01-01T12:55:17Z</time>
      </trkpt>
      <trkpt lat="50.66326000" lon="9.666930000">
        <ele>0.0000000</ele>
        <time>2010-01-01T12:55:49Z</time>
      </trkpt>
      <trkpt lat="50.66359000" lon="9.666330000">
        <ele>0.0000000</ele>
        <time>2010-01-01T12:56:09Z</time>
      </trkpt>
      <trkpt lat="50.66384000" lon="9.665830000">
        <ele>0.0000000</ele>
        <time>2010-01-01T12:56:25Z</time>
      </trkpt>
      <trkpt lat="50.66405000" lon="9.665330000">
        <ele>0.0000000</ele>
        <time>2010-01-01T12:56:40Z</time>
      </trkpt>
      <trkpt lat="50.66432000" lon="9.664600000">
        <ele>0.0000000</ele>
        <time>2010-01-01T12:57:02Z</time>
      </trkpt>
      <trkpt lat="50.66452000" lon="9.663890000">
        <ele>0.0000000</ele>
        <time>2010-01-01T12:57:22Z</time>
      </trkpt>
      <trkpt lat="50.66471000" lon="9.663090000">
        <ele>0.0000000</ele>
        <time>2010-01-01T12:57:43Z</time>
      </trkpt>
      <trkpt lat="50.66481000" lon="9.662500000">
        <ele>0.0000000</ele>
        <time>2010-01-01T12:57:59Z</time>
      </trkpt>
      <trkpt lat="50.66490000" lon="9.661720000">
        <ele>0.0000000</ele>
        <time>2010-01-01T12:58:19Z</time>
      </trkpt>
      <trkpt lat="50.66491000" lon="9.660780000">
        <ele>0.0000000</ele>
        <time>2010-01-01T12:58:43Z</time>
      </trkpt>
      <trkpt lat="50.66486000" lon="9.660090000">
        <ele>0.0000000</ele>
        <time>2010-01-01T12:59:00Z</time>
      </trkpt>
      <trkpt lat="50.66473000" lon="9.659300000">
        <ele>0.0000000</ele>
        <time>2010-01-01T12:59:21Z</time>
      </trkpt>
      <trkpt lat="50.66464000" lon="9.658910000">
        <ele>0.0000000</ele>
        <time>2010-01-01T12:59:32Z</time>
      </trkpt>
      <trkpt lat="50.66429000" lon="9.657750000">
        <ele>0.0000000</ele>
        <time>2010-01-01T13:00:04Z</time>
      </trkpt>
      <trkpt lat="50.66413000" lon="9.657090000">
        <ele>0.0000000</ele>
        <time>2010-01-01T13:00:22Z</time>
      </trkpt>
      <trkpt lat="50.66405000" lon="9.656400000">
        <ele>0.0000000</ele>
        <time>2010-01-01T13:00:40Z</time>
      </trkpt>
      <trkpt lat="50.66402000" lon="9.655920000">
        <ele>0.0000000</ele>
        <time>2010-01-01T13:00:52Z</time>
      </trkpt>
      <trkpt lat="50.66404000" lon="9.655370000">
        <ele>0.0000000</ele>
        <time>2010-01-01T13:01:06Z</time>
      </trkpt>
      <trkpt lat="50.66411000" lon="9.654670000">
        <ele>0.0000000</ele>
        <time>2010-01-01T13:01:24Z</time>
      </trkpt>
      <trkpt lat="50.66428000" lon="9.653860000">
        <ele>0.0000000</ele>
        <time>2010-01-01T13:01:46Z</time>
      </trkpt>
      <trkpt lat="50.66447000" lon="9.653190000">
        <ele>0.0000000</ele>
        <time>2010-01-01T13:02:04Z</time>
      </trkpt>
      <trkpt lat="50.66466000" lon="9.652640000">
        <ele>0.0000000</ele>
        <time>2010-01-01T13:02:20Z</time>
      </trkpt>
      <trkpt lat="50.66477000" lon="9.652380000">
        <ele>0.0000000</ele>
        <time>2010-01-01T13:02:28Z</time>
      </trkpt>
      <trkpt lat="50.66512000" lon="9.651670000">
        <ele>0.0000000</ele>
        <time>2010-01-01T13:02:51Z</time>
      </trkpt>
      <trkpt lat="50.66555000" lon="9.651020000">
        <ele>0.0000000</ele>
        <time>2010-01-01T13:03:15Z</time>
      </trkpt>
      <trkpt lat="50.66596000" lon="9.650500000">
        <ele>0.0000000</ele>
        <time>2010-01-01T13:03:36Z</time>
      </trkpt>
      <trkpt lat="50.66596000" lon="9.650490000">
        <ele>0.0000000</ele>
        <time>2010-01-01T13:03:36Z</time>
      </trkpt>
      <trkpt lat="50.66666000" lon="9.649770000">
        <ele>0.0000000</ele>
        <time>2010-01-01T13:04:10Z</time>
      </trkpt>
      <trkpt lat="50.66678000" lon="9.649620000">
        <ele>0.0000000</ele>
        <time>2010-01-01T13:04:16Z</time>
      </trkpt>
      <trkpt lat="50.66697000" lon="9.649310000">
        <ele>0.0000000</ele>
        <time>2010-01-01T13:04:27Z</time>
      </trkpt>
      <trkpt lat="50.66723000" lon="9.648840000">
        <ele>0.0000000</ele>
        <time>2010-01-01T13:04:43Z</time>
      </trkpt>
      <trkpt lat="50.66740000" lon="9.648410000">
        <ele>0.0000000</ele>
        <time>2010-01-01T13:04:55Z</time>
      </trkpt>
      <trkpt lat="50.66748000" lon="9.648170000">
        <ele>0.0000000</ele>
        <time>2010-01-01T13:05:02Z</time>
      </trkpt>
      <trkpt lat="50.66761000" lon="9.647650000">
        <ele>0.0000000</ele>
        <time>2010-01-01T13:05:16Z</time>
      </trkpt>
      <trkpt lat="50.66775000" lon="9.646700000">
        <ele>0.0000000</ele>
        <time>2010-01-01T13:05:41Z</time>
      </trkpt>
      <trkpt lat="50.66788000" lon="9.645980000">
        <ele>0.0000000</ele>
        <time>2010-01-01T13:06:00Z</time>
      </trkpt>
      <trkpt lat="50.66795000" lon="9.645710000">
        <ele>0.0000000</ele>
        <time>2010-01-01T13:06:08Z</time>
      </trkpt>
      <trkpt lat="50.66813000" lon="9.645210000">
        <ele>0.0000000</ele>
        <time>2010-01-01T13:06:22Z</time>
      </trkpt>
      <trkpt lat="50.66823000" lon="9.644990000">
        <ele>0.0000000</ele>
        <time>2010-01-01T13:06:29Z</time>
      </trkpt>
      <trkpt lat="50.66853000" lon="9.644450000">
        <ele>0.0000000</ele>
        <time>2010-01-01T13:06:47Z</time>
      </trkpt>
      <trkpt lat="50.66883000" lon="9.643990000">
        <ele>0.0000000</ele>
        <time>2010-01-01T13:07:04Z</time>
      </trkpt>
      <trkpt lat="50.66897000" lon="9.643730000">
        <ele>0.0000000</ele>
        <time>2010-01-01T13:07:13Z</time>
      </trkpt>
      <trkpt lat="50.66918000" lon="9.643200000">
        <ele>0.0000000</ele>
        <time>2010-01-01T13:07:29Z</time>
      </trkpt>
      <trkpt lat="50.66933000" lon="9.642640000">
        <ele>0.0000000</ele>
        <time>2010-01-01T13:07:44Z</time>
      </trkpt>
      <trkpt lat="50.66949000" lon="9.641920000">
        <ele>0.0000000</ele>
        <time>2010-01-01T13:08:03Z</time>
      </trkpt>
      <trkpt lat="50.66964000" lon="9.641390000">
        <ele>0.0000000</ele>
        <time>2010-01-01T13:08:18Z</time>
      </trkpt>
      <trkpt lat="50.66980000" lon="9.640950000">
        <ele>0.0000000</ele>
        <time>2010-01-01T13:08:31Z</time>
      </trkpt>
      <trkpt lat="50.66995000" lon="9.640630000">
        <ele>0.0000000</ele>
        <time>2010-01-01T13:08:41Z</time>
      </trkpt>
      <trkpt lat="50.67034000" lon="9.640030000">
        <ele>0.0000000</ele>
        <time>2010-01-01T13:09:03Z</time>
      </trkpt>
      <trkpt lat="50.67061000" lon="9.639660000">
        <ele>0.0000000</ele>
        <time>2010-01-01T13:09:17Z</time>
      </trkpt>
      <trkpt lat="50.67083000" lon="9.639280000">
        <ele>0.0000000</ele>
        <time>2010-01-01T13:09:30Z</time>
      </trkpt>
      <trkpt lat="50.67096000" lon="9.638980000">
        <ele>0.0000000</ele>
        <time>2010-01-01T13:09:39Z</time>
      </trkpt>
      <trkpt lat="50.67106000" lon="9.638670000">
        <ele>0.0000000</ele>
        <time>2010-01-01T13:09:48Z</time>
      </trkpt>
      <trkpt lat="50.67113000" lon="9.638410000">
        <ele>0.0000000</ele>
        <time>2010-01-01T13:09:55Z</time>
      </trkpt>
      <trkpt lat="50.67122000" lon="9.637950000">
        <ele>0.0000000</ele>
        <time>2010-01-01T13:10:08Z</time>
      </trkpt>
      <trkpt lat="50.67127000" lon="9.637430000">
        <ele>0.0000000</ele>
        <time>2010-01-01T13:10:21Z</time>
      </trkpt>
      <trkpt lat="50.67130000" lon="9.636220000">
        <ele>0.0000000</ele>
        <time>2010-01-01T13:10:52Z</time>
      </trkpt>
      <trkpt lat="50.67139000" lon="9.635530000">
        <ele>0.0000000</ele>
        <time>2010-01-01T13:11:10Z</time>
      </trkpt>
      <trkpt lat="50.67147000" lon="9.635160000">
        <ele>0.0000000</ele>
        <time>2010-01-01T13:11:19Z</time>
      </trkpt>
      <trkpt lat="50.67171000" lon="9.634400000">
        <ele>0.0000000</ele>
        <time>2010-01-01T13:11:41Z</time>
      </trkpt>
      <trkpt lat="50.67187000" lon="9.634010000">
        <ele>0.0000000</ele>
        <time>2010-01-01T13:11:53Z</time>
      </trkpt>
      <trkpt lat="50.67224000" lon="9.633240000">
        <ele>0.0000000</ele>
        <time>2010-01-01T13:12:17Z</time>
      </trkpt>
      <trkpt lat="50.67275000" lon="9.632010000">
        <ele>0.0000000</ele>
        <time>2010-01-01T13:12:55Z</time>
      </trkpt>
      <trkpt lat="50.67306000" lon="9.631100000">
        <ele>0.0000000</ele>
        <time>2010-01-01T13:13:21Z</time>
      </trkpt>
      <trkpt lat="50.67340000" lon="9.630000000">
        <ele>0.0000000</ele>
        <time>2010-01-01T13:13:52Z</time>
      </trkpt>
      <trkpt lat="50.67358000" lon="9.629250000">
        <ele>0.0000000</ele>
        <time>2010-01-01T13:14:12Z</time>
      </trkpt>
      <trkpt lat="50.67359000" lon="9.629170000">
        <ele>0.0000000</ele>
        <time>2010-01-01T13:14:14Z</time>
      </trkpt>
      <trkpt lat="50.67366000" lon="9.628830000">
        <ele>0.0000000</ele>
        <time>2010-01-01T13:14:23Z</time>
      </trkpt>
      <trkpt lat="50.67378000" lon="9.628100000">
        <ele>0.0000000</ele>
        <time>2010-01-01T13:14:42Z</time>
      </trkpt>
      <trkpt lat="50.67402000" lon="9.626270000">
        <ele>0.0000000</ele>
        <time>2010-01-01T13:15:30Z</time>
      </trkpt>
      <trkpt lat="50.67414000" lon="9.625670000">
        <ele>0.0000000</ele>
        <time>2010-01-01T13:15:46Z</time>
      </trkpt>
      <trkpt lat="50.67461000" lon="9.623890000">
        <ele>0.0000000</ele>
        <time>2010-01-01T13:16:35Z</time>
      </trkpt>
      <trkpt lat="50.67474000" lon="9.623280000">
        <ele>0.0000000</ele>
        <time>2010-01-01T13:16:51Z</time>
      </trkpt>
      <trkpt lat="50.67485000" lon="9.622410000">
        <ele>0.0000000</ele>
        <time>2010-01-01T13:17:14Z</time>
      </trkpt>
      <trkpt lat="50.67489000" lon="9.621730000">
        <ele>0.0000000</ele>
        <time>2010-01-01T13:17:31Z</time>
      </trkpt>
      <trkpt lat="50.67489000" lon="9.621280000">
        <ele>0.0000000</ele>
        <time>2010-01-01T13:17:42Z</time>
      </trkpt>
      <trkpt lat="50.67477000" lon="9.619320000">
        <ele>0.0000000</ele>
        <time>2010-01-01T13:18:32Z</time>
      </trkpt>
      <trkpt lat="50.67481000" lon="9.618690000">
        <ele>0.0000000</ele>
        <time>2010-01-01T13:18:48Z</time>
      </trkpt>
      <trkpt lat="50.67489000" lon="9.618150000">
        <ele>0.0000000</ele>
        <time>2010-01-01T13:19:02Z</time>
      </trkpt>
      <trkpt lat="50.67490000" lon="9.617980000">
        <ele>0.0000000</ele>
        <time>2010-01-01T13:19:07Z</time>
      </trkpt>
      <trkpt lat="50.67496000" lon="9.617530000">
        <ele>0.0000000</ele>
        <time>2010-01-01T13:19:18Z</time>
      </trkpt>
      <trkpt lat="50.67500000" lon="9.616840000">
        <ele>0.0000000</ele>
        <time>2010-01-01T13:19:36Z</time>
      </trkpt>
      <trkpt lat="50.67497000" lon="9.616270000">
        <ele>0.0000000</ele>
        <time>2010-01-01T13:19:50Z</time>
      </trkpt>
      <trkpt lat="50.67492000" lon="9.615730000">
        <ele>0.0000000</ele>
        <time>2010-01-01T13:20:04Z</time>
      </trkpt>
      <trkpt lat="50.67479000" lon="9.615070000">
        <ele>0.0000000</ele>
        <time>2010-01-01T13:20:22Z</time>
      </trkpt>
      <trkpt lat="50.67465000" lon="9.614550000">
        <ele>0.0000000</ele>
        <time>2010-01-01T13:20:36Z</time>
      </trkpt>
      <trkpt lat="50.67444000" lon="9.614040000">
        <ele>0.0000000</ele>
        <time>2010-01-01T13:20:52Z</time>
      </trkpt>
      <trkpt lat="50.67415000" lon="9.613410000">
        <ele>0.0000000</ele>
        <time>2010-01-01T13:21:11Z</time>
      </trkpt>
      <trkpt lat="50.67409000" lon="9.613300000">
        <ele>0.0000000</ele>
        <time>2010-01-01T13:21:15Z</time>
      </trkpt>
      <trkpt lat="50.67408000" lon="9.613290000">
        <ele>0.0000000</ele>
        <time>2010-01-01T13:21:16Z</time>
      </trkpt>
      <trkpt lat="50.67321000" lon="9.611480000">
        <ele>0.0000000</ele>
        <time>2010-01-01T13:22:13Z</time>
      </trkpt>
      <trkpt lat="50.67296000" lon="9.610850000">
        <ele>0.0000000</ele>
        <time>2010-01-01T13:22:32Z</time>
      </trkpt>
      <trkpt lat="50.67273000" lon="9.610170000">
        <ele>0.0000000</ele>
        <time>2010-01-01T13:22:52Z</time>
      </trkpt>
      <trkpt lat="50.67265000" lon="9.609890000">
        <ele>0.0000000</ele>
        <time>2010-01-01T13:22:59Z</time>
      </trkpt>
      <trkpt lat="50.67250000" lon="9.609260000">
        <ele>0.0000000</ele>
        <time>2010-01-01T13:23:16Z</time>
      </trkpt>
      <trkpt lat="50.67237000" lon="9.608580000">
        <ele>0.0000000</ele>
        <time>2010-01-01T13:23:34Z</time>
      </trkpt>
      <trkpt lat="50.67232000" lon="9.608190000">
        <ele>0.0000000</ele>
        <time>2010-01-01T13:23:45Z</time>
      </trkpt>
      <trkpt lat="50.67234000" lon="9.607980000">
        <ele>0.0000000</ele>
        <time>2010-01-01T13:23:50Z</time>
      </trkpt>
      <trkpt lat="50.67233000" lon="9.607020000">
        <ele>0.0000000</ele>
        <time>2010-01-01T13:24:14Z</time>
      </trkpt>
      <trkpt lat="50.67234000" lon="9.606960000">
        <ele>0.0000000</ele>
        <time>2010-01-01T13:24:16Z</time>
      </trkpt>
      <trkpt lat="50.67236000" lon="9.606540000">
        <ele>0.0000000</ele>
        <time>2010-01-01T13:24:27Z</time>
      </trkpt>
      <trkpt lat="50.67243000" lon="9.605870000">
        <ele>0.0000000</ele>
        <time>2010-01-01T13:24:44Z</time>
      </trkpt>
      <trkpt lat="50.67249000" lon="9.605450000">
        <ele>0.0000000</ele>
        <time>2010-01-01T13:24:55Z</time>
      </trkpt>
      <trkpt lat="50.67259000" lon="9.604950000">
        <ele>0.0000000</ele>
        <time>2010-01-01T13:25:08Z</time>
      </trkpt>
      <trkpt lat="50.67259000" lon="9.604820000">
        <ele>0.0000000</ele>
        <time>2010-01-01T13:25:11Z</time>
      </trkpt>
      <trkpt lat="50.67273000" lon="9.604380000">
        <ele>0.0000000</ele>
        <time>2010-01-01T13:25:24Z</time>
      </trkpt>
      <trkpt lat="50.67304000" lon="9.603680000">
        <ele>0.0000000</ele>
        <time>2010-01-01T13:25:45Z</time>
      </trkpt>
      <trkpt lat="50.67349000" lon="9.602970000">
        <ele>0.0000000</ele>
        <time>2010-01-01T13:26:11Z</time>
      </trkpt>
      <trkpt lat="50.67376000" lon="9.602640000">
        <ele>0.0000000</ele>
        <time>2010-01-01T13:26:25Z</time>
      </trkpt>
      <trkpt lat="50.67418000" lon="9.602170000">
        <ele>0.0000000</ele>
        <time>2010-01-01T13:26:45Z</time>
      </trkpt>
      <trkpt lat="50.67617000" lon="9.600080000">
        <ele>0.0000000</ele>
        <time>2010-01-01T13:28:21Z</time>
      </trkpt>
      <trkpt lat="50.67625000" lon="9.600020000">
        <ele>0.0000000</ele>
        <time>2010-01-01T13:28:24Z</time>
      </trkpt>
      <trkpt lat="50.67639000" lon="9.599940000">
        <ele>0.0000000</ele>
        <time>2010-01-01T13:28:30Z</time>
      </trkpt>
      <trkpt lat="50.67675000" lon="9.599700000">
        <ele>0.0000000</ele>
        <time>2010-01-01T13:28:46Z</time>
      </trkpt>
      <trkpt lat="50.67682000" lon="9.599640000">
        <ele>0.0000000</ele>
        <time>2010-01-01T13:28:49Z</time>
      </trkpt>
      <trkpt lat="50.67696000" lon="9.599550000">
        <ele>0.0000000</ele>
        <time>2010-01-01T13:28:55Z</time>
      </trkpt>
      <trkpt lat="50.67719000" lon="9.599430000">
        <ele>0.0000000</ele>
        <time>2010-01-01T13:29:05Z</time>
      </trkpt>
      <trkpt lat="50.67745000" lon="9.599320000">
        <ele>0.0000000</ele>
        <time>2010-01-01T13:29:16Z</time>
      </trkpt>
      <trkpt lat="50.67762000" lon="9.599260000">
        <ele>0.0000000</ele>
        <time>2010-01-01T13:29:23Z</time>
      </trkpt>
      <trkpt lat="50.67766000" lon="9.599240000">
        <ele>0.0000000</ele>
        <time>2010-01-01T13:29:24Z</time>
      </trkpt>
      <trkpt lat="50.67769000" lon="9.599230000">
        <ele>0.0000000</ele>
        <time>2010-01-01T13:29:26Z</time>
      </trkpt>
      <trkpt lat="50.67779000" lon="9.599180000">
        <ele>0.0000000</ele>
        <time>2010-01-01T13:29:30Z</time>
      </trkpt>
      <trkpt lat="50.67816000" lon="9.599150000">
        <ele>0.0000000</ele>
        <time>2010-01-01T13:29:45Z</time>
      </trkpt>
      <trkpt lat="50.67852000" lon="9.599190000">
        <ele>0.0000000</ele>
        <time>2010-01-01T13:29:59Z</time>
      </trkpt>
      <trkpt lat="50.67884000" lon="9.599250000">
        <ele>0.0000000</ele>
        <time>2010-01-01T13:30:12Z</time>
      </trkpt>
      <trkpt lat="50.67933000" lon="9.599430000">
        <ele>0.0000000</ele>
        <time>2010-01-01T13:30:32Z</time>
      </trkpt>
      <trkpt lat="50.68091000" lon="9.600240000">
        <ele>0.0000000</ele>
        <time>2010-01-01T13:31:39Z</time>
      </trkpt>
      <trkpt lat="50.68120000" lon="9.600410000">
        <ele>0.0000000</ele>
        <time>2010-01-01T13:31:51Z</time>
      </trkpt>
      <trkpt lat="50.68197000" lon="9.600790000">
        <ele>0.0000000</ele>
        <time>2010-01-01T13:32:23Z</time>
      </trkpt>
      <trkpt lat="50.68234000" lon="9.600920000">
        <ele>0.0000000</ele>
        <time>2010-01-01T13:32:39Z</time>
      </trkpt>
      <trkpt lat="50.68269000" lon="9.600970000">
        <ele>0.0000000</ele>
        <time>2010-01-01T13:32:53Z</time>
      </trkpt>
      <trkpt lat="50.68308000" lon="9.600970000">
        <ele>0.0000000</ele>
        <time>2010-01-01T13:33:08Z</time>
      </trkpt>
      <trkpt lat="50.68343000" lon="9.600920000">
        <ele>0.0000000</ele>
        <time>2010-01-01T13:33:22Z</time>
      </trkpt>
      <trkpt lat="50.68381000" lon="9.600790000">
        <ele>0.0000000</ele>
        <time>2010-01-01T13:33:38Z</time>
      </trkpt>
      <trkpt lat="50.68416000" lon="9.600610000">
        <ele>0.0000000</ele>
        <time>2010-01-01T13:33:53Z</time>
      </trkpt>
      <trkpt lat="50.68545000" lon="9.599830000">
        <ele>0.0000000</ele>
        <time>2010-01-01T13:34:48Z</time>
      </trkpt>
      <trkpt lat="50.68665000" lon="9.599210000">
        <ele>0.0000000</ele>
        <time>2010-01-01T13:35:38Z</time>
      </trkpt>
      <trkpt lat="50.68670000" lon="9.599170000">
        <ele>0.0000000</ele>
        <time>2010-01-01T13:35:41Z</time>
      </trkpt>
      <trkpt lat="50.68674000" lon="9.599130000">
        <ele>0.0000000</ele>
        <time>2010-01-01T13:35:43Z</time>
      </trkpt>
      <trkpt lat="50.68678000" lon="9.599080000">
        <ele>0.0000000</ele>
        <time>2010-01-01T13:35:45Z</time>
      </trkpt>
      <trkpt lat="50.68685000" lon="9.598950000">
        <ele>0.0000000</ele>
        <time>2010-01-01T13:35:49Z</time>
      </trkpt>
      <trkpt lat="50.68688000" lon="9.598810000">
        <ele>0.0000000</ele>
        <time>2010-01-01T13:35:53Z</time>
      </trkpt>
      <trkpt lat="50.68689000" lon="9.598700000">
        <ele>0.0000000</ele>
        <time>2010-01-01T13:35:55Z</time>
      </trkpt>
      <trkpt lat="50.68668000" lon="9.592780000">
        <ele>0.0000000</ele>
        <time>2010-01-01T13:38:26Z</time>
      </trkpt>
      <trkpt lat="50.68670000" lon="9.592490000">
        <ele>0.0000000</ele>
        <time>2010-01-01T13:38:33Z</time>
      </trkpt>
      <trkpt lat="50.68674000" lon="9.592170000">
        <ele>0.0000000</ele>
        <time>2010-01-01T13:38:42Z</time>
      </trkpt>
      <trkpt lat="50.68674000" lon="9.592080000">
        <ele>0.0000000</ele>
        <time>2010-01-01T13:38:44Z</time>
      </trkpt>
      <trkpt lat="50.68640000" lon="9.591890000">
        <ele>0.0000000</ele>
        <time>2010-01-01T13:38:58Z</time>
      </trkpt>
      <trkpt lat="50.68626000" lon="9.591800000">
        <ele>0.0000000</ele>
        <time>2010-01-01T13:39:04Z</time>
      </trkpt>
      <trkpt lat="50.68607000" lon="9.591660000">
        <ele>0.0000000</ele>
        <time>2010-01-01T13:39:13Z</time>
      </trkpt>
      <trkpt lat="50.68600000" lon="9.591590000">
        <ele>0.0000000</ele>
        <time>2010-01-01T13:39:16Z</time>
      </trkpt>
      <trkpt lat="50.68590000" lon="9.591520000">
        <ele>0.0000000</ele>
        <time>2010-01-01T13:39:20Z</time>
      </trkpt>
      <trkpt lat="50.68572000" lon="9.591300000">
        <ele>0.0000000</ele>
        <time>2010-01-01T13:39:29Z</time>
      </trkpt>
      <trkpt lat="50.68537000" lon="9.590790000">
        <ele>0.0000000</ele>
        <time>2010-01-01T13:39:49Z</time>
      </trkpt>
      <trkpt lat="50.68524000" lon="9.590550000">
        <ele>0.0000000</ele>
        <time>2010-01-01T13:39:57Z</time>
      </trkpt>
      <trkpt lat="50.68493000" lon="9.589810000">
        <ele>0.0000000</ele>
        <time>2010-01-01T13:40:19Z</time>
      </trkpt>
      <trkpt lat="50.68489000" lon="9.589690000">
        <ele>0.0000000</ele>
        <time>2010-01-01T13:40:23Z</time>
      </trkpt>
      <trkpt lat="50.68487000" lon="9.589550000">
        <ele>0.0000000</ele>
        <time>2010-01-01T13:40:26Z</time>
      </trkpt>
      <trkpt lat="50.68468000" lon="9.588700000">
        <ele>0.0000000</ele>
        <time>2010-01-01T13:40:49Z</time>
      </trkpt>
      <trkpt lat="50.68464000" lon="9.588600000">
        <ele>0.0000000</ele>
        <time>2010-01-01T13:40:52Z</time>
      </trkpt>
      <trkpt lat="50.68459000" lon="9.588190000">
        <ele>0.0000000</ele>
        <time>2010-01-01T13:41:03Z</time>
      </trkpt>
      <trkpt lat="50.68457000" lon="9.587270000">
        <ele>0.0000000</ele>
        <time>2010-01-01T13:41:26Z</time>
      </trkpt>
      <trkpt lat="50.68467000" lon="9.586070000">
        <ele>0.0000000</ele>
        <time>2010-01-01T13:41:57Z</time>
      </trkpt>
      <trkpt lat="50.68476000" lon="9.585530000">
        <ele>0.0000000</ele>
        <time>2010-01-01T13:42:11Z</time>
      </trkpt>
      <trkpt lat="50.68480000" lon="9.585460000">
        <ele>0.0000000</ele>
        <time>2010-01-01T13:42:13Z</time>
      </trkpt>
      <trkpt lat="50.68495000" lon="9.584910000">
        <ele>0.0000000</ele>
        <time>2010-01-01T13:42:28Z</time>
      </trkpt>
      <trkpt lat="50.68496000" lon="9.584820000">
        <ele>0.0000000</ele>
        <time>2010-01-01T13:42:31Z</time>
      </trkpt>
      <trkpt lat="50.68507000" lon="9.584390000">
        <ele>0.0000000</ele>
        <time>2010-01-01T13:42:42Z</time>
      </trkpt>
      <trkpt lat="50.68524000" lon="9.583510000">
        <ele>0.0000000</ele>
        <time>2010-01-01T13:43:06Z</time>
      </trkpt>
      <trkpt lat="50.68532000" lon="9.582880000">
        <ele>0.0000000</ele>
        <time>2010-01-01T13:43:22Z</time>
      </trkpt>
      <trkpt lat="50.68540000" lon="9.582000000">
        <ele>0.0000000</ele>
        <time>2010-01-01T13:43:45Z</time>
      </trkpt>
      <trkpt lat="50.68536000" lon="9.580670000">
        <ele>0.0000000</ele>
        <time>2010-01-01T13:44:18Z</time>
      </trkpt>
      <trkpt lat="50.68520000" lon="9.579610000">
        <ele>0.0000000</ele>
        <time>2010-01-01T13:44:46Z</time>
      </trkpt>
      <trkpt lat="50.68513000" lon="9.579280000">
        <ele>0.0000000</ele>
        <time>2010-01-01T13:44:55Z</time>
      </trkpt>
      <trkpt lat="50.68461000" lon="9.577310000">
        <ele>0.0000000</ele>
        <time>2010-01-01T13:45:49Z</time>
      </trkpt>
      <trkpt lat="50.68446000" lon="9.576620000">
        <ele>0.0000000</ele>
        <time>2010-01-01T13:46:08Z</time>
      </trkpt>
      <trkpt lat="50.68428000" lon="9.575650000">
        <ele>0.0000000</ele>
        <time>2010-01-01T13:46:33Z</time>
      </trkpt>
      <trkpt lat="50.68422000" lon="9.575220000">
        <ele>0.0000000</ele>
        <time>2010-01-01T13:46:44Z</time>
      </trkpt>
      <trkpt lat="50.68414000" lon="9.574220000">
        <ele>0.0000000</ele>
        <time>2010-01-01T13:47:10Z</time>
      </trkpt>
      <trkpt lat="50.68405000" lon="9.572190000">
        <ele>0.0000000</ele>
        <time>2010-01-01T13:48:01Z</time>
      </trkpt>
      <trkpt lat="50.68397000" lon="9.571510000">
        <ele>0.0000000</ele>
        <time>2010-01-01T13:48:19Z</time>
      </trkpt>
      <trkpt lat="50.68387000" lon="9.570910000">
        <ele>0.0000000</ele>
        <time>2010-01-01T13:48:35Z</time>
      </trkpt>
      <trkpt lat="50.68374000" lon="9.570310000">
        <ele>0.0000000</ele>
        <time>2010-01-01T13:48:51Z</time>
      </trkpt>
      <trkpt lat="50.68372000" lon="9.570170000">
        <ele>0.0000000</ele>
        <time>2010-01-01T13:48:54Z</time>
      </trkpt>
      <trkpt lat="50.68360000" lon="9.569640000">
        <ele>0.0000000</ele>
        <time>2010-01-01T13:49:09Z</time>
      </trkpt>
      <trkpt lat="50.68337000" lon="9.568830000">
        <ele>0.0000000</ele>
        <time>2010-01-01T13:49:31Z</time>
      </trkpt>
      <trkpt lat="50.68322000" lon="9.568370000">
        <ele>0.0000000</ele>
        <time>2010-01-01T13:49:44Z</time>
      </trkpt>
      <trkpt lat="50.68271000" lon="9.567170000">
        <ele>0.0000000</ele>
        <time>2010-01-01T13:50:21Z</time>
      </trkpt>
      <trkpt lat="50.68261000" lon="9.567000000">
        <ele>0.0000000</ele>
        <time>2010-01-01T13:50:27Z</time>
      </trkpt>
      <trkpt lat="50.68230000" lon="9.566400000">
        <ele>0.0000000</ele>
        <time>2010-01-01T13:50:47Z</time>
      </trkpt>
      <trkpt lat="50.68190000" lon="9.565750000">
        <ele>0.0000000</ele>
        <time>2010-01-01T13:51:10Z</time>
      </trkpt>
      <trkpt lat="50.68162000" lon="9.565330000">
        <ele>0.0000000</ele>
        <time>2010-01-01T13:51:25Z</time>
      </trkpt>
      <trkpt lat="50.68132000" lon="9.564950000">
        <ele>0.0000000</ele>
        <time>2010-01-01T13:51:40Z</time>
      </trkpt>
      <trkpt lat="50.68100000" lon="9.564580000">
        <ele>0.0000000</ele>
        <time>2010-01-01T13:51:56Z</time>
      </trkpt>
      <trkpt lat="50.68035000" lon="9.563950000">
        <ele>0.0000000</ele>
        <time>2010-01-01T13:52:27Z</time>
      </trkpt>
      <trkpt lat="50.67988000" lon="9.563600000">
        <ele>0.0000000</ele>
        <time>2010-01-01T13:52:48Z</time>
      </trkpt>
      <trkpt lat="50.67955000" lon="9.563390000">
        <ele>0.0000000</ele>
        <time>2010-01-01T13:53:02Z</time>
      </trkpt>
      <trkpt lat="50.67909000" lon="9.563130000">
        <ele>0.0000000</ele>
        <time>2010-01-01T13:53:21Z</time>
      </trkpt>
      <trkpt lat="50.67867000" lon="9.562960000">
        <ele>0.0000000</ele>
        <time>2010-01-01T13:53:39Z</time>
      </trkpt>
      <trkpt lat="50.67819000" lon="9.562820000">
        <ele>0.0000000</ele>
        <time>2010-01-01T13:53:58Z</time>
      </trkpt>
      <trkpt lat="50.67761000" lon="9.562680000">
        <ele>0.0000000</ele>
        <time>2010-01-01T13:54:22Z</time>
      </trkpt>
      <trkpt lat="50.67719000" lon="9.562630000">
        <ele>0.0000000</ele>
        <time>2010-01-01T13:54:39Z</time>
      </trkpt>
      <trkpt lat="50.67715000" lon="9.562630000">
        <ele>0.0000000</ele>
        <time>2010-01-01T13:54:40Z</time>
      </trkpt>
      <trkpt lat="50.67678000" lon="9.562670000">
        <ele>0.0000000</ele>
        <time>2010-01-01T13:54:55Z</time>
      </trkpt>
      <trkpt lat="50.67564000" lon="9.562940000">
        <ele>0.0000000</ele>
        <time>2010-01-01T13:55:41Z</time>
      </trkpt>
      <trkpt lat="50.67555000" lon="9.562970000">
        <ele>0.0000000</ele>
        <time>2010-01-01T13:55:45Z</time>
      </trkpt>
      <trkpt lat="50.67443000" lon="9.563190000">
        <ele>0.0000000</ele>
        <time>2010-01-01T13:56:30Z</time>
      </trkpt>
      <trkpt lat="50.67426000" lon="9.563190000">
        <ele>0.0000000</ele>
        <time>2010-01-01T13:56:37Z</time>
      </trkpt>
      <trkpt lat="50.67331000" lon="9.563020000">
        <ele>0.0000000</ele>
        <time>2010-01-01T13:57:15Z</time>
      </trkpt>
      <trkpt lat="50.67305000" lon="9.562840000">
        <ele>0.0000000</ele>
        <time>2010-01-01T13:57:27Z</time>
      </trkpt>
      <trkpt lat="50.67287000" lon="9.562560000">
        <ele>0.0000000</ele>
        <time>2010-01-01T13:57:37Z</time>
      </trkpt>
      <trkpt lat="50.67275000" lon="9.562220000">
        <ele>0.0000000</ele>
        <time>2010-01-01T13:57:47Z</time>
      </trkpt>
      <trkpt lat="50.67248000" lon="9.561730000">
        <ele>0.0000000</ele>
        <time>2010-01-01T13:58:03Z</time>
      </trkpt>
      <trkpt lat="50.67235000" lon="9.561520000">
        <ele>0.0000000</ele>
        <time>2010-01-01T13:58:10Z</time>
      </trkpt>
      <trkpt lat="50.67227000" lon="9.561320000">
        <ele>0.0000000</ele>
        <time>2010-01-01T13:58:16Z</time>
      </trkpt>
      <trkpt lat="50.67222000" lon="9.561130000">
        <ele>0.0000000</ele>
        <time>2010-01-01T13:58:22Z</time>
      </trkpt>
      <trkpt lat="50.67214000" lon="9.560610000">
        <ele>0.0000000</ele>
        <time>2010-01-01T13:58:35Z</time>
      </trkpt>
      <trkpt lat="50.67205000" lon="9.559850000">
        <ele>0.0000000</ele>
        <time>2010-01-01T13:58:55Z</time>
      </trkpt>
      <trkpt lat="50.67203000" lon="9.558840000">
        <ele>0.0000000</ele>
        <time>2010-01-01T13:59:21Z</time>
      </trkpt>
      <trkpt lat="50.67206000" lon="9.558640000">
        <ele>0.0000000</ele>
        <time>2010-01-01T13:59:26Z</time>
      </trkpt>
      <trkpt lat="50.67206000" lon="9.558510000">
        <ele>0.0000000</ele>
        <time>2010-01-01T13:59:29Z</time>
      </trkpt>
      <trkpt lat="50.67204000" lon="9.558190000">
        <ele>0.0000000</ele>
        <time>2010-01-01T13:59:37Z</time>
      </trkpt>
      <trkpt lat="50.67202000" lon="9.558080000">
        <ele>0.0000000</ele>
        <time>2010-01-01T13:59:40Z</time>
      </trkpt>
      <trkpt lat="50.67193000" lon="9.557850000">
        <ele>0.0000000</ele>
        <time>2010-01-01T13:59:47Z</time>
      </trkpt>
      <trkpt lat="50.67184000" lon="9.557680000">
        <ele>0.0000000</ele>
        <time>2010-01-01T13:59:53Z</time>
      </trkpt>
      <trkpt lat="50.67171000" lon="9.557520000">
        <ele>0.0000000</ele>
        <time>2010-01-01T13:59:59Z</time>
      </trkpt>
      <trkpt lat="50.67155000" lon="9.557380000">
        <ele>0.0000000</ele>
        <time>2010-01-01T14:00:06Z</time>
      </trkpt>
      <trkpt lat="50.67146000" lon="9.557350000">
        <ele>0.0000000</ele>
        <time>2010-01-01T14:00:10Z</time>
      </trkpt>
      <trkpt lat="50.67120000" lon="9.557140000">
        <ele>0.0000000</ele>
        <time>2010-01-01T14:00:22Z</time>
      </trkpt>
      <trkpt lat="50.67074000" lon="9.556830000">
        <ele>0.0000000</ele>
        <time>2010-01-01T14:00:42Z</time>
      </trkpt>
      <trkpt lat="50.67067000" lon="9.556770000">
        <ele>0.0000000</ele>
        <time>2010-01-01T14:00:45Z</time>
      </trkpt>
      <trkpt lat="50.67031000" lon="9.556510000">
        <ele>0.0000000</ele>
        <time>2010-01-01T14:01:01Z</time>
      </trkpt>
      <trkpt lat="50.67005000" lon="9.556300000">
        <ele>0.0000000</ele>
        <time>2010-01-01T14:01:13Z</time>
      </trkpt>
      <trkpt lat="50.66991000" lon="9.556070000">
        <ele>0.0000000</ele>
        <time>2010-01-01T14:01:21Z</time>
      </trkpt>
      <trkpt lat="50.66984000" lon="9.555820000">
        <ele>0.0000000</ele>
        <time>2010-01-01T14:01:28Z</time>
      </trkpt>
      <trkpt lat="50.66969000" lon="9.554340000">
        <ele>0.0000000</ele>
        <time>2010-01-01T14:02:06Z</time>
      </trkpt>
      <trkpt lat="50.66928000" lon="9.551810000">
        <ele>0.0000000</ele>
        <time>2010-01-01T14:03:12Z</time>
      </trkpt>
      <trkpt lat="50.66900000" lon="9.550540000">
        <ele>0.0000000</ele>
        <time>2010-01-01T14:03:46Z</time>
      </trkpt>
      <trkpt lat="50.66882000" lon="9.549840000">
        <ele>0.0000000</ele>
        <time>2010-01-01T14:04:05Z</time>
      </trkpt>
      <trkpt lat="50.66882000" lon="9.549790000">
        <ele>0.0000000</ele>
        <time>2010-01-01T14:04:06Z</time>
      </trkpt>
      <trkpt lat="50.66859000" lon="9.548880000">
        <ele>0.0000000</ele>
        <time>2010-01-01T14:04:31Z</time>
      </trkpt>
      <trkpt lat="50.66786000" lon="9.546910000">
        <ele>0.0000000</ele>
        <time>2010-01-01T14:05:29Z</time>
      </trkpt>
      <trkpt lat="50.66757000" lon="9.546320000">
        <ele>0.0000000</ele>
        <time>2010-01-01T14:05:48Z</time>
      </trkpt>
      <trkpt lat="50.66754000" lon="9.546270000">
        <ele>0.0000000</ele>
        <time>2010-01-01T14:05:50Z</time>
      </trkpt>
      <trkpt lat="50.66752000" lon="9.546220000">
        <ele>0.0000000</ele>
        <time>2010-01-01T14:05:51Z</time>
      </trkpt>
      <trkpt lat="50.66720000" lon="9.545610000">
        <ele>0.0000000</ele>
        <time>2010-01-01T14:06:12Z</time>
      </trkpt>
      <trkpt lat="50.66601000" lon="9.543680000">
        <ele>0.0000000</ele>
        <time>2010-01-01T14:07:20Z</time>
      </trkpt>
      <trkpt lat="50.66439000" lon="9.540600000">
        <ele>0.0000000</ele>
        <time>2010-01-01T14:09:01Z</time>
      </trkpt>
      <trkpt lat="50.66404000" lon="9.539800000">
        <ele>0.0000000</ele>
        <time>2010-01-01T14:09:26Z</time>
      </trkpt>
      <trkpt lat="50.66388000" lon="9.539340000">
        <ele>0.0000000</ele>
        <time>2010-01-01T14:09:39Z</time>
      </trkpt>
      <trkpt lat="50.66361000" lon="9.538410000">
        <ele>0.0000000</ele>
        <time>2010-01-01T14:10:05Z</time>
      </trkpt>
      <trkpt lat="50.66346000" lon="9.537340000">
        <ele>0.0000000</ele>
        <time>2010-01-01T14:10:33Z</time>
      </trkpt>
      <trkpt lat="50.66328000" lon="9.535600000">
        <ele>0.0000000</ele>
        <time>2010-01-01T14:11:18Z</time>
      </trkpt>
      <trkpt lat="50.66319000" lon="9.535080000">
        <ele>0.0000000</ele>
        <time>2010-01-01T14:11:32Z</time>
      </trkpt>
      <trkpt lat="50.66316000" lon="9.534960000">
        <ele>0.0000000</ele>
        <time>2010-01-01T14:11:35Z</time>
      </trkpt>
      <trkpt lat="50.66293000" lon="9.534340000">
        <ele>0.0000000</ele>
        <time>2010-01-01T14:11:53Z</time>
      </trkpt>
      <trkpt lat="50.66256000" lon="9.533730000">
        <ele>0.0000000</ele>
        <time>2010-01-01T14:12:14Z</time>
      </trkpt>
      <trkpt lat="50.66237000" lon="9.533510000">
        <ele>0.0000000</ele>
        <time>2010-01-01T14:12:24Z</time>
      </trkpt>
      <trkpt lat="50.66217000" lon="9.533310000">
        <ele>0.0000000</ele>
        <time>2010-01-01T14:12:33Z</time>
      </trkpt>
      <trkpt lat="50.66193000" lon="9.533130000">
        <ele>0.0000000</ele>
        <time>2010-01-01T14:12:44Z</time>
      </trkpt>
      <trkpt lat="50.66163000" lon="9.532980000">
        <ele>0.0000000</ele>
        <time>2010-01-01T14:12:57Z</time>
      </trkpt>
      <trkpt lat="50.66105000" lon="9.532790000">
        <ele>0.0000000</ele>
        <time>2010-01-01T14:13:20Z</time>
      </trkpt>
      <trkpt lat="50.66069000" lon="9.532630000">
        <ele>0.0000000</ele>
        <time>2010-01-01T14:13:35Z</time>
      </trkpt>
      <trkpt lat="50.66045000" lon="9.532460000">
        <ele>0.0000000</ele>
        <time>2010-01-01T14:13:46Z</time>
      </trkpt>
      <trkpt lat="50.66025000" lon="9.532260000">
        <ele>0.0000000</ele>
        <time>2010-01-01T14:13:55Z</time>
      </trkpt>
      <trkpt lat="50.66010000" lon="9.532090000">
        <ele>0.0000000</ele>
        <time>2010-01-01T14:14:03Z</time>
      </trkpt>
      <trkpt lat="50.66005000" lon="9.532010000">
        <ele>0.0000000</ele>
        <time>2010-01-01T14:14:06Z</time>
      </trkpt>
      <trkpt lat="50.66001000" lon="9.531920000">
        <ele>0.0000000</ele>
        <time>2010-01-01T14:14:08Z</time>
      </trkpt>
      <trkpt lat="50.65971000" lon="9.531370000">
        <ele>0.0000000</ele>
        <time>2010-01-01T14:14:27Z</time>
      </trkpt>
      <trkpt lat="50.65922000" lon="9.530400000">
        <ele>0.0000000</ele>
        <time>2010-01-01T14:14:58Z</time>
      </trkpt>
      <trkpt lat="50.65905000" lon="9.530120000">
        <ele>0.0000000</ele>
        <time>2010-01-01T14:15:08Z</time>
      </trkpt>
      <trkpt lat="50.65896000" lon="9.529990000">
        <ele>0.0000000</ele>
        <time>2010-01-01T14:15:13Z</time>
      </trkpt>
      <trkpt lat="50.65883000" lon="9.529840000">
        <ele>0.0000000</ele>
        <time>2010-01-01T14:15:19Z</time>
      </trkpt>
      <trkpt lat="50.65875000" lon="9.529790000">
        <ele>0.0000000</ele>
        <time>2010-01-01T14:15:23Z</time>
      </trkpt>
      <trkpt lat="50.65839000" lon="9.529400000">
        <ele>0.0000000</ele>
        <time>2010-01-01T14:15:40Z</time>
      </trkpt>
      <trkpt lat="50.65812000" lon="9.529210000">
        <ele>0.0000000</ele>
        <time>2010-01-01T14:15:52Z</time>
      </trkpt>
      <trkpt lat="50.65784000" lon="9.529070000">
        <ele>0.0000000</ele>
        <time>2010-01-01T14:16:04Z</time>
      </trkpt>
      <trkpt lat="50.65775000" lon="9.529040000">
        <ele>0.0000000</ele>
        <time>2010-01-01T14:16:08Z</time>
      </trkpt>
      <trkpt lat="50.65742000" lon="9.528980000">
        <ele>0.0000000</ele>
        <time>2010-01-01T14:16:21Z</time>
      </trkpt>
      <trkpt lat="50.65719000" lon="9.528960000">
        <ele>0.0000000</ele>
        <time>2010-01-01T14:16:30Z</time>
      </trkpt>
      <trkpt lat="50.65693000" lon="9.528990000">
        <ele>0.0000000</ele>
        <time>2010-01-01T14:16:41Z</time>
      </trkpt>
      <trkpt lat="50.65672000" lon="9.529040000">
        <ele>0.0000000</ele>
        <time>2010-01-01T14:16:49Z</time>
      </trkpt>
      <trkpt lat="50.65653000" lon="9.529110000">
        <ele>0.0000000</ele>
        <time>2010-01-01T14:16:57Z</time>
      </trkpt>
      <trkpt lat="50.65558000" lon="9.529520000">
        <ele>0.0000000</ele>
        <time>2010-01-01T14:17:36Z</time>
      </trkpt>
      <trkpt lat="50.65538000" lon="9.529580000">
        <ele>0.0000000</ele>
        <time>2010-01-01T14:17:44Z</time>
      </trkpt>
      <trkpt lat="50.65509000" lon="9.529610000">
        <ele>0.0000000</ele>
        <time>2010-01-01T14:17:56Z</time>
      </trkpt>
      <trkpt lat="50.65407000" lon="9.529590000">
        <ele>0.0000000</ele>
        <time>2010-01-01T14:18:37Z</time>
      </trkpt>
      <trkpt lat="50.65406000" lon="9.529580000">
        <ele>0.0000000</ele>
        <time>2010-01-01T14:18:37Z</time>
      </trkpt>
      <trkpt lat="50.65396000" lon="9.529530000">
        <ele>0.0000000</ele>
        <time>2010-01-01T14:18:42Z</time>
      </trkpt>
      <trkpt lat="50.65388000" lon="9.529450000">
        <ele>0.0000000</ele>
        <time>2010-01-01T14:18:45Z</time>
      </trkpt>
      <trkpt lat="50.65312000" lon="9.528370000">
        <ele>0.0000000</ele>
        <time>2010-01-01T14:19:26Z</time>
      </trkpt>
      <trkpt lat="50.65303000" lon="9.528220000">
        <ele>0.0000000</ele>
        <time>2010-01-01T14:19:32Z</time>
      </trkpt>
      <trkpt lat="50.65286000" lon="9.527830000">
        <ele>0.0000000</ele>
        <time>2010-01-01T14:19:44Z</time>
      </trkpt>
      <trkpt lat="50.65230000" lon="9.526380000">
        <ele>0.0000000</ele>
        <time>2010-01-01T14:20:27Z</time>
      </trkpt>
      <trkpt lat="50.65217000" lon="9.525970000">
        <ele>0.0000000</ele>
        <time>2010-01-01T14:20:38Z</time>
      </trkpt>
      <trkpt lat="50.65167000" lon="9.524060000">
        <ele>0.0000000</ele>
        <time>2010-01-01T14:21:31Z</time>
      </trkpt>
      <trkpt lat="50.65146000" lon="9.523150000">
        <ele>0.0000000</ele>
        <time>2010-01-01T14:21:55Z</time>
      </trkpt>
      <trkpt lat="50.65122000" lon="9.521840000">
        <ele>0.0000000</ele>
        <time>2010-01-01T14:22:30Z</time>
      </trkpt>
      <trkpt lat="50.65105000" lon="9.520010000">
        <ele>0.0000000</ele>
        <time>2010-01-01T14:23:17Z</time>
      </trkpt>
      <trkpt lat="50.65106000" lon="9.519530000">
        <ele>0.0000000</ele>
        <time>2010-01-01T14:23:29Z</time>
      </trkpt>
      <trkpt lat="50.65108000" lon="9.519420000">
        <ele>0.0000000</ele>
        <time>2010-01-01T14:23:32Z</time>
      </trkpt>
      <trkpt lat="50.65109000" lon="9.519310000">
        <ele>0.0000000</ele>
        <time>2010-01-01T14:23:35Z</time>
      </trkpt>
      <trkpt lat="50.65109000" lon="9.518310000">
        <ele>0.0000000</ele>
        <time>2010-01-01T14:24:00Z</time>
      </trkpt>
      <trkpt lat="50.65111000" lon="9.518130000">
        <ele>0.0000000</ele>
        <time>2010-01-01T14:24:05Z</time>
      </trkpt>
      <trkpt lat="50.65113000" lon="9.518070000">
        <ele>0.0000000</ele>
        <time>2010-01-01T14:24:07Z</time>
      </trkpt>
      <trkpt lat="50.65142000" lon="9.517560000">
        <ele>0.0000000</ele>
        <time>2010-01-01T14:24:24Z</time>
      </trkpt>
      <trkpt lat="50.65148000" lon="9.517430000">
        <ele>0.0000000</ele>
        <time>2010-01-01T14:24:28Z</time>
      </trkpt>
      <trkpt lat="50.65152000" lon="9.517300000">
        <ele>0.0000000</ele>
        <time>2010-01-01T14:24:32Z</time>
      </trkpt>
      <trkpt lat="50.65155000" lon="9.517070000">
        <ele>0.0000000</ele>
        <time>2010-01-01T14:24:38Z</time>
      </trkpt>
      <trkpt lat="50.65154000" lon="9.516850000">
        <ele>0.0000000</ele>
        <time>2010-01-01T14:24:43Z</time>
      </trkpt>
      <trkpt lat="50.65144000" lon="9.516400000">
        <ele>0.0000000</ele>
        <time>2010-01-01T14:24:55Z</time>
      </trkpt>
      <trkpt lat="50.65134000" lon="9.516150000">
        <ele>0.0000000</ele>
        <time>2010-01-01T14:25:03Z</time>
      </trkpt>
      <trkpt lat="50.65132000" lon="9.516080000">
        <ele>0.0000000</ele>
        <time>2010-01-01T14:25:05Z</time>
      </trkpt>
      <trkpt lat="50.65091000" lon="9.515410000">
        <ele>0.0000000</ele>
        <time>2010-01-01T14:25:28Z</time>
      </trkpt>
      <trkpt lat="50.65065000" lon="9.515080000">
        <ele>0.0000000</ele>
        <time>2010-01-01T14:25:42Z</time>
      </trkpt>
      <trkpt lat="50.65040000" lon="9.514800000">
        <ele>0.0000000</ele>
        <time>2010-01-01T14:25:54Z</time>
      </trkpt>
      <trkpt lat="50.64992000" lon="9.514410000">
        <ele>0.0000000</ele>
        <time>2010-01-01T14:26:16Z</time>
      </trkpt>
      <trkpt lat="50.64895000" lon="9.513810000">
        <ele>0.0000000</ele>
        <time>2010-01-01T14:26:57Z</time>
      </trkpt>
      <trkpt lat="50.64851000" lon="9.513650000">
        <ele>0.0000000</ele>
        <time>2010-01-01T14:27:15Z</time>
      </trkpt>
      <trkpt lat="50.64835000" lon="9.513630000">
        <ele>0.0000000</ele>
        <time>2010-01-01T14:27:22Z</time>
      </trkpt>
      <trkpt lat="50.64787000" lon="9.513600000">
        <ele>0.0000000</ele>
        <time>2010-01-01T14:27:41Z</time>
      </trkpt>
      <trkpt lat="50.64717000" lon="9.513760000">
        <ele>0.0000000</ele>
        <time>2010-01-01T14:28:09Z</time>
      </trkpt>
      <trkpt lat="50.64655000" lon="9.513950000">
        <ele>0.0000000</ele>
        <time>2010-01-01T14:28:35Z</time>
      </trkpt>
      <trkpt lat="50.64646000" lon="9.513990000">
        <ele>0.0000000</ele>
        <time>2010-01-01T14:28:38Z</time>
      </trkpt>
      <trkpt lat="50.64602000" lon="9.514040000">
        <ele>0.0000000</ele>
        <time>2010-01-01T14:28:56Z</time>
      </trkpt>
      <trkpt lat="50.64596000" lon="9.514030000">
        <ele>0.0000000</ele>
        <time>2010-01-01T14:28:59Z</time>
      </trkpt>
      <trkpt lat="50.64564000" lon="9.513940000">
        <ele>0.0000000</ele>
        <time>2010-01-01T14:29:12Z</time>
      </trkpt>
      <trkpt lat="50.64516000" lon="9.513730000">
        <ele>0.0000000</ele>
        <time>2010-01-01T14:29:31Z</time>
      </trkpt>
      <trkpt lat="50.64408000" lon="9.513170000">
        <ele>0.0000000</ele>
        <time>2010-01-01T14:30:17Z</time>
      </trkpt>
      <trkpt lat="50.64332000" lon="9.512640000">
        <ele>0.0000000</ele>
        <time>2010-01-01T14:30:50Z</time>
      </trkpt>
      <trkpt lat="50.64289000" lon="9.512390000">
        <ele>0.0000000</ele>
        <time>2010-01-01T14:31:09Z</time>
      </trkpt>
      <trkpt lat="50.64280000" lon="9.512310000">
        <ele>0.0000000</ele>
        <time>2010-01-01T14:31:13Z</time>
      </trkpt>
      <trkpt lat="50.64276000" lon="9.512230000">
        <ele>0.0000000</ele>
        <time>2010-01-01T14:31:15Z</time>
      </trkpt>
      <trkpt lat="50.64270000" lon="9.512030000">
        <ele>0.0000000</ele>
        <time>2010-01-01T14:31:21Z</time>
      </trkpt>
      <trkpt lat="50.64243000" lon="9.510800000">
        <ele>0.0000000</ele>
        <time>2010-01-01T14:31:54Z</time>
      </trkpt>
      <trkpt lat="50.64243000" lon="9.510750000">
        <ele>0.0000000</ele>
        <time>2010-01-01T14:31:55Z</time>
      </trkpt>
      <trkpt lat="50.64231000" lon="9.510400000">
        <ele>0.0000000</ele>
        <time>2010-01-01T14:32:05Z</time>
      </trkpt>
      <trkpt lat="50.64201000" lon="9.509830000">
        <ele>0.0000000</ele>
        <time>2010-01-01T14:32:24Z</time>
      </trkpt>
      <trkpt lat="50.64110000" lon="9.508860000">
        <ele>0.0000000</ele>
        <time>2010-01-01T14:33:08Z</time>
      </trkpt>
      <trkpt lat="50.64069000" lon="9.508500000">
        <ele>0.0000000</ele>
        <time>2010-01-01T14:33:27Z</time>
      </trkpt>
      <trkpt lat="50.64006000" lon="9.507870000">
        <ele>0.0000000</ele>
        <time>2010-01-01T14:33:57Z</time>
      </trkpt>
      <trkpt lat="50.63962000" lon="9.507510000">
        <ele>0.0000000</ele>
        <time>2010-01-01T14:34:17Z</time>
      </trkpt>
      <trkpt lat="50.63920000" lon="9.507200000">
        <ele>0.0000000</ele>
        <time>2010-01-01T14:34:35Z</time>
      </trkpt>
      <trkpt lat="50.63906000" lon="9.507130000">
        <ele>0.0000000</ele>
        <time>2010-01-01T14:34:41Z</time>
      </trkpt>
      <trkpt lat="50.63875000" lon="9.507000000">
        <ele>0.0000000</ele>
        <time>2010-01-01T14:34:54Z</time>
      </trkpt>
      <trkpt lat="50.63841000" lon="9.506930000">
        <ele>0.0000000</ele>
        <time>2010-01-01T14:35:08Z</time>
      </trkpt>
      <trkpt lat="50.63774000" lon="9.506910000">
        <ele>0.0000000</ele>
        <time>2010-01-01T14:35:34Z</time>
      </trkpt>
      <trkpt lat="50.63745000" lon="9.506980000">
        <ele>0.0000000</ele>
        <time>2010-01-01T14:35:46Z</time>
      </trkpt>
      <trkpt lat="50.63709000" lon="9.507100000">
        <ele>0.0000000</ele>
        <time>2010-01-01T14:36:01Z</time>
      </trkpt>
      <trkpt lat="50.63693000" lon="9.507180000">
        <ele>0.0000000</ele>
        <time>2010-01-01T14:36:08Z</time>
      </trkpt>
      <trkpt lat="50.63482000" lon="9.508430000">
        <ele>0.0000000</ele>
        <time>2010-01-01T14:37:38Z</time>
      </trkpt>
      <trkpt lat="50.63443000" lon="9.508640000">
        <ele>0.0000000</ele>
        <time>2010-01-01T14:37:54Z</time>
      </trkpt>
      <trkpt lat="50.63400000" lon="9.508800000">
        <ele>0.0000000</ele>
        <time>2010-01-01T14:38:12Z</time>
      </trkpt>
      <trkpt lat="50.63391000" lon="9.508820000">
        <ele>0.0000000</ele>
        <time>2010-01-01T14:38:16Z</time>
      </trkpt>
      <trkpt lat="50.63353000" lon="9.508870000">
        <ele>0.0000000</ele>
        <time>2010-01-01T14:38:31Z</time>
      </trkpt>
      <trkpt lat="50.63345000" lon="9.508830000">
        <ele>0.0000000</ele>
        <time>2010-01-01T14:38:34Z</time>
      </trkpt>
      <trkpt lat="50.63316000" lon="9.508830000">
        <ele>0.0000000</ele>
        <time>2010-01-01T14:38:46Z</time>
      </trkpt>
      <trkpt lat="50.63288000" lon="9.508860000">
        <ele>0.0000000</ele>
        <time>2010-01-01T14:38:57Z</time>
      </trkpt>
      <trkpt lat="50.63280000" lon="9.508900000">
        <ele>0.0000000</ele>
        <time>2010-01-01T14:39:00Z</time>
      </trkpt>
      <trkpt lat="50.63217000" lon="9.508940000">
        <ele>0.0000000</ele>
        <time>2010-01-01T14:39:26Z</time>
      </trkpt>
      <trkpt lat="50.63173000" lon="9.508860000">
        <ele>0.0000000</ele>
        <time>2010-01-01T14:39:43Z</time>
      </trkpt>
      <trkpt lat="50.63087000" lon="9.508620000">
        <ele>0.0000000</ele>
        <time>2010-01-01T14:40:18Z</time>
      </trkpt>
      <trkpt lat="50.63037000" lon="9.508360000">
        <ele>0.0000000</ele>
        <time>2010-01-01T14:40:40Z</time>
      </trkpt>
      <trkpt lat="50.62999000" lon="9.508120000">
        <ele>0.0000000</ele>
        <time>2010-01-01T14:40:56Z</time>
      </trkpt>
      <trkpt lat="50.62887000" lon="9.507350000">
        <ele>0.0000000</ele>
        <time>2010-01-01T14:41:45Z</time>
      </trkpt>
      <trkpt lat="50.62858000" lon="9.507190000">
        <ele>0.0000000</ele>
        <time>2010-01-01T14:41:57Z</time>
      </trkpt>
      <trkpt lat="50.62743000" lon="9.506870000">
        <ele>0.0000000</ele>
        <time>2010-01-01T14:42:44Z</time>
      </trkpt>
      <trkpt lat="50.62718000" lon="9.506840000">
        <ele>0.0000000</ele>
        <time>2010-01-01T14:42:54Z</time>
      </trkpt>
      <trkpt lat="50.62677000" lon="9.506830000">
        <ele>0.0000000</ele>
        <time>2010-01-01T14:43:10Z</time>
      </trkpt>
      <trkpt lat="50.62614000" lon="9.506910000">
        <ele>0.0000000</ele>
        <time>2010-01-01T14:43:36Z</time>
      </trkpt>
      <trkpt lat="50.62544000" lon="9.507080000">
        <ele>0.0000000</ele>
        <time>2010-01-01T14:44:04Z</time>
      </trkpt>
      <trkpt lat="50.62518000" lon="9.507080000">
        <ele>0.0000000</ele>
        <time>2010-01-01T14:44:14Z</time>
      </trkpt>
      <trkpt lat="50.62494000" lon="9.507130000">
        <ele>0.0000000</ele>
        <time>2010-01-01T14:44:24Z</time>
      </trkpt>
      <trkpt lat="50.62475000" lon="9.507230000">
        <ele>0.0000000</ele>
        <time>2010-01-01T14:44:32Z</time>
      </trkpt>
      <trkpt lat="50.62378000" lon="9.507880000">
        <ele>0.0000000</ele>
        <time>2010-01-01T14:45:14Z</time>
      </trkpt>
      <trkpt lat="50.62356000" lon="9.508060000">
        <ele>0.0000000</ele>
        <time>2010-01-01T14:45:24Z</time>
      </trkpt>
      <trkpt lat="50.62339000" lon="9.508240000">
        <ele>0.0000000</ele>
        <time>2010-01-01T14:45:32Z</time>
      </trkpt>
      <trkpt lat="50.62326000" lon="9.508420000">
        <ele>0.0000000</ele>
        <time>2010-01-01T14:45:39Z</time>
      </trkpt>
      <trkpt lat="50.62307000" lon="9.508740000">
        <ele>0.0000000</ele>
        <time>2010-01-01T14:45:50Z</time>
      </trkpt>
      <trkpt lat="50.62293000" lon="9.509020000">
        <ele>0.0000000</ele>
        <time>2010-01-01T14:45:59Z</time>
      </trkpt>
      <trkpt lat="50.62273000" lon="9.509570000">
        <ele>0.0000000</ele>
        <time>2010-01-01T14:46:16Z</time>
      </trkpt>
      <trkpt lat="50.62267000" lon="9.509820000">
        <ele>0.0000000</ele>
        <time>2010-01-01T14:46:22Z</time>
      </trkpt>
      <trkpt lat="50.62243000" lon="9.510610000">
        <ele>0.0000000</ele>
        <time>2010-01-01T14:46:45Z</time>
      </trkpt>
      <trkpt lat="50.62220000" lon="9.511280000">
        <ele>0.0000000</ele>
        <time>2010-01-01T14:47:04Z</time>
      </trkpt>
      <trkpt lat="50.62162000" lon="9.512400000">
        <ele>0.0000000</ele>
        <time>2010-01-01T14:47:41Z</time>
      </trkpt>
      <trkpt lat="50.62157000" lon="9.512570000">
        <ele>0.0000000</ele>
        <time>2010-01-01T14:47:45Z</time>
      </trkpt>
      <trkpt lat="50.62128000" lon="9.513810000">
        <ele>0.0000000</ele>
        <time>2010-01-01T14:48:19Z</time>
      </trkpt>
      <trkpt lat="50.62125000" lon="9.513900000">
        <ele>0.0000000</ele>
        <time>2010-01-01T14:48:22Z</time>
      </trkpt>
      <trkpt lat="50.62121000" lon="9.513970000">
        <ele>0.0000000</ele>
        <time>2010-01-01T14:48:24Z</time>
      </trkpt>
      <trkpt lat="50.62117000" lon="9.514020000">
        <ele>0.0000000</ele>
        <time>2010-01-01T14:48:26Z</time>
      </trkpt>
      <trkpt lat="50.62114000" lon="9.514080000">
        <ele>0.0000000</ele>
        <time>2010-01-01T14:48:28Z</time>
      </trkpt>
      <trkpt lat="50.62111000" lon="9.514120000">
        <ele>0.0000000</ele>
        <time>2010-01-01T14:48:30Z</time>
      </trkpt>
      <trkpt lat="50.62108000" lon="9.514140000">
        <ele>0.0000000</ele>
        <time>2010-01-01T14:48:31Z</time>
      </trkpt>
      <trkpt lat="50.62103000" lon="9.514160000">
        <ele>0.0000000</ele>
        <time>2010-01-01T14:48:33Z</time>
      </trkpt>
      <trkpt lat="50.62093000" lon="9.514180000">
        <ele>0.0000000</ele>
        <time>2010-01-01T14:48:37Z</time>
      </trkpt>
      <trkpt lat="50.62088000" lon="9.514170000">
        <ele>0.0000000</ele>
        <time>2010-01-01T14:48:39Z</time>
      </trkpt>
      <trkpt lat="50.62083000" lon="9.514150000">
        <ele>0.0000000</ele>
        <time>2010-01-01T14:48:41Z</time>
      </trkpt>
      <trkpt lat="50.62072000" lon="9.514050000">
        <ele>0.0000000</ele>
        <time>2010-01-01T14:48:46Z</time>
      </trkpt>
      <trkpt lat="50.62064000" lon="9.513910000">
        <ele>0.0000000</ele>
        <time>2010-01-01T14:48:51Z</time>
      </trkpt>
      <trkpt lat="50.62060000" lon="9.513750000">
        <ele>0.0000000</ele>
        <time>2010-01-01T14:48:55Z</time>
      </trkpt>
      <trkpt lat="50.62059000" lon="9.513680000">
        <ele>0.0000000</ele>
        <time>2010-01-01T14:48:57Z</time>
      </trkpt>
      <trkpt lat="50.62059000" lon="9.513500000">
        <ele>0.0000000</ele>
        <time>2010-01-01T14:49:02Z</time>
      </trkpt>
      <trkpt lat="50.62067000" lon="9.512860000">
        <ele>0.0000000</ele>
        <time>2010-01-01T14:49:18Z</time>
      </trkpt>
      <trkpt lat="50.62068000" lon="9.512700000">
        <ele>0.0000000</ele>
        <time>2010-01-01T14:49:22Z</time>
      </trkpt>
      <trkpt lat="50.62068000" lon="9.512470000">
        <ele>0.0000000</ele>
        <time>2010-01-01T14:49:28Z</time>
      </trkpt>
      <trkpt lat="50.62066000" lon="9.512250000">
        <ele>0.0000000</ele>
        <time>2010-01-01T14:49:34Z</time>
      </trkpt>
      <trkpt lat="50.62063000" lon="9.512110000">
        <ele>0.0000000</ele>
        <time>2010-01-01T14:49:38Z</time>
      </trkpt>
      <trkpt lat="50.62054000" lon="9.511890000">
        <ele>0.0000000</ele>
        <time>2010-01-01T14:49:44Z</time>
      </trkpt>
      <trkpt lat="50.62048000" lon="9.511800000">
        <ele>0.0000000</ele>
        <time>2010-01-01T14:49:48Z</time>
      </trkpt>
      <trkpt lat="50.62040000" lon="9.511700000">
        <ele>0.0000000</ele>
        <time>2010-01-01T14:49:52Z</time>
      </trkpt>
      <trkpt lat="50.62034000" lon="9.511640000">
        <ele>0.0000000</ele>
        <time>2010-01-01T14:49:54Z</time>
      </trkpt>
      <trkpt lat="50.62027000" lon="9.511590000">
        <ele>0.0000000</ele>
        <time>2010-01-01T14:49:58Z</time>
      </trkpt>
      <trkpt lat="50.62014000" lon="9.511530000">
        <ele>0.0000000</ele>
        <time>2010-01-01T14:50:03Z</time>
      </trkpt>
      <trkpt lat="50.62004000" lon="9.511510000">
        <ele>0.0000000</ele>
        <time>2010-01-01T14:50:07Z</time>
      </trkpt>
      <trkpt lat="50.61996000" lon="9.511520000">
        <ele>0.0000000</ele>
        <time>2010-01-01T14:50:10Z</time>
      </trkpt>
      <trkpt lat="50.61975000" lon="9.511570000">
        <ele>0.0000000</ele>
        <time>2010-01-01T14:50:19Z</time>
      </trkpt>
      <trkpt lat="50.61963000" lon="9.511630000">
        <ele>0.0000000</ele>
        <time>2010-01-01T14:50:24Z</time>
      </trkpt>
      <trkpt lat="50.61942000" lon="9.511770000">
        <ele>0.0000000</ele>
        <time>2010-01-01T14:50:33Z</time>
      </trkpt>
      <trkpt lat="50.61819000" lon="9.512910000">
        <ele>0.0000000</ele>
        <time>2010-01-01T14:51:30Z</time>
      </trkpt>
      <trkpt lat="50.61790000" lon="9.513100000">
        <ele>0.0000000</ele>
        <time>2010-01-01T14:51:43Z</time>
      </trkpt>
      <trkpt lat="50.61693000" lon="9.514000000">
        <ele>0.0000000</ele>
        <time>2010-01-01T14:52:28Z</time>
      </trkpt>
      <trkpt lat="50.61679000" lon="9.514170000">
        <ele>0.0000000</ele>
        <time>2010-01-01T14:52:35Z</time>
      </trkpt>
      <trkpt lat="50.61645000" lon="9.514450000">
        <ele>0.0000000</ele>
        <time>2010-01-01T14:52:50Z</time>
      </trkpt>
      <trkpt lat="50.61555000" lon="9.515010000">
        <ele>0.0000000</ele>
        <time>2010-01-01T14:53:29Z</time>
      </trkpt>
      <trkpt lat="50.61533000" lon="9.515160000">
        <ele>0.0000000</ele>
        <time>2010-01-01T14:53:38Z</time>
      </trkpt>
      <trkpt lat="50.61504000" lon="9.515420000">
        <ele>0.0000000</ele>
        <time>2010-01-01T14:53:52Z</time>
      </trkpt>
      <trkpt lat="50.61478000" lon="9.515710000">
        <ele>0.0000000</ele>
        <time>2010-01-01T14:54:04Z</time>
      </trkpt>
      <trkpt lat="50.61444000" lon="9.516260000">
        <ele>0.0000000</ele>
        <time>2010-01-01T14:54:24Z</time>
      </trkpt>
      <trkpt lat="50.61417000" lon="9.516920000">
        <ele>0.0000000</ele>
        <time>2010-01-01T14:54:44Z</time>
      </trkpt>
      <trkpt lat="50.61403000" lon="9.517450000">
        <ele>0.0000000</ele>
        <time>2010-01-01T14:54:59Z</time>
      </trkpt>
      <trkpt lat="50.61393000" lon="9.517770000">
        <ele>0.0000000</ele>
        <time>2010-01-01T14:55:08Z</time>
      </trkpt>
      <trkpt lat="50.61377000" lon="9.518200000">
        <ele>0.0000000</ele>
        <time>2010-01-01T14:55:20Z</time>
      </trkpt>
      <trkpt lat="50.61356000" lon="9.518590000">
        <ele>0.0000000</ele>
        <time>2010-01-01T14:55:33Z</time>
      </trkpt>
      <trkpt lat="50.61339000" lon="9.518840000">
        <ele>0.0000000</ele>
        <time>2010-01-01T14:55:43Z</time>
      </trkpt>
      <trkpt lat="50.61325000" lon="9.519010000">
        <ele>0.0000000</ele>
        <time>2010-01-01T14:55:50Z</time>
      </trkpt>
      <trkpt lat="50.61245000" lon="9.519860000">
        <ele>0.0000000</ele>
        <time>2010-01-01T14:56:28Z</time>
      </trkpt>
      <trkpt lat="50.61203000" lon="9.520590000">
        <ele>0.0000000</ele>
        <time>2010-01-01T14:56:53Z</time>
      </trkpt>
      <trkpt lat="50.61196000" lon="9.520680000">
        <ele>0.0000000</ele>
        <time>2010-01-01T14:56:57Z</time>
      </trkpt>
      <trkpt lat="50.61178000" lon="9.520850000">
        <ele>0.0000000</ele>
        <time>2010-01-01T14:57:05Z</time>
      </trkpt>
      <trkpt lat="50.61139000" lon="9.521090000">
        <ele>0.0000000</ele>
        <time>2010-01-01T14:57:22Z</time>
      </trkpt>
      <trkpt lat="50.61122000" lon="9.521140000">
        <ele>0.0000000</ele>
        <time>2010-01-01T14:57:29Z</time>
      </trkpt>
      <trkpt lat="50.61112000" lon="9.521160000">
        <ele>0.0000000</ele>
        <time>2010-01-01T14:57:33Z</time>
      </trkpt>
      <trkpt lat="50.61093000" lon="9.521240000">
        <ele>0.0000000</ele>
        <time>2010-01-01T14:57:41Z</time>
      </trkpt>
      <trkpt lat="50.61088000" lon="9.521280000">
        <ele>0.0000000</ele>
        <time>2010-01-01T14:57:43Z</time>
      </trkpt>
      <trkpt lat="50.61073000" lon="9.521480000">
        <ele>0.0000000</ele>
        <time>2010-01-01T14:57:51Z</time>
      </trkpt>
      <trkpt lat="50.61061000" lon="9.521620000">
        <ele>0.0000000</ele>
        <time>2010-01-01T14:57:57Z</time>
      </trkpt>
      <trkpt lat="50.61015000" lon="9.520650000">
        <ele>0.0000000</ele>
        <time>2010-01-01T14:58:28Z</time>
      </trkpt>
      <trkpt lat="50.60940000" lon="9.519190000">
        <ele>0.0000000</ele>
        <time>2010-01-01T14:59:15Z</time>
      </trkpt>
      <trkpt lat="50.60918000" lon="9.518800000">
        <ele>0.0000000</ele>
        <time>2010-01-01T14:59:29Z</time>
      </trkpt>
      <trkpt lat="50.60902000" lon="9.518560000">
        <ele>0.0000000</ele>
        <time>2010-01-01T14:59:38Z</time>
      </trkpt>
      <trkpt lat="50.60887000" lon="9.518360000">
        <ele>0.0000000</ele>
        <time>2010-01-01T14:59:45Z</time>
      </trkpt>
      <trkpt lat="50.60851000" lon="9.518020000">
        <ele>0.0000000</ele>
        <time>2010-01-01T15:00:02Z</time>
      </trkpt>
      <trkpt lat="50.60833000" lon="9.517890000">
        <ele>0.0000000</ele>
        <time>2010-01-01T15:00:10Z</time>
      </trkpt>
      <trkpt lat="50.60815000" lon="9.517780000">
        <ele>0.0000000</ele>
        <time>2010-01-01T15:00:18Z</time>
      </trkpt>
      <trkpt lat="50.60783000" lon="9.517640000">
        <ele>0.0000000</ele>
        <time>2010-01-01T15:00:31Z</time>
      </trkpt>
      <trkpt lat="50.60745000" lon="9.517570000">
        <ele>0.0000000</ele>
        <time>2010-01-01T15:00:46Z</time>
      </trkpt>
      <trkpt lat="50.60728000" lon="9.517560000">
        <ele>0.0000000</ele>
        <time>2010-01-01T15:00:53Z</time>
      </trkpt>
      <trkpt lat="50.60651000" lon="9.517650000">
        <ele>0.0000000</ele>
        <time>2010-01-01T15:01:24Z</time>
      </trkpt>
      <trkpt lat="50.60630000" lon="9.517630000">
        <ele>0.0000000</ele>
        <time>2010-01-01T15:01:33Z</time>
      </trkpt>
      <trkpt lat="50.60535000" lon="9.517290000">
        <ele>0.0000000</ele>
        <time>2010-01-01T15:02:12Z</time>
      </trkpt>
      <trkpt lat="50.60394000" lon="9.516910000">
        <ele>0.0000000</ele>
        <time>2010-01-01T15:03:09Z</time>
      </trkpt>
      <trkpt lat="50.60347000" lon="9.516710000">
        <ele>0.0000000</ele>
        <time>2010-01-01T15:03:28Z</time>
      </trkpt>
      <trkpt lat="50.60286000" lon="9.516360000">
        <ele>0.0000000</ele>
        <time>2010-01-01T15:03:54Z</time>
      </trkpt>
      <trkpt lat="50.60272000" lon="9.516260000">
        <ele>0.0000000</ele>
        <time>2010-01-01T15:04:00Z</time>
      </trkpt>
      <trkpt lat="50.60265000" lon="9.516200000">
        <ele>0.0000000</ele>
        <time>2010-01-01T15:04:04Z</time>
      </trkpt>
      <trkpt lat="50.60252000" lon="9.516070000">
        <ele>0.0000000</ele>
        <time>2010-01-01T15:04:10Z</time>
      </trkpt>
      <trkpt lat="50.60228000" lon="9.515750000">
        <ele>0.0000000</ele>
        <time>2010-01-01T15:04:22Z</time>
      </trkpt>
      <trkpt lat="50.60172000" lon="9.514810000">
        <ele>0.0000000</ele>
        <time>2010-01-01T15:04:55Z</time>
      </trkpt>
      <trkpt lat="50.60149000" lon="9.514480000">
        <ele>0.0000000</ele>
        <time>2010-01-01T15:05:08Z</time>
      </trkpt>
      <trkpt lat="50.60136000" lon="9.514330000">
        <ele>0.0000000</ele>
        <time>2010-01-01T15:05:14Z</time>
      </trkpt>
      <trkpt lat="50.60023000" lon="9.513540000">
        <ele>0.0000000</ele>
        <time>2010-01-01T15:06:04Z</time>
      </trkpt>
      <trkpt lat="50.59891000" lon="9.512470000">
        <ele>0.0000000</ele>
        <time>2010-01-01T15:07:03Z</time>
      </trkpt>
      <trkpt lat="50.59880000" lon="9.512350000">
        <ele>0.0000000</ele>
        <time>2010-01-01T15:07:08Z</time>
      </trkpt>
      <trkpt lat="50.59867000" lon="9.512180000">
        <ele>0.0000000</ele>
        <time>2010-01-01T15:07:15Z</time>
      </trkpt>
      <trkpt lat="50.59836000" lon="9.511690000">
        <ele>0.0000000</ele>
        <time>2010-01-01T15:07:33Z</time>
      </trkpt>
      <trkpt lat="50.59789000" lon="9.510670000">
        <ele>0.0000000</ele>
        <time>2010-01-01T15:08:05Z</time>
      </trkpt>
      <trkpt lat="50.59777000" lon="9.510490000">
        <ele>0.0000000</ele>
        <time>2010-01-01T15:08:11Z</time>
      </trkpt>
      <trkpt lat="50.59668000" lon="9.509220000">
        <ele>0.0000000</ele>
        <time>2010-01-01T15:09:06Z</time>
      </trkpt>
      <trkpt lat="50.59666000" lon="9.509190000">
        <ele>0.0000000</ele>
        <time>2010-01-01T15:09:07Z</time>
      </trkpt>
      <trkpt lat="50.59664000" lon="9.509100000">
        <ele>0.0000000</ele>
        <time>2010-01-01T15:09:09Z</time>
      </trkpt>
      <trkpt lat="50.59658000" lon="9.509000000">
        <ele>0.0000000</ele>
        <time>2010-01-01T15:09:13Z</time>
      </trkpt>
      <trkpt lat="50.59656000" lon="9.509100000">
        <ele>0.0000000</ele>
        <time>2010-01-01T15:09:15Z</time>
      </trkpt>
      <trkpt lat="50.59642000" lon="9.510130000">
        <ele>0.0000000</ele>
        <time>2010-01-01T15:09:42Z</time>
      </trkpt>
      <trkpt lat="50.59633000" lon="9.511040000">
        <ele>0.0000000</ele>
        <time>2010-01-01T15:10:05Z</time>
      </trkpt>
      <trkpt lat="50.59633000" lon="9.511370000">
        <ele>0.0000000</ele>
        <time>2010-01-01T15:10:14Z</time>
      </trkpt>
      <trkpt lat="50.59616000" lon="9.513560000">
        <ele>0.0000000</ele>
        <time>2010-01-01T15:11:10Z</time>
      </trkpt>
      <trkpt lat="50.59607000" lon="9.514320000">
        <ele>0.0000000</ele>
        <time>2010-01-01T15:11:30Z</time>
      </trkpt>
      <trkpt lat="50.59597000" lon="9.514810000">
        <ele>0.0000000</ele>
        <time>2010-01-01T15:11:43Z</time>
      </trkpt>
      <trkpt lat="50.59574000" lon="9.515770000">
        <ele>0.0000000</ele>
        <time>2010-01-01T15:12:09Z</time>
      </trkpt>
      <trkpt lat="50.59569000" lon="9.515920000">
        <ele>0.0000000</ele>
        <time>2010-01-01T15:12:13Z</time>
      </trkpt>
      <trkpt lat="50.59563000" lon="9.516210000">
        <ele>0.0000000</ele>
        <time>2010-01-01T15:12:21Z</time>
      </trkpt>
      <trkpt lat="50.59551000" lon="9.516970000">
        <ele>0.0000000</ele>
        <time>2010-01-01T15:12:41Z</time>
      </trkpt>
      <trkpt lat="50.59548000" lon="9.517400000">
        <ele>0.0000000</ele>
        <time>2010-01-01T15:12:52Z</time>
      </trkpt>
      <trkpt lat="50.59547000" lon="9.518000000">
        <ele>0.0000000</ele>
        <time>2010-01-01T15:13:07Z</time>
      </trkpt>
      <trkpt lat="50.59551000" lon="9.518700000">
        <ele>0.0000000</ele>
        <time>2010-01-01T15:13:25Z</time>
      </trkpt>
      <trkpt lat="50.59554000" lon="9.518920000">
        <ele>0.0000000</ele>
        <time>2010-01-01T15:13:31Z</time>
      </trkpt>
      <trkpt lat="50.59557000" lon="9.519020000">
        <ele>0.0000000</ele>
        <time>2010-01-01T15:13:33Z</time>
      </trkpt>
      <trkpt lat="50.59558000" lon="9.519160000">
        <ele>0.0000000</ele>
        <time>2010-01-01T15:13:37Z</time>
      </trkpt>
      <trkpt lat="50.59562000" lon="9.519430000">
        <ele>0.0000000</ele>
        <time>2010-01-01T15:13:44Z</time>
      </trkpt>
      <trkpt lat="50.59593000" lon="9.520840000">
        <ele>0.0000000</ele>
        <time>2010-01-01T15:14:22Z</time>
      </trkpt>
      <trkpt lat="50.59607000" lon="9.521630000">
        <ele>0.0000000</ele>
        <time>2010-01-01T15:14:43Z</time>
      </trkpt>
      <trkpt lat="50.59615000" lon="9.522460000">
        <ele>0.0000000</ele>
        <time>2010-01-01T15:15:04Z</time>
      </trkpt>
      <trkpt lat="50.59615000" lon="9.522660000">
        <ele>0.0000000</ele>
        <time>2010-01-01T15:15:09Z</time>
      </trkpt>
      <trkpt lat="50.59616000" lon="9.522810000">
        <ele>0.0000000</ele>
        <time>2010-01-01T15:15:13Z</time>
      </trkpt>
      <trkpt lat="50.59615000" lon="9.523490000">
        <ele>0.0000000</ele>
        <time>2010-01-01T15:15:30Z</time>
      </trkpt>
      <trkpt lat="50.59609000" lon="9.524130000">
        <ele>0.0000000</ele>
        <time>2010-01-01T15:15:47Z</time>
      </trkpt>
      <trkpt lat="50.59604000" lon="9.524500000">
        <ele>0.0000000</ele>
        <time>2010-01-01T15:15:56Z</time>
      </trkpt>
      <trkpt lat="50.59587000" lon="9.525350000">
        <ele>0.0000000</ele>
        <time>2010-01-01T15:16:19Z</time>
      </trkpt>
      <trkpt lat="50.59578000" lon="9.525660000">
        <ele>0.0000000</ele>
        <time>2010-01-01T15:16:28Z</time>
      </trkpt>
      <trkpt lat="50.59552000" lon="9.526380000">
        <ele>0.0000000</ele>
        <time>2010-01-01T15:16:49Z</time>
      </trkpt>
      <trkpt lat="50.59530000" lon="9.526890000">
        <ele>0.0000000</ele>
        <time>2010-01-01T15:17:04Z</time>
      </trkpt>
      <trkpt lat="50.59474000" lon="9.527980000">
        <ele>0.0000000</ele>
        <time>2010-01-01T15:17:40Z</time>
      </trkpt>
      <trkpt lat="50.59464000" lon="9.528120000">
        <ele>0.0000000</ele>
        <time>2010-01-01T15:17:45Z</time>
      </trkpt>
      <trkpt lat="50.59449000" lon="9.528360000">
        <ele>0.0000000</ele>
        <time>2010-01-01T15:17:54Z</time>
      </trkpt>
      <trkpt lat="50.59442000" lon="9.528410000">
        <ele>0.0000000</ele>
        <time>2010-01-01T15:17:57Z</time>
      </trkpt>
      <trkpt lat="50.59411000" lon="9.528860000">
        <ele>0.0000000</ele>
        <time>2010-01-01T15:18:14Z</time>
      </trkpt>
      <trkpt lat="50.59410000" lon="9.528860000">
        <ele>0.0000000</ele>
        <time>2010-01-01T15:18:14Z</time>
      </trkpt>
      <trkpt lat="50.59373000" lon="9.529330000">
        <ele>0.0000000</ele>
        <time>2010-01-01T15:18:33Z</time>
      </trkpt>
      <trkpt lat="50.59306000" lon="9.530000000">
        <ele>0.0000000</ele>
        <time>2010-01-01T15:19:05Z</time>
      </trkpt>
      <trkpt lat="50.59248000" lon="9.530480000">
        <ele>0.0000000</ele>
        <time>2010-01-01T15:19:31Z</time>
      </trkpt>
      <trkpt lat="50.59242000" lon="9.530570000">
        <ele>0.0000000</ele>
        <time>2010-01-01T15:19:35Z</time>
      </trkpt>
      <trkpt lat="50.59187000" lon="9.530910000">
        <ele>0.0000000</ele>
        <time>2010-01-01T15:19:58Z</time>
      </trkpt>
      <trkpt lat="50.59110000" lon="9.531280000">
        <ele>0.0000000</ele>
        <time>2010-01-01T15:20:30Z</time>
      </trkpt>
      <trkpt lat="50.59065000" lon="9.531460000">
        <ele>0.0000000</ele>
        <time>2010-01-01T15:20:49Z</time>
      </trkpt>
      <trkpt lat="50.58965000" lon="9.531820000">
        <ele>0.0000000</ele>
        <time>2010-01-01T15:21:30Z</time>
      </trkpt>
      <trkpt lat="50.58964000" lon="9.531820000">
        <ele>0.0000000</ele>
        <time>2010-01-01T15:21:30Z</time>
      </trkpt>
      <trkpt lat="50.58919000" lon="9.531990000">
        <ele>0.0000000</ele>
        <time>2010-01-01T15:21:49Z</time>
      </trkpt>
      <trkpt lat="50.58837000" lon="9.532370000">
        <ele>0.0000000</ele>
        <time>2010-01-01T15:22:23Z</time>
      </trkpt>
      <trkpt lat="50.58803000" lon="9.532560000">
        <ele>0.0000000</ele>
        <time>2010-01-01T15:22:38Z</time>
      </trkpt>
      <trkpt lat="50.58761000" lon="9.532850000">
        <ele>0.0000000</ele>
        <time>2010-01-01T15:22:56Z</time>
      </trkpt>
      <trkpt lat="50.58737000" lon="9.533040000">
        <ele>0.0000000</ele>
        <time>2010-01-01T15:23:07Z</time>
      </trkpt>
      <trkpt lat="50.58677000" lon="9.533580000">
        <ele>0.0000000</ele>
        <time>2010-01-01T15:23:34Z</time>
      </trkpt>
      <trkpt lat="50.58634000" lon="9.534060000">
        <ele>0.0000000</ele>
        <time>2010-01-01T15:23:56Z</time>
      </trkpt>
      <trkpt lat="50.58599000" lon="9.534500000">
        <ele>0.0000000</ele>
        <time>2010-01-01T15:24:13Z</time>
      </trkpt>
      <trkpt lat="50.58552000" lon="9.535200000">
        <ele>0.0000000</ele>
        <time>2010-01-01T15:24:39Z</time>
      </trkpt>
      <trkpt lat="50.58510000" lon="9.535950000">
        <ele>0.0000000</ele>
        <time>2010-01-01T15:25:05Z</time>
      </trkpt>
      <trkpt lat="50.58488000" lon="9.536390000">
        <ele>0.0000000</ele>
        <time>2010-01-01T15:25:19Z</time>
      </trkpt>
      <trkpt lat="50.58466000" lon="9.536900000">
        <ele>0.0000000</ele>
        <time>2010-01-01T15:25:35Z</time>
      </trkpt>
      <trkpt lat="50.58435000" lon="9.537690000">
        <ele>0.0000000</ele>
        <time>2010-01-01T15:25:58Z</time>
      </trkpt>
      <trkpt lat="50.58354000" lon="9.539920000">
        <ele>0.0000000</ele>
        <time>2010-01-01T15:27:04Z</time>
      </trkpt>
      <trkpt lat="50.58346000" lon="9.540090000">
        <ele>0.0000000</ele>
        <time>2010-01-01T15:27:09Z</time>
      </trkpt>
      <trkpt lat="50.58305000" lon="9.541090000">
        <ele>0.0000000</ele>
        <time>2010-01-01T15:27:39Z</time>
      </trkpt>
      <trkpt lat="50.58200000" lon="9.543390000">
        <ele>0.0000000</ele>
        <time>2010-01-01T15:28:51Z</time>
      </trkpt>
      <trkpt lat="50.58132000" lon="9.544700000">
        <ele>0.0000000</ele>
        <time>2010-01-01T15:29:34Z</time>
      </trkpt>
      <trkpt lat="50.58125000" lon="9.544810000">
        <ele>0.0000000</ele>
        <time>2010-01-01T15:29:38Z</time>
      </trkpt>
      <trkpt lat="50.58119000" lon="9.544880000">
        <ele>0.0000000</ele>
        <time>2010-01-01T15:29:41Z</time>
      </trkpt>
      <trkpt lat="50.58016000" lon="9.546540000">
        <ele>0.0000000</ele>
        <time>2010-01-01T15:30:40Z</time>
      </trkpt>
      <trkpt lat="50.58010000" lon="9.546670000">
        <ele>0.0000000</ele>
        <time>2010-01-01T15:30:44Z</time>
      </trkpt>
      <trkpt lat="50.57996000" lon="9.546910000">
        <ele>0.0000000</ele>
        <time>2010-01-01T15:30:53Z</time>
      </trkpt>
      <trkpt lat="50.57891000" lon="9.548430000">
        <ele>0.0000000</ele>
        <time>2010-01-01T15:31:50Z</time>
      </trkpt>
      <trkpt lat="50.57810000" lon="9.549520000">
        <ele>0.0000000</ele>
        <time>2010-01-01T15:32:32Z</time>
      </trkpt>
      <trkpt lat="50.57733000" lon="9.550650000">
        <ele>0.0000000</ele>
        <time>2010-01-01T15:33:14Z</time>
      </trkpt>
      <trkpt lat="50.57676000" lon="9.551670000">
        <ele>0.0000000</ele>
        <time>2010-01-01T15:33:49Z</time>
      </trkpt>
      <trkpt lat="50.57658000" lon="9.552050000">
        <ele>0.0000000</ele>
        <time>2010-01-01T15:34:01Z</time>
      </trkpt>
      <trkpt lat="50.57629000" lon="9.552800000">
        <ele>0.0000000</ele>
        <time>2010-01-01T15:34:23Z</time>
      </trkpt>
      <trkpt lat="50.57607000" lon="9.553520000">
        <ele>0.0000000</ele>
        <time>2010-01-01T15:34:44Z</time>
      </trkpt>
      <trkpt lat="50.57592000" lon="9.554170000">
        <ele>0.0000000</ele>
        <time>2010-01-01T15:35:01Z</time>
      </trkpt>
      <trkpt lat="50.57580000" lon="9.554850000">
        <ele>0.0000000</ele>
        <time>2010-01-01T15:35:19Z</time>
      </trkpt>
      <trkpt lat="50.57570000" lon="9.555820000">
        <ele>0.0000000</ele>
        <time>2010-01-01T15:35:44Z</time>
      </trkpt>
      <trkpt lat="50.57570000" lon="9.555980000">
        <ele>0.0000000</ele>
        <time>2010-01-01T15:35:48Z</time>
      </trkpt>
      <trkpt lat="50.57568000" lon="9.556260000">
        <ele>0.0000000</ele>
        <time>2010-01-01T15:35:55Z</time>
      </trkpt>
      <trkpt lat="50.57567000" lon="9.556670000">
        <ele>0.0000000</ele>
        <time>2010-01-01T15:36:06Z</time>
      </trkpt>
      <trkpt lat="50.57568000" lon="9.556800000">
        <ele>0.0000000</ele>
        <time>2010-01-01T15:36:09Z</time>
      </trkpt>
      <trkpt lat="50.57568000" lon="9.557050000">
        <ele>0.0000000</ele>
        <time>2010-01-01T15:36:15Z</time>
      </trkpt>
      <trkpt lat="50.57569000" lon="9.557160000">
        <ele>0.0000000</ele>
        <time>2010-01-01T15:36:18Z</time>
      </trkpt>
      <trkpt lat="50.57569000" lon="9.557280000">
        <ele>0.0000000</ele>
        <time>2010-01-01T15:36:21Z</time>
      </trkpt>
      <trkpt lat="50.57574000" lon="9.557960000">
        <ele>0.0000000</ele>
        <time>2010-01-01T15:36:39Z</time>
      </trkpt>
      <trkpt lat="50.57585000" lon="9.558910000">
        <ele>0.0000000</ele>
        <time>2010-01-01T15:37:03Z</time>
      </trkpt>
      <trkpt lat="50.57665000" lon="9.564720000">
        <ele>0.0000000</ele>
        <time>2010-01-01T15:39:34Z</time>
      </trkpt>
      <trkpt lat="50.57683000" lon="9.566450000">
        <ele>0.0000000</ele>
        <time>2010-01-01T15:40:19Z</time>
      </trkpt>
      <trkpt lat="50.57690000" lon="9.567720000">
        <ele>0.0000000</ele>
        <time>2010-01-01T15:40:51Z</time>
      </trkpt>
      <trkpt lat="50.57691000" lon="9.568790000">
        <ele>0.0000000</ele>
        <time>2010-01-01T15:41:19Z</time>
      </trkpt>
      <trkpt lat="50.57687000" lon="9.569810000">
        <ele>0.0000000</ele>
        <time>2010-01-01T15:41:45Z</time>
      </trkpt>
      <trkpt lat="50.57679000" lon="9.570780000">
        <ele>0.0000000</ele>
        <time>2010-01-01T15:42:09Z</time>
      </trkpt>
      <trkpt lat="50.57663000" lon="9.571960000">
        <ele>0.0000000</ele>
        <time>2010-01-01T15:42:40Z</time>
      </trkpt>
      <trkpt lat="50.57660000" lon="9.572090000">
        <ele>0.0000000</ele>
        <time>2010-01-01T15:42:44Z</time>
      </trkpt>
      <trkpt lat="50.57659000" lon="9.572180000">
        <ele>0.0000000</ele>
        <time>2010-01-01T15:42:46Z</time>
      </trkpt>
      <trkpt lat="50.57626000" lon="9.573770000">
        <ele>0.0000000</ele>
        <time>2010-01-01T15:43:28Z</time>
      </trkpt>
      <trkpt lat="50.57604000" lon="9.574590000">
        <ele>0.0000000</ele>
        <time>2010-01-01T15:43:51Z</time>
      </trkpt>
      <trkpt lat="50.57573000" lon="9.575580000">
        <ele>0.0000000</ele>
        <time>2010-01-01T15:44:19Z</time>
      </trkpt>
      <trkpt lat="50.57520000" lon="9.577050000">
        <ele>0.0000000</ele>
        <time>2010-01-01T15:45:02Z</time>
      </trkpt>
      <trkpt lat="50.57516000" lon="9.577110000">
        <ele>0.0000000</ele>
        <time>2010-01-01T15:45:04Z</time>
      </trkpt>
      <trkpt lat="50.57468000" lon="9.578460000">
        <ele>0.0000000</ele>
        <time>2010-01-01T15:45:44Z</time>
      </trkpt>
      <trkpt lat="50.57469000" lon="9.578560000">
        <ele>0.0000000</ele>
        <time>2010-01-01T15:45:46Z</time>
      </trkpt>
      <trkpt lat="50.57374000" lon="9.581210000">
        <ele>0.0000000</ele>
        <time>2010-01-01T15:47:04Z</time>
      </trkpt>
      <trkpt lat="50.57369000" lon="9.581390000">
        <ele>0.0000000</ele>
        <time>2010-01-01T15:47:09Z</time>
      </trkpt>
      <trkpt lat="50.57364000" lon="9.581520000">
        <ele>0.0000000</ele>
        <time>2010-01-01T15:47:12Z</time>
      </trkpt>
      <trkpt lat="50.57347000" lon="9.582110000">
        <ele>0.0000000</ele>
        <time>2010-01-01T15:47:29Z</time>
      </trkpt>
      <trkpt lat="50.57327000" lon="9.582970000">
        <ele>0.0000000</ele>
        <time>2010-01-01T15:47:52Z</time>
      </trkpt>
      <trkpt lat="50.57316000" lon="9.583630000">
        <ele>0.0000000</ele>
        <time>2010-01-01T15:48:10Z</time>
      </trkpt>
      <trkpt lat="50.57309000" lon="9.584220000">
        <ele>0.0000000</ele>
        <time>2010-01-01T15:48:25Z</time>
      </trkpt>
      <trkpt lat="50.57307000" lon="9.584580000">
        <ele>0.0000000</ele>
        <time>2010-01-01T15:48:34Z</time>
      </trkpt>
      <trkpt lat="50.57305000" lon="9.584760000">
        <ele>0.0000000</ele>
        <time>2010-01-01T15:48:39Z</time>
      </trkpt>
      <trkpt lat="50.57304000" lon="9.585900000">
        <ele>0.0000000</ele>
        <time>2010-01-01T15:49:08Z</time>
      </trkpt>
      <trkpt lat="50.57307000" lon="9.586450000">
        <ele>0.0000000</ele>
        <time>2010-01-01T15:49:22Z</time>
      </trkpt>
      <trkpt lat="50.57309000" lon="9.586640000">
        <ele>0.0000000</ele>
        <time>2010-01-01T15:49:27Z</time>
      </trkpt>
      <trkpt lat="50.57309000" lon="9.586760000">
        <ele>0.0000000</ele>
        <time>2010-01-01T15:49:30Z</time>
      </trkpt>
      <trkpt lat="50.57314000" lon="9.587200000">
        <ele>0.0000000</ele>
        <time>2010-01-01T15:49:41Z</time>
      </trkpt>
      <trkpt lat="50.57315000" lon="9.587370000">
        <ele>0.0000000</ele>
        <time>2010-01-01T15:49:45Z</time>
      </trkpt>
      <trkpt lat="50.57359000" lon="9.590550000">
        <ele>0.0000000</ele>
        <time>2010-01-01T15:51:08Z</time>
      </trkpt>
      <trkpt lat="50.57367000" lon="9.591560000">
        <ele>0.0000000</ele>
        <time>2010-01-01T15:51:34Z</time>
      </trkpt>
      <trkpt lat="50.57368000" lon="9.592480000">
        <ele>0.0000000</ele>
        <time>2010-01-01T15:51:57Z</time>
      </trkpt>
      <trkpt lat="50.57362000" lon="9.593560000">
        <ele>0.0000000</ele>
        <time>2010-01-01T15:52:25Z</time>
      </trkpt>
      <trkpt lat="50.57355000" lon="9.594100000">
        <ele>0.0000000</ele>
        <time>2010-01-01T15:52:39Z</time>
      </trkpt>
      <trkpt lat="50.57338000" lon="9.595010000">
        <ele>0.0000000</ele>
        <time>2010-01-01T15:53:03Z</time>
      </trkpt>
      <trkpt lat="50.57322000" lon="9.595650000">
        <ele>0.0000000</ele>
        <time>2010-01-01T15:53:21Z</time>
      </trkpt>
      <trkpt lat="50.57312000" lon="9.595980000">
        <ele>0.0000000</ele>
        <time>2010-01-01T15:53:30Z</time>
      </trkpt>
      <trkpt lat="50.57311000" lon="9.596000000">
        <ele>0.0000000</ele>
        <time>2010-01-01T15:53:30Z</time>
      </trkpt>
      <trkpt lat="50.57295000" lon="9.596490000">
        <ele>0.0000000</ele>
        <time>2010-01-01T15:53:44Z</time>
      </trkpt>
      <trkpt lat="50.57275000" lon="9.597010000">
        <ele>0.0000000</ele>
        <time>2010-01-01T15:54:00Z</time>
      </trkpt>
      <trkpt lat="50.57087000" lon="9.601280000">
        <ele>0.0000000</ele>
        <time>2010-01-01T15:56:12Z</time>
      </trkpt>
      <trkpt lat="50.57046000" lon="9.602420000">
        <ele>0.0000000</ele>
        <time>2010-01-01T15:56:45Z</time>
      </trkpt>
      <trkpt lat="50.57021000" lon="9.603270000">
        <ele>0.0000000</ele>
        <time>2010-01-01T15:57:09Z</time>
      </trkpt>
      <trkpt lat="50.56947000" lon="9.606460000">
        <ele>0.0000000</ele>
        <time>2010-01-01T15:58:35Z</time>
      </trkpt>
      <trkpt lat="50.56940000" lon="9.606610000">
        <ele>0.0000000</ele>
        <time>2010-01-01T15:58:40Z</time>
      </trkpt>
      <trkpt lat="50.56761000" lon="9.614480000">
        <ele>0.0000000</ele>
        <time>2010-01-01T16:02:13Z</time>
      </trkpt>
      <trkpt lat="50.56760000" lon="9.614670000">
        <ele>0.0000000</ele>
        <time>2010-01-01T16:02:18Z</time>
      </trkpt>
      <trkpt lat="50.56715000" lon="9.616850000">
        <ele>0.0000000</ele>
        <time>2010-01-01T16:03:16Z</time>
      </trkpt>
      <trkpt lat="50.56698000" lon="9.618080000">
        <ele>0.0000000</ele>
        <time>2010-01-01T16:03:48Z</time>
      </trkpt>
      <trkpt lat="50.56687000" lon="9.619220000">
        <ele>0.0000000</ele>
        <time>2010-01-01T16:04:17Z</time>
      </trkpt>
      <trkpt lat="50.56675000" lon="9.621620000">
        <ele>0.0000000</ele>
        <time>2010-01-01T16:05:18Z</time>
      </trkpt>
      <trkpt lat="50.56665000" lon="9.622970000">
        <ele>0.0000000</ele>
        <time>2010-01-01T16:05:53Z</time>
      </trkpt>
      <trkpt lat="50.56648000" lon="9.624110000">
        <ele>0.0000000</ele>
        <time>2010-01-01T16:06:23Z</time>
      </trkpt>
      <trkpt lat="50.56619000" lon="9.625410000">
        <ele>0.0000000</ele>
        <time>2010-01-01T16:06:58Z</time>
      </trkpt>
      <trkpt lat="50.56509000" lon="9.629660000">
        <ele>0.0000000</ele>
        <time>2010-01-01T16:08:54Z</time>
      </trkpt>
      <trkpt lat="50.56487000" lon="9.630760000">
        <ele>0.0000000</ele>
        <time>2010-01-01T16:09:24Z</time>
      </trkpt>
      <trkpt lat="50.56479000" lon="9.631300000">
        <ele>0.0000000</ele>
        <time>2010-01-01T16:09:38Z</time>
      </trkpt>
      <trkpt lat="50.56467000" lon="9.633030000">
        <ele>0.0000000</ele>
        <time>2010-01-01T16:10:22Z</time>
      </trkpt>
      <trkpt lat="50.56463000" lon="9.635460000">
        <ele>0.0000000</ele>
        <time>2010-01-01T16:11:24Z</time>
      </trkpt>
      <trkpt lat="50.56454000" lon="9.636640000">
        <ele>0.0000000</ele>
        <time>2010-01-01T16:11:54Z</time>
      </trkpt>
      <trkpt lat="50.56442000" lon="9.637500000">
        <ele>0.0000000</ele>
        <time>2010-01-01T16:12:17Z</time>
      </trkpt>
      <trkpt lat="50.56420000" lon="9.638580000">
        <ele>0.0000000</ele>
        <time>2010-01-01T16:12:45Z</time>
      </trkpt>
      <trkpt lat="50.56410000" lon="9.638990000">
        <ele>0.0000000</ele>
        <time>2010-01-01T16:12:57Z</time>
      </trkpt>
      <trkpt lat="50.56407000" lon="9.639070000">
        <ele>0.0000000</ele>
        <time>2010-01-01T16:12:59Z</time>
      </trkpt>
      <trkpt lat="50.56404000" lon="9.639200000">
        <ele>0.0000000</ele>
        <time>2010-01-01T16:13:02Z</time>
      </trkpt>
      <trkpt lat="50.56399000" lon="9.639350000">
        <ele>0.0000000</ele>
        <time>2010-01-01T16:13:07Z</time>
      </trkpt>
      <trkpt lat="50.56394000" lon="9.639540000">
        <ele>0.0000000</ele>
        <time>2010-01-01T16:13:12Z</time>
      </trkpt>
      <trkpt lat="50.56366000" lon="9.640370000">
        <ele>0.0000000</ele>
        <time>2010-01-01T16:13:36Z</time>
      </trkpt>
      <trkpt lat="50.56359000" lon="9.640540000">
        <ele>0.0000000</ele>
        <time>2010-01-01T16:13:41Z</time>
      </trkpt>
      <trkpt lat="50.56354000" lon="9.640690000">
        <ele>0.0000000</ele>
        <time>2010-01-01T16:13:45Z</time>
      </trkpt>
      <trkpt lat="50.56042000" lon="9.648090000">
        <ele>0.0000000</ele>
        <time>2010-01-01T16:17:31Z</time>
      </trkpt>
      <trkpt lat="50.56036000" lon="9.648180000">
        <ele>0.0000000</ele>
        <time>2010-01-01T16:17:35Z</time>
      </trkpt>
      <trkpt lat="50.56002000" lon="9.649230000">
        <ele>0.0000000</ele>
        <time>2010-01-01T16:18:04Z</time>
      </trkpt>
      <trkpt lat="50.55979000" lon="9.650170000">
        <ele>0.0000000</ele>
        <time>2010-01-01T16:18:30Z</time>
      </trkpt>
      <trkpt lat="50.55963000" lon="9.651310000">
        <ele>0.0000000</ele>
        <time>2010-01-01T16:19:00Z</time>
      </trkpt>
      <trkpt lat="50.55956000" lon="9.652570000">
        <ele>0.0000000</ele>
        <time>2010-01-01T16:19:32Z</time>
      </trkpt>
      <trkpt lat="50.55956000" lon="9.653290000">
        <ele>0.0000000</ele>
        <time>2010-01-01T16:19:50Z</time>
      </trkpt>
      <trkpt lat="50.55958000" lon="9.653410000">
        <ele>0.0000000</ele>
        <time>2010-01-01T16:19:53Z</time>
      </trkpt>
      <trkpt lat="50.55958000" lon="9.654330000">
        <ele>0.0000000</ele>
        <time>2010-01-01T16:20:17Z</time>
      </trkpt>
      <trkpt lat="50.55952000" lon="9.655180000">
        <ele>0.0000000</ele>
        <time>2010-01-01T16:20:39Z</time>
      </trkpt>
      <trkpt lat="50.55948000" lon="9.655490000">
        <ele>0.0000000</ele>
        <time>2010-01-01T16:20:47Z</time>
      </trkpt>
      <trkpt lat="50.55940000" lon="9.655890000">
        <ele>0.0000000</ele>
        <time>2010-01-01T16:20:57Z</time>
      </trkpt>
      <trkpt lat="50.55920000" lon="9.656580000">
        <ele>0.0000000</ele>
        <time>2010-01-01T16:21:17Z</time>
      </trkpt>
      <trkpt lat="50.55895000" lon="9.657160000">
        <ele>0.0000000</ele>
        <time>2010-01-01T16:21:34Z</time>
      </trkpt>
      <trkpt lat="50.55820000" lon="9.658650000">
        <ele>0.0000000</ele>
        <time>2010-01-01T16:22:23Z</time>
      </trkpt>
      <trkpt lat="50.55805000" lon="9.658990000">
        <ele>0.0000000</ele>
        <time>2010-01-01T16:22:33Z</time>
      </trkpt>
      <trkpt lat="50.55804000" lon="9.659000000">
        <ele>0.0000000</ele>
        <time>2010-01-01T16:22:34Z</time>
      </trkpt>
      <trkpt lat="50.55784000" lon="9.659430000">
        <ele>0.0000000</ele>
        <time>2010-01-01T16:22:47Z</time>
      </trkpt>
      <trkpt lat="50.55741000" lon="9.660210000">
        <ele>0.0000000</ele>
        <time>2010-01-01T16:23:14Z</time>
      </trkpt>
      <trkpt lat="50.55708000" lon="9.660870000">
        <ele>0.0000000</ele>
        <time>2010-01-01T16:23:35Z</time>
      </trkpt>
      <trkpt lat="50.55689000" lon="9.661160000">
        <ele>0.0000000</ele>
        <time>2010-01-01T16:23:46Z</time>
      </trkpt>
      <trkpt lat="50.55666000" lon="9.661450000">
        <ele>0.0000000</ele>
        <time>2010-01-01T16:23:57Z</time>
      </trkpt>
      <trkpt lat="50.55650000" lon="9.661600000">
        <ele>0.0000000</ele>
        <time>2010-01-01T16:24:05Z</time>
      </trkpt>
      <trkpt lat="50.55488000" lon="9.662900000">
        <ele>0.0000000</ele>
        <time>2010-01-01T16:25:18Z</time>
      </trkpt>
      <trkpt lat="50.55481000" lon="9.662900000">
        <ele>0.0000000</ele>
        <time>2010-01-01T16:25:20Z</time>
      </trkpt>
      <trkpt lat="50.55470000" lon="9.662970000">
        <ele>0.0000000</ele>
        <time>2010-01-01T16:25:25Z</time>
      </trkpt>
      <trkpt lat="50.55419000" lon="9.663350000">
        <ele>0.0000000</ele>
        <time>2010-01-01T16:25:48Z</time>
      </trkpt>
      <trkpt lat="50.55390000" lon="9.663530000">
        <ele>0.0000000</ele>
        <time>2010-01-01T16:26:00Z</time>
      </trkpt>
      <trkpt lat="50.55387000" lon="9.663540000">
        <ele>0.0000000</ele>
        <time>2010-01-01T16:26:01Z</time>
      </trkpt>
      <trkpt lat="50.55383000" lon="9.663560000">
        <ele>0.0000000</ele>
        <time>2010-01-01T16:26:03Z</time>
      </trkpt>
      <trkpt lat="50.55372000" lon="9.663600000">
        <ele>0.0000000</ele>
        <time>2010-01-01T16:26:08Z</time>
      </trkpt>
      <trkpt lat="50.55343000" lon="9.663650000">
        <ele>0.0000000</ele>
        <time>2010-01-01T16:26:19Z</time>
      </trkpt>
      <trkpt lat="50.55311000" lon="9.663650000">
        <ele>0.0000000</ele>
        <time>2010-01-01T16:26:32Z</time>
      </trkpt>
      <trkpt lat="50.55132000" lon="9.663510000">
        <ele>0.0000000</ele>
        <time>2010-01-01T16:27:44Z</time>
      </trkpt>
      <trkpt lat="50.55087000" lon="9.663540000">
        <ele>0.0000000</ele>
        <time>2010-01-01T16:28:02Z</time>
      </trkpt>
      <trkpt lat="50.55068000" lon="9.663570000">
        <ele>0.0000000</ele>
        <time>2010-01-01T16:28:09Z</time>
      </trkpt>
      <trkpt lat="50.55044000" lon="9.663630000">
        <ele>0.0000000</ele>
        <time>2010-01-01T16:28:19Z</time>
      </trkpt>
      <trkpt lat="50.55022000" lon="9.663700000">
        <ele>0.0000000</ele>
        <time>2010-01-01T16:28:28Z</time>
      </trkpt>
      <trkpt lat="50.54997000" lon="9.663800000">
        <ele>0.0000000</ele>
        <time>2010-01-01T16:28:39Z</time>
      </trkpt>
      <trkpt lat="50.54965000" lon="9.663960000">
        <ele>0.0000000</ele>
        <time>2010-01-01T16:28:52Z</time>
      </trkpt>
      <trkpt lat="50.54943000" lon="9.664090000">
        <ele>0.0000000</ele>
        <time>2010-01-01T16:29:01Z</time>
      </trkpt>
      <trkpt lat="50.54855000" lon="9.664680000">
        <ele>0.0000000</ele>
        <time>2010-01-01T16:29:40Z</time>
      </trkpt>
      <trkpt lat="50.54847000" lon="9.664720000">
        <ele>0.0000000</ele>
        <time>2010-01-01T16:29:43Z</time>
      </trkpt>
      <trkpt lat="50.54778000" lon="9.665130000">
        <ele>0.0000000</ele>
        <time>2010-01-01T16:30:13Z</time>
      </trkpt>
      <trkpt lat="50.54766000" lon="9.665190000">
        <ele>0.0000000</ele>
        <time>2010-01-01T16:30:18Z</time>
      </trkpt>
      <trkpt lat="50.54757000" lon="9.665250000">
        <ele>0.0000000</ele>
        <time>2010-01-01T16:30:22Z</time>
      </trkpt>
      <trkpt lat="50.54753000" lon="9.665290000">
        <ele>0.0000000</ele>
        <time>2010-01-01T16:30:23Z</time>
      </trkpt>
      <trkpt lat="50.54740000" lon="9.665460000">
        <ele>0.0000000</ele>
        <time>2010-01-01T16:30:30Z</time>
      </trkpt>
      <trkpt lat="50.54743000" lon="9.665570000">
        <ele>0.0000000</ele>
        <time>2010-01-01T16:30:33Z</time>
      </trkpt>
      <trkpt lat="50.54744000" lon="9.665690000">
        <ele>0.0000000</ele>
        <time>2010-01-01T16:30:36Z</time>
      </trkpt>
      <trkpt lat="50.54750000" lon="9.666010000">
        <ele>0.0000000</ele>
        <time>2010-01-01T16:30:45Z</time>
      </trkpt>
      <trkpt lat="50.54750000" lon="9.666080000">
        <ele>0.0000000</ele>
        <time>2010-01-01T16:30:47Z</time>
      </trkpt>
      <trkpt lat="50.54751000" lon="9.666160000">
        <ele>0.0000000</ele>
        <time>2010-01-01T16:30:49Z</time>
      </trkpt>
      <trkpt lat="50.54752000" lon="9.666530000">
        <ele>0.0000000</ele>
        <time>2010-01-01T16:30:58Z</time>
      </trkpt>
      <trkpt lat="50.54751000" lon="9.666630000">
        <ele>0.0000000</ele>
        <time>2010-01-01T16:31:01Z</time>
      </trkpt>
      <trkpt lat="50.54751000" lon="9.666740000">
        <ele>0.0000000</ele>
        <time>2010-01-01T16:31:03Z</time>
      </trkpt>
      <trkpt lat="50.54721000" lon="9.669300000">
        <ele>0.0000000</ele>
        <time>2010-01-01T16:32:10Z</time>
      </trkpt>
      <trkpt lat="50.54698000" lon="9.670520000">
        <ele>0.0000000</ele>
        <time>2010-01-01T16:32:42Z</time>
      </trkpt>
      <trkpt lat="50.54664000" lon="9.672100000">
        <ele>0.0000000</ele>
        <time>2010-01-01T16:33:24Z</time>
      </trkpt>
      <trkpt lat="50.54663000" lon="9.672180000">
        <ele>0.0000000</ele>
        <time>2010-01-01T16:33:27Z</time>
      </trkpt>
      <trkpt lat="50.54640000" lon="9.673350000">
        <ele>0.0000000</ele>
        <time>2010-01-01T16:33:58Z</time>
      </trkpt>
      <trkpt lat="50.54638000" lon="9.673530000">
        <ele>0.0000000</ele>
        <time>2010-01-01T16:34:02Z</time>
      </trkpt>
      <trkpt lat="50.54637000" lon="9.673890000">
        <ele>0.0000000</ele>
        <time>2010-01-01T16:34:11Z</time>
      </trkpt>
      <trkpt lat="50.54627000" lon="9.674450000">
        <ele>0.0000000</ele>
        <time>2010-01-01T16:34:26Z</time>
      </trkpt>
      <trkpt lat="50.54619000" lon="9.674690000">
        <ele>0.0000000</ele>
        <time>2010-01-01T16:34:33Z</time>
      </trkpt>
      <trkpt lat="50.54615000" lon="9.674780000">
        <ele>0.0000000</ele>
        <time>2010-01-01T16:34:36Z</time>
      </trkpt>
      <trkpt lat="50.54601000" lon="9.674890000">
        <ele>0.0000000</ele>
        <time>2010-01-01T16:34:42Z</time>
      </trkpt>
      <trkpt lat="50.54585000" lon="9.674980000">
        <ele>0.0000000</ele>
        <time>2010-01-01T16:34:49Z</time>
      </trkpt>
      <trkpt lat="50.54572000" lon="9.675070000">
        <ele>0.0000000</ele>
        <time>2010-01-01T16:34:55Z</time>
      </trkpt>
      <trkpt lat="50.54559000" lon="9.675140000">
        <ele>0.0000000</ele>
        <time>2010-01-01T16:35:00Z</time>
      </trkpt>
      <trkpt lat="50.54500000" lon="9.675350000">
        <ele>0.0000000</ele>
        <time>2010-01-01T16:35:24Z</time>
      </trkpt>
      <trkpt lat="50.54478000" lon="9.675410000">
        <ele>0.0000000</ele>
        <time>2010-01-01T16:35:33Z</time>
      </trkpt>
      <trkpt lat="50.54453000" lon="9.675450000">
        <ele>0.0000000</ele>
        <time>2010-01-01T16:35:43Z</time>
      </trkpt>
      <trkpt lat="50.54450000" lon="9.675460000">
        <ele>0.0000000</ele>
        <time>2010-01-01T16:35:45Z</time>
      </trkpt>
      <trkpt lat="50.54447000" lon="9.675480000">
        <ele>0.0000000</ele>
        <time>2010-01-01T16:35:46Z</time>
      </trkpt>
      <trkpt lat="50.54436000" lon="9.675530000">
        <ele>0.0000000</ele>
        <time>2010-01-01T16:35:51Z</time>
      </trkpt>
      <trkpt lat="50.54408000" lon="9.675760000">
        <ele>0.0000000</ele>
        <time>2010-01-01T16:36:03Z</time>
      </trkpt>
      <trkpt lat="50.54365000" lon="9.676080000">
        <ele>0.0000000</ele>
        <time>2010-01-01T16:36:22Z</time>
      </trkpt>
      <trkpt lat="50.54332000" lon="9.676190000">
        <ele>0.0000000</ele>
        <time>2010-01-01T16:36:36Z</time>
      </trkpt>
      <trkpt lat="50.54303000" lon="9.676260000">
        <ele>0.0000000</ele>
        <time>2010-01-01T16:36:47Z</time>
      </trkpt>
      <trkpt lat="50.54282000" lon="9.676280000">
        <ele>0.0000000</ele>
        <time>2010-01-01T16:36:56Z</time>
      </trkpt>
      <trkpt lat="50.54114000" lon="9.676310000">
        <ele>0.0000000</ele>
        <time>2010-01-01T16:38:03Z</time>
      </trkpt>
      <trkpt lat="50.54108000" lon="9.676320000">
        <ele>0.0000000</ele>
        <time>2010-01-01T16:38:06Z</time>
      </trkpt>
      <trkpt lat="50.54077000" lon="9.676330000">
        <ele>0.0000000</ele>
        <time>2010-01-01T16:38:18Z</time>
      </trkpt>
      <trkpt lat="50.54068000" lon="9.676370000">
        <ele>0.0000000</ele>
        <time>2010-01-01T16:38:22Z</time>
      </trkpt>
      <trkpt lat="50.53737000" lon="9.676370000">
        <ele>0.0000000</ele>
        <time>2010-01-01T16:40:34Z</time>
      </trkpt>
      <trkpt lat="50.53729000" lon="9.676320000">
        <ele>0.0000000</ele>
        <time>2010-01-01T16:40:38Z</time>
      </trkpt>
      <trkpt lat="50.53698000" lon="9.676300000">
        <ele>0.0000000</ele>
        <time>2010-01-01T16:40:50Z</time>
      </trkpt>
      <trkpt lat="50.53663000" lon="9.676310000">
        <ele>0.0000000</ele>
        <time>2010-01-01T16:41:04Z</time>
      </trkpt>
      <trkpt lat="50.53595000" lon="9.676290000">
        <ele>0.0000000</ele>
        <time>2010-01-01T16:41:31Z</time>
      </trkpt>
      <trkpt lat="50.53588000" lon="9.676280000">
        <ele>0.0000000</ele>
        <time>2010-01-01T16:41:34Z</time>
      </trkpt>
      <trkpt lat="50.53475000" lon="9.676330000">
        <ele>0.0000000</ele>
        <time>2010-01-01T16:42:19Z</time>
      </trkpt>
      <trkpt lat="50.53462000" lon="9.676370000">
        <ele>0.0000000</ele>
        <time>2010-01-01T16:42:25Z</time>
      </trkpt>
      <trkpt lat="50.53158000" lon="9.676350000">
        <ele>0.0000000</ele>
        <time>2010-01-01T16:44:26Z</time>
      </trkpt>
      <trkpt lat="50.53126000" lon="9.676380000">
        <ele>0.0000000</ele>
        <time>2010-01-01T16:44:39Z</time>
      </trkpt>
      <trkpt lat="50.53103000" lon="9.676430000">
        <ele>0.0000000</ele>
        <time>2010-01-01T16:44:49Z</time>
      </trkpt>
      <trkpt lat="50.53087000" lon="9.676490000">
        <ele>0.0000000</ele>
        <time>2010-01-01T16:44:55Z</time>
      </trkpt>
      <trkpt lat="50.53049000" lon="9.676690000">
        <ele>0.0000000</ele>
        <time>2010-01-01T16:45:11Z</time>
      </trkpt>
      <trkpt lat="50.53022000" lon="9.676900000">
        <ele>0.0000000</ele>
        <time>2010-01-01T16:45:23Z</time>
      </trkpt>
      <trkpt lat="50.52968000" lon="9.677410000">
        <ele>0.0000000</ele>
        <time>2010-01-01T16:45:48Z</time>
      </trkpt>
      <trkpt lat="50.52960000" lon="9.677420000">
        <ele>0.0000000</ele>
        <time>2010-01-01T16:45:52Z</time>
      </trkpt>
      <trkpt lat="50.52919000" lon="9.677670000">
        <ele>0.0000000</ele>
        <time>2010-01-01T16:46:09Z</time>
      </trkpt>
      <trkpt lat="50.52879000" lon="9.677890000">
        <ele>0.0000000</ele>
        <time>2010-01-01T16:46:26Z</time>
      </trkpt>
      <trkpt lat="50.52870000" lon="9.677950000">
        <ele>0.0000000</ele>
        <time>2010-01-01T16:46:30Z</time>
      </trkpt>
      <trkpt lat="50.52800000" lon="9.678300000">
        <ele>0.0000000</ele>
        <time>2010-01-01T16:47:00Z</time>
      </trkpt>
      <trkpt lat="50.52718000" lon="9.678760000">
        <ele>0.0000000</ele>
        <time>2010-01-01T16:47:34Z</time>
      </trkpt>
      <trkpt lat="50.52641000" lon="9.679250000">
        <ele>0.0000000</ele>
        <time>2010-01-01T16:48:08Z</time>
      </trkpt>
      <trkpt lat="50.52612000" lon="9.679370000">
        <ele>0.0000000</ele>
        <time>2010-01-01T16:48:20Z</time>
      </trkpt>
      <trkpt lat="50.52590000" lon="9.679400000">
        <ele>0.0000000</ele>
        <time>2010-01-01T16:48:28Z</time>
      </trkpt>
      <trkpt lat="50.52573000" lon="9.679400000">
        <ele>0.0000000</ele>
        <time>2010-01-01T16:48:35Z</time>
      </trkpt>
      <trkpt lat="50.52497000" lon="9.679300000">
        <ele>0.0000000</ele>
        <time>2010-01-01T16:49:06Z</time>
      </trkpt>
      <trkpt lat="50.52477000" lon="9.679290000">
        <ele>0.0000000</ele>
        <time>2010-01-01T16:49:14Z</time>
      </trkpt>
      <trkpt lat="50.52476000" lon="9.679300000">
        <ele>0.0000000</ele>
        <time>2010-01-01T16:49:14Z</time>
      </trkpt>
      <trkpt lat="50.52475000" lon="9.679320000">
        <ele>0.0000000</ele>
        <time>2010-01-01T16:49:15Z</time>
      </trkpt>
      <trkpt lat="50.52448000" lon="9.679340000">
        <ele>0.0000000</ele>
        <time>2010-01-01T16:49:26Z</time>
      </trkpt>
      <trkpt lat="50.52435000" lon="9.679370000">
        <ele>0.0000000</ele>
        <time>2010-01-01T16:49:31Z</time>
      </trkpt>
      <trkpt lat="50.52406000" lon="9.679470000">
        <ele>0.0000000</ele>
        <time>2010-01-01T16:49:43Z</time>
      </trkpt>
      <trkpt lat="50.52383000" lon="9.679590000">
        <ele>0.0000000</ele>
        <time>2010-01-01T16:49:53Z</time>
      </trkpt>
      <trkpt lat="50.52353000" lon="9.679840000">
        <ele>0.0000000</ele>
        <time>2010-01-01T16:50:06Z</time>
      </trkpt>
      <trkpt lat="50.52336000" lon="9.680030000">
        <ele>0.0000000</ele>
        <time>2010-01-01T16:50:15Z</time>
      </trkpt>
      <trkpt lat="50.52313000" lon="9.680330000">
        <ele>0.0000000</ele>
        <time>2010-01-01T16:50:26Z</time>
      </trkpt>
      <trkpt lat="50.52300000" lon="9.680520000">
        <ele>0.0000000</ele>
        <time>2010-01-01T16:50:34Z</time>
      </trkpt>
      <trkpt lat="50.52188000" lon="9.682350000">
        <ele>0.0000000</ele>
        <time>2010-01-01T16:51:38Z</time>
      </trkpt>
      <trkpt lat="50.52185000" lon="9.682390000">
        <ele>0.0000000</ele>
        <time>2010-01-01T16:51:40Z</time>
      </trkpt>
      <trkpt lat="50.52168000" lon="9.682570000">
        <ele>0.0000000</ele>
        <time>2010-01-01T16:51:48Z</time>
      </trkpt>
      <trkpt lat="50.52160000" lon="9.682640000">
        <ele>0.0000000</ele>
        <time>2010-01-01T16:51:52Z</time>
      </trkpt>
      <trkpt lat="50.52153000" lon="9.682690000">
        <ele>0.0000000</ele>
        <time>2010-01-01T16:51:55Z</time>
      </trkpt>
      <trkpt lat="50.52151000" lon="9.682690000">
        <ele>0.0000000</ele>
        <time>2010-01-01T16:51:56Z</time>
      </trkpt>
      <trkpt lat="50.52150000" lon="9.682680000">
        <ele>0.0000000</ele>
        <time>2010-01-01T16:51:56Z</time>
      </trkpt>
      <trkpt lat="50.52144000" lon="9.682680000">
        <ele>0.0000000</ele>
        <time>2010-01-01T16:51:58Z</time>
      </trkpt>
      <trkpt lat="50.52025000" lon="9.681570000">
        <ele>0.0000000</ele>
        <time>2010-01-01T16:52:54Z</time>
      </trkpt>
      <trkpt lat="50.51980000" lon="9.681200000">
        <ele>0.0000000</ele>
        <time>2010-01-01T16:53:14Z</time>
      </trkpt>
      <trkpt lat="50.51945000" lon="9.680960000">
        <ele>0.0000000</ele>
        <time>2010-01-01T16:53:29Z</time>
      </trkpt>
      <trkpt lat="50.51900000" lon="9.680720000">
        <ele>0.0000000</ele>
        <time>2010-01-01T16:53:48Z</time>
      </trkpt>
      <trkpt lat="50.51880000" lon="9.680630000">
        <ele>0.0000000</ele>
        <time>2010-01-01T16:53:57Z</time>
      </trkpt>
      <trkpt lat="50.51795000" lon="9.680350000">
        <ele>0.0000000</ele>
        <time>2010-01-01T16:54:32Z</time>
      </trkpt>
      <trkpt lat="50.51716000" lon="9.680060000">
        <ele>0.0000000</ele>
        <time>2010-01-01T16:55:04Z</time>
      </trkpt>
      <trkpt lat="50.51710000" lon="9.680000000">
        <ele>0.0000000</ele>
        <time>2010-01-01T16:55:07Z</time>
      </trkpt>
      <trkpt lat="50.51701000" lon="9.679970000">
        <ele>0.0000000</ele>
        <time>2010-01-01T16:55:11Z</time>
      </trkpt>
      <trkpt lat="50.51685000" lon="9.679900000">
        <ele>0.0000000</ele>
        <time>2010-01-01T16:55:17Z</time>
      </trkpt>
      <trkpt lat="50.51658000" lon="9.679820000">
        <ele>0.0000000</ele>
        <time>2010-01-01T16:55:28Z</time>
      </trkpt>
      <trkpt lat="50.51636000" lon="9.679780000">
        <ele>0.0000000</ele>
        <time>2010-01-01T16:55:37Z</time>
      </trkpt>
      <trkpt lat="50.51606000" lon="9.679690000">
        <ele>0.0000000</ele>
        <time>2010-01-01T16:55:49Z</time>
      </trkpt>
      <trkpt lat="50.51589000" lon="9.679660000">
        <ele>0.0000000</ele>
        <time>2010-01-01T16:55:56Z</time>
      </trkpt>
      <trkpt lat="50.51575000" lon="9.679670000">
        <ele>0.0000000</ele>
        <time>2010-01-01T16:56:02Z</time>
      </trkpt>
      <trkpt lat="50.51470000" lon="9.679920000">
        <ele>0.0000000</ele>
        <time>2010-01-01T16:56:44Z</time>
      </trkpt>
      <trkpt lat="50.51454000" lon="9.679930000">
        <ele>0.0000000</ele>
        <time>2010-01-01T16:56:51Z</time>
      </trkpt>
      <trkpt lat="50.51358000" lon="9.679730000">
        <ele>0.0000000</ele>
        <time>2010-01-01T16:57:29Z</time>
      </trkpt>
      <trkpt lat="50.51355000" lon="9.679720000">
        <ele>0.0000000</ele>
        <time>2010-01-01T16:57:31Z</time>
      </trkpt>
      <trkpt lat="50.51299000" lon="9.679620000">
        <ele>0.0000000</ele>
        <time>2010-01-01T16:57:53Z</time>
      </trkpt>
      <trkpt lat="50.51277000" lon="9.679530000">
        <ele>0.0000000</ele>
        <time>2010-01-01T16:58:02Z</time>
      </trkpt>
      <trkpt lat="50.51277000" lon="9.679510000">
        <ele>0.0000000</ele>
        <time>2010-01-01T16:58:03Z</time>
      </trkpt>
      <trkpt lat="50.51276000" lon="9.679510000">
        <ele>0.0000000</ele>
        <time>2010-01-01T16:58:03Z</time>
      </trkpt>
      <trkpt lat="50.51276000" lon="9.679500000">
        <ele>0.0000000</ele>
        <time>2010-01-01T16:58:03Z</time>
      </trkpt>
      <trkpt lat="50.51275000" lon="9.679490000">
        <ele>0.0000000</ele>
        <time>2010-01-01T16:58:04Z</time>
      </trkpt>
      <trkpt lat="50.51275000" lon="9.679480000">
        <ele>0.0000000</ele>
        <time>2010-01-01T16:58:04Z</time>
      </trkpt>
      <trkpt lat="50.51274000" lon="9.679480000">
        <ele>0.0000000</ele>
        <time>2010-01-01T16:58:05Z</time>
      </trkpt>
      <trkpt lat="50.51273000" lon="9.679470000">
        <ele>0.0000000</ele>
        <time>2010-01-01T16:58:05Z</time>
      </trkpt>
      <trkpt lat="50.51272000" lon="9.679470000">
        <ele>0.0000000</ele>
        <time>2010-01-01T16:58:05Z</time>
      </trkpt>
      <trkpt lat="50.51272000" lon="9.679460000">
        <ele>0.0000000</ele>
        <time>2010-01-01T16:58:06Z</time>
      </trkpt>
      <trkpt lat="50.51266000" lon="9.679460000">
        <ele>0.0000000</ele>
        <time>2010-01-01T16:58:08Z</time>
      </trkpt>
      <trkpt lat="50.51265000" lon="9.679470000">
        <ele>0.0000000</ele>
        <time>2010-01-01T16:58:09Z</time>
      </trkpt>
      <trkpt lat="50.51264000" lon="9.679470000">
        <ele>0.0000000</ele>
        <time>2010-01-01T16:58:09Z</time>
      </trkpt>
      <trkpt lat="50.51264000" lon="9.679480000">
        <ele>0.0000000</ele>
        <time>2010-01-01T16:58:09Z</time>
      </trkpt>
      <trkpt lat="50.51263000" lon="9.679480000">
        <ele>0.0000000</ele>
        <time>2010-01-01T16:58:10Z</time>
      </trkpt>
      <trkpt lat="50.51243000" lon="9.679390000">
        <ele>0.0000000</ele>
        <time>2010-01-01T16:58:18Z</time>
      </trkpt>
      <trkpt lat="50.51234000" lon="9.679330000">
        <ele>0.0000000</ele>
        <time>2010-01-01T16:58:22Z</time>
      </trkpt>
      <trkpt lat="50.51220000" lon="9.679200000">
        <ele>0.0000000</ele>
        <time>2010-01-01T16:58:28Z</time>
      </trkpt>
      <trkpt lat="50.51199000" lon="9.679040000">
        <ele>0.0000000</ele>
        <time>2010-01-01T16:58:38Z</time>
      </trkpt>
      <trkpt lat="50.51182000" lon="9.678880000">
        <ele>0.0000000</ele>
        <time>2010-01-01T16:58:46Z</time>
      </trkpt>
      <trkpt lat="50.51160000" lon="9.678640000">
        <ele>0.0000000</ele>
        <time>2010-01-01T16:58:56Z</time>
      </trkpt>
      <trkpt lat="50.51128000" lon="9.678320000">
        <ele>0.0000000</ele>
        <time>2010-01-01T16:59:12Z</time>
      </trkpt>
      <trkpt lat="50.51108000" lon="9.678160000">
        <ele>0.0000000</ele>
        <time>2010-01-01T16:59:21Z</time>
      </trkpt>
      <trkpt lat="50.51081000" lon="9.677970000">
        <ele>0.0000000</ele>
        <time>2010-01-01T16:59:32Z</time>
      </trkpt>
      <trkpt lat="50.51060000" lon="9.677850000">
        <ele>0.0000000</ele>
        <time>2010-01-01T16:59:41Z</time>
      </trkpt>
      <trkpt lat="50.51037000" lon="9.677750000">
        <ele>0.0000000</ele>
        <time>2010-01-01T16:59:51Z</time>
      </trkpt>
      <trkpt lat="50.51015000" lon="9.677700000">
        <ele>0.0000000</ele>
        <time>2010-01-01T17:00:00Z</time>
      </trkpt>
      <trkpt lat="50.50985000" lon="9.677670000">
        <ele>0.0000000</ele>
        <time>2010-01-01T17:00:12Z</time>
      </trkpt>
      <trkpt lat="50.50961000" lon="9.677680000">
        <ele>0.0000000</ele>
        <time>2010-01-01T17:00:21Z</time>
      </trkpt>
      <trkpt lat="50.50934000" lon="9.677730000">
        <ele>0.0000000</ele>
        <time>2010-01-01T17:00:32Z</time>
      </trkpt>
      <trkpt lat="50.50912000" lon="9.677800000">
        <ele>0.0000000</ele>
        <time>2010-01-01T17:00:41Z</time>
      </trkpt>
      <trkpt lat="50.50898000" lon="9.677860000">
        <ele>0.0000000</ele>
        <time>2010-01-01T17:00:47Z</time>
      </trkpt>
      <trkpt lat="50.50884000" lon="9.677940000">
        <ele>0.0000000</ele>
        <time>2010-01-01T17:00:53Z</time>
      </trkpt>
      <trkpt lat="50.50858000" lon="9.678140000">
        <ele>0.0000000</ele>
        <time>2010-01-01T17:01:05Z</time>
      </trkpt>
      <trkpt lat="50.50822000" lon="9.678490000">
        <ele>0.0000000</ele>
        <time>2010-01-01T17:01:22Z</time>
      </trkpt>
      <trkpt lat="50.50799000" lon="9.678750000">
        <ele>0.0000000</ele>
        <time>2010-01-01T17:01:33Z</time>
      </trkpt>
      <trkpt lat="50.50760000" lon="9.679260000">
        <ele>0.0000000</ele>
        <time>2010-01-01T17:01:53Z</time>
      </trkpt>
      <trkpt lat="50.50744000" lon="9.679490000">
        <ele>0.0000000</ele>
        <time>2010-01-01T17:02:02Z</time>
      </trkpt>
      <trkpt lat="50.50690000" lon="9.680100000">
        <ele>0.0000000</ele>
        <time>2010-01-01T17:02:29Z</time>
      </trkpt>
      <trkpt lat="50.50641000" lon="9.680540000">
        <ele>0.0000000</ele>
        <time>2010-01-01T17:02:51Z</time>
      </trkpt>
      <trkpt lat="50.50547000" lon="9.681240000">
        <ele>0.0000000</ele>
        <time>2010-01-01T17:03:33Z</time>
      </trkpt>
      <trkpt lat="50.50527000" lon="9.681420000">
        <ele>0.0000000</ele>
        <time>2010-01-01T17:03:42Z</time>
      </trkpt>
      <trkpt lat="50.50504000" lon="9.681650000">
        <ele>0.0000000</ele>
        <time>2010-01-01T17:03:53Z</time>
      </trkpt>
      <trkpt lat="50.50486000" lon="9.681870000">
        <ele>0.0000000</ele>
        <time>2010-01-01T17:04:02Z</time>
      </trkpt>
      <trkpt lat="50.50460000" lon="9.682260000">
        <ele>0.0000000</ele>
        <time>2010-01-01T17:04:16Z</time>
      </trkpt>
      <trkpt lat="50.50439000" lon="9.682610000">
        <ele>0.0000000</ele>
        <time>2010-01-01T17:04:29Z</time>
      </trkpt>
      <trkpt lat="50.50392000" lon="9.683530000">
        <ele>0.0000000</ele>
        <time>2010-01-01T17:04:59Z</time>
      </trkpt>
      <trkpt lat="50.50363000" lon="9.684020000">
        <ele>0.0000000</ele>
        <time>2010-01-01T17:05:16Z</time>
      </trkpt>
      <trkpt lat="50.50339000" lon="9.684370000">
        <ele>0.0000000</ele>
        <time>2010-01-01T17:05:29Z</time>
      </trkpt>
      <trkpt lat="50.50273000" lon="9.685210000">
        <ele>0.0000000</ele>
        <time>2010-01-01T17:06:03Z</time>
      </trkpt>
      <trkpt lat="50.50252000" lon="9.685530000">
        <ele>0.0000000</ele>
        <time>2010-01-01T17:06:15Z</time>
      </trkpt>
      <trkpt lat="50.50251000" lon="9.685540000">
        <ele>0.0000000</ele>
        <time>2010-01-01T17:06:15Z</time>
      </trkpt>
      <trkpt lat="50.50236000" lon="9.685760000">
        <ele>0.0000000</ele>
        <time>2010-01-01T17:06:23Z</time>
      </trkpt>
      <trkpt lat="50.50223000" lon="9.686030000">
        <ele>0.0000000</ele>
        <time>2010-01-01T17:06:32Z</time>
      </trkpt>
      <trkpt lat="50.50210000" lon="9.686350000">
        <ele>0.0000000</ele>
        <time>2010-01-01T17:06:42Z</time>
      </trkpt>
      <trkpt lat="50.50199000" lon="9.686690000">
        <ele>0.0000000</ele>
        <time>2010-01-01T17:06:51Z</time>
      </trkpt>
      <trkpt lat="50.50173000" lon="9.687710000">
        <ele>0.0000000</ele>
        <time>2010-01-01T17:07:19Z</time>
      </trkpt>
      <trkpt lat="50.50158000" lon="9.688160000">
        <ele>0.0000000</ele>
        <time>2010-01-01T17:07:32Z</time>
      </trkpt>
      <trkpt lat="50.50143000" lon="9.688490000">
        <ele>0.0000000</ele>
        <time>2010-01-01T17:07:42Z</time>
      </trkpt>
      <trkpt lat="50.50135000" lon="9.688610000">
        <ele>0.0000000</ele>
        <time>2010-01-01T17:07:47Z</time>
      </trkpt>
      <trkpt lat="50.50133000" lon="9.688650000">
        <ele>0.0000000</ele>
        <time>2010-01-01T17:07:48Z</time>
      </trkpt>
      <trkpt lat="50.50105000" lon="9.688970000">
        <ele>0.0000000</ele>
        <time>2010-01-01T17:08:02Z</time>
      </trkpt>
      <trkpt lat="50.50083000" lon="9.689180000">
        <ele>0.0000000</ele>
        <time>2010-01-01T17:08:12Z</time>
      </trkpt>
      <trkpt lat="50.50046000" lon="9.689500000">
        <ele>0.0000000</ele>
        <time>2010-01-01T17:08:29Z</time>
      </trkpt>
      <trkpt lat="50.49968000" lon="9.690240000">
        <ele>0.0000000</ele>
        <time>2010-01-01T17:09:06Z</time>
      </trkpt>
      <trkpt lat="50.49860000" lon="9.691330000">
        <ele>0.0000000</ele>
        <time>2010-01-01T17:09:57Z</time>
      </trkpt>
      <trkpt lat="50.49850000" lon="9.691410000">
        <ele>0.0000000</ele>
        <time>2010-01-01T17:10:02Z</time>
      </trkpt>
      <trkpt lat="50.49838000" lon="9.691540000">
        <ele>0.0000000</ele>
        <time>2010-01-01T17:10:07Z</time>
      </trkpt>
      <trkpt lat="50.49772000" lon="9.692090000">
        <ele>0.0000000</ele>
        <time>2010-01-01T17:10:37Z</time>
      </trkpt>
      <trkpt lat="50.49746000" lon="9.692350000">
        <ele>0.0000000</ele>
        <time>2010-01-01T17:10:50Z</time>
      </trkpt>
      <trkpt lat="50.49740000" lon="9.692450000">
        <ele>0.0000000</ele>
        <time>2010-01-01T17:10:53Z</time>
      </trkpt>
      <trkpt lat="50.49721000" lon="9.692620000">
        <ele>0.0000000</ele>
        <time>2010-01-01T17:11:02Z</time>
      </trkpt>
      <trkpt lat="50.49709000" lon="9.692760000">
        <ele>0.0000000</ele>
        <time>2010-01-01T17:11:08Z</time>
      </trkpt>
      <trkpt lat="50.49659000" lon="9.693260000">
        <ele>0.0000000</ele>
        <time>2010-01-01T17:11:32Z</time>
      </trkpt>
      <trkpt lat="50.49634000" lon="9.693470000">
        <ele>0.0000000</ele>
        <time>2010-01-01T17:11:43Z</time>
      </trkpt>
      <trkpt lat="50.49579000" lon="9.693870000">
        <ele>0.0000000</ele>
        <time>2010-01-01T17:12:07Z</time>
      </trkpt>
      <trkpt lat="50.49556000" lon="9.694060000">
        <ele>0.0000000</ele>
        <time>2010-01-01T17:12:18Z</time>
      </trkpt>
      <trkpt lat="50.49514000" lon="9.694550000">
        <ele>0.0000000</ele>
        <time>2010-01-01T17:12:39Z</time>
      </trkpt>
      <trkpt lat="50.49508000" lon="9.694630000">
        <ele>0.0000000</ele>
        <time>2010-01-01T17:12:42Z</time>
      </trkpt>
      <trkpt lat="50.49469000" lon="9.695050000">
        <ele>0.0000000</ele>
        <time>2010-01-01T17:13:01Z</time>
      </trkpt>
      <trkpt lat="50.49464000" lon="9.695090000">
        <ele>0.0000000</ele>
        <time>2010-01-01T17:13:03Z</time>
      </trkpt>
      <trkpt lat="50.49453000" lon="9.695160000">
        <ele>0.0000000</ele>
        <time>2010-01-01T17:13:08Z</time>
      </trkpt>
    </trkseg>
  </trk>
</gpx>

